# Wetter Temperatur Luftdruck Luftfeuchtigkeit Sichtweite Windgeschwindigkeit Windrichtung Zeit
1 Clear 16 1021 82 10000 3.6 360 06:59 11.07.2020
2 Clear 16 1021 87 10000 2.6 10 06:23 11.07.2020
3 Clear 16 1021 82 10000 3.1 10 05:46 11.07.2020
4 Clear 16 1021 82 10000 3.1 10 05:46 11.07.2020
5 Clear 16 1021 87 10000 1 300 04:59 11.07.2020
6 Clouds 17 1021 87 10000 1 0 04:37 11.07.2020
7 Clouds 17 1021 82 10000 1.5 320 04:19 11.07.2020
8 Clouds 17 1021 82 10000 1.5 290 02:52 11.07.2020
9 Clouds 18 1021 82 10000 1.5 270 01:56 11.07.2020
10 Clouds 18 1021 82 10000 1.5 260 01:21 11.07.2020
11 Clouds 18 1021 82 10000 1 270 00:41 11.07.2020
12 Clouds 18 1021 82 10000 2.1 290 00:23 11.07.2020
13 Clouds 19 1021 82 10000 2.1 310 23:58 10.07.2020
14 Clouds 19 1021 82 10000 2.1 310 23:40 10.07.2020
15 Clouds 19 1021 72 10000 3.6 320 23:21 10.07.2020
16 Clouds 20 1020 72 10000 3.1 320 22:49 10.07.2020
17 Clouds 21 1020 68 10000 4.1 320 22:24 10.07.2020
18 Clouds 21 1020 68 10000 4.1 320 21:59 10.07.2020
19 Clouds 22 1020 64 10000 3.6 300 21:38 10.07.2020
20 Clouds 22 1020 60 10000 4.6 300 21:20 10.07.2020
21 Clouds 24 1019 53 10000 5.1 300 20:43 10.07.2020
22 Clouds 23 1019 60 10000 5.1 300 20:24 10.07.2020
23 Clouds 24 1019 60 10000 5.1 300 19:59 10.07.2020
24 Clouds 24 1019 60 10000 5.7 300 19:41 10.07.2020
25 Clouds 24 1019 56 10000 5.1 310 19:21 10.07.2020
26 Clouds 25 1019 60 10000 5.1 300 18:54 10.07.2020
27 Clouds 25 1019 60 10000 5.1 300 18:36 10.07.2020
28 Clouds 25 1019 60 10000 5.1 300 18:18 10.07.2020
29 Clouds 26 1019 57 10000 5.1 310 17:41 10.07.2020
30 Clouds 26 1019 57 10000 5.1 280 17:22 10.07.2020
31 Clouds 26 1019 57 10000 5.1 280 16:57 10.07.2020
32 Clouds 24 1019 60 10000 4.6 310 16:38 10.07.2020
33 Clouds 25 1019 60 10000 4.1 290 16:18 10.07.2020
34 Clouds 25 1019 64 10000 5.1 300 15:43 10.07.2020
35 Clouds 26 1019 60 10000 4.1 330 15:20 10.07.2020
36 Clouds 25 1019 68 10000 4.6 310 14:43 10.07.2020
37 Clouds 26 1019 64 10000 4.6 280 14:23 10.07.2020
38 Clouds 27 1019 64 10000 4.6 280 13:58 10.07.2020
39 Clouds 25 1019 69 10000 5.1 300 13:40 10.07.2020
40 Clouds 25 1019 64 10000 4.1 290 13:22 10.07.2020
41 Clouds 25 1019 64 10000 4.1 290 12:59 10.07.2020
42 Clouds 25 1019 64 10000 4.6 290 12:40 10.07.2020
43 Clouds 22 1019 64 10000 4.1 280 12:22 10.07.2020
44 Clouds 24 1019 64 10000 3.1 270 11:43 10.07.2020
45 Clouds 22 1019 64 10000 3.1 270 11:22 10.07.2020
46 Clouds 22 1019 64 10000 4.1 270 10:58 10.07.2020
47 Clouds 23 1018 65 0 1.34 249 10:40 10.07.2020
48 Clouds 22 1018 67 0 1.79 257 10:21 10.07.2020
49 Clouds 21 1019 72 10000 3.1 310 09:42 10.07.2020
50 Clouds 19 1019 82 10000 1.5 0 09:23 10.07.2020
51 Clouds 20 1019 82 10000 1.5 0 08:59 10.07.2020
52 Clouds 20 1019 82 10000 1.5 270 08:41 10.07.2020
53 Clouds 20 1019 82 10000 1.5 270 08:23 10.07.2020
54 Clouds 20 1019 82 10000 1.5 0 07:48 10.07.2020
55 Clouds 19 1019 82 10000 1.5 220 07:24 10.07.2020
56 Clouds 19 1019 82 10000 1.5 220 06:58 10.07.2020
57 Clouds 19 1018 82 10000 2.1 260 06:40 10.07.2020
58 Clouds 19 1018 82 10000 2.1 310 05:40 10.07.2020
59 Clouds 19 1019 82 10000 4.1 310 04:29 10.07.2020
60 Clouds 18 1019 88 10000 2.1 280 02:55 10.07.2020
61 Clouds 18 1019 88 10000 2.1 280 02:35 10.07.2020
62 Clear 19 1018 88 10000 3.1 290 00:56 10.07.2020
63 Clear 19 1018 88 10000 3.1 290 00:38 10.07.2020
64 Clear 20 1018 82 10000 3.1 290 00:18 10.07.2020
65 Clear 21 1018 77 10000 3.6 280 23:38 09.07.2020
66 Clear 21 1017 73 10000 3.6 300 23:19 09.07.2020
67 Clear 22 1017 73 10000 3.6 300 22:56 09.07.2020
68 Clear 23 1017 68 10000 3.1 310 22:38 09.07.2020
69 Clear 24 1017 57 10000 4.1 310 22:20 09.07.2020
70 Clear 24 1017 57 10000 4.1 310 21:55 09.07.2020
71 Clear 26 1017 53 10000 4.1 310 21:36 09.07.2020
72 Clear 25 1017 53 10000 4.1 310 21:36 09.07.2020
73 Clear 26 1017 54 10000 4.6 310 21:18 09.07.2020
74 Clear 28 1016 45 10000 5.1 320 20:41 09.07.2020
75 Clear 30 1016 39 10000 4.6 320 20:23 09.07.2020
76 Clear 30 1016 37 10000 5.1 310 19:43 09.07.2020
77 Clear 31 1016 37 10000 5.1 330 19:22 09.07.2020
78 Clear 31 1016 37 10000 5.1 330 18:59 09.07.2020
79 Clear 32 1016 38 10000 5.7 290 18:41 09.07.2020
80 Clear 32 1016 35 10000 5.7 290 18:19 09.07.2020
81 Clear 34 1016 35 10000 5.7 300 17:43 09.07.2020
82 Clear 34 1016 35 10000 5.7 300 17:23 09.07.2020
83 Clear 33 1016 29 10000 4.1 300 16:58 09.07.2020
84 Clear 32 1017 33 10000 2.6 270 16:38 09.07.2020
85 Clear 32 1017 29 10000 3.1 280 16:19 09.07.2020
86 Clear 32 1017 29 10000 3.1 280 15:58 09.07.2020
87 Clear 32 1017 31 10000 2.6 0 15:38 09.07.2020
88 Clear 32 1017 33 10000 2.1 310 15:19 09.07.2020
89 Clear 32 1017 31 10000 2.6 0 14:58 09.07.2020
90 Clear 32 1017 31 10000 2.6 0 14:39 09.07.2020
91 Clear 31 1017 33 10000 2.1 0 14:20 09.07.2020
92 Clear 31 1017 35 10000 2.1 310 13:56 09.07.2020
93 Clear 31 1017 35 10000 2.1 310 13:56 09.07.2020
94 Clear 31 1017 35 10000 2.1 310 13:38 09.07.2020
95 Clear 32 1018 37 10000 2.1 300 13:18 09.07.2020
96 Clear 31 1017 45 10000 2.6 280 12:41 09.07.2020
97 Clear 28 1018 48 10000 2.6 280 12:23 09.07.2020
98 Clear 28 1018 48 10000 2.6 280 11:57 09.07.2020
99 Clear 28 1018 44 10000 2.1 320 11:38 09.07.2020
100 Clear 27 1018 54 10000 2.1 260 11:18 09.07.2020
101 Clear 27 1018 54 10000 2.1 260 10:55 09.07.2020
102 Clear 26 1018 57 10000 1.5 220 10:37 09.07.2020
103 Clear 25 1017 53 10000 1.21 302 10:19 09.07.2020
104 Clear 23 1017 60 10000 1 0 09:42 09.07.2020
105 Clear 22 1017 68 10000 1 0 09:22 09.07.2020
106 Clear 20 1017 77 10000 0.46 355 08:49 09.07.2020
107 Clear 20 1017 77 10000 0.67 355 08:26 09.07.2020
108 Clear 17 1016 93 10000 1 0 07:50 09.07.2020
109 Clear 17 1016 93 10000 1 0 07:31 09.07.2020
110 Clear 17 1016 93 10000 0.5 10 06:59 09.07.2020
111 Clear 18 1016 88 10000 1.64 31 06:20 09.07.2020
112 Clear 18 1016 88 10000 1 0 05:50 09.07.2020
113 Clear 18 1017 88 10000 0.5 0 04:29 09.07.2020
114 Clear 20 1017 72 10000 2.1 360 02:47 09.07.2020
115 Clear 21 1017 68 10000 1 0 01:55 09.07.2020
116 Clear 21 1017 68 10000 1.5 0 00:59 09.07.2020
117 Clear 22 1017 64 10000 1.5 0 00:38 09.07.2020
118 Clear 23 1017 60 10000 3.6 360 00:19 09.07.2020
119 Clear 23 1017 60 10000 3.6 350 23:43 08.07.2020
120 Clear 24 1017 53 10000 3.1 350 23:24 08.07.2020
121 Clear 25 1016 44 10000 3.1 10 22:55 08.07.2020
122 Clear 26 1016 39 10000 3.1 360 22:36 08.07.2020
123 Clear 27 1016 39 10000 3.1 360 22:18 08.07.2020
124 Clear 28 1016 37 10000 4.1 10 21:39 08.07.2020
125 Clear 29 1016 32 10000 4.1 10 21:21 08.07.2020
126 Clear 29 1016 32 10000 4.1 10 20:59 08.07.2020
127 Clear 30 1015 27 10000 4.6 30 20:41 08.07.2020
128 Clear 30 1015 27 10000 4.6 30 20:23 08.07.2020
129 Clear 31 1016 25 10000 4.6 30 19:43 08.07.2020
130 Clear 31 1016 27 10000 4.6 30 19:25 08.07.2020
131 Clear 30 1016 27 10000 4.6 30 18:59 08.07.2020
132 Clear 30 1016 25 10000 4.6 30 18:40 08.07.2020
133 Clear 31 1017 23 10000 4.1 30 18:21 08.07.2020
134 Clear 31 1017 23 10000 4.6 20 17:56 08.07.2020
135 Clear 31 1017 23 10000 4.6 20 17:38 08.07.2020
136 Clear 31 1017 27 10000 4.1 30 17:20 08.07.2020
137 Clear 31 1017 27 10000 4.1 30 16:55 08.07.2020
138 Clear 30 1017 27 10000 3.6 30 16:36 08.07.2020
139 Clear 30 1018 27 10000 2.1 10 16:18 08.07.2020
140 Clear 29 1018 26 10000 2.6 0 15:56 08.07.2020
141 Clear 29 1018 26 10000 2.6 0 15:37 08.07.2020
142 Clear 29 1018 28 10000 4.6 50 15:18 08.07.2020
143 Clear 29 1018 30 10000 2.6 30 14:42 08.07.2020
144 Clear 28 1019 32 10000 3.6 40 14:20 08.07.2020
145 Clear 27 1019 32 10000 4.1 50 13:45 08.07.2020
146 Clear 27 1019 32 10000 4.6 30 13:27 08.07.2020
147 Clear 29 1019 32 10000 4.6 30 12:57 08.07.2020
148 Clear 29 1019 30 10000 3.1 60 12:38 08.07.2020
149 Clear 26 1019 34 10000 2.6 70 12:19 08.07.2020
150 Clear 25 1019 38 10000 1.5 80 11:39 08.07.2020
151 Clear 25 1019 41 10000 2.6 80 11:20 08.07.2020
152 Clear 24 1019 41 10000 2.6 80 10:55 08.07.2020
153 Clear 23 1019 46 10000 3.1 50 10:36 08.07.2020
154 Clear 22 1019 52 10000 3.1 70 10:18 08.07.2020
155 Clear 21 1019 56 10000 3.1 60 09:41 08.07.2020
156 Clear 19 1018 59 10000 2.6 20 09:21 08.07.2020
157 Clear 18 1018 63 10000 2.1 30 08:43 08.07.2020
158 Clear 16 1018 72 10000 1.5 20 08:24 08.07.2020
159 Clear 14 1018 87 10000 1.5 20 07:47 08.07.2020
160 Clear 13 1018 93 10000 1.81 53 07:24 08.07.2020
161 Clear 13 1018 87 10000 0.5 340 06:55 08.07.2020
162 Clear 14 1018 87 10000 0.5 340 06:35 08.07.2020
163 Clear 15 1018 82 10000 0.5 0 05:55 08.07.2020
164 Clear 15 1018 87 10000 2.1 10 05:20 08.07.2020
165 Clear 15 1018 87 10000 1.5 360 04:36 08.07.2020
166 Clear 16 1019 82 10000 1 340 02:42 08.07.2020
167 Clouds 17 1019 72 10000 1 0 01:46 08.07.2020
168 Clouds 17 1020 72 10000 1 0 01:23 08.07.2020
169 Clouds 18 1020 68 10000 1.5 0 00:26 08.07.2020
170 Clouds 18 1020 68 10000 1.5 320 23:56 07.07.2020
171 Clouds 19 1019 63 10000 1.5 330 23:37 07.07.2020
172 Clouds 20 1019 68 10000 3.1 330 23:19 07.07.2020
173 Clouds 21 1019 64 10000 4.6 340 22:43 07.07.2020
174 Clouds 22 1019 60 10000 4.6 340 22:22 07.07.2020
175 Clouds 22 1019 60 10000 4.6 340 21:59 07.07.2020
176 Clouds 23 1019 49 10000 5.1 350 21:39 07.07.2020
177 Clouds 24 1019 38 10000 4.6 350 21:21 07.07.2020
178 Clouds 25 1019 36 10000 4.1 360 20:57 07.07.2020
179 Clouds 25 1019 36 10000 4.1 360 20:38 07.07.2020
180 Clouds 25 1019 36 10000 4.6 10 20:19 07.07.2020
181 Clouds 26 1019 33 10000 4.1 10 19:40 07.07.2020
182 Clouds 26 1019 34 10000 4.1 10 19:21 07.07.2020
183 Clouds 27 1019 34 10000 4.6 30 18:56 07.07.2020
184 Clouds 26 1019 34 10000 4.6 30 18:38 07.07.2020
185 Clouds 26 1019 34 10000 2.6 10 18:19 07.07.2020
186 Clouds 26 1019 34 10000 2.6 10 17:57 07.07.2020
187 Clouds 26 1020 34 10000 3.6 20 17:38 07.07.2020
188 Clouds 26 1020 34 10000 2.6 0 17:20 07.07.2020
189 Clouds 25 1020 36 10000 3.6 30 16:43 07.07.2020
190 Clouds 25 1020 36 10000 2.6 0 16:23 07.07.2020
191 Clouds 25 1020 36 10000 2.6 0 15:57 07.07.2020
192 Clouds 25 1020 36 10000 4.6 30 15:37 07.07.2020
193 Clouds 25 1020 36 10000 4.6 30 15:37 07.07.2020
194 Clouds 25 1021 36 10000 3.1 30 15:19 07.07.2020
195 Clouds 24 1021 38 10000 3.6 50 14:46 07.07.2020
196 Clouds 24 1021 38 10000 3.6 50 14:24 07.07.2020
197 Clouds 24 1021 36 10000 2.6 0 13:46 07.07.2020
198 Clouds 24 1022 38 10000 4.6 50 13:21 07.07.2020
199 Clouds 24 1022 38 10000 3.1 0 12:57 07.07.2020
200 Clouds 24 1022 38 10000 3.1 0 12:39 07.07.2020
201 Clouds 23 1022 40 10000 2.6 50 12:21 07.07.2020
202 Clouds 22 1022 43 10000 2.6 40 11:46 07.07.2020
203 Clouds 22 1022 43 10000 2.6 40 11:24 07.07.2020
204 Clouds 22 1022 49 10000 2.1 60 10:58 07.07.2020
205 Clouds 21 1022 52 10000 2.6 50 10:40 07.07.2020
206 Clouds 20 1022 55 10000 2.6 50 10:21 07.07.2020
207 Clouds 19 1022 55 10000 2.6 50 09:55 07.07.2020
208 Clear 18 1022 59 10000 3.1 40 09:37 07.07.2020
209 Clear 17 1022 63 10000 2.6 30 09:18 07.07.2020
210 Clear 16 1022 72 10000 2.1 20 08:40 07.07.2020
211 Clouds 15 1022 82 10000 2.1 30 08:20 07.07.2020
212 Clouds 14 1022 82 10000 2.1 30 07:39 07.07.2020
213 Clouds 13 1022 87 10000 2.1 40 07:20 07.07.2020
214 Fog 13 1022 93 10000 1.5 30 06:48 07.07.2020
215 Clouds 14 1022 87 10000 2.1 30 06:27 07.07.2020
216 Clouds 14 1022 87 10000 2.1 30 05:47 07.07.2020
217 Fog 14 1022 93 10000 1.5 10 04:59 07.07.2020
218 Fog 14 1022 93 10000 1.5 10 04:36 07.07.2020
219 Fog 14 1023 93 10000 1 350 03:35 07.07.2020
220 Clear 15 1023 87 10000 1 290 02:18 07.07.2020
221 Clear 16 1023 82 10000 1.5 320 01:21 07.07.2020
222 Clear 16 1024 77 10000 2.1 320 00:42 07.07.2020
223 Clear 16 1024 77 10000 2.6 330 00:23 07.07.2020
224 Clear 16 1024 77 10000 2.6 330 00:22 07.07.2020
225 Clear 17 1024 72 10000 3.1 330 23:44 06.07.2020
226 Clear 17 1024 72 10000 3.1 330 23:26 06.07.2020
227 Clear 18 1023 68 10000 3.1 330 22:59 06.07.2020
228 Clear 18 1023 68 10000 3.1 330 22:40 06.07.2020
229 Clear 19 1023 63 10000 3.1 320 22:19 06.07.2020
230 Clear 21 1023 56 10000 4.6 310 21:57 06.07.2020
231 Clear 21 1023 56 10000 4.6 310 21:37 06.07.2020
232 Clear 22 1023 53 10000 4.6 320 21:19 06.07.2020
233 Clear 22 1023 53 10000 4.6 320 21:19 06.07.2020
234 Clear 22 1023 53 10000 4.6 320 20:55 06.07.2020
235 Clear 23 1023 46 10000 4.6 320 20:36 06.07.2020
236 Clear 24 1023 43 10000 3.6 330 20:18 06.07.2020
237 Clear 23 1023 43 10000 4.6 320 19:42 06.07.2020
238 Clear 24 1023 46 10000 4.1 350 19:23 06.07.2020
239 Clear 23 1023 46 10000 4.1 350 18:59 06.07.2020
240 Clear 24 1023 44 10000 5.7 350 18:59 06.07.2020
241 Clear 24 1023 44 10000 5.7 350 18:41 06.07.2020
242 Clear 24 1023 44 10000 5.7 350 18:41 06.07.2020
243 Clear 25 1023 41 10000 5.1 340 18:22 06.07.2020
244 Clear 25 1023 41 10000 4.6 350 17:57 06.07.2020
245 Clear 26 1023 41 10000 4.6 350 17:38 06.07.2020
246 Clear 26 1023 41 10000 3.6 0 17:19 06.07.2020
247 Clear 26 1023 44 10000 4.1 330 16:43 06.07.2020
248 Clear 26 1023 44 10000 4.1 360 16:24 06.07.2020
249 Clear 26 1023 44 10000 4.1 360 15:57 06.07.2020
250 Clouds 24 1023 44 10000 4.6 330 15:38 06.07.2020
251 Clouds 23 1023 46 10000 4.1 350 15:19 06.07.2020
252 Clouds 22 1024 53 10000 5.1 360 14:55 06.07.2020
253 Clouds 22 1024 53 10000 5.1 360 14:36 06.07.2020
254 Clouds 22 1024 53 10000 4.1 360 14:18 06.07.2020
255 Clouds 22 1024 56 10000 5.1 360 13:40 06.07.2020
256 Clouds 21 1024 60 10000 5.1 330 13:21 06.07.2020
257 Clouds 22 1024 64 10000 4.17 353 12:45 06.07.2020
258 Clouds 22 1024 64 10000 4.6 340 12:20 06.07.2020
259 Clouds 22 1024 64 10000 4.6 340 11:59 06.07.2020
260 Clouds 21 1024 60 10000 4.6 330 11:41 06.07.2020
261 Clouds 20 1024 63 10000 3.6 330 11:23 06.07.2020
262 Clouds 20 1024 63 10000 3.6 330 10:59 06.07.2020
263 Clouds 20 1023 63 10000 5.1 330 10:40 06.07.2020
264 Clouds 19 1024 68 10000 5.7 360 10:19 06.07.2020
265 Clouds 18 1023 72 10000 4.6 350 09:46 06.07.2020
266 Clouds 17 1023 77 10000 4.1 350 09:22 06.07.2020
267 Clouds 17 1023 77 10000 4.1 350 08:59 06.07.2020
268 Clouds 17 1023 88 10000 4.6 350 08:40 06.07.2020
269 Clouds 17 1023 93 10000 3.6 340 08:21 06.07.2020
270 Clouds 17 1022 93 10000 3.1 340 07:48 06.07.2020
271 Clouds 17 1022 93 10000 3.1 340 07:29 06.07.2020
272 Drizzle 18 1022 93 3800 2.1 310 06:55 06.07.2020
273 Drizzle 18 1022 93 3800 2.1 310 06:36 06.07.2020
274 Clouds 18 1022 93 10000 2.1 300 05:47 06.07.2020
275 Clouds 18 1022 93 10000 2.1 300 05:26 06.07.2020
276 Rain 18 1022 93 4100 2.6 310 03:53 06.07.2020
277 Drizzle 18 1023 93 5000 2.6 310 02:29 06.07.2020
278 Clouds 18 1023 93 10000 3.1 310 01:45 06.07.2020
279 Clouds 19 1023 88 10000 3.1 310 00:44 06.07.2020
280 Drizzle 19 1023 93 10000 3.1 310 00:22 06.07.2020
281 Clouds 20 1022 88 10000 4.1 310 23:54 05.07.2020
282 Clouds 21 1022 88 10000 4.1 310 23:36 05.07.2020
283 Clouds 21 1022 88 10000 3.6 310 23:18 05.07.2020
284 Clouds 21 1022 83 10000 4.1 310 22:41 05.07.2020
285 Clouds 21 1022 83 10000 4.1 310 22:41 05.07.2020
286 Clouds 22 1022 83 10000 4.1 320 22:20 05.07.2020
287 Clouds 22 1022 83 10000 4.1 320 21:58 05.07.2020
288 Clouds 23 1021 78 10000 4.1 310 21:40 05.07.2020
289 Clouds 23 1021 78 10000 4.1 310 21:40 05.07.2020
290 Clouds 24 1021 73 10000 3.1 310 21:19 05.07.2020
291 Clouds 24 1021 73 10000 3.1 310 20:58 05.07.2020
292 Clouds 24 1021 73 10000 3.1 310 20:58 05.07.2020
293 Clouds 25 1021 69 10000 4.1 320 20:39 05.07.2020
294 Clouds 26 1021 65 10000 3.6 320 20:21 05.07.2020
295 Clouds 26 1021 65 10000 4.1 290 19:55 05.07.2020
296 Clouds 26 1021 65 10000 4.1 290 19:36 05.07.2020
297 Clouds 26 1022 65 10000 4.1 300 19:18 05.07.2020
298 Clouds 27 1022 65 10000 4.6 290 18:41 05.07.2020
299 Clouds 27 1022 61 10000 5.7 300 18:21 05.07.2020
300 Clouds 28 1022 57 10000 5.7 290 17:56 05.07.2020
301 Clouds 29 1022 57 10000 5.7 290 17:37 05.07.2020
302 Clouds 29 1022 57 10000 4.6 300 17:18 05.07.2020
303 Clouds 27 1022 54 10000 4.6 320 16:43 05.07.2020
304 Clouds 29 1022 51 10000 3.1 280 16:24 05.07.2020
305 Clouds 29 1022 51 10000 3.1 280 15:55 05.07.2020
306 Clouds 28 1022 51 10000 3.1 260 15:37 05.07.2020
307 Clouds 27 1022 54 10000 3.6 300 15:18 05.07.2020
308 Clouds 27 1022 51 10000 2.6 280 14:41 05.07.2020
309 Clouds 25 1023 57 10000 3.1 270 14:22 05.07.2020
310 Clouds 28 1023 57 10000 3.1 270 13:42 05.07.2020
311 Clouds 27 1023 61 10000 2.6 290 13:24 05.07.2020
312 Clouds 25 1023 60 10000 2.1 270 12:56 05.07.2020
313 Clouds 25 1023 60 10000 2.1 270 12:38 05.07.2020
314 Clouds 25 1023 64 10000 3.1 220 12:19 05.07.2020
315 Clouds 24 1023 64 10000 1.5 0 11:40 05.07.2020
316 Clouds 23 1023 64 10000 1.5 250 11:21 05.07.2020
317 Clouds 23 1023 64 10000 1.5 250 10:58 05.07.2020
318 Clouds 22 1023 73 10000 3.1 230 10:39 05.07.2020
319 Clouds 21 1023 77 10000 2.1 240 10:19 05.07.2020
320 Clouds 20 1023 82 10000 1 0 09:56 05.07.2020
321 Clouds 20 1023 82 10000 1 0 09:37 05.07.2020
322 Clouds 18 1023 88 10000 1 0 09:19 05.07.2020
323 Clouds 17 1023 93 10000 1 180 08:45 05.07.2020
324 Clouds 17 1023 93 10000 1 180 08:27 05.07.2020
325 Clouds 15 1023 93 10000 1.5 180 07:47 05.07.2020
326 Clouds 15 1023 93 10000 1.24 213 07:29 05.07.2020
327 Clouds 15 1023 93 10000 1 220 06:50 05.07.2020
328 Clouds 15 1023 87 10000 1 230 05:29 05.07.2020
329 Clouds 17 1024 82 10000 1.5 280 03:24 05.07.2020
330 Clouds 17 1024 82 10000 1.5 250 02:41 05.07.2020
331 Clouds 17 1024 82 10000 1 260 01:59 05.07.2020
332 Clouds 17 1024 82 10000 1.5 230 01:32 05.07.2020
333 Clouds 18 1025 77 10000 1.5 250 00:57 05.07.2020
334 Clouds 18 1025 77 10000 1.5 250 00:38 05.07.2020
335 Clouds 18 1024 77 10000 1.5 240 00:19 05.07.2020
336 Clouds 19 1025 72 10000 1.5 270 23:41 04.07.2020
337 Clouds 19 1025 72 10000 1.5 270 23:23 04.07.2020
338 Clouds 19 1024 72 10000 1.5 270 22:54 04.07.2020
339 Clouds 20 1024 72 10000 2.1 290 22:36 04.07.2020
340 Clouds 20 1024 68 10000 3.1 300 22:18 04.07.2020
341 Clouds 21 1024 60 10000 3.1 300 21:40 04.07.2020
342 Clouds 22 1024 56 10000 4.1 290 21:22 04.07.2020
343 Clouds 23 1024 56 10000 4.1 290 20:55 04.07.2020
344 Clouds 23 1024 49 10000 4.1 290 20:36 04.07.2020
345 Clouds 24 1023 49 10000 4.1 280 20:18 04.07.2020
346 Clouds 24 1024 47 10000 4.1 280 19:42 04.07.2020
347 Clouds 24 1024 50 10000 4.1 260 19:21 04.07.2020
348 Clouds 24 1024 47 10000 4.6 280 18:55 04.07.2020
349 Clouds 24 1024 47 10000 4.6 280 18:37 04.07.2020
350 Clouds 26 1024 50 10000 4.6 260 18:18 04.07.2020
351 Clouds 26 1024 50 10000 4.6 270 17:42 04.07.2020
352 Clouds 26 1024 50 10000 4.6 270 17:42 04.07.2020
353 Clear 26 1024 50 10000 5.1 250 17:22 04.07.2020
354 Clouds 27 1024 50 10000 5.1 240 16:56 04.07.2020
355 Clouds 26 1024 50 10000 5.1 240 16:37 04.07.2020
356 Clouds 26 1024 50 10000 5.1 240 16:37 04.07.2020
357 Clouds 26 1024 50 10000 5.1 240 16:37 04.07.2020
358 Clouds 26 1024 50 10000 3.6 270 16:18 04.07.2020
359 Clouds 26 1024 50 10000 4.6 280 15:45 04.07.2020
360 Clouds 24 1024 50 10000 4.6 280 15:26 04.07.2020
361 Clouds 24 1024 47 10000 3.1 240 14:58 04.07.2020
362 Clouds 23 1025 49 10000 4.1 240 14:37 04.07.2020
363 Clouds 23 1025 49 10000 3.6 230 14:19 04.07.2020
364 Clouds 23 1025 49 10000 3.6 230 14:19 04.07.2020
365 Clouds 23 1025 49 10000 3.6 230 13:56 04.07.2020
366 Clouds 26 1025 53 10000 4.6 250 13:36 04.07.2020
367 Clouds 24 1025 56 10000 4.6 240 13:18 04.07.2020
368 Clouds 22 1025 60 10000 3.1 290 12:40 04.07.2020
369 Clouds 22 1025 56 10000 3.1 310 12:20 04.07.2020
370 Clouds 21 1025 60 10000 3.1 270 11:45 04.07.2020
371 Clouds 21 1025 60 10000 3.1 270 11:25 04.07.2020
372 Clouds 21 1025 64 10000 2.6 270 10:57 04.07.2020
373 Clouds 21 1025 63 10000 2.6 270 10:38 04.07.2020
374 Clear 19 1025 72 10000 2.1 230 10:19 04.07.2020
375 Clear 19 1025 77 10000 2.1 230 09:54 04.07.2020
376 Clear 19 1025 77 10000 2.1 230 09:36 04.07.2020
377 Clear 17 1025 87 10000 2.1 240 09:18 04.07.2020
378 Clouds 15 1024 93 10000 0.5 0 08:43 04.07.2020
379 Clouds 14 1024 93 10000 1 240 08:24 04.07.2020
380 Clouds 12 1024 100 10000 0.5 210 07:42 04.07.2020
381 Clouds 11 1024 93 10000 1.29 201 07:20 04.07.2020
382 Clouds 11 1024 93 10000 1.29 201 06:40 04.07.2020
383 Fog 11 1024 93 10000 1.5 250 06:20 04.07.2020
384 Clouds 12 1024 93 10000 1 260 05:31 04.07.2020
385 Clouds 12 1024 93 10000 0.45 186 04:22 04.07.2020
386 Clouds 13 1025 93 10000 1.5 230 02:45 04.07.2020
387 Clouds 14 1025 93 10000 1 250 01:42 04.07.2020
388 Clouds 15 1025 87 10000 0.5 260 00:59 04.07.2020
389 Clouds 15 1025 82 10000 1 280 00:40 04.07.2020
390 Clear 16 1025 77 10000 1.5 300 00:21 04.07.2020
391 Clear 16 1025 77 10000 2.1 310 23:39 03.07.2020
392 Clear 17 1024 72 10000 2.6 310 23:18 03.07.2020
393 Clear 17 1024 72 10000 2.6 310 23:18 03.07.2020
394 Clear 17 1024 72 10000 2.6 310 23:18 03.07.2020
395 Clear 18 1024 68 10000 3.1 320 22:42 03.07.2020
396 Clear 19 1024 59 10000 3.1 320 22:24 03.07.2020
397 Clear 19 1024 59 10000 3.1 320 21:59 03.07.2020
398 Clear 20 1024 56 10000 3.6 320 21:38 03.07.2020
399 Clear 21 1023 52 10000 4.6 320 21:19 03.07.2020
400 Clear 22 1023 49 10000 4.6 310 20:43 03.07.2020
401 Clouds 22 1023 46 10000 4.1 330 20:25 03.07.2020
402 Clouds 22 1023 46 10000 4.1 330 19:57 03.07.2020
403 Clouds 22 1023 53 10000 4.6 330 19:39 03.07.2020
404 Clouds 22 1023 49 10000 4.1 310 19:18 03.07.2020
405 Clouds 22 1023 56 10000 3.6 320 18:45 03.07.2020
406 Clouds 22 1023 56 10000 3.1 320 18:23 03.07.2020
407 Clouds 22 1024 56 10000 3.6 300 17:56 03.07.2020
408 Clouds 22 1024 56 10000 3.6 300 17:38 03.07.2020
409 Clouds 23 1024 49 10000 2.1 340 17:19 03.07.2020
410 Clouds 23 1024 49 10000 2.1 340 17:19 03.07.2020
411 Clouds 22 1024 56 10000 3.1 310 16:40 03.07.2020
412 Clouds 23 1024 56 10000 4.6 320 16:20 03.07.2020
413 Clouds 23 1024 56 10000 3.1 290 15:44 03.07.2020
414 Clouds 22 1024 49 10000 2.6 0 15:24 03.07.2020
415 Clouds 22 1024 49 10000 2.1 310 14:57 03.07.2020
416 Clouds 24 1024 49 10000 2.1 310 14:38 03.07.2020
417 Clouds 22 1024 56 10000 2.1 310 14:19 03.07.2020
418 Clouds 21 1024 60 10000 2.1 300 13:43 03.07.2020
419 Clouds 20 1024 59 10000 3.1 10 13:25 03.07.2020
420 Clouds 21 1024 52 10000 2.1 0 12:45 03.07.2020
421 Rain 21 1024 56 10000 2.1 0 12:24 03.07.2020
422 Rain 21 1024 56 10000 2.1 0 11:58 03.07.2020
423 Clouds 19 1024 59 10000 2.1 300 11:40 03.07.2020
424 Rain 19 1024 72 10000 4.6 320 11:21 03.07.2020
425 Rain 20 1024 72 10000 4.6 320 10:55 03.07.2020
426 Clouds 20 1024 63 10000 2.1 320 10:37 03.07.2020
427 Clouds 19 1024 68 10000 1 0 10:18 03.07.2020
428 Clouds 18 1023 72 10000 0.61 11 09:42 03.07.2020
429 Clouds 17 1023 77 10000 0.14 133 09:22 03.07.2020
430 Clouds 17 1023 77 10000 0.14 133 08:59 03.07.2020
431 Clear 16 1023 82 10000 0.21 166 08:39 03.07.2020
432 Clear 14 1023 87 10000 0.21 166 08:18 03.07.2020
433 Clouds 13 1023 87 10000 0.5 0 07:47 03.07.2020
434 Clouds 12 1023 93 10000 1 260 07:23 03.07.2020
435 Clouds 12 1023 93 10000 0.42 190 06:47 03.07.2020
436 Clear 12 1022 93 10000 0.4 226 05:56 03.07.2020
437 Clear 13 1022 87 10000 2.1 230 04:35 03.07.2020
438 Clouds 13 1023 87 10000 1.04 295 02:57 03.07.2020
439 Clouds 14 1023 82 10000 1.04 295 02:36 03.07.2020
440 Clouds 14 1023 82 10000 1.5 280 01:54 03.07.2020
441 Clear 15 1022 82 10000 2.6 280 01:23 03.07.2020
442 Clear 15 1022 82 10000 2.1 270 00:44 03.07.2020
443 Clear 16 1022 77 10000 2.1 280 00:20 03.07.2020
444 Clear 16 1022 77 10000 2.6 280 23:43 02.07.2020
445 Clear 17 1021 72 10000 3.1 270 23:20 02.07.2020
446 Clear 17 1021 72 10000 3.1 270 22:57 02.07.2020
447 Clear 18 1021 67 10000 2.1 310 22:38 02.07.2020
448 Clear 17 1021 67 10000 2.1 310 22:38 02.07.2020
449 Clear 18 1021 68 10000 3.1 310 22:19 02.07.2020
450 Clouds 20 1021 56 10000 4.1 320 21:42 02.07.2020
451 Clouds 20 1020 56 10000 4.6 310 21:21 02.07.2020
452 Clouds 20 1020 56 10000 4.6 310 20:59 02.07.2020
453 Clouds 21 1020 56 10000 4.6 300 20:41 02.07.2020
454 Clouds 22 1020 49 10000 5.1 300 20:20 02.07.2020
455 Clouds 22 1020 49 10000 5.1 300 19:56 02.07.2020
456 Clouds 22 1020 56 10000 5.1 330 19:38 02.07.2020
457 Clouds 22 1020 56 10000 5.1 330 19:38 02.07.2020
458 Clouds 22 1020 46 10000 5.7 300 19:19 02.07.2020
459 Clouds 21 1019 60 10000 4.1 270 18:42 02.07.2020
460 Clouds 22 1020 60 10000 4.1 300 18:22 02.07.2020
461 Clouds 22 1020 60 10000 4.1 300 17:58 02.07.2020
462 Clouds 22 1019 60 10000 5.1 270 17:39 02.07.2020
463 Clouds 22 1019 56 10000 5.1 270 17:19 02.07.2020
464 Clouds 22 1019 56 10000 5.1 270 16:55 02.07.2020
465 Clouds 23 1019 56 10000 5.1 270 16:37 02.07.2020
466 Clouds 23 1019 53 10000 5.7 280 16:18 02.07.2020
467 Clouds 23 1019 52 10000 5.1 280 15:39 02.07.2020
468 Clouds 22 1019 53 10000 4.6 270 15:21 02.07.2020
469 Clouds 22 1019 60 10000 4.1 260 14:46 02.07.2020
470 Clouds 21 1019 60 10000 4.1 260 14:25 02.07.2020
471 Clouds 21 1019 56 10000 3.6 280 13:57 02.07.2020
472 Clouds 21 1019 60 10000 4.1 280 13:39 02.07.2020
473 Clouds 21 1019 64 10000 3.6 270 13:20 02.07.2020
474 Clouds 21 1018 64 10000 3.6 290 12:57 02.07.2020
475 Clouds 21 1018 64 10000 3.6 290 12:38 02.07.2020
476 Clouds 20 1018 64 10000 4.1 260 12:19 02.07.2020
477 Clouds 20 1018 72 10000 3.6 280 11:42 02.07.2020
478 Clouds 19 1018 72 10000 1.5 250 11:24 02.07.2020
479 Clouds 19 1018 77 10000 1.5 0 10:47 02.07.2020
480 Clouds 19 1018 77 10000 1.5 0 10:27 02.07.2020
481 Clouds 18 1018 77 10000 2.1 250 09:57 02.07.2020
482 Clouds 18 1018 77 10000 1.5 270 09:37 02.07.2020
483 Clouds 18 1017 77 10000 1.5 260 09:19 02.07.2020
484 Clouds 18 1017 77 10000 1.5 290 08:43 02.07.2020
485 Clouds 18 1017 77 10000 1.5 0 08:24 02.07.2020
486 Clouds 18 1017 77 10000 2.6 290 07:55 02.07.2020
487 Clouds 18 1017 77 10000 2.6 290 07:37 02.07.2020
488 Clouds 18 1016 77 10000 2.6 290 07:18 02.07.2020
489 Clouds 18 1016 77 10000 1.5 280 06:40 02.07.2020
490 Clouds 18 1016 82 10000 1.5 260 06:19 02.07.2020
491 Clouds 18 1016 82 10000 1.5 260 05:43 02.07.2020
492 Clouds 18 1017 82 10000 2.1 210 03:36 02.07.2020
493 Clouds 18 1017 82 10000 1.5 250 02:59 02.07.2020
494 Clouds 19 1017 82 10000 2.1 250 00:47 02.07.2020
495 Clouds 19 1017 82 10000 1.5 260 00:23 02.07.2020
496 Clouds 19 1017 77 10000 2.1 260 23:46 01.07.2020
497 Clouds 19 1017 77 10000 2.1 260 23:27 01.07.2020
498 Clouds 20 1016 82 10000 3.6 280 22:57 01.07.2020
499 Clouds 20 1016 82 10000 2.6 260 22:38 01.07.2020
500 Clouds 21 1015 77 10000 3.6 280 22:19 01.07.2020
501 Clouds 21 1015 77 10000 3.6 280 21:58 01.07.2020
502 Clouds 21 1015 82 10000 3.1 290 21:40 01.07.2020
503 Clouds 21 1015 82 10000 4.1 300 21:21 01.07.2020
504 Clouds 21 1015 82 10000 4.1 300 20:54 01.07.2020
505 Clouds 22 1015 77 10000 5.1 300 20:36 01.07.2020
506 Clouds 23 1015 73 10000 5.7 280 20:18 01.07.2020
507 Clouds 23 1015 69 10000 5.7 280 19:42 01.07.2020
508 Clouds 24 1015 69 10000 5.1 270 19:23 01.07.2020
509 Clouds 24 1015 69 10000 5.1 270 18:58 01.07.2020
510 Clouds 25 1015 64 10000 5.7 270 18:40 01.07.2020
511 Clouds 24 1015 69 10000 5.1 280 18:21 01.07.2020
512 Clouds 25 1015 64 10000 5.1 290 17:55 01.07.2020
513 Clouds 25 1015 64 10000 5.1 290 17:55 01.07.2020
514 Clouds 25 1015 64 10000 5.1 290 17:55 01.07.2020
515 Clouds 25 1015 64 10000 5.1 290 17:37 01.07.2020
516 Clouds 24 1015 64 10000 4.1 280 17:18 01.07.2020
517 Clouds 24 1015 69 10000 5.1 280 16:42 01.07.2020
518 Clouds 24 1015 69 10000 5.1 280 16:42 01.07.2020
519 Clouds 24 1014 64 10000 5.7 300 16:23 01.07.2020
520 Clouds 24 1014 64 10000 4.1 300 15:43 01.07.2020
521 Clouds 24 1014 64 10000 4.1 300 15:23 01.07.2020
522 Clouds 24 1014 69 10000 4.6 310 14:58 01.07.2020
523 Clouds 25 1014 64 10000 2.1 280 14:38 01.07.2020
524 Clouds 25 1014 64 10000 2.6 300 14:20 01.07.2020
525 Clouds 25 1013 64 10000 3.6 300 13:54 01.07.2020
526 Clouds 25 1013 64 10000 3.6 300 13:36 01.07.2020
527 Clouds 26 1013 64 10000 3.1 280 13:18 01.07.2020
528 Clouds 24 1013 73 10000 3.1 270 12:41 01.07.2020
529 Thunderstorm 24 1013 69 10000 3.6 270 12:22 01.07.2020
530 Thunderstorm 24 1013 69 10000 3.6 270 11:58 01.07.2020
531 Clear 24 1013 64 10000 2.6 290 11:40 01.07.2020
532 Clouds 22 1012 73 10000 2.1 310 11:21 01.07.2020
533 Clouds 23 1013 73 10000 2.1 300 10:43 01.07.2020
534 Rain 22 1013 77 10000 1.5 350 10:24 01.07.2020
535 Rain 21 1013 77 10000 1.5 350 09:59 01.07.2020
536 Rain 21 1013 77 10000 1.5 350 09:59 01.07.2020
537 Rain 21 1012 77 10000 2.1 20 09:38 01.07.2020
538 Rain 20 1012 88 10000 1.5 340 09:20 01.07.2020
539 Rain 20 1012 88 10000 1.5 340 08:57 01.07.2020
540 Rain 19 1012 88 10000 1.5 350 08:38 01.07.2020
541 Clouds 19 1012 88 10000 1.5 350 08:19 01.07.2020
542 Clouds 19 1012 88 10000 1.5 350 08:19 01.07.2020
543 Clouds 18 1012 93 10000 1.5 10 07:40 01.07.2020
544 Clouds 18 1012 93 10000 2.1 10 07:21 01.07.2020
545 Clouds 18 1012 93 10000 1.5 20 06:51 01.07.2020
546 Clouds 18 1012 93 10000 1.5 20 06:30 01.07.2020
547 Clouds 18 1011 93 10000 2.6 30 05:30 01.07.2020
548 Clouds 19 1012 88 10000 2.6 360 03:55 01.07.2020
549 Clouds 19 1012 88 10000 2.6 350 03:36 01.07.2020
550 Clouds 19 1013 88 10000 1.5 350 03:18 01.07.2020
551 Clouds 20 1013 82 10000 2.6 360 01:53 01.07.2020
552 Clouds 21 1013 82 10000 3.1 10 00:48 01.07.2020
553 Clouds 21 1013 82 10000 3.1 10 00:26 01.07.2020
554 Clouds 22 1013 77 10000 2.6 10 23:43 30.06.2020
555 Clouds 22 1013 73 10000 3.1 350 23:23 30.06.2020
556 Clouds 23 1013 73 10000 3.1 350 22:59 30.06.2020
557 Clouds 23 1013 64 10000 4.1 10 22:41 30.06.2020
558 Clouds 24 1012 64 10000 3.6 350 22:18 30.06.2020
559 Clouds 25 1012 61 10000 3.6 350 21:41 30.06.2020
560 Clouds 26 1013 57 10000 3.1 350 21:19 30.06.2020
561 Clouds 26 1013 57 10000 3.1 350 21:19 30.06.2020
562 Clouds 26 1013 57 10000 3.1 350 20:57 30.06.2020
563 Clouds 26 1013 54 10000 2.6 350 20:39 30.06.2020
564 Clouds 27 1012 51 10000 2.1 330 20:20 30.06.2020
565 Clouds 27 1013 54 10000 1.5 330 19:42 30.06.2020
566 Clouds 28 1013 54 10000 2.1 340 19:19 30.06.2020
567 Clouds 28 1013 54 10000 2.6 290 18:46 30.06.2020
568 Clouds 28 1013 54 10000 3.1 340 18:21 30.06.2020
569 Clouds 28 1014 54 10000 2.1 270 17:59 30.06.2020
570 Clouds 28 1014 54 10000 2.1 270 17:38 30.06.2020
571 Clouds 29 1014 51 10000 1.5 290 17:19 30.06.2020
572 Clouds 29 1014 51 10000 2.6 10 16:43 30.06.2020
573 Clouds 28 1015 54 10000 1 0 16:24 30.06.2020
574 Clouds 27 1015 54 10000 1 0 15:59 30.06.2020
575 Clouds 27 1015 53 10000 2.6 240 15:40 30.06.2020
576 Clouds 28 1015 53 10000 2.6 310 15:22 30.06.2020
577 Clouds 27 1015 57 10000 1.5 260 14:56 30.06.2020
578 Clouds 24 1015 57 10000 1.5 260 14:38 30.06.2020
579 Clouds 24 1016 57 10000 2.1 0 14:18 30.06.2020
580 Clouds 24 1016 57 10000 1 0 13:40 30.06.2020
581 Clouds 25 1016 60 10000 2.1 310 13:20 30.06.2020
582 Clouds 25 1016 60 10000 2.1 310 12:58 30.06.2020
583 Clouds 25 1016 60 10000 2.1 310 12:58 30.06.2020
584 Clouds 24 1016 60 10000 1.5 0 12:39 30.06.2020
585 Clouds 23 1016 60 10000 1 0 12:20 30.06.2020
586 Clouds 23 1016 60 10000 1 0 11:58 30.06.2020
587 Clouds 22 1017 64 10000 1.5 220 11:38 30.06.2020
588 Clouds 22 1017 64 10000 1.5 0 11:19 30.06.2020
589 Clouds 21 1017 64 10000 1.5 0 10:56 30.06.2020
590 Clouds 25 1019 69 10000 4.6 260 16:38 28.06.2020
591 Clouds 25 1019 64 10000 4.6 230 16:20 28.06.2020
592 Clouds 24 1019 64 10000 4.6 230 15:56 28.06.2020
593 Clouds 24 1019 64 10000 4.6 230 15:56 28.06.2020
594 Clouds 24 1019 73 10000 4.1 240 15:37 28.06.2020
595 Clouds 23 1019 73 10000 3.6 230 15:18 28.06.2020
596 Clouds 23 1019 73 10000 3.6 230 15:18 28.06.2020
597 Clouds 22 1019 73 10000 3.6 210 14:43 28.06.2020
598 Clouds 23 1020 77 10000 2.6 210 14:24 28.06.2020
599 Clouds 22 1020 77 10000 2.6 210 13:55 28.06.2020
600 Clouds 21 1020 77 10000 3.6 260 13:36 28.06.2020
601 Clouds 22 1020 73 10000 2.1 260 13:18 28.06.2020
602 Clouds 21 1020 73 10000 2.1 260 12:55 28.06.2020
603 Clouds 21 1020 77 10000 1.5 240 12:36 28.06.2020
604 Clouds 21 1020 72 10000 3.1 250 12:18 28.06.2020
605 Clouds 21 1020 77 10000 2.1 230 11:43 28.06.2020
606 Clouds 21 1020 72 10000 3.1 240 11:21 28.06.2020
607 Clouds 21 1020 72 10000 3.1 240 11:21 28.06.2020
608 Clouds 21 1020 72 10000 3.1 240 10:59 28.06.2020
609 Clouds 21 1019 72 10000 2.6 250 10:41 28.06.2020
610 Clouds 21 1019 72 10000 2.6 210 10:22 28.06.2020
611 Clouds 20 1019 82 10000 2.1 230 09:42 28.06.2020
612 Clouds 20 1019 82 10000 2.1 230 09:23 28.06.2020
613 Clouds 20 1019 82 10000 2.1 230 08:57 28.06.2020
614 Clouds 20 1019 82 10000 1.5 220 08:38 28.06.2020
615 Clouds 19 1019 88 10000 1.5 220 08:20 28.06.2020
616 Clouds 18 1019 82 10000 1.5 220 07:33 28.06.2020
617 Clouds 18 1019 82 10000 2.1 210 06:56 28.06.2020
618 Clouds 18 1018 82 10000 1.5 220 06:32 28.06.2020
619 Clouds 19 1018 77 10000 1.5 0 05:45 28.06.2020
620 Clouds 19 1018 77 10000 2.1 310 04:27 28.06.2020
621 Clouds 20 1018 82 10000 1.5 290 02:57 28.06.2020
622 Clouds 20 1018 77 10000 2.1 250 02:20 28.06.2020
623 Clouds 20 1019 77 10000 2.1 290 01:27 28.06.2020
624 Clouds 21 1018 82 10000 2.6 310 00:55 28.06.2020
625 Clouds 21 1018 82 10000 2.6 310 00:29 28.06.2020
626 Clouds 21 1018 77 10000 4.1 320 23:46 27.06.2020
627 Clouds 22 1017 64 10000 2.6 310 23:24 27.06.2020
628 Clouds 22 1017 64 10000 2.6 310 22:59 27.06.2020
629 Clouds 22 1017 64 10000 2.6 310 22:59 27.06.2020
630 Clouds 22 1017 64 10000 1.5 310 22:41 27.06.2020
631 Clouds 23 1017 60 10000 1 0 22:23 27.06.2020
632 Clouds 23 1017 60 10000 1 0 21:57 27.06.2020
633 Clouds 23 1017 60 10000 1 0 21:57 27.06.2020
634 Clouds 24 1017 60 10000 2.1 320 21:38 27.06.2020
635 Clouds 24 1017 64 10000 3.1 310 21:20 27.06.2020
636 Clouds 24 1017 64 10000 3.1 310 21:20 27.06.2020
637 Clouds 25 1016 57 10000 3.1 330 20:45 27.06.2020
638 Clouds 26 1016 57 10000 3.6 290 20:19 27.06.2020
639 Clouds 26 1016 57 10000 3.6 290 20:19 27.06.2020
640 Clouds 25 1016 57 10000 3.6 290 19:56 27.06.2020
641 Clouds 25 1016 57 10000 4.6 300 19:37 27.06.2020
642 Clouds 25 1016 57 10000 4.1 280 19:18 27.06.2020
643 Clouds 25 1016 53 10000 4.1 300 18:47 27.06.2020
644 Clouds 26 1016 50 10000 4.1 310 18:28 27.06.2020
645 Clouds 26 1016 50 10000 4.1 310 17:58 27.06.2020
646 Clouds 26 1017 50 10000 3.6 310 17:38 27.06.2020
647 Clouds 27 1016 50 10000 4.1 260 17:19 27.06.2020
648 Clouds 27 1016 50 10000 4.1 290 16:46 27.06.2020
649 Clouds 27 1016 50 10000 4.1 290 16:28 27.06.2020
650 Clouds 26 1016 50 10000 5.1 290 15:59 27.06.2020
651 Clouds 26 1016 53 10000 5.1 290 15:39 27.06.2020
652 Clouds 27 1016 50 10000 4.6 300 15:21 27.06.2020
653 Clouds 28 1016 50 10000 5.1 290 14:43 27.06.2020
654 Clouds 28 1016 50 10000 3.1 270 14:24 27.06.2020
655 Clouds 27 1016 53 10000 3.6 290 13:58 27.06.2020
656 Clouds 28 1016 53 10000 3.6 290 13:38 27.06.2020
657 Clouds 26 1016 50 10000 3.6 0 13:19 27.06.2020
658 Clouds 27 1016 53 10000 3.6 250 12:57 27.06.2020
659 Clouds 27 1016 53 10000 3.6 250 12:38 27.06.2020
660 Clouds 26 1016 57 10000 3.6 240 12:20 27.06.2020
661 Clear 25 1016 57 10000 2.6 180 11:43 27.06.2020
662 Clear 25 1016 64 10000 2.1 220 11:24 27.06.2020
663 Clear 24 1016 64 10000 2.1 220 10:59 27.06.2020
664 Clear 23 1015 73 10000 2.6 190 10:38 27.06.2020
665 Clouds 23 1015 77 10000 3.1 220 10:18 27.06.2020
666 Clouds 20 1015 82 10000 3.6 210 09:41 27.06.2020
667 Clouds 19 1015 88 10000 3.1 240 09:21 27.06.2020
668 Clouds 18 1015 88 10000 3.1 240 08:56 27.06.2020
669 Clouds 18 1015 93 10000 2.6 220 08:38 27.06.2020
670 Clouds 17 1015 93 10000 2.1 230 08:19 27.06.2020
671 Clouds 16 1015 93 10000 2.1 230 07:38 27.06.2020
672 Clouds 16 1015 93 10000 2.6 170 07:19 27.06.2020
673 Clouds 16 1015 93 10000 2.6 180 06:38 27.06.2020
674 Clouds 16 1015 93 10000 2.6 190 06:18 27.06.2020
675 Clouds 17 1015 88 10000 1.5 180 04:22 27.06.2020
676 Clouds 17 1015 88 10000 1.5 190 03:51 27.06.2020
677 Clear 17 1015 88 10000 1 0 02:48 27.06.2020
678 Clouds 17 1015 88 10000 1 0 02:28 27.06.2020
679 Clouds 18 1015 82 10000 1.5 270 01:41 27.06.2020
680 Clouds 18 1015 88 10000 3.1 240 00:54 27.06.2020
681 Clouds 19 1015 88 10000 1.5 230 00:18 27.06.2020
682 Clouds 20 1014 82 10000 2.6 270 23:41 26.06.2020
683 Clouds 20 1014 82 10000 3.6 290 23:21 26.06.2020
684 Clouds 20 1013 82 10000 4.1 300 22:55 26.06.2020
685 Clouds 20 1013 82 10000 4.1 300 22:36 26.06.2020
686 Clouds 21 1013 77 10000 4.6 300 22:18 26.06.2020
687 Clouds 21 1013 77 10000 4.6 300 21:56 26.06.2020
688 Clouds 23 1013 73 10000 5.1 300 21:36 26.06.2020
689 Clouds 23 1013 69 10000 5.1 290 21:18 26.06.2020
690 Clouds 23 1013 69 10000 5.1 290 21:18 26.06.2020
691 Clouds 24 1013 64 10000 5.1 270 20:41 26.06.2020
692 Clouds 25 1013 64 10000 4.6 280 20:19 26.06.2020
693 Clouds 26 1013 61 10000 4.6 270 19:41 26.06.2020
694 Clouds 26 1013 61 10000 4.6 270 19:23 26.06.2020
695 Clouds 26 1013 61 10000 4.6 300 18:45 26.06.2020
696 Clouds 26 1013 61 10000 4.6 300 18:26 26.06.2020
697 Clouds 27 1013 57 10000 4.1 300 17:59 26.06.2020
698 Clouds 27 1013 57 10000 4.1 300 17:59 26.06.2020
699 Clouds 27 1013 61 10000 4.1 300 17:40 26.06.2020
700 Clouds 27 1013 57 10000 2.6 320 17:22 26.06.2020
701 Clouds 27 1014 57 10000 2.6 330 16:46 26.06.2020
702 Clouds 28 1014 57 10000 2.6 330 16:25 26.06.2020
703 Clouds 27 1014 61 10000 2.1 220 15:54 26.06.2020
704 Clouds 27 1014 61 10000 2.1 220 15:36 26.06.2020
705 Clouds 25 1014 61 10000 3.1 260 15:18 26.06.2020
706 Clouds 24 1014 64 10000 2.1 230 14:40 26.06.2020
707 Clouds 23 1014 69 10000 2.1 290 14:22 26.06.2020
708 Clouds 23 1014 69 10000 2.1 290 13:57 26.06.2020
709 Clouds 23 1015 69 10000 3.6 280 13:38 26.06.2020
710 Clouds 23 1015 69 10000 2.6 260 13:18 26.06.2020
711 Clouds 22 1015 68 10000 2.6 220 12:41 26.06.2020
712 Clouds 22 1015 68 10000 1.5 190 12:23 26.06.2020
713 Clouds 23 1015 73 10000 2.6 180 11:58 26.06.2020
714 Clouds 23 1015 73 10000 2.6 180 11:39 26.06.2020
715 Clouds 22 1015 77 10000 2.6 160 11:21 26.06.2020
716 Clouds 22 1015 77 10000 2.6 160 10:57 26.06.2020
717 Clouds 22 1015 77 10000 2.6 160 10:38 26.06.2020
718 Clouds 22 1015 83 10000 2.6 160 10:18 26.06.2020
719 Clouds 21 1015 82 10000 2.6 150 09:44 26.06.2020
720 Clouds 21 1015 82 10000 2.1 120 09:24 26.06.2020
721 Clouds 20 1015 88 10000 2.1 120 08:56 26.06.2020
722 Clouds 20 1015 88 10000 2.1 120 08:28 26.06.2020
723 Clouds 19 1015 88 9000 1 0 07:53 26.06.2020
724 Clouds 19 1015 88 9000 1.5 270 07:24 26.06.2020
725 Clouds 19 1015 88 9000 1.5 270 06:58 26.06.2020
726 Clouds 19 1014 93 10000 1.5 250 06:36 26.06.2020
727 Clouds 19 1014 93 10000 1.5 250 06:18 26.06.2020
728 Clouds 19 1015 88 9000 1.5 280 05:40 26.06.2020
729 Clouds 20 1015 93 10000 4.1 270 03:30 26.06.2020
730 Clouds 20 1016 88 10000 2.1 130 02:22 26.06.2020
731 Clouds 21 1015 82 10000 1.5 250 01:19 26.06.2020
732 Rain 20 1015 82 10000 1 180 00:39 26.06.2020
733 Rain 21 1016 82 10000 4.1 190 00:18 26.06.2020
734 Clouds 21 1016 77 10000 4.6 240 23:39 25.06.2020
735 Clouds 21 1016 83 10000 6.7 250 23:18 25.06.2020
736 Clouds 22 1015 78 10000 6.7 240 22:54 25.06.2020
737 Clouds 22 1015 78 10000 6.7 240 22:36 25.06.2020
738 Clouds 23 1015 73 10000 8.7 250 22:18 25.06.2020
739 Rain 24 1012 69 10000 6.2 100 21:54 25.06.2020
740 Rain 24 1012 69 10000 6.2 100 21:36 25.06.2020
741 Rain 25 1013 69 10000 2.6 120 21:18 25.06.2020
742 Rain 25 1013 69 10000 1.25 224 20:43 25.06.2020
743 Rain 26 1014 73 10000 2.6 270 20:23 25.06.2020
744 Rain 26 1014 69 10000 6.2 260 19:56 25.06.2020
745 Rain 26 1014 69 10000 6.2 260 19:37 25.06.2020
746 Rain 26 1014 69 10000 6.2 260 19:18 25.06.2020
747 Rain 28 1015 61 10000 7.2 250 18:40 25.06.2020
748 Clouds 29 1015 65 10000 5.7 260 18:21 25.06.2020
749 Clouds 29 1015 65 10000 5.7 260 17:55 25.06.2020
750 Clouds 30 1014 58 10000 6.2 270 17:37 25.06.2020
751 Clouds 31 1014 51 10000 4.6 270 17:19 25.06.2020
752 Clouds 31 1014 51 10000 4.6 270 17:19 25.06.2020
753 Clouds 31 1014 58 10000 2.1 260 16:41 25.06.2020
754 Clouds 32 1014 61 10000 2.6 230 16:20 25.06.2020
755 Clouds 32 1014 65 10000 4.1 260 15:45 25.06.2020
756 Clear 32 1014 65 10000 4.1 260 15:27 25.06.2020
757 Clear 31 1015 58 10000 5.1 250 14:58 25.06.2020
758 Clear 31 1015 54 10000 6.2 240 14:40 25.06.2020
759 Clouds 31 1015 58 10000 3.6 240 14:22 25.06.2020
760 Clouds 31 1015 61 10000 3.1 250 13:55 25.06.2020
761 Clouds 30 1015 65 10000 3.1 260 13:37 25.06.2020
762 Clouds 29 1015 65 10000 3.1 260 13:19 25.06.2020
763 Clouds 27 1015 69 10000 3.1 250 12:43 25.06.2020
764 Clouds 26 1015 69 10000 5.1 250 12:20 25.06.2020
765 Clouds 25 1015 73 10000 3.6 240 11:44 25.06.2020
766 Clouds 25 1015 73 10000 3.6 240 11:25 25.06.2020
767 Clouds 24 1015 78 10000 2.1 220 10:57 25.06.2020
768 Clouds 23 1015 88 10000 1.5 200 10:39 25.06.2020
769 Clouds 22 1015 88 8000 2.6 190 10:20 25.06.2020
770 Clouds 21 1015 94 8000 3.6 170 09:41 25.06.2020
771 Clouds 21 1014 88 7000 2.6 190 09:22 25.06.2020
772 Clouds 21 1014 88 9000 3.1 180 08:47 25.06.2020
773 Clouds 21 1014 94 8000 2.6 150 08:20 25.06.2020
774 Clouds 21 1014 94 8000 2.1 160 07:45 25.06.2020
775 Clouds 21 1014 94 7000 2.1 220 07:26 25.06.2020
776 Clouds 21 1014 94 8000 2.6 210 06:48 25.06.2020
777 Clouds 21 1014 94 6000 4.1 230 06:27 25.06.2020
778 Mist 21 1014 94 4700 3.6 230 05:51 25.06.2020
779 Clouds 21 1015 94 7000 3.6 230 03:57 25.06.2020
780 Clear 22 1015 88 8000 3.6 230 03:29 25.06.2020
781 Clear 22 1015 94 10000 3.6 230 02:42 25.06.2020
782 Clouds 22 1015 83 10000 3.6 230 01:55 25.06.2020
783 Clouds 23 1015 78 10000 3.6 240 01:19 25.06.2020
784 Clouds 24 1015 69 10000 3.6 220 00:42 25.06.2020
785 Clouds 24 1014 64 10000 1.5 280 00:20 25.06.2020
786 Clouds 25 1014 61 10000 1.8 107 23:44 24.06.2020
787 Clouds 25 1014 61 10000 1.45 87 23:25 24.06.2020
788 Clouds 27 1014 48 10000 2.6 30 22:58 24.06.2020
789 Clouds 27 1014 48 10000 2.6 30 22:40 24.06.2020
790 Clear 28 1014 42 10000 3.1 30 22:19 24.06.2020
791 Clear 30 1013 38 10000 3.1 30 21:55 24.06.2020
792 Clear 30 1013 38 10000 3.1 30 21:36 24.06.2020
793 Clear 31 1013 35 10000 3.6 30 21:18 24.06.2020
794 Clear 32 1013 35 10000 3.6 30 20:56 24.06.2020
795 Clear 32 1013 35 10000 4.1 50 20:38 24.06.2020
796 Clouds 32 1013 35 10000 3.6 70 20:19 24.06.2020
797 Clouds 33 1013 35 10000 3.6 70 19:55 24.06.2020
798 Clouds 33 1013 33 10000 3.6 70 19:36 24.06.2020
799 Clouds 34 1013 33 10000 2.6 90 19:18 24.06.2020
800 Clouds 35 1013 33 10000 2.6 60 18:56 24.06.2020
801 Clouds 35 1013 33 10000 2.6 60 18:37 24.06.2020
802 Clouds 35 1013 33 10000 2.6 10 18:19 24.06.2020
803 Clouds 35 1013 33 10000 3.1 10 17:41 24.06.2020
804 Clouds 34 1014 32 10000 2.1 160 17:19 24.06.2020
805 Clouds 33 1014 33 10000 2.1 140 16:56 24.06.2020
806 Clouds 33 1014 33 10000 2.1 140 16:38 24.06.2020
807 Clouds 32 1014 38 10000 1.5 0 16:20 24.06.2020
808 Clouds 32 1014 38 10000 1.5 0 15:56 24.06.2020
809 Clouds 33 1014 38 10000 1.5 0 15:38 24.06.2020
810 Clouds 32 1014 38 10000 2.6 150 15:19 24.06.2020
811 Clouds 32 1014 38 10000 2.6 140 14:43 24.06.2020
812 Clear 31 1014 43 10000 2.1 140 14:24 24.06.2020
813 Clear 30 1014 45 10000 2.1 0 13:43 24.06.2020
814 Clear 28 1014 51 10000 1.5 110 13:22 24.06.2020
815 Clear 30 1014 51 10000 3.1 120 12:59 24.06.2020
816 Clear 30 1014 51 10000 3.1 120 12:41 24.06.2020
817 Clear 28 1014 51 10000 3.1 100 12:20 24.06.2020
818 Clear 26 1014 57 10000 3.1 110 11:56 24.06.2020
819 Clear 28 1014 57 10000 3.1 110 11:38 24.06.2020
820 Clear 27 1014 57 10000 3.6 90 11:18 24.06.2020
821 Clear 26 1015 57 10000 3.1 120 10:43 24.06.2020
822 Clear 24 1014 60 10000 4.6 110 10:19 24.06.2020
823 Clear 25 1014 60 10000 4.6 110 10:19 24.06.2020
824 Clear 23 1015 60 10000 3.6 110 09:43 24.06.2020
825 Clear 22 1014 64 10000 4.1 110 09:22 24.06.2020
826 Clear 21 1014 64 10000 3.6 90 08:43 24.06.2020
827 Clear 20 1014 68 10000 3.1 100 08:21 24.06.2020
828 Clear 19 1014 82 10000 2.1 100 07:51 24.06.2020
829 Clear 18 1014 88 10000 1 90 07:31 24.06.2020
830 Clear 18 1014 88 10000 1.5 90 06:51 24.06.2020
831 Clear 18 1014 88 10000 1.5 80 06:26 24.06.2020
832 Clear 17 1014 88 10000 1 100 05:57 24.06.2020
833 Clear 18 1014 88 10000 2.41 101 04:46 24.06.2020
834 Clear 18 1014 88 10000 2.34 98 04:28 24.06.2020
835 Clear 19 1014 88 10000 0.5 0 03:34 24.06.2020
836 Clear 19 1015 82 10000 2.44 99 02:50 24.06.2020
837 Clear 21 1015 82 10000 1.96 99 01:41 24.06.2020
838 Clear 21 1015 73 10000 0.5 0 00:47 24.06.2020
839 Clear 22 1015 73 10000 1 290 00:27 24.06.2020
840 Clear 23 1015 60 10000 1 280 23:46 23.06.2020
841 Clear 24 1015 57 10000 1.84 85 23:20 23.06.2020
842 Clear 25 1015 47 10000 2.1 70 22:54 23.06.2020
843 Clear 25 1015 47 10000 2.1 70 22:36 23.06.2020
844 Clear 27 1015 42 10000 2.6 100 22:18 23.06.2020
845 Clear 27 1015 42 10000 2.6 100 22:18 23.06.2020
846 Clear 28 1015 39 10000 3.1 110 21:40 23.06.2020
847 Clear 29 1015 37 10000 4.1 110 21:19 23.06.2020
848 Clear 30 1015 35 10000 4.6 120 20:55 23.06.2020
849 Clear 30 1015 35 10000 4.6 120 20:37 23.06.2020
850 Clear 30 1015 37 10000 4.6 110 20:18 23.06.2020
851 Clear 31 1015 35 10000 4.6 100 19:44 23.06.2020
852 Clear 31 1016 35 10000 4.1 100 19:26 23.06.2020
853 Clear 31 1016 33 10000 4.1 110 18:42 23.06.2020
854 Clear 31 1016 35 10000 3.1 110 18:19 23.06.2020
855 Clear 31 1016 35 10000 2.1 0 17:57 23.06.2020
856 Clear 31 1016 35 10000 2.1 0 17:38 23.06.2020
857 Clear 31 1016 37 10000 1.5 0 17:20 23.06.2020
858 Clear 31 1017 35 10000 3.6 90 16:55 23.06.2020
859 Clear 31 1017 35 10000 3.6 90 16:36 23.06.2020
860 Clear 31 1017 37 10000 3.6 80 16:18 23.06.2020
861 Clear 29 1017 35 10000 2.6 0 15:43 23.06.2020
862 Clear 28 1017 39 10000 4.1 0 15:24 23.06.2020
863 Clear 28 1017 39 10000 4.1 0 14:56 23.06.2020
864 Clouds 28 1018 37 10000 2.6 100 14:37 23.06.2020
865 Clouds 29 1018 37 10000 2.6 100 14:18 23.06.2020
866 Clouds 28 1018 39 10000 3.1 80 13:45 23.06.2020
867 Clouds 28 1018 42 10000 3.1 60 13:25 23.06.2020
868 Clouds 28 1019 47 10000 2.6 30 12:55 23.06.2020
869 Clouds 27 1019 47 10000 2.6 30 12:37 23.06.2020
870 Clouds 26 1019 50 10000 2.1 30 12:18 23.06.2020
871 Clouds 25 1019 50 10000 2.6 50 11:42 23.06.2020
872 Clouds 25 1019 53 10000 3.1 50 11:22 23.06.2020
873 Clouds 24 1019 53 10000 3.1 50 10:58 23.06.2020
874 Clouds 24 1019 56 10000 2.6 50 10:40 23.06.2020
875 Clouds 23 1020 60 10000 2.6 80 10:22 23.06.2020
876 Clouds 22 1020 60 10000 2.6 80 09:56 23.06.2020
877 Clouds 21 1020 64 10000 2.6 80 09:38 23.06.2020
878 Clouds 20 1020 68 10000 2.1 70 09:18 23.06.2020
879 Clouds 19 1020 72 10000 2.1 60 08:44 23.06.2020
880 Clouds 18 1020 77 10000 2.6 50 08:25 23.06.2020
881 Clouds 16 1020 82 10000 2.6 40 07:46 23.06.2020
882 Clouds 16 1020 87 10000 2.1 40 07:24 23.06.2020
883 Clouds 16 1020 87 10000 2.1 40 06:52 23.06.2020
884 Clouds 16 1020 87 10000 2.1 40 06:32 23.06.2020
885 Fog 16 1020 93 10000 1 10 05:48 23.06.2020
886 Fog 16 1020 93 10000 1 360 04:42 23.06.2020
887 Clouds 17 1021 88 10000 1 10 03:20 23.06.2020
888 Clouds 17 1022 88 10000 1.5 360 02:46 23.06.2020
889 Clouds 18 1022 88 10000 1.5 360 02:27 23.06.2020
890 Clouds 18 1022 82 10000 1.5 20 01:44 23.06.2020
891 Clouds 19 1022 82 10000 2.1 20 01:21 23.06.2020
892 Clouds 19 1023 77 10000 2.1 10 00:38 23.06.2020
893 Clear 20 1023 77 10000 2.1 10 00:18 23.06.2020
894 Clear 20 1022 68 10000 2.6 10 23:39 22.06.2020
895 Clear 21 1022 60 10000 3.1 20 23:19 22.06.2020
896 Clear 21 1022 60 10000 3.1 20 23:19 22.06.2020
897 Clear 21 1022 60 10000 3.1 20 22:58 22.06.2020
898 Clear 22 1022 53 10000 4.1 10 22:40 22.06.2020
899 Clear 23 1022 46 10000 2.6 360 22:20 22.06.2020
900 Clear 23 1022 47 10000 3.1 10 21:58 22.06.2020
901 Clear 24 1022 47 10000 3.1 10 21:40 22.06.2020
902 Clear 25 1022 47 10000 4.1 10 21:21 22.06.2020
903 Clear 25 1022 47 10000 4.1 20 20:54 22.06.2020
904 Clear 26 1022 47 10000 4.1 20 20:36 22.06.2020
905 Clear 26 1022 41 10000 3.6 40 20:18 22.06.2020
906 Clear 27 1022 41 10000 2.6 30 19:42 22.06.2020
907 Clear 27 1023 39 10000 2.6 350 19:19 22.06.2020
908 Clear 27 1023 39 10000 2.6 350 18:56 22.06.2020
909 Clear 27 1023 39 10000 2.6 350 18:36 22.06.2020
910 Clear 27 1023 39 10000 2.6 350 18:18 22.06.2020
911 Clear 27 1024 36 10000 2.6 40 17:39 22.06.2020
912 Clear 27 1024 41 10000 1.5 0 17:21 22.06.2020
913 Clear 27 1024 41 10000 1.5 0 16:59 22.06.2020
914 Clear 27 1024 41 10000 2.1 0 16:40 22.06.2020
915 Clear 27 1024 41 10000 2.1 0 16:18 22.06.2020
916 Clear 25 1025 44 10000 3.1 20 15:44 22.06.2020
917 Clear 25 1025 44 10000 3.1 20 15:26 22.06.2020
918 Clear 24 1025 44 10000 1.5 20 14:58 22.06.2020
919 Clear 23 1026 49 10000 2.1 60 14:39 22.06.2020
920 Clear 24 1026 49 10000 2.1 60 14:20 22.06.2020
921 Clear 24 1026 53 10000 1.5 20 13:54 22.06.2020
922 Clear 23 1026 53 10000 2.1 70 13:36 22.06.2020
923 Clear 24 1026 53 10000 2.1 70 13:18 22.06.2020
924 Clouds 23 1026 53 10000 1.5 0 12:41 22.06.2020
925 Clouds 23 1026 53 10000 1.5 0 12:22 22.06.2020
926 Clouds 21 1027 60 10000 1.5 0 11:38 22.06.2020
927 Clouds 21 1027 60 10000 1.5 0 11:19 22.06.2020
928 Clouds 21 1027 64 10000 1.5 40 10:57 22.06.2020
929 Clouds 20 1027 68 10000 2.1 20 10:39 22.06.2020
930 Clouds 20 1027 68 10000 2.1 20 10:19 22.06.2020
931 Clouds 19 1027 68 10000 3.1 40 09:58 22.06.2020
932 Clouds 18 1027 72 10000 3.6 50 09:39 22.06.2020
933 Clouds 18 1027 72 10000 3.6 50 09:19 22.06.2020
934 Clouds 17 1027 77 10000 3.1 40 08:56 22.06.2020
935 Clear 17 1027 82 10000 2.6 30 08:38 22.06.2020
936 Clouds 16 1027 93 10000 2.1 20 08:19 22.06.2020
937 Clouds 16 1027 93 10000 2.1 20 07:48 22.06.2020
938 Clouds 16 1027 93 10000 2.1 20 07:26 22.06.2020
939 Clouds 16 1026 93 10000 1.5 360 06:39 22.06.2020
940 Clouds 17 1026 93 10000 1.5 360 06:21 22.06.2020
941 Clouds 17 1026 93 10000 1.5 310 05:42 22.06.2020
942 Clouds 18 1027 88 10000 1.5 290 03:47 22.06.2020
943 Clouds 19 1027 88 10000 1.5 290 02:19 22.06.2020
944 Clouds 19 1027 82 10000 3.6 270 00:59 22.06.2020
945 Clouds 19 1027 82 10000 2.1 260 00:38 22.06.2020
946 Clouds 19 1027 77 10000 1.5 260 23:57 21.06.2020
947 Clouds 19 1027 77 10000 2.6 260 23:38 21.06.2020
948 Clouds 19 1027 77 10000 2.6 260 23:20 21.06.2020
949 Clouds 20 1027 77 10000 2.6 270 22:56 21.06.2020
950 Clouds 20 1026 72 10000 3.1 270 22:36 21.06.2020
951 Clouds 20 1026 72 10000 3.1 270 22:18 21.06.2020
952 Clouds 21 1026 68 10000 3.6 290 21:56 21.06.2020
953 Clouds 21 1026 64 10000 4.6 280 21:37 21.06.2020
954 Clouds 21 1026 60 10000 4.1 280 21:19 21.06.2020
955 Clouds 21 1026 60 10000 4.1 280 20:56 21.06.2020
956 Clouds 22 1026 60 10000 4.6 290 20:36 21.06.2020
957 Clouds 22 1026 56 10000 4.6 270 20:18 21.06.2020
958 Clouds 22 1026 60 10000 4.6 290 20:18 21.06.2020
959 Clouds 22 1026 56 10000 4.6 280 19:41 21.06.2020
960 Clouds 22 1026 56 10000 4.6 280 19:21 21.06.2020
961 Clouds 23 1026 56 10000 5.1 290 18:56 21.06.2020
962 Clouds 24 1026 56 10000 5.1 290 18:38 21.06.2020
963 Clouds 24 1026 56 10000 5.1 290 18:20 21.06.2020
964 Clouds 25 1025 50 10000 5.7 290 17:55 21.06.2020
965 Clouds 25 1025 53 10000 6.7 290 17:36 21.06.2020
966 Clouds 26 1025 53 10000 6.7 290 17:18 21.06.2020
967 Clouds 26 1025 50 10000 5.7 280 16:40 21.06.2020
968 Clouds 26 1025 50 10000 5.7 280 16:22 21.06.2020
969 Clouds 25 1025 53 10000 4.1 300 15:42 21.06.2020
970 Clouds 24 1025 53 10000 4.1 300 15:24 21.06.2020
971 Clouds 23 1025 56 10000 3.6 310 14:59 21.06.2020
972 Clouds 26 1025 53 10000 2.1 280 14:38 21.06.2020
973 Clouds 25 1025 53 10000 2.1 280 14:19 21.06.2020
974 Clouds 24 1025 56 10000 4.1 340 13:56 21.06.2020
975 Clouds 24 1025 60 10000 3.6 320 13:37 21.06.2020
976 Clouds 24 1025 60 10000 3.6 320 13:18 21.06.2020
977 Clouds 24 1025 60 10000 3.1 290 12:43 21.06.2020
978 Clouds 23 1025 60 10000 3.1 290 12:24 21.06.2020
979 Clouds 23 1025 60 10000 3.1 290 12:24 21.06.2020
980 Clouds 23 1025 60 10000 3.6 290 11:54 21.06.2020
981 Clouds 23 1025 60 10000 3.6 300 11:36 21.06.2020
982 Clouds 23 1025 60 10000 3.6 300 11:18 21.06.2020
983 Clouds 21 1025 72 10000 2.1 260 10:41 21.06.2020
984 Clouds 20 1025 72 10000 2.1 260 10:23 21.06.2020
985 Clouds 19 1025 77 10000 1.5 0 09:58 21.06.2020
986 Clouds 18 1025 93 10000 1 0 09:37 21.06.2020
987 Clouds 17 1025 93 10000 1 0 09:18 21.06.2020
988 Clouds 16 1025 93 10000 1 0 08:55 21.06.2020
989 Clouds 14 1024 93 10000 0.71 210 08:36 21.06.2020
990 Clouds 14 1024 93 10000 0.71 210 08:18 21.06.2020
991 Fog 12 1024 93 10000 1 180 07:41 21.06.2020
992 Fog 12 1024 93 10000 1 180 07:21 21.06.2020
993 Clouds 12 1024 100 10000 1 170 06:48 21.06.2020
994 Clouds 13 1023 93 10000 0.33 280 05:59 21.06.2020
995 Clouds 13 1023 93 10000 0.56 290 05:25 21.06.2020
996 Clouds 14 1023 93 10000 1 260 03:21 21.06.2020
997 Fog 14 1024 93 10000 1.5 260 02:54 21.06.2020
998 Clouds 15 1024 87 10000 1.5 260 01:49 21.06.2020
999 Clouds 16 1024 87 10000 1.5 260 01:21 21.06.2020
1000 Clouds 16 1024 82 10000 1 260 00:55 21.06.2020
1001 Clear 16 1024 82 10000 1 270 00:37 21.06.2020
1002 Clear 17 1024 82 10000 1 270 00:18 21.06.2020
1003 Clear 17 1023 77 10000 1.5 290 23:43 20.06.2020
1004 Clear 17 1023 77 10000 1.5 290 23:21 20.06.2020
1005 Clear 18 1023 77 10000 2.1 320 22:55 20.06.2020
1006 Clear 18 1023 72 10000 3.1 310 22:37 20.06.2020
1007 Clear 19 1023 72 10000 3.1 310 22:18 20.06.2020
1008 Clear 19 1023 72 10000 3.1 310 22:18 20.06.2020
1009 Clear 20 1023 63 10000 3.6 310 21:55 20.06.2020
1010 Clear 21 1023 56 10000 4.1 330 21:37 20.06.2020
1011 Clear 21 1023 56 10000 4.1 330 21:19 20.06.2020
1012 Clear 22 1022 53 10000 4.1 310 20:54 20.06.2020
1013 Clear 23 1022 46 10000 4.1 300 20:36 20.06.2020
1014 Clouds 24 1022 46 10000 4.1 300 20:18 20.06.2020
1015 Clouds 24 1022 44 10000 5.1 300 20:18 20.06.2020
1016 Clouds 25 1022 44 10000 4.6 290 19:42 20.06.2020
1017 Clouds 25 1022 44 10000 4.6 290 19:21 20.06.2020
1018 Clouds 26 1022 44 10000 2.1 280 18:43 20.06.2020
1019 Clear 26 1022 44 10000 2.1 280 18:21 20.06.2020
1020 Clear 27 1022 44 10000 3.1 300 17:58 20.06.2020
1021 Clear 26 1022 50 10000 3.6 290 17:40 20.06.2020
1022 Clear 26 1022 50 10000 3.6 290 17:21 20.06.2020
1023 Clouds 26 1022 47 10000 1.5 0 16:56 20.06.2020
1024 Clouds 26 1022 50 10000 2.1 0 16:38 20.06.2020
1025 Clouds 26 1022 50 10000 2.1 0 16:18 20.06.2020
1026 Clouds 26 1023 49 10000 2.6 240 15:42 20.06.2020
1027 Clouds 26 1023 49 10000 2.6 240 15:18 20.06.2020
1028 Clouds 25 1023 49 10000 1.5 0 14:43 20.06.2020
1029 Clouds 24 1023 49 10000 1.5 0 14:22 20.06.2020
1030 Clouds 25 1023 49 10000 1.5 0 13:55 20.06.2020
1031 Clouds 25 1023 56 10000 1 0 13:37 20.06.2020
1032 Clouds 24 1023 56 10000 1 0 13:19 20.06.2020
1033 Clouds 23 1023 53 10000 1.5 0 12:42 20.06.2020
1034 Clouds 23 1023 53 10000 1.5 0 12:21 20.06.2020
1035 Clouds 22 1023 60 10000 1.5 280 11:58 20.06.2020
1036 Clouds 21 1023 60 10000 1 0 11:38 20.06.2020
1037 Clouds 20 1023 60 10000 0.38 279 11:20 20.06.2020
1038 Clouds 20 1023 60 10000 0.38 279 10:50 20.06.2020
1039 Clouds 19 1023 72 10000 0.5 0 10:23 20.06.2020
1040 Clouds 18 1023 82 10000 1 0 09:57 20.06.2020
1041 Clouds 18 1023 82 10000 1.5 360 09:39 20.06.2020
1042 Clouds 17 1023 82 10000 1.5 360 09:21 20.06.2020
1043 Clouds 16 1023 87 10000 1 0 08:48 20.06.2020
1044 Clouds 15 1023 93 10000 1 0 08:30 20.06.2020
1045 Clouds 14 1023 93 10000 0.5 0 07:53 20.06.2020
1046 Fog 14 1023 100 10000 0.5 280 07:28 20.06.2020
1047 Fog 14 1022 87 10000 0.5 260 06:58 20.06.2020
1048 Clouds 14 1022 93 10000 0.9 66 06:24 20.06.2020
1049 Clouds 14 1022 93 10000 0.5 0 05:54 20.06.2020
1050 Clouds 14 1022 93 10000 1 280 05:25 20.06.2020
1051 Clouds 15 1022 87 10000 0.93 13 02:53 20.06.2020
1052 Clouds 15 1023 87 10000 1 0 01:49 20.06.2020
1053 Clouds 16 1022 87 10000 1 0 01:22 20.06.2020
1054 Clouds 16 1022 82 10000 1 310 00:22 20.06.2020
1055 Clouds 16 1022 82 10000 1.5 310 23:58 19.06.2020
1056 Clouds 17 1022 77 10000 2.1 330 23:39 19.06.2020
1057 Clouds 17 1022 72 10000 1.5 320 23:18 19.06.2020
1058 Clouds 19 1021 68 10000 2.6 330 22:41 19.06.2020
1059 Clouds 19 1021 68 10000 2.6 330 22:23 19.06.2020
1060 Clouds 19 1021 63 10000 3.6 330 21:59 19.06.2020
1061 Clouds 20 1021 64 10000 3.6 320 21:39 19.06.2020
1062 Clouds 21 1021 64 10000 3.6 320 21:18 19.06.2020
1063 Clouds 21 1021 60 10000 4.1 320 20:59 19.06.2020
1064 Clouds 22 1020 60 10000 4.1 330 20:40 19.06.2020
1065 Clouds 22 1020 60 10000 4.1 330 20:21 19.06.2020
1066 Clouds 23 1020 60 10000 3.6 330 19:57 19.06.2020
1067 Clouds 22 1020 53 10000 3.1 320 19:39 19.06.2020
1068 Clouds 23 1020 53 10000 3.1 320 19:21 19.06.2020
1069 Clouds 23 1020 53 10000 1.5 360 18:42 19.06.2020
1070 Clouds 23 1020 53 10000 1.5 360 18:22 19.06.2020
1071 Clouds 24 1020 56 10000 2.6 340 17:58 19.06.2020
1072 Clouds 24 1020 53 10000 3.1 10 17:39 19.06.2020
1073 Clouds 24 1020 53 10000 3.1 10 17:20 19.06.2020
1074 Clouds 23 1020 53 10000 2.1 360 16:55 19.06.2020
1075 Clouds 23 1020 56 10000 3.1 350 16:37 19.06.2020
1076 Clouds 23 1020 56 10000 3.1 350 16:18 19.06.2020
1077 Clouds 23 1020 49 10000 1.5 0 15:42 19.06.2020
1078 Clouds 23 1020 49 10000 1.5 0 15:21 19.06.2020
1079 Clouds 23 1020 56 10000 2.6 330 14:56 19.06.2020
1080 Clouds 23 1020 49 10000 1.5 0 14:38 19.06.2020
1081 Clouds 23 1020 49 10000 1.5 0 14:19 19.06.2020
1082 Clouds 22 1020 53 10000 1.5 0 13:44 19.06.2020
1083 Clouds 22 1020 53 10000 1.5 0 13:26 19.06.2020
1084 Clouds 22 1020 52 10000 1.5 0 12:48 19.06.2020
1085 Clouds 21 1020 60 10000 1 0 12:23 19.06.2020
1086 Clouds 20 1020 60 10000 1 0 11:59 19.06.2020
1087 Clouds 20 1020 60 10000 1.5 70 11:40 19.06.2020
1088 Clouds 20 1020 60 10000 1.5 70 11:19 19.06.2020
1089 Clouds 19 1020 72 10000 1 0 10:46 19.06.2020
1090 Clouds 18 1020 72 10000 1 0 10:27 19.06.2020
1091 Clouds 18 1020 72 10000 1 0 09:59 19.06.2020
1092 Clouds 18 1020 72 10000 1 0 09:59 19.06.2020
1093 Clouds 17 1020 77 10000 1.27 166 09:41 19.06.2020
1094 Clouds 16 1020 77 10000 1 0 09:20 19.06.2020
1095 Clouds 14 1020 87 10000 1.44 152 08:45 19.06.2020
1096 Clear 14 1020 87 10000 1.31 143 08:26 19.06.2020
1097 Clear 12 1020 100 10000 1.31 143 07:56 19.06.2020
1098 Clear 12 1020 93 10000 2.1 160 07:38 19.06.2020
1099 Clear 11 1020 93 10000 2.1 160 07:20 19.06.2020
1100 Clear 11 1019 100 10000 0.5 120 06:25 19.06.2020
1101 Clear 11 1019 93 10000 1.5 250 05:46 19.06.2020
1102 Clear 12 1019 93 10000 1.5 240 04:27 19.06.2020
1103 Clear 12 1019 93 10000 2.1 230 02:51 19.06.2020
1104 Clear 14 1019 87 10000 1.5 250 00:56 19.06.2020
1105 Clear 14 1019 93 10000 2.1 220 00:37 19.06.2020
1106 Clear 14 1019 93 10000 2.1 220 00:19 19.06.2020
1107 Clear 15 1019 82 10000 2.1 270 23:41 18.06.2020
1108 Clear 15 1019 82 10000 2.1 270 23:23 18.06.2020
1109 Clear 16 1018 82 10000 2.1 270 22:59 18.06.2020
1110 Clear 17 1018 77 10000 2.6 280 22:37 18.06.2020
1111 Clear 17 1018 77 10000 2.6 280 22:18 18.06.2020
1112 Clouds 18 1017 68 10000 3.1 300 21:39 18.06.2020
1113 Clouds 19 1017 68 10000 4.1 270 21:20 18.06.2020
1114 Clouds 19 1017 68 10000 4.1 270 20:57 18.06.2020
1115 Clouds 19 1017 63 10000 5.1 260 20:38 18.06.2020
1116 Clouds 20 1017 63 10000 5.1 260 20:19 18.06.2020
1117 Clouds 20 1016 56 10000 5.7 280 19:42 18.06.2020
1118 Clouds 21 1016 56 10000 5.7 280 19:21 18.06.2020
1119 Clouds 21 1016 56 10000 5.7 270 18:57 18.06.2020
1120 Clouds 21 1016 60 10000 6.2 290 18:37 18.06.2020
1121 Clouds 21 1016 63 10000 4.6 270 18:18 18.06.2020
1122 Clouds 21 1016 63 10000 4.6 270 17:45 18.06.2020
1123 Clouds 21 1016 63 10000 6.2 270 17:25 18.06.2020
1124 Clouds 21 1016 59 10000 6.7 260 16:55 18.06.2020
1125 Clouds 21 1016 60 10000 7.2 260 16:37 18.06.2020
1126 Clouds 21 1016 60 10000 7.2 260 16:18 18.06.2020
1127 Clear 19 1016 68 10000 5.1 260 15:40 18.06.2020
1128 Rain 20 1016 77 10000 2.1 170 15:21 18.06.2020
1129 Rain 20 1016 77 10000 2.1 170 14:58 18.06.2020
1130 Rain 20 1016 77 10000 2.1 170 14:58 18.06.2020
1131 Rain 19 1016 87 10000 2.6 140 14:40 18.06.2020
1132 Rain 17 1016 87 10000 2.6 140 14:21 18.06.2020
1133 Rain 18 1016 82 10000 3.1 160 13:55 18.06.2020
1134 Rain 18 1016 87 10000 2.1 190 13:37 18.06.2020
1135 Rain 18 1016 87 10000 2.1 190 13:18 18.06.2020
1136 Rain 19 1016 82 10000 1.5 0 12:54 18.06.2020
1137 Rain 18 1016 82 10000 1.5 210 12:36 18.06.2020
1138 Rain 17 1016 87 10000 3.6 190 12:18 18.06.2020
1139 Rain 16 1016 93 10000 3.1 180 11:44 18.06.2020
1140 Rain 16 1016 93 10000 3.1 180 11:20 18.06.2020
1141 Rain 15 1016 100 5000 3.1 180 11:20 18.06.2020
1142 Rain 15 1016 93 1900 2.1 180 10:41 18.06.2020
1143 Rain 15 1016 93 10000 2.1 210 10:19 18.06.2020
1144 Rain 14 1016 93 10000 2.1 210 09:55 18.06.2020
1145 Rain 14 1016 93 6000 1.5 200 09:37 18.06.2020
1146 Rain 14 1016 93 6000 1.5 200 09:19 18.06.2020
1147 Rain 14 1015 93 8000 2.6 210 08:40 18.06.2020
1148 Rain 14 1015 93 8000 2.6 210 08:21 18.06.2020
1149 Clouds 13 1015 100 10000 1.5 190 07:46 18.06.2020
1150 Clouds 13 1015 93 10000 2.1 210 07:26 18.06.2020
1151 Clouds 12 1015 100 10000 2.1 200 06:54 18.06.2020
1152 Clouds 12 1015 93 10000 0.5 0 05:55 18.06.2020
1153 Clouds 13 1016 93 10000 1.5 180 04:22 18.06.2020
1154 Clouds 13 1016 93 10000 2.1 220 02:51 18.06.2020
1155 Clouds 14 1017 87 10000 2.6 220 01:28 18.06.2020
1156 Clouds 14 1017 93 10000 2.6 240 00:54 18.06.2020
1157 Clouds 15 1017 93 10000 3.1 250 00:32 18.06.2020
1158 Clouds 14 1017 93 10000 2.6 230 23:57 17.06.2020
1159 Clouds 15 1017 87 10000 3.1 230 23:38 17.06.2020
1160 Clouds 15 1017 87 10000 3.1 230 23:20 17.06.2020
1161 Clouds 15 1016 87 10000 3.1 250 22:57 17.06.2020
1162 Clouds 16 1016 77 10000 3.1 250 22:37 17.06.2020
1163 Clouds 16 1016 77 10000 3.1 250 22:37 17.06.2020
1164 Clouds 16 1016 82 10000 4.1 260 22:19 17.06.2020
1165 Clouds 17 1016 82 10000 4.1 250 21:41 17.06.2020
1166 Clouds 17 1016 82 10000 4.1 250 21:23 17.06.2020
1167 Rain 18 1016 77 10000 4.1 270 20:57 17.06.2020
1168 Clouds 18 1016 72 10000 5.7 270 20:38 17.06.2020
1169 Clouds 18 1016 72 10000 5.7 270 20:19 17.06.2020
1170 Clouds 19 1016 63 10000 6.2 270 19:44 17.06.2020
1171 Clouds 19 1016 63 10000 6.2 270 19:23 17.06.2020
1172 Clouds 19 1016 63 10000 7.2 270 18:56 17.06.2020
1173 Clouds 19 1016 63 10000 8.2 270 18:38 17.06.2020
1174 Clouds 20 1016 63 10000 8.2 270 18:20 17.06.2020
1175 Rain 20 1016 63 10000 8.7 270 17:42 17.06.2020
1176 Rain 18 1016 63 10000 7.2 270 17:22 17.06.2020
1177 Rain 18 1016 63 10000 7.2 270 16:57 17.06.2020
1178 Rain 20 1015 64 10000 7.2 270 16:38 17.06.2020
1179 Rain 19 1015 64 10000 7.2 270 16:20 17.06.2020
1180 Rain 20 1015 72 10000 6.7 260 15:40 17.06.2020
1181 Rain 20 1015 72 10000 6.7 260 15:21 17.06.2020
1182 Rain 18 1015 77 10000 6.7 260 14:59 17.06.2020
1183 Rain 18 1015 88 10000 4.6 250 14:40 17.06.2020
1184 Rain 18 1015 88 10000 4.6 250 14:21 17.06.2020
1185 Rain 17 1015 87 10000 6.2 270 14:00 17.06.2020
1186 Rain 17 1015 77 10000 7.7 260 13:41 17.06.2020
1187 Rain 18 1015 88 10000 7.2 250 13:21 17.06.2020
1188 Rain 16 1015 88 10000 7.2 250 12:55 17.06.2020
1189 Rain 16 1015 87 10000 5.7 240 12:37 17.06.2020
1190 Rain 17 1015 87 10000 5.7 240 12:19 17.06.2020
1191 Rain 17 1015 87 10000 7.2 250 11:44 17.06.2020
1192 Rain 16 1015 87 10000 7.2 250 11:24 17.06.2020
1193 Rain 16 1016 87 10000 7.2 240 10:55 17.06.2020
1194 Rain 16 1015 88 10000 5.1 230 10:36 17.06.2020
1195 Rain 16 1015 88 10000 5.1 230 10:18 17.06.2020
1196 Rain 16 1016 87 10000 4.6 220 09:41 17.06.2020
1197 Rain 16 1016 87 10000 4.6 220 09:21 17.06.2020
1198 Rain 15 1015 87 10000 2.6 210 08:57 17.06.2020
1199 Rain 15 1015 93 10000 4.1 230 08:39 17.06.2020
1200 Rain 14 1015 93 10000 4.1 230 08:19 17.06.2020
1201 Clouds 14 1015 93 10000 3.6 230 07:43 17.06.2020
1202 Clouds 14 1015 93 10000 3.6 230 07:21 17.06.2020
1203 Clouds 14 1015 93 10000 3.1 220 06:56 17.06.2020
1204 Clouds 14 1015 93 10000 3.1 240 06:37 17.06.2020
1205 Rain 14 1015 93 10000 3.1 240 06:19 17.06.2020
1206 Rain 14 1015 93 9000 5.1 250 05:18 17.06.2020
1207 Rain 14 1016 93 6000 3.1 200 03:28 17.06.2020
1208 Clouds 14 1017 93 10000 3.1 210 01:51 17.06.2020
1209 Clouds 15 1017 93 10000 2.1 210 00:46 17.06.2020
1210 Clouds 15 1017 93 10000 2.1 210 00:23 17.06.2020
1211 Clouds 15 1018 93 10000 1.5 240 23:56 16.06.2020
1212 Clouds 15 1018 93 10000 1.5 240 23:56 16.06.2020
1213 Clouds 16 1018 93 10000 3.1 230 23:37 16.06.2020
1214 Clouds 16 1017 93 10000 3.1 220 23:19 16.06.2020
1215 Clouds 16 1017 93 10000 3.1 220 22:55 16.06.2020
1216 Clouds 16 1017 93 10000 2.6 230 22:36 16.06.2020
1217 Clouds 16 1017 93 10000 2.6 230 22:36 16.06.2020
1218 Clouds 16 1017 93 10000 3.1 250 22:18 16.06.2020
1219 Clouds 16 1017 93 10000 3.1 250 21:47 16.06.2020
1220 Clouds 17 1017 87 10000 3.1 250 21:23 16.06.2020
1221 Rain 17 1017 82 4800 5.1 260 20:57 16.06.2020
1222 Clouds 18 1017 72 10000 6.2 260 20:39 16.06.2020
1223 Rain 18 1017 72 10000 5.7 270 20:19 16.06.2020
1224 Rain 19 1017 72 10000 5.7 270 19:57 16.06.2020
1225 Clouds 19 1017 68 10000 5.7 250 19:38 16.06.2020
1226 Clouds 19 1017 68 10000 5.7 250 19:20 16.06.2020
1227 Clouds 20 1017 59 10000 6.2 260 18:45 16.06.2020
1228 Clouds 20 1017 59 10000 6.2 260 18:22 16.06.2020
1229 Clouds 21 1017 56 10000 7.7 270 17:59 16.06.2020
1230 Clouds 19 1017 68 10000 5.7 270 17:39 16.06.2020
1231 Clouds 19 1017 68 10000 5.7 270 17:21 16.06.2020
1232 Rain 19 1017 72 10000 5.1 280 16:59 16.06.2020
1233 Clouds 19 1017 59 10000 7.2 250 16:40 16.06.2020
1234 Clouds 20 1017 59 10000 7.2 250 16:20 16.06.2020
1235 Clouds 21 1017 60 10000 7.7 250 15:57 16.06.2020
1236 Clouds 21 1017 56 10000 9.3 250 15:39 16.06.2020
1237 Clouds 20 1017 60 10000 8.7 240 15:21 16.06.2020
1238 Clouds 20 1017 60 10000 8.7 240 14:56 16.06.2020
1239 Rain 20 1017 56 10000 8.2 250 14:37 16.06.2020
1240 Rain 20 1018 56 10000 7.2 250 14:19 16.06.2020
1241 Clouds 20 1018 56 10000 6.2 240 13:45 16.06.2020
1242 Clouds 20 1018 56 10000 6.2 240 13:25 16.06.2020
1243 Rain 19 1018 68 10000 5.7 230 12:43 16.06.2020
1244 Rain 19 1018 68 10000 5.7 230 12:23 16.06.2020
1245 Rain 19 1018 77 10000 4.4 222 11:58 16.06.2020
1246 Rain 18 1019 88 10000 5.1 260 11:40 16.06.2020
1247 Rain 18 1019 88 10000 5.1 260 11:40 16.06.2020
1248 Rain 17 1019 88 10000 5.1 260 11:22 16.06.2020
1249 Rain 18 1019 88 10000 4.26 235 10:58 16.06.2020
1250 Rain 17 1019 88 9000 4.26 235 10:38 16.06.2020
1251 Rain 17 1019 88 9000 3.02 244 10:20 16.06.2020
1252 Rain 17 1019 87 10000 2.6 220 09:44 16.06.2020
1253 Rain 17 1019 87 10000 2.6 220 09:23 16.06.2020
1254 Clouds 16 1019 87 10000 2.6 230 08:53 16.06.2020
1255 Clouds 16 1019 93 10000 2.1 210 08:32 16.06.2020
1256 Clouds 15 1019 93 10000 2.6 220 07:52 16.06.2020
1257 Clouds 15 1019 93 10000 2.1 200 07:29 16.06.2020
1258 Clouds 15 1019 93 10000 2.1 200 06:57 16.06.2020
1259 Clouds 15 1019 93 10000 2.1 180 06:33 16.06.2020
1260 Clouds 15 1019 93 10000 1.5 190 05:50 16.06.2020
1261 Clouds 15 1020 93 10000 1.5 210 04:54 16.06.2020
1262 Clouds 16 1020 87 10000 2.1 230 03:55 16.06.2020
1263 Clouds 16 1021 87 10000 3.1 210 02:33 16.06.2020
1264 Clouds 16 1021 87 10000 2.6 230 01:33 16.06.2020
1265 Clouds 16 1021 87 10000 2.6 230 01:33 16.06.2020
1266 Clouds 16 1021 87 10000 2.6 220 00:52 16.06.2020
1267 Clouds 15 1021 87 10000 2.1 210 00:22 16.06.2020
1268 Clouds 16 1021 82 10000 2.1 230 23:43 15.06.2020
1269 Clouds 17 1021 82 10000 2.1 230 23:24 15.06.2020
1270 Clouds 16 1021 82 10000 3.1 240 22:59 15.06.2020
1271 Clouds 17 1021 77 10000 2.6 230 22:41 15.06.2020
1272 Clouds 17 1021 77 10000 2.6 230 22:41 15.06.2020
1273 Clouds 17 1021 77 10000 2.6 230 22:22 15.06.2020
1274 Clouds 18 1021 72 10000 2.1 250 21:57 15.06.2020
1275 Clouds 19 1021 68 10000 3.6 260 21:38 15.06.2020
1276 Clouds 19 1021 68 10000 3.6 260 21:19 15.06.2020
1277 Clouds 20 1021 63 10000 5.1 260 20:57 15.06.2020
1278 Clouds 20 1021 63 10000 5.7 270 20:38 15.06.2020
1279 Clouds 20 1021 63 10000 5.7 270 20:19 15.06.2020
1280 Clouds 21 1021 63 10000 6.2 260 19:56 15.06.2020
1281 Clouds 21 1021 60 10000 6.7 270 19:38 15.06.2020
1282 Clouds 22 1021 60 10000 6.7 270 19:20 15.06.2020
1283 Clouds 22 1021 56 10000 6.7 260 18:56 15.06.2020
1284 Clouds 21 1021 56 10000 7.2 250 18:37 15.06.2020
1285 Clouds 22 1021 56 10000 7.2 250 18:19 15.06.2020
1286 Clouds 22 1021 60 10000 6.7 270 17:42 15.06.2020
1287 Clouds 23 1021 60 10000 6.7 270 17:22 15.06.2020
1288 Clouds 23 1021 60 10000 6.7 260 16:59 15.06.2020
1289 Clouds 23 1021 60 10000 6.7 260 16:59 15.06.2020
1290 Clouds 22 1021 60 10000 6.2 270 16:41 15.06.2020
1291 Clouds 23 1021 60 10000 6.2 270 16:19 15.06.2020
1292 Clouds 23 1021 60 10000 6.7 270 15:56 15.06.2020
1293 Clouds 22 1021 60 10000 6.7 260 15:37 15.06.2020
1294 Clouds 21 1021 60 10000 6.7 260 15:18 15.06.2020
1295 Clear 21 1021 56 10000 6.7 250 14:42 15.06.2020
1296 Clouds 22 1021 56 10000 6.7 250 14:21 15.06.2020
1297 Clouds 22 1021 60 10000 6.2 250 13:59 15.06.2020
1298 Clouds 22 1021 60 10000 6.2 250 13:59 15.06.2020
1299 Clouds 21 1022 60 10000 5.7 250 13:40 15.06.2020
1300 Clouds 21 1022 60 10000 5.7 250 13:22 15.06.2020
1301 Clouds 20 1022 68 10000 6.2 250 12:56 15.06.2020
1302 Clouds 21 1021 60 10000 6.2 240 12:38 15.06.2020
1303 Clouds 21 1021 60 10000 6.2 240 12:19 15.06.2020
1304 Clouds 20 1021 68 10000 5.7 240 11:43 15.06.2020
1305 Clouds 20 1021 68 10000 5.7 240 11:24 15.06.2020
1306 Clouds 20 1021 68 10000 5.7 230 10:44 15.06.2020
1307 Clouds 18 1021 72 10000 4.6 240 10:22 15.06.2020
1308 Clouds 18 1021 82 10000 3.6 230 09:48 15.06.2020
1309 Clouds 17 1021 87 10000 3.1 210 09:27 15.06.2020
1310 Clouds 16 1021 93 10000 2.6 210 08:58 15.06.2020
1311 Clouds 15 1021 93 10000 2.1 200 08:39 15.06.2020
1312 Clouds 14 1021 100 10000 1.5 190 08:20 15.06.2020
1313 Clouds 14 1021 93 10000 1.5 190 07:45 15.06.2020
1314 Clouds 14 1021 93 10000 1.5 190 07:26 15.06.2020
1315 Fog 13 1021 93 10000 1 180 06:48 15.06.2020
1316 Clouds 13 1021 93 10000 1.5 200 06:25 15.06.2020
1317 Clouds 13 1020 93 10000 1.5 180 05:46 15.06.2020
1318 Fog 14 1021 93 10000 2.3 231 05:25 15.06.2020
1319 Clouds 14 1021 93 10000 1.5 200 04:20 15.06.2020
1320 Fog 14 1021 93 10000 1 0 03:41 15.06.2020
1321 Clouds 14 1021 93 10000 2.1 190 02:53 15.06.2020
1322 Clouds 15 1021 87 10000 2.1 190 01:53 15.06.2020
1323 Clouds 15 1021 87 10000 2.1 230 01:32 15.06.2020
1324 Clouds 15 1021 87 10000 2.1 220 00:58 15.06.2020
1325 Clouds 16 1021 82 10000 1.5 210 00:39 15.06.2020
1326 Clouds 15 1021 82 10000 1.5 210 00:19 15.06.2020
1327 Clear 16 1021 82 10000 2.6 230 23:46 14.06.2020
1328 Clear 16 1021 77 10000 1.5 240 23:24 14.06.2020
1329 Clear 16 1021 77 10000 2.6 250 22:58 14.06.2020
1330 Clear 18 1020 72 10000 3.6 270 22:39 14.06.2020
1331 Clear 19 1020 72 10000 3.6 270 22:19 14.06.2020
1332 Clear 19 1020 68 10000 3.6 260 21:57 14.06.2020
1333 Clouds 20 1020 63 10000 5.1 260 21:38 14.06.2020
1334 Clouds 20 1020 63 10000 5.1 260 21:19 14.06.2020
1335 Clouds 20 1020 60 10000 6.2 260 20:58 14.06.2020
1336 Clouds 21 1019 56 10000 5.1 270 20:38 14.06.2020
1337 Clouds 21 1019 56 10000 5.1 270 20:19 14.06.2020
1338 Clouds 21 1019 52 10000 6.2 270 19:58 14.06.2020
1339 Clouds 22 1019 46 10000 6.2 260 19:38 14.06.2020
1340 Clouds 23 1019 46 10000 6.2 260 19:19 14.06.2020
1341 Clouds 22 1019 46 10000 6.2 260 18:56 14.06.2020
1342 Clouds 23 1019 46 10000 6.2 260 18:56 14.06.2020
1343 Clouds 23 1019 49 10000 5.7 260 18:37 14.06.2020
1344 Clouds 23 1019 49 10000 5.7 260 18:19 14.06.2020
1345 Clouds 23 1019 49 10000 5.1 280 17:56 14.06.2020
1346 Clouds 22 1019 49 10000 5.1 290 17:38 14.06.2020
1347 Clouds 23 1019 49 10000 5.1 290 17:19 14.06.2020
1348 Clouds 22 1019 46 10000 5.7 260 16:40 14.06.2020
1349 Clouds 24 1019 46 10000 5.7 260 16:20 14.06.2020
1350 Clouds 22 1019 49 10000 6.2 260 15:58 14.06.2020
1351 Clouds 22 1019 52 10000 5.1 270 15:40 14.06.2020
1352 Clouds 22 1019 52 10000 5.1 270 15:18 14.06.2020
1353 Clouds 21 1019 49 10000 5.1 270 14:58 14.06.2020
1354 Clouds 21 1019 49 10000 5.1 270 14:58 14.06.2020
1355 Clouds 22 1020 52 10000 5.7 250 14:40 14.06.2020
1356 Clouds 21 1020 52 10000 5.7 290 14:19 14.06.2020
1357 Rain 21 1020 49 10000 6.2 250 13:42 14.06.2020
1358 Rain 21 1020 49 10000 6.2 250 13:22 14.06.2020
1359 Rain 20 1020 56 10000 6.2 250 12:59 14.06.2020
1360 Clouds 21 1019 59 10000 5.1 250 12:41 14.06.2020
1361 Clouds 20 1019 59 10000 5.1 250 12:23 14.06.2020
1362 Clouds 20 1019 63 10000 4.1 250 11:59 14.06.2020
1363 Clouds 20 1019 63 10000 5.1 260 11:40 14.06.2020
1364 Clouds 19 1019 63 10000 5.1 260 11:22 14.06.2020
1365 Clouds 19 1019 72 10000 5.1 250 11:00 14.06.2020
1366 Clouds 18 1019 77 10000 3.6 230 10:40 14.06.2020
1367 Clouds 18 1019 82 10000 3.1 220 10:18 14.06.2020
1368 Clouds 17 1019 82 10000 3.1 200 09:44 14.06.2020
1369 Clouds 16 1019 82 10000 3.1 200 09:24 14.06.2020
1370 Clouds 15 1019 93 10000 3.1 200 08:43 14.06.2020
1371 Clouds 14 1019 93 10000 3.1 200 08:22 14.06.2020
1372 Clouds 14 1018 93 10000 2.6 180 07:55 14.06.2020
1373 Clouds 14 1018 87 10000 2.6 180 07:35 14.06.2020
1374 Clouds 14 1018 87 10000 2.6 170 06:58 14.06.2020
1375 Clouds 14 1018 87 10000 3.1 200 05:56 14.06.2020
1376 Clouds 14 1018 87 10000 3.6 200 05:34 14.06.2020
1377 Clouds 15 1018 87 10000 3.6 220 04:39 14.06.2020
1378 Clouds 15 1018 87 10000 2.1 240 03:55 14.06.2020
1379 Clouds 15 1018 87 10000 2.6 210 02:40 14.06.2020
1380 Clouds 15 1018 87 10000 2.6 210 02:18 14.06.2020
1381 Clear 16 1018 87 10000 1.5 200 01:27 14.06.2020
1382 Clear 16 1018 82 10000 2.6 180 00:48 14.06.2020
1383 Clouds 15 1018 82 10000 2.6 200 00:21 14.06.2020
1384 Clouds 15 1018 87 10000 2.1 190 23:46 13.06.2020
1385 Clouds 15 1018 87 10000 2.1 190 23:26 13.06.2020
1386 Clear 15 1017 82 10000 1.5 190 22:58 13.06.2020
1387 Clear 15 1017 82 10000 2.1 220 22:38 13.06.2020
1388 Clouds 17 1016 77 10000 3.6 250 22:19 13.06.2020
1389 Clouds 17 1016 77 10000 3.6 250 21:57 13.06.2020
1390 Clouds 18 1016 72 10000 4.1 250 21:39 13.06.2020
1391 Clouds 18 1016 72 10000 4.1 250 21:21 13.06.2020
1392 Clouds 19 1015 63 10000 7.2 250 20:44 13.06.2020
1393 Clouds 19 1015 63 10000 7.2 250 20:20 13.06.2020
1394 Clouds 20 1015 63 10000 6.7 250 19:58 13.06.2020
1395 Clouds 20 1015 63 10000 7.7 250 19:37 13.06.2020
1396 Clouds 20 1015 63 10000 7.7 250 19:18 13.06.2020
1397 Clouds 20 1015 59 10000 7.7 250 18:57 13.06.2020
1398 Clouds 20 1015 59 10000 7.7 250 18:57 13.06.2020
1399 Clouds 21 1015 59 10000 9.3 250 18:38 13.06.2020
1400 Clouds 21 1015 59 10000 9.3 250 18:18 13.06.2020
1401 Clouds 20 1014 59 10000 9.3 250 17:55 13.06.2020
1402 Clouds 20 1014 59 10000 9.3 250 17:55 13.06.2020
1403 Clouds 20 1014 63 10000 8.2 250 17:36 13.06.2020
1404 Clouds 20 1014 63 10000 8.2 250 17:18 13.06.2020
1405 Clouds 19 1014 72 10000 8.2 250 16:41 13.06.2020
1406 Clouds 19 1014 72 10000 8.2 250 16:19 13.06.2020
1407 Clouds 19 1014 72 10000 9.3 250 15:59 13.06.2020
1408 Rain 18 1013 72 10000 9.8 240 15:39 13.06.2020
1409 Rain 18 1013 72 10000 9.8 240 15:20 13.06.2020
1410 Rain 17 1013 88 10000 7.7 240 14:43 13.06.2020
1411 Rain 17 1013 88 10000 7.7 240 14:22 13.06.2020
1412 Rain 16 1012 93 8000 7.2 230 13:56 13.06.2020
1413 Rain 16 1012 87 10000 7.2 230 13:37 13.06.2020
1414 Rain 15 1012 93 10000 7.7 220 13:18 13.06.2020
1415 Rain 15 1012 93 10000 6.2 220 12:42 13.06.2020
1416 Rain 15 1012 93 10000 6.2 220 12:24 13.06.2020
1417 Rain 15 1011 93 8000 6.7 200 11:40 13.06.2020
1418 Rain 14 1011 93 8000 6.7 200 11:20 13.06.2020
1419 Rain 14 1010 93 8000 7.2 220 10:58 13.06.2020
1420 Rain 15 1010 87 10000 5.7 220 10:40 13.06.2020
1421 Rain 15 1010 87 10000 5.7 220 10:22 13.06.2020
1422 Mist 14 1010 100 4900 7.2 210 09:54 13.06.2020
1423 Rain 14 1009 93 10000 6.2 200 09:36 13.06.2020
1424 Rain 14 1009 93 10000 5.7 180 09:18 13.06.2020
1425 Rain 13 1009 93 6000 5.1 180 08:42 13.06.2020
1426 Rain 13 1009 93 6000 5.1 180 08:24 13.06.2020
1427 Clouds 13 1008 93 10000 5.7 170 07:43 13.06.2020
1428 Clouds 13 1008 93 10000 5.7 170 07:25 13.06.2020
1429 Rain 12 1008 93 10000 5.1 170 06:44 13.06.2020
1430 Rain 12 1008 93 10000 5.1 170 06:25 13.06.2020
1431 Clouds 12 1007 93 10000 5.1 160 05:28 13.06.2020
1432 Clouds 12 1007 100 10000 4.6 160 04:38 13.06.2020
1433 Clouds 11 1007 100 10000 3.6 150 03:43 13.06.2020
1434 Clouds 12 1007 100 10000 2.6 160 02:45 13.06.2020
1435 Clouds 12 1007 93 10000 2.6 160 01:49 13.06.2020
1436 Clouds 12 1007 93 10000 2.6 170 01:23 13.06.2020
1437 Clouds 12 1006 93 10000 3.1 180 00:54 13.06.2020
1438 Clouds 13 1006 87 10000 3.1 200 00:27 13.06.2020
1439 Clouds 13 1006 93 10000 3.1 220 23:58 12.06.2020
1440 Clouds 13 1006 93 10000 3.1 230 23:38 12.06.2020
1441 Clouds 13 1006 93 10000 3.1 230 23:18 12.06.2020
1442 Clouds 14 1006 87 10000 3.1 200 22:43 12.06.2020
1443 Rain 14 1006 87 10000 5.7 240 22:19 12.06.2020
1444 Rain 15 1006 87 10000 5.7 240 21:56 12.06.2020
1445 Rain 16 1005 77 10000 5.7 230 21:37 12.06.2020
1446 Clouds 17 1005 67 10000 6.2 250 21:19 12.06.2020
1447 Clouds 17 1005 67 10000 6.2 250 20:56 12.06.2020
1448 Clouds 18 1004 63 10000 6.7 250 20:37 12.06.2020
1449 Clouds 19 1004 63 10000 6.7 250 20:19 12.06.2020
1450 Clouds 20 1003 52 10000 7.2 250 19:39 12.06.2020
1451 Clouds 20 1003 52 10000 7.2 250 19:21 12.06.2020
1452 Clouds 20 1003 52 10000 6.7 220 18:56 12.06.2020
1453 Clouds 20 1003 48 10000 6.7 250 18:36 12.06.2020
1454 Clouds 20 1003 55 10000 8.7 250 18:18 12.06.2020
1455 Clouds 20 1003 52 10000 8.7 230 17:40 12.06.2020
1456 Clouds 21 1003 59 10000 9.8 250 17:21 12.06.2020
1457 Clouds 21 1003 59 10000 9.8 250 16:45 12.06.2020
1458 Clouds 21 1002 59 10000 8.2 240 16:21 12.06.2020
1459 Clouds 20 1002 59 10000 7.2 230 15:49 12.06.2020
1460 Clouds 20 1002 59 10000 7.2 220 15:28 12.06.2020
1461 Clouds 20 1002 63 10000 8.2 230 14:58 12.06.2020
1462 Clouds 18 1001 59 10000 5.7 190 14:39 12.06.2020
1463 Rain 19 1001 59 10000 5.7 190 14:21 12.06.2020
1464 Clouds 18 1001 67 10000 6.2 220 13:43 12.06.2020
1465 Clouds 17 1001 67 10000 6.2 220 13:22 12.06.2020
1466 Rain 16 1002 82 10000 4.1 190 12:55 12.06.2020
1467 Rain 15 1002 82 7000 4.1 210 12:37 12.06.2020
1468 Rain 17 1001 63 10000 4.6 210 12:18 12.06.2020
1469 Clouds 18 1001 67 10000 5.1 220 11:42 12.06.2020
1470 Clouds 18 1001 67 10000 5.1 220 11:23 12.06.2020
1471 Clouds 17 1001 72 10000 4.6 190 10:47 12.06.2020
1472 Clouds 16 1001 82 10000 4.1 150 10:25 12.06.2020
1473 Clouds 14 1001 87 10000 4.1 140 09:48 12.06.2020
1474 Clouds 12 1001 93 10000 4.6 130 09:22 12.06.2020
1475 Clouds 11 1001 93 10000 5.1 130 08:46 12.06.2020
1476 Clouds 10 1001 93 10000 5.1 130 08:25 12.06.2020
1477 Clouds 10 1001 93 10000 4.1 140 07:57 12.06.2020
1478 Clouds 10 1001 93 10000 4.1 140 07:39 12.06.2020
1479 Clouds 10 1001 93 10000 4.1 140 07:21 12.06.2020
1480 Clouds 10 1001 93 10000 2.6 140 06:40 12.06.2020
1481 Clouds 10 1001 93 10000 2.6 140 06:19 12.06.2020
1482 Clouds 10 1001 100 10000 4.6 160 05:49 12.06.2020
1483 Clouds 10 1001 100 10000 4.1 170 05:23 12.06.2020
1484 Clouds 10 1002 100 10000 2.6 140 03:47 12.06.2020
1485 Clouds 11 1003 93 10000 2.1 200 02:24 12.06.2020
1486 Clouds 11 1003 93 10000 4.1 140 01:33 12.06.2020
1487 Clouds 12 1003 93 10000 4.1 160 00:57 12.06.2020
1488 Rain 12 1005 100 10000 4.1 180 00:38 12.06.2020
1489 Rain 12 1005 100 10000 4.1 180 00:19 12.06.2020
1490 Rain 12 1005 100 10000 3.1 150 23:56 11.06.2020
1491 Rain 12 1005 100 10000 2.1 150 23:36 11.06.2020
1492 Rain 12 1005 100 10000 2.1 150 23:18 11.06.2020
1493 Rain 12 1004 100 10000 2.1 210 22:40 11.06.2020
1494 Rain 12 1004 100 10000 2.1 210 22:20 11.06.2020
1495 Rain 12 1004 100 7000 3.1 140 21:57 11.06.2020
1496 Rain 13 1005 93 10000 3.1 180 21:38 11.06.2020
1497 Rain 13 1004 93 10000 2.6 170 21:20 11.06.2020
1498 Rain 13 1004 93 10000 2.6 160 20:45 11.06.2020
1499 Rain 13 1004 93 10000 2.6 160 20:22 11.06.2020
1500 Rain 14 1004 93 8000 2.6 180 19:58 11.06.2020
1501 Rain 14 1004 93 10000 3.1 210 19:40 11.06.2020
1502 Rain 14 1004 93 10000 3.1 210 19:22 11.06.2020
1503 Rain 14 1004 93 10000 3.1 200 18:42 11.06.2020
1504 Rain 14 1004 93 8000 3.6 240 18:24 11.06.2020
1505 Rain 14 1004 93 10000 4.1 240 17:57 11.06.2020
1506 Rain 14 1004 93 10000 4.1 240 17:38 11.06.2020
1507 Rain 15 1004 87 10000 3.6 250 17:20 11.06.2020
1508 Rain 15 1004 87 10000 3.6 250 16:57 11.06.2020
1509 Rain 15 1004 93 10000 3.1 240 16:38 11.06.2020
1510 Rain 15 1004 87 10000 3.6 230 16:20 11.06.2020
1511 Rain 15 1004 93 2200 4.1 200 15:43 11.06.2020
1512 Rain 15 1004 93 10000 5.7 170 15:25 11.06.2020
1513 Rain 15 1004 93 2100 5.7 170 14:58 11.06.2020
1514 Rain 15 1004 93 2100 5.7 170 14:39 11.06.2020
1515 Rain 15 1004 93 2100 5.7 170 14:39 11.06.2020
1516 Rain 15 1004 100 4900 5.1 170 14:20 11.06.2020
1517 Drizzle 15 1004 100 4700 4.6 170 13:55 11.06.2020
1518 Drizzle 15 1004 100 4700 4.6 170 13:37 11.06.2020
1519 Rain 15 1004 93 3900 5.1 170 13:18 11.06.2020
1520 Rain 15 1005 93 3000 4.1 170 12:54 11.06.2020
1521 Rain 14 1005 93 3000 4.1 170 12:36 11.06.2020
1522 Rain 14 1005 93 5000 4.6 170 12:18 11.06.2020
1523 Rain 15 1005 93 2600 4.1 170 11:56 11.06.2020
1524 Rain 15 1005 93 2600 4.1 170 11:37 11.06.2020
1525 Drizzle 14 1005 93 4600 3.6 160 11:18 11.06.2020
1526 Drizzle 14 1006 93 10000 4.1 160 10:42 11.06.2020
1527 Rain 14 1006 93 10000 3.6 160 10:20 11.06.2020
1528 Drizzle 14 1006 93 10000 3.6 160 09:56 11.06.2020
1529 Drizzle 14 1006 93 10000 3.6 160 09:38 11.06.2020
1530 Drizzle 14 1007 93 8000 3.1 160 09:20 11.06.2020
1531 Drizzle 14 1007 93 10000 2.6 170 08:39 11.06.2020
1532 Drizzle 14 1007 93 10000 2.6 180 08:19 11.06.2020
1533 Clouds 13 1008 93 10000 2.1 200 07:42 11.06.2020
1534 Clouds 13 1008 93 10000 3.6 160 07:23 11.06.2020
1535 Drizzle 13 1008 93 10000 3.6 160 06:35 11.06.2020
1536 Rain 13 1009 93 10000 2.1 160 05:57 11.06.2020
1537 Clouds 13 1010 93 10000 0.5 150 04:48 11.06.2020
1538 Clouds 14 1012 82 10000 2.6 180 03:25 11.06.2020
1539 Clouds 14 1012 82 10000 2.6 190 02:49 11.06.2020
1540 Clouds 14 1013 87 10000 2.6 170 01:57 11.06.2020
1541 Clouds 14 1013 87 10000 2.6 170 01:35 11.06.2020
1542 Clouds 15 1014 87 10000 1 190 00:57 11.06.2020
1543 Clouds 15 1014 87 10000 1 190 00:39 11.06.2020
1544 Clouds 15 1014 82 10000 1.5 170 00:19 11.06.2020
1545 Clouds 15 1015 72 10000 1 150 23:41 10.06.2020
1546 Clouds 16 1015 77 10000 2.1 230 23:22 10.06.2020
1547 Clouds 16 1015 77 10000 2.1 220 22:54 10.06.2020
1548 Clouds 16 1015 77 10000 2.1 220 22:36 10.06.2020
1549 Clouds 16 1015 63 10000 1 0 22:18 10.06.2020
1550 Clouds 17 1015 67 10000 1 0 21:55 10.06.2020
1551 Rain 17 1015 63 10000 1 320 21:37 10.06.2020
1552 Rain 17 1015 63 10000 1 320 21:18 10.06.2020
1553 Rain 17 1015 63 10000 2.6 310 20:54 10.06.2020
1554 Rain 17 1015 63 10000 2.6 310 20:36 10.06.2020
1555 Rain 18 1015 68 10000 3.6 300 20:18 10.06.2020
1556 Rain 18 1015 63 10000 3.6 300 19:38 10.06.2020
1557 Rain 19 1016 59 10000 4.1 300 19:18 10.06.2020
1558 Rain 19 1016 55 10000 2.6 300 18:54 10.06.2020
1559 Rain 19 1016 55 10000 2.6 300 18:36 10.06.2020
1560 Rain 19 1016 55 10000 2.6 300 18:36 10.06.2020
1561 Clouds 20 1016 56 10000 2.6 310 18:18 10.06.2020
1562 Rain 21 1016 56 10000 2.6 310 17:42 10.06.2020
1563 Clouds 21 1016 52 10000 2.1 320 17:21 10.06.2020
1564 Clouds 21 1016 52 10000 2.1 320 16:59 10.06.2020
1565 Clouds 21 1016 52 10000 2.1 320 16:59 10.06.2020
1566 Clouds 20 1016 52 10000 3.1 320 16:41 10.06.2020
1567 Clouds 20 1017 56 10000 3.6 320 16:22 10.06.2020
1568 Clouds 20 1017 52 10000 3.6 340 15:57 10.06.2020
1569 Clouds 20 1017 52 10000 3.6 340 15:37 10.06.2020
1570 Clouds 20 1017 55 10000 3.6 330 15:19 10.06.2020
1571 Clouds 20 1017 55 10000 3.6 300 14:41 10.06.2020
1572 Clouds 21 1017 49 10000 3.6 310 14:22 10.06.2020
1573 Clouds 20 1017 49 10000 3.6 310 13:57 10.06.2020
1574 Clouds 21 1017 52 10000 3.6 300 13:39 10.06.2020
1575 Clouds 21 1018 56 10000 2.1 310 13:21 10.06.2020
1576 Clouds 20 1018 55 10000 1 0 12:41 10.06.2020
1577 Rain 20 1018 63 10000 1.5 320 12:19 10.06.2020
1578 Rain 19 1018 72 10000 1.5 0 11:55 10.06.2020
1579 Rain 18 1018 72 10000 1.5 0 11:37 10.06.2020
1580 Clouds 17 1018 77 10000 1.5 0 11:19 10.06.2020
1581 Clouds 16 1018 77 10000 0.5 0 10:41 10.06.2020
1582 Clouds 15 1018 87 10000 0.5 0 10:22 10.06.2020
1583 Clouds 14 1018 100 10000 0.48 59 09:57 10.06.2020
1584 Clouds 13 1018 100 10000 1 0 09:37 10.06.2020
1585 Clouds 13 1018 100 10000 1 0 09:19 10.06.2020
1586 Clouds 12 1018 93 10000 1 250 08:42 10.06.2020
1587 Clouds 12 1018 93 10000 1 260 08:23 10.06.2020
1588 Clouds 11 1018 100 10000 1 270 07:43 10.06.2020
1589 Fog 10 1018 100 10000 0.8 32 07:23 10.06.2020
1590 Fog 10 1018 93 10000 0.8 32 06:55 10.06.2020
1591 Fog 10 1018 93 10000 0.8 32 06:37 10.06.2020
1592 Fog 10 1018 93 5000 1 290 06:18 10.06.2020
1593 Fog 10 1018 93 5000 1 290 06:18 10.06.2020
1594 Fog 10 1018 93 5000 1 260 05:32 10.06.2020
1595 Fog 11 1018 100 900 1.42 350 04:49 10.06.2020
1596 Fog 11 1018 100 900 1.39 359 04:28 10.06.2020
1597 Fog 12 1019 93 10000 0.5 280 02:33 10.06.2020
1598 Clouds 12 1019 93 10000 1 250 01:42 10.06.2020
1599 Clear 13 1019 87 10000 3.1 310 00:55 10.06.2020
1600 Clear 13 1019 87 10000 3.1 310 00:36 10.06.2020
1601 Clear 14 1019 82 10000 3.1 300 00:18 10.06.2020
1602 Clear 14 1019 87 10000 3.1 300 23:41 09.06.2020
1603 Clear 15 1019 82 10000 3.1 310 23:23 09.06.2020
1604 Clear 15 1019 82 10000 3.1 310 22:57 09.06.2020
1605 Clear 14 1018 82 10000 3.1 290 22:39 09.06.2020
1606 Clear 16 1018 82 10000 3.6 280 22:20 09.06.2020
1607 Clear 16 1018 82 10000 3.6 280 21:57 09.06.2020
1608 Clear 17 1018 77 10000 3.6 250 21:39 09.06.2020
1609 Clear 17 1018 72 10000 4.1 260 21:21 09.06.2020
1610 Rain 16 1018 82 10000 2.6 290 20:57 09.06.2020
1611 Rain 17 1018 72 10000 4.1 260 20:57 09.06.2020
1612 Rain 15 1018 82 10000 2.6 290 20:39 09.06.2020
1613 Rain 16 1018 82 4300 5.1 270 20:20 09.06.2020
1614 Rain 16 1018 82 4300 5.1 270 20:20 09.06.2020
1615 Rain 17 1018 72 10000 6.2 260 19:57 09.06.2020
1616 Rain 17 1018 72 10000 6.2 260 19:39 09.06.2020
1617 Rain 17 1017 72 10000 3.1 280 19:20 09.06.2020
1618 Rain 17 1017 72 10000 3.1 280 19:20 09.06.2020
1619 Rain 18 1017 72 10000 3.1 280 18:57 09.06.2020
1620 Rain 18 1018 72 10000 2.6 320 18:38 09.06.2020
1621 Rain 19 1017 72 10000 1.5 0 18:19 09.06.2020
1622 Thunderstorm 19 1018 72 10000 3.1 270 17:55 09.06.2020
1623 Thunderstorm 19 1018 72 10000 3.1 270 17:55 09.06.2020
1624 Thunderstorm 19 1018 72 10000 3.1 270 17:36 09.06.2020
1625 Thunderstorm 19 1018 72 10000 5.1 280 17:18 09.06.2020
1626 Thunderstorm 20 1018 72 10000 5.1 280 16:42 09.06.2020
1627 Thunderstorm 20 1018 68 10000 4.6 280 16:23 09.06.2020
1628 Rain 20 1018 72 10000 4.1 290 15:55 09.06.2020
1629 Rain 20 1018 72 10000 4.1 290 15:37 09.06.2020
1630 Thunderstorm 21 1018 68 10000 5.1 280 15:19 09.06.2020
1631 Rain 20 1018 77 10000 4.6 270 14:41 09.06.2020
1632 Rain 19 1019 87 4700 5.1 270 14:21 09.06.2020
1633 Rain 18 1019 87 4700 5.1 270 13:58 09.06.2020
1634 Rain 18 1019 87 4700 5.1 270 13:58 09.06.2020
1635 Thunderstorm 19 1018 68 10000 6.2 310 13:39 09.06.2020
1636 Thunderstorm 20 1018 63 10000 4.1 270 13:20 09.06.2020
1637 Rain 20 1018 60 10000 3.1 270 12:43 09.06.2020
1638 Clouds 19 1018 63 10000 3.6 300 12:21 09.06.2020
1639 Clouds 19 1018 63 10000 3.6 300 11:59 09.06.2020
1640 Clouds 19 1018 59 10000 2.6 270 11:41 09.06.2020
1641 Rain 18 1018 72 10000 3.1 250 11:20 09.06.2020
1642 Rain 18 1018 72 10000 3.1 270 10:58 09.06.2020
1643 Rain 18 1018 72 10000 3.1 270 10:40 09.06.2020
1644 Rain 17 1018 77 10000 3.6 270 10:21 09.06.2020
1645 Rain 16 1018 87 10000 3.6 290 09:43 09.06.2020
1646 Rain 15 1018 87 10000 3.6 280 09:24 09.06.2020
1647 Rain 14 1018 87 10000 3.6 280 08:56 09.06.2020
1648 Rain 13 1018 93 10000 2.1 250 08:37 09.06.2020
1649 Clouds 13 1018 93 10000 2.1 250 08:19 09.06.2020
1650 Clouds 12 1018 93 10000 2.1 250 07:38 09.06.2020
1651 Clouds 13 1018 87 10000 2.6 240 07:19 09.06.2020
1652 Clouds 12 1018 100 10000 2.1 250 06:53 09.06.2020
1653 Clouds 12 1018 100 10000 2.1 250 06:33 09.06.2020
1654 Clouds 12 1018 93 10000 1.5 250 05:23 09.06.2020
1655 Clouds 13 1018 87 10000 2.6 290 03:19 09.06.2020
1656 Clouds 13 1018 87 10000 2.1 260 01:42 09.06.2020
1657 Clouds 14 1019 82 10000 2.1 260 01:19 09.06.2020
1658 Clouds 13 1019 87 10000 2.6 270 00:49 09.06.2020
1659 Clouds 14 1018 82 10000 2.6 280 00:20 09.06.2020
1660 Clouds 14 1018 76 10000 2.6 270 23:58 08.06.2020
1661 Clouds 14 1018 76 10000 2.6 270 23:37 08.06.2020
1662 Clouds 14 1018 82 10000 2.6 270 23:19 08.06.2020
1663 Clouds 16 1018 77 10000 2.6 290 22:42 08.06.2020
1664 Clouds 16 1017 72 10000 2.6 310 22:22 08.06.2020
1665 Clouds 17 1017 67 10000 4.6 320 21:58 08.06.2020
1666 Clouds 17 1017 67 10000 4.6 320 21:40 08.06.2020
1667 Clouds 17 1017 67 10000 5.1 320 21:21 08.06.2020
1668 Clouds 18 1016 63 10000 6.2 310 20:57 08.06.2020
1669 Clouds 18 1016 63 10000 6.2 310 20:39 08.06.2020
1670 Clouds 18 1016 68 10000 6.7 320 20:20 08.06.2020
1671 Clouds 19 1016 59 10000 5.7 330 19:55 08.06.2020
1672 Rain 19 1016 77 10000 3.6 320 19:37 08.06.2020
1673 Rain 19 1016 77 10000 3.6 320 19:18 08.06.2020
1674 Rain 19 1016 63 10000 5.7 280 18:40 08.06.2020
1675 Rain 20 1016 63 10000 2.1 310 18:18 08.06.2020
1676 Rain 19 1016 63 10000 3.1 240 17:55 08.06.2020
1677 Rain 18 1016 82 10000 4.1 220 17:37 08.06.2020
1678 Rain 20 1016 82 10000 4.1 220 17:19 08.06.2020
1679 Rain 19 1016 77 10000 2.6 260 16:45 08.06.2020
1680 Rain 19 1016 77 10000 4.6 310 16:25 08.06.2020
1681 Rain 19 1016 77 10000 4.6 310 15:57 08.06.2020
1682 Rain 19 1016 82 10000 2.1 20 15:39 08.06.2020
1683 Rain 19 1016 82 10000 5.1 360 15:19 08.06.2020
1684 Rain 19 1016 68 10000 1.5 0 14:41 08.06.2020
1685 Rain 17 1016 82 10000 2.1 250 14:22 08.06.2020
1686 Rain 16 1016 77 10000 6.2 290 13:56 08.06.2020
1687 Rain 17 1016 77 10000 6.2 290 13:38 08.06.2020
1688 Rain 17 1016 59 10000 2.1 210 13:19 08.06.2020
1689 Rain 19 1016 63 10000 3.6 270 12:40 08.06.2020
1690 Rain 19 1016 55 10000 2.1 220 12:19 08.06.2020
1691 Clouds 19 1016 63 10000 2.1 0 11:42 08.06.2020
1692 Clouds 19 1016 67 10000 2.6 250 11:24 08.06.2020
1693 Clouds 18 1016 67 10000 2.6 250 10:59 08.06.2020
1694 Clouds 18 1016 72 10000 2.6 210 10:40 08.06.2020
1695 Rain 17 1015 77 10000 2.1 220 10:21 08.06.2020
1696 Rain 17 1015 77 10000 2.1 220 10:00 08.06.2020
1697 Rain 16 1015 77 10000 2.6 220 09:41 08.06.2020
1698 Clouds 15 1015 82 10000 3.1 210 09:23 08.06.2020
1699 Clouds 13 1015 93 10000 2.1 200 08:49 08.06.2020
1700 Clouds 13 1015 93 10000 2.1 200 08:49 08.06.2020
1701 Clouds 12 1015 93 10000 1 0 08:23 08.06.2020
1702 Clouds 11 1015 93 10000 1 0 07:48 08.06.2020
1703 Clouds 11 1015 93 10000 0.5 220 07:24 08.06.2020
1704 Clouds 11 1015 93 10000 1.5 200 06:55 08.06.2020
1705 Clouds 11 1015 93 10000 1.5 200 06:36 08.06.2020
1706 Clouds 11 1014 93 10000 1 160 05:54 08.06.2020
1707 Clouds 11 1014 87 10000 1.5 250 04:35 08.06.2020
1708 Clouds 11 1015 87 10000 1.5 250 02:54 08.06.2020
1709 Clouds 12 1015 81 10000 1.5 250 02:25 08.06.2020
1710 Clouds 12 1015 87 10000 2.1 240 01:38 08.06.2020
1711 Clouds 12 1015 81 10000 1.5 250 00:41 08.06.2020
1712 Clouds 13 1015 76 10000 1.5 260 00:18 08.06.2020
1713 Clouds 14 1015 76 10000 1.5 250 23:37 07.06.2020
1714 Clouds 14 1015 71 10000 1.5 260 23:18 07.06.2020
1715 Clouds 14 1015 71 10000 1.5 260 22:55 07.06.2020
1716 Clouds 14 1015 71 10000 1 270 22:36 07.06.2020
1717 Clouds 15 1014 67 10000 3.1 300 22:18 07.06.2020
1718 Clouds 16 1014 63 10000 5.1 290 21:41 07.06.2020
1719 Clouds 16 1014 63 10000 5.1 290 21:41 07.06.2020
1720 Clouds 17 1014 55 10000 5.1 300 21:23 07.06.2020
1721 Clouds 18 1014 55 10000 5.1 290 20:57 07.06.2020
1722 Clear 18 1014 55 10000 5.1 290 20:38 07.06.2020
1723 Clouds 18 1013 52 10000 5.1 290 20:20 07.06.2020
1724 Clouds 18 1013 48 10000 5.1 300 19:56 07.06.2020
1725 Clouds 18 1013 48 10000 5.1 300 19:38 07.06.2020
1726 Rain 19 1013 48 10000 5.7 270 19:19 07.06.2020
1727 Clouds 19 1013 42 10000 5.1 290 18:55 07.06.2020
1728 Clouds 20 1013 42 10000 5.1 290 18:37 07.06.2020
1729 Clouds 19 1013 52 10000 4.1 330 18:18 07.06.2020
1730 Clouds 20 1013 48 10000 4.1 340 17:55 07.06.2020
1731 Clouds 19 1013 48 10000 4.1 340 17:37 07.06.2020
1732 Clouds 19 1013 48 10000 4.1 330 17:19 07.06.2020
1733 Clouds 18 1013 52 10000 4.1 280 16:42 07.06.2020
1734 Clouds 19 1013 48 10000 3.6 290 16:21 07.06.2020
1735 Clouds 19 1013 48 10000 3.6 290 16:21 07.06.2020
1736 Clouds 18 1013 52 10000 3.6 320 15:40 07.06.2020
1737 Rain 18 1013 52 10000 3.6 310 15:20 07.06.2020
1738 Rain 20 1013 52 10000 2.6 310 14:40 07.06.2020
1739 Clouds 19 1013 55 10000 3.1 330 14:21 07.06.2020
1740 Clouds 18 1013 55 10000 3.1 340 13:48 07.06.2020
1741 Clouds 19 1013 59 10000 3.6 330 13:21 07.06.2020
1742 Clouds 18 1013 59 10000 2.6 0 12:55 07.06.2020
1743 Clouds 18 1013 59 10000 2.6 0 12:36 07.06.2020
1744 Clouds 17 1013 59 10000 1 0 12:18 07.06.2020
1745 Clouds 17 1013 72 10000 1.5 40 11:54 07.06.2020
1746 Clouds 16 1013 72 10000 1.5 40 11:36 07.06.2020
1747 Clouds 15 1013 76 10000 2.6 20 11:18 07.06.2020
1748 Clouds 15 1013 71 10000 5.1 330 10:42 07.06.2020
1749 Clouds 15 1012 58 10000 1 0 10:20 07.06.2020
1750 Clouds 15 1012 58 10000 1 0 09:57 07.06.2020
1751 Clouds 14 1012 71 10000 2.1 210 09:38 07.06.2020
1752 Clouds 14 1011 71 10000 1 230 09:20 07.06.2020
1753 Clouds 13 1011 81 10000 1.5 200 08:48 07.06.2020
1754 Clouds 11 1011 87 10000 1.5 210 08:23 07.06.2020
1755 Clouds 11 1011 87 10000 1.5 230 07:50 07.06.2020
1756 Clouds 10 1011 87 10000 1.5 230 07:29 07.06.2020
1757 Clouds 10 1011 81 10000 1 0 06:48 07.06.2020
1758 Clouds 11 1010 76 10000 1 290 05:41 07.06.2020
1759 Clouds 12 1011 76 10000 0.5 310 04:20 07.06.2020
1760 Clouds 12 1011 81 10000 2.29 354 02:34 07.06.2020
1761 Clouds 13 1010 81 10000 1.5 360 01:50 07.06.2020
1762 Clouds 13 1010 76 10000 1.5 310 01:25 07.06.2020
1763 Clouds 13 1010 82 10000 1.5 330 00:45 07.06.2020
1764 Clouds 14 1010 76 10000 1.5 330 00:19 07.06.2020
1765 Clouds 15 1010 72 10000 3.1 330 23:57 06.06.2020
1766 Clouds 15 1010 72 10000 3.1 330 23:36 06.06.2020
1767 Clouds 15 1010 72 10000 3.1 310 23:18 06.06.2020
1768 Clouds 15 1010 77 10000 2.6 320 22:56 06.06.2020
1769 Clouds 15 1010 77 10000 2.6 320 22:37 06.06.2020
1770 Clouds 16 1009 72 10000 2.6 300 22:18 06.06.2020
1771 Clouds 16 1009 72 10000 3.1 310 21:44 06.06.2020
1772 Clouds 16 1009 67 10000 4.6 310 21:22 06.06.2020
1773 Clouds 17 1009 67 10000 4.6 310 20:56 06.06.2020
1774 Clouds 17 1009 67 10000 4.6 290 20:37 06.06.2020
1775 Clouds 17 1009 63 10000 5.1 290 20:18 06.06.2020
1776 Clouds 18 1009 68 10000 5.1 290 19:56 06.06.2020
1777 Clouds 18 1009 68 10000 5.1 290 19:37 06.06.2020
1778 Clouds 18 1009 68 10000 5.1 290 19:37 06.06.2020
1779 Clouds 18 1009 63 10000 4.6 290 19:19 06.06.2020
1780 Clouds 18 1009 68 10000 4.6 310 18:43 06.06.2020
1781 Clouds 19 1009 63 10000 5.1 300 18:24 06.06.2020
1782 Clouds 19 1009 63 10000 5.7 290 17:58 06.06.2020
1783 Clouds 19 1009 63 10000 5.7 290 17:39 06.06.2020
1784 Clouds 19 1009 63 10000 4.6 310 17:18 06.06.2020
1785 Clouds 20 1009 64 10000 5.1 290 16:41 06.06.2020
1786 Clouds 19 1009 68 10000 5.1 300 16:22 06.06.2020
1787 Clouds 20 1009 68 10000 5.1 300 15:56 06.06.2020
1788 Rain 19 1009 72 10000 6.2 290 15:37 06.06.2020
1789 Rain 19 1009 88 10000 6.2 280 15:18 06.06.2020
1790 Clouds 19 1009 72 10000 4.6 310 14:40 06.06.2020
1791 Clouds 20 1010 77 10000 5.1 290 14:22 06.06.2020
1792 Clouds 21 1010 64 10000 7.2 260 13:55 06.06.2020
1793 Clouds 20 1010 64 10000 7.2 260 13:37 06.06.2020
1794 Clouds 21 1010 64 10000 7.2 250 13:18 06.06.2020
1795 Clouds 20 1009 72 10000 5.7 270 12:42 06.06.2020
1796 Clouds 20 1010 77 10000 6.7 260 12:23 06.06.2020
1797 Clouds 19 1010 77 10000 6.7 260 11:58 06.06.2020
1798 Clouds 19 1009 77 10000 6.2 280 11:38 06.06.2020
1799 Clouds 18 1010 87 10000 5.1 270 11:20 06.06.2020
1800 Clouds 17 1010 87 10000 5.1 270 10:57 06.06.2020
1801 Rain 17 1010 93 7000 5.7 280 10:39 06.06.2020
1802 Clouds 17 1009 93 10000 4.1 280 10:20 06.06.2020
1803 Clouds 17 1009 82 10000 4.1 260 09:45 06.06.2020
1804 Clouds 17 1009 82 10000 4.1 260 09:27 06.06.2020
1805 Clouds 16 1009 87 10000 3.1 240 08:56 06.06.2020
1806 Clouds 16 1009 93 10000 2.6 230 08:38 06.06.2020
1807 Clouds 15 1010 93 10000 2.6 220 08:19 06.06.2020
1808 Clouds 15 1010 93 10000 2.6 220 08:19 06.06.2020
1809 Clouds 15 1010 87 10000 2.6 270 07:45 06.06.2020
1810 Clouds 15 1010 87 10000 2.6 270 07:21 06.06.2020
1811 Clouds 15 1009 87 10000 3.1 270 06:46 06.06.2020
1812 Clouds 15 1009 87 10000 3.6 260 06:27 06.06.2020
1813 Clouds 15 1010 87 10000 4.6 270 05:52 06.06.2020
1814 Clouds 15 1010 87 10000 4.6 270 05:26 06.06.2020
1815 Clouds 16 1010 87 10000 4.1 260 04:38 06.06.2020
1816 Clouds 15 1010 100 10000 4.1 230 02:36 06.06.2020
1817 Clouds 15 1010 93 10000 3.6 250 01:42 06.06.2020
1818 Clouds 15 1010 93 10000 7.2 270 01:18 06.06.2020
1819 Clouds 16 1011 87 10000 3.6 240 00:41 06.06.2020
1820 Clouds 16 1011 87 10000 5.7 260 00:23 06.06.2020
1821 Clouds 16 1011 87 10000 6.2 250 23:40 05.06.2020
1822 Clouds 16 1010 87 10000 5.1 240 23:21 05.06.2020
1823 Clouds 16 1010 87 10000 5.1 240 22:58 05.06.2020
1824 Clouds 16 1010 87 10000 4.6 250 22:40 05.06.2020
1825 Clouds 16 1010 87 10000 4.1 240 22:22 05.06.2020
1826 Clouds 16 1010 87 10000 4.1 260 21:55 05.06.2020
1827 Clouds 16 1010 87 10000 4.1 260 21:37 05.06.2020
1828 Clouds 17 1010 82 10000 4.6 250 21:18 05.06.2020
1829 Clouds 17 1010 88 10000 4.6 260 20:45 05.06.2020
1830 Rain 17 1010 82 10000 5.7 260 20:23 05.06.2020
1831 Rain 17 1010 82 10000 5.7 260 19:59 05.06.2020
1832 Clouds 17 1010 82 10000 7.7 250 19:39 05.06.2020
1833 Clouds 18 1010 77 10000 7.2 250 19:21 05.06.2020
1834 Clouds 17 1010 82 10000 7.7 260 18:40 05.06.2020
1835 Clouds 19 1010 77 10000 7.2 260 18:21 05.06.2020
1836 Clouds 19 1010 77 10000 7.2 260 18:21 05.06.2020
1837 Rain 18 1010 82 10000 8.7 280 17:59 05.06.2020
1838 Rain 18 1010 82 10000 8.7 280 17:41 05.06.2020
1839 Clouds 18 1010 77 10000 8.2 280 17:20 05.06.2020
1840 Clouds 19 1010 72 10000 7.7 260 16:57 05.06.2020
1841 Clouds 19 1010 72 10000 7.7 260 16:37 05.06.2020
1842 Clouds 19 1010 77 10000 8.7 270 16:19 05.06.2020
1843 Clouds 19 1010 68 9000 9.8 260 15:38 05.06.2020
1844 Clouds 19 1010 82 10000 9.3 260 15:20 05.06.2020
1845 Clouds 19 1010 82 10000 9.3 260 14:57 05.06.2020
1846 Clouds 18 1010 77 10000 8.7 250 14:39 05.06.2020
1847 Clouds 18 1010 82 10000 9.3 260 14:21 05.06.2020
1848 Rain 18 1010 77 10000 8.2 270 13:44 05.06.2020
1849 Clouds 18 1010 77 10000 8.2 260 13:26 05.06.2020
1850 Clouds 17 1010 77 10000 8.2 260 12:55 05.06.2020
1851 Clouds 17 1010 77 10000 8.7 260 12:37 05.06.2020
1852 Clouds 17 1010 82 10000 7.7 270 12:18 05.06.2020
1853 Clouds 17 1010 77 10000 6.7 270 11:42 05.06.2020
1854 Clouds 18 1010 72 10000 7.7 260 11:23 05.06.2020
1855 Clouds 18 1010 72 10000 7.7 260 10:57 05.06.2020
1856 Clouds 17 1010 82 10000 7.2 260 10:39 05.06.2020
1857 Clouds 16 1010 87 10000 5.1 270 10:19 05.06.2020
1858 Clouds 16 1010 87 10000 5.1 270 09:56 05.06.2020
1859 Clouds 16 1010 87 10000 5.7 270 09:37 05.06.2020
1860 Clouds 15 1010 93 10000 4.1 250 09:18 05.06.2020
1861 Clouds 15 1010 93 10000 4.1 250 08:56 05.06.2020
1862 Clouds 14 1010 93 10000 3.1 260 08:38 05.06.2020
1863 Clouds 14 1010 100 10000 4.6 280 08:18 05.06.2020
1864 Drizzle 14 1009 93 7000 5.7 260 07:44 05.06.2020
1865 Drizzle 14 1009 93 10000 3.6 250 07:25 05.06.2020
1866 Clouds 14 1009 87 10000 3.6 260 06:36 05.06.2020
1867 Clouds 14 1009 76 10000 2.1 270 05:22 05.06.2020
1868 Clouds 14 1009 76 10000 3.1 260 04:27 05.06.2020
1869 Clouds 15 1009 76 10000 3.6 260 03:19 05.06.2020
1870 Clouds 15 1009 77 10000 3.6 270 02:25 05.06.2020
1871 Clouds 15 1009 77 10000 3.6 270 01:56 05.06.2020
1872 Clouds 15 1009 77 10000 4.6 300 01:27 05.06.2020
1873 Clouds 15 1009 82 10000 2.6 270 00:42 05.06.2020
1874 Clouds 15 1008 82 10000 3.1 290 00:21 05.06.2020
1875 Clouds 16 1008 82 10000 3.6 300 23:46 04.06.2020
1876 Clouds 16 1008 82 10000 3.6 300 23:46 04.06.2020
1877 Clouds 16 1008 77 10000 4.1 300 23:28 04.06.2020
1878 Clouds 16 1007 77 10000 5.1 310 22:56 04.06.2020
1879 Clouds 16 1007 77 10000 5.1 310 22:36 04.06.2020
1880 Clouds 17 1007 72 10000 5.1 310 22:18 04.06.2020
1881 Clouds 17 1007 72 10000 5.1 310 21:56 04.06.2020
1882 Clouds 18 1006 67 10000 6.7 310 21:36 04.06.2020
1883 Clouds 18 1006 59 10000 7.7 320 21:18 04.06.2020
1884 Clouds 19 1005 63 10000 7.2 310 20:40 04.06.2020
1885 Clouds 20 1005 60 10000 8.2 310 20:22 04.06.2020
1886 Clouds 20 1005 60 10000 8.2 310 19:59 04.06.2020
1887 Clouds 20 1005 60 10000 8.2 310 19:39 04.06.2020
1888 Rain 20 1004 56 10000 7.7 310 19:21 04.06.2020
1889 Rain 21 1004 56 10000 8.7 300 18:56 04.06.2020
1890 Rain 21 1004 56 10000 8.7 300 18:37 04.06.2020
1891 Rain 20 1004 60 10000 9.8 300 18:19 04.06.2020
1892 Rain 21 1003 53 10000 7.7 310 17:42 04.06.2020
1893 Thunderstorm 21 1003 53 10000 7.2 310 17:21 04.06.2020
1894 Thunderstorm 22 1003 53 10000 7.2 310 16:55 04.06.2020
1895 Thunderstorm 20 1003 68 10000 6.2 330 16:37 04.06.2020
1896 Rain 21 1002 60 10000 8.2 310 16:18 04.06.2020
1897 Thunderstorm 20 1002 77 10000 6.2 320 15:41 04.06.2020
1898 Rain 21 1002 64 10000 7.2 300 15:22 04.06.2020
1899 Rain 20 1002 60 10000 7.2 290 14:39 04.06.2020
1900 Rain 20 1002 68 10000 7.7 280 14:20 04.06.2020
1901 Rain 20 1002 82 10000 5.1 260 13:56 04.06.2020
1902 Rain 19 1002 82 10000 5.1 260 13:37 04.06.2020
1903 Rain 18 1002 82 10000 5.1 280 13:19 04.06.2020
1904 Rain 18 1002 77 10000 5.1 280 12:54 04.06.2020
1905 Rain 18 1002 77 10000 5.1 280 12:36 04.06.2020
1906 Rain 18 1002 82 10000 5.1 250 12:18 04.06.2020
1907 Rain 17 1002 82 10000 4.6 270 11:39 04.06.2020
1908 Rain 18 1001 77 10000 4.1 240 11:20 04.06.2020
1909 Rain 18 1001 77 10000 4.1 240 10:58 04.06.2020
1910 Clouds 18 1002 77 10000 4.6 230 10:38 04.06.2020
1911 Clouds 18 1002 82 10000 2.6 220 10:20 04.06.2020
1912 Clouds 17 1002 93 10000 2.6 210 09:45 04.06.2020
1913 Rain 16 1002 87 10000 3.1 200 09:27 04.06.2020
1914 Rain 16 1002 93 10000 2.1 190 08:49 04.06.2020
1915 Rain 16 1002 93 10000 1 0 08:28 04.06.2020
1916 Rain 15 1002 93 7000 1 0 07:58 04.06.2020
1917 Rain 15 1002 93 7000 1 0 07:29 04.06.2020
1918 Rain 15 1002 93 10000 1.5 210 06:45 04.06.2020
1919 Rain 15 1002 93 10000 2.6 210 06:26 04.06.2020
1920 Rain 16 1003 93 10000 2.1 230 05:39 04.06.2020
1921 Rain 16 1003 87 9000 2.6 310 05:20 04.06.2020
1922 Clear 16 1004 87 10000 2.6 240 03:28 04.06.2020
1923 Clear 17 1005 87 10000 2.6 270 01:58 04.06.2020
1924 Clouds 17 1005 82 10000 2.1 260 01:20 04.06.2020
1925 Clouds 17 1005 82 10000 2.1 250 00:50 04.06.2020
1926 Clear 18 1005 77 10000 2.6 250 23:55 03.06.2020
1927 Clear 18 1005 77 10000 2.6 250 23:36 03.06.2020
1928 Clear 18 1005 77 10000 2.6 250 23:36 03.06.2020
1929 Clear 18 1005 77 10000 2.6 250 23:18 03.06.2020
1930 Clear 19 1005 72 10000 3.1 270 22:39 03.06.2020
1931 Clear 20 1005 72 10000 4.6 270 22:19 03.06.2020
1932 Clear 20 1005 72 10000 4.6 270 22:19 03.06.2020
1933 Clear 20 1005 72 10000 4.6 270 22:19 03.06.2020
1934 Clear 20 1005 72 10000 4.6 270 21:58 03.06.2020
1935 Clear 21 1005 60 10000 4.6 270 21:39 03.06.2020
1936 Clouds 22 1005 56 10000 5.7 280 21:21 03.06.2020
1937 Clouds 22 1005 56 10000 5.7 280 20:56 03.06.2020
1938 Clouds 23 1005 53 10000 6.2 280 20:38 03.06.2020
1939 Clouds 23 1005 53 10000 6.2 280 20:38 03.06.2020
1940 Clouds 24 1005 49 10000 5.7 280 20:19 03.06.2020
1941 Clouds 24 1004 44 10000 5.7 300 19:56 03.06.2020
1942 Clouds 25 1004 44 10000 5.7 300 19:37 03.06.2020
1943 Clouds 25 1005 44 10000 5.7 300 19:19 03.06.2020
1944 Clouds 25 1005 57 10000 6.2 270 18:54 03.06.2020
1945 Clouds 25 1005 57 10000 6.2 270 18:36 03.06.2020
1946 Clouds 25 1005 60 10000 7.2 260 18:18 03.06.2020
1947 Clouds 26 1005 53 9000 6.7 250 17:41 03.06.2020
1948 Clouds 26 1005 50 9000 6.7 260 17:21 03.06.2020
1949 Clouds 26 1006 44 9000 7.2 250 16:55 03.06.2020
1950 Clouds 26 1006 44 9000 7.2 250 16:37 03.06.2020
1951 Clouds 26 1006 41 9000 7.2 250 16:18 03.06.2020
1952 Clouds 26 1006 41 10000 6.7 250 15:41 03.06.2020
1953 Clouds 26 1006 44 10000 6.2 250 15:21 03.06.2020
1954 Clouds 26 1007 41 10000 6.2 250 14:48 03.06.2020
1955 Clouds 26 1007 47 10000 5.1 260 14:26 03.06.2020
1956 Clouds 27 1007 47 10000 5.1 260 13:59 03.06.2020
1957 Clouds 27 1007 47 10000 5.1 260 13:38 03.06.2020
1958 Clouds 27 1008 50 10000 5.1 250 13:18 03.06.2020
1959 Clouds 26 1008 53 10000 5.7 260 12:43 03.06.2020
1960 Clouds 26 1008 53 10000 5.1 240 12:21 03.06.2020
1961 Clouds 25 1008 60 10000 4.6 240 11:45 03.06.2020
1962 Clouds 25 1008 60 10000 4.6 240 11:27 03.06.2020
1963 Clouds 24 1009 64 10000 2.6 240 10:57 03.06.2020
1964 Clouds 23 1009 64 10000 2.6 240 10:38 03.06.2020
1965 Clouds 23 1009 73 10000 3.6 250 10:20 03.06.2020
1966 Clouds 21 1009 82 10000 2.6 250 09:43 03.06.2020
1967 Clouds 20 1009 82 10000 2.6 250 09:20 03.06.2020
1968 Clouds 20 1009 82 10000 2.6 250 09:20 03.06.2020
1969 Clouds 19 1009 77 10000 1.5 250 08:48 03.06.2020
1970 Clouds 18 1009 82 10000 1.5 240 08:25 03.06.2020
1971 Clouds 17 1009 82 10000 1.5 240 07:59 03.06.2020
1972 Clouds 17 1009 82 10000 3.1 230 07:40 03.06.2020
1973 Clouds 16 1009 82 10000 1.5 230 07:19 03.06.2020
1974 Clouds 16 1009 82 10000 1.5 240 06:48 03.06.2020
1975 Clouds 16 1009 82 10000 1.5 240 06:29 03.06.2020
1976 Clouds 17 1010 77 10000 1.5 250 05:46 03.06.2020
1977 Clouds 18 1011 82 10000 1 280 04:33 03.06.2020
1978 Clouds 18 1011 72 10000 0.5 0 03:42 03.06.2020
1979 Clouds 19 1012 68 10000 0.5 330 02:46 03.06.2020
1980 Clouds 20 1013 64 10000 1.5 360 01:47 03.06.2020
1981 Clouds 21 1013 64 10000 1.5 340 00:41 03.06.2020
1982 Clouds 21 1013 60 10000 1.5 0 00:22 03.06.2020
1983 Clouds 22 1013 60 10000 1 0 23:49 02.06.2020
1984 Clouds 22 1013 60 10000 1 0 23:27 02.06.2020
1985 Clouds 23 1013 56 10000 2.6 10 22:56 02.06.2020
1986 Clouds 23 1012 53 10000 2.6 10 22:37 02.06.2020
1987 Clear 24 1012 50 10000 2.6 20 22:18 02.06.2020
1988 Clear 25 1012 50 10000 2.6 20 21:55 02.06.2020
1989 Clear 25 1012 44 10000 3.1 30 21:36 02.06.2020
1990 Clouds 27 1013 44 10000 3.1 30 21:18 02.06.2020
1991 Clouds 27 1013 44 10000 3.1 30 21:18 02.06.2020
1992 Clouds 27 1012 44 10000 3.1 50 20:42 02.06.2020
1993 Clouds 27 1013 44 10000 4.6 40 20:24 02.06.2020
1994 Clouds 28 1013 44 10000 4.6 40 19:59 02.06.2020
1995 Clouds 28 1013 39 10000 3.1 80 19:40 02.06.2020
1996 Clouds 29 1013 39 10000 3.6 20 19:22 02.06.2020
1997 Clouds 29 1013 39 10000 3.1 30 18:55 02.06.2020
1998 Clouds 29 1013 39 10000 3.1 30 18:37 02.06.2020
1999 Clouds 29 1013 42 10000 2.6 40 18:19 02.06.2020
2000 Clouds 27 1014 39 10000 3.1 360 17:42 02.06.2020
2001 Clouds 29 1014 44 10000 2.6 360 17:23 02.06.2020
2002 Clouds 29 1014 44 10000 2.6 360 16:57 02.06.2020
2003 Clouds 29 1014 44 10000 1.5 0 16:38 02.06.2020
2004 Clouds 30 1014 42 10000 2.1 0 16:20 02.06.2020
2005 Clouds 28 1015 42 10000 1.5 180 15:46 02.06.2020
2006 Clouds 27 1015 44 10000 1 0 15:24 02.06.2020
2007 Clouds 28 1015 44 10000 1 0 14:56 02.06.2020
2008 Clouds 27 1015 47 10000 1 0 14:37 02.06.2020
2009 Clouds 27 1015 54 10000 2.1 100 14:19 02.06.2020
2010 Clear 26 1016 53 10000 2.1 120 13:39 02.06.2020
2011 Clear 26 1016 53 10000 1.5 0 13:19 02.06.2020
2012 Clear 27 1016 53 10000 1.5 0 12:58 02.06.2020
2013 Clear 26 1016 57 10000 3.1 60 12:40 02.06.2020
2014 Clear 23 1016 60 10000 2.6 50 12:20 02.06.2020
2015 Clear 24 1016 60 10000 2.1 70 11:56 02.06.2020
2016 Clear 24 1016 60 10000 2.1 70 11:38 02.06.2020
2017 Clear 23 1016 64 10000 2.1 80 11:20 02.06.2020
2018 Clear 22 1016 68 10000 1.5 0 10:47 02.06.2020
2019 Clear 21 1016 68 10000 1.5 0 10:28 02.06.2020
2020 Clouds 20 1016 72 10000 0.5 0 09:56 02.06.2020
2021 Clouds 19 1016 82 10000 1.5 0 09:37 02.06.2020
2022 Clouds 19 1016 88 10000 1 0 09:19 02.06.2020
2023 Clouds 18 1016 88 10000 2.1 110 08:46 02.06.2020
2024 Clouds 17 1016 82 10000 1.5 120 08:20 02.06.2020
2025 Clouds 16 1016 82 10000 2.6 100 07:46 02.06.2020
2026 Clouds 16 1016 82 10000 2.1 120 07:25 02.06.2020
2027 Clouds 16 1016 82 10000 2.1 90 06:43 02.06.2020
2028 Clouds 16 1016 82 10000 2.1 90 06:43 02.06.2020
2029 Clouds 16 1016 87 10000 3.1 100 05:57 02.06.2020
2030 Clouds 16 1016 82 10000 2.6 110 04:58 02.06.2020
2031 Clear 16 1015 82 10000 0.5 170 03:21 02.06.2020
2032 Clear 17 1016 77 10000 1.5 0 02:24 02.06.2020
2033 Clear 18 1016 68 10000 1.5 160 00:58 02.06.2020
2034 Clear 19 1016 68 10000 3.1 150 00:25 02.06.2020
2035 Clouds 19 1016 68 10000 4.6 130 23:54 01.06.2020
2036 Clouds 20 1016 68 10000 4.6 130 23:36 01.06.2020
2037 Clouds 20 1016 68 10000 4.6 130 23:36 01.06.2020
2038 Clouds 20 1016 77 10000 5.7 110 23:18 01.06.2020
2039 Rain 21 1015 68 10000 6.2 90 22:41 01.06.2020
2040 Rain 22 1015 69 10000 3.6 50 22:20 01.06.2020
2041 Rain 22 1015 69 10000 3.6 50 21:57 01.06.2020
2042 Rain 23 1014 69 10000 1.5 0 21:37 01.06.2020
2043 Thunderstorm 23 1014 64 10000 1 0 21:18 01.06.2020
2044 Rain 24 1014 64 10000 6.7 20 20:55 01.06.2020
2045 Rain 25 1014 64 10000 6.7 20 20:36 01.06.2020
2046 Thunderstorm 26 1014 54 10000 3.1 360 20:18 01.06.2020
2047 Thunderstorm 26 1014 54 10000 3.1 360 20:18 01.06.2020
2048 Thunderstorm 27 1014 54 10000 3.1 360 19:42 01.06.2020
2049 Clouds 26 1014 54 10000 2.6 10 19:20 01.06.2020
2050 Clouds 26 1014 54 10000 1 0 18:58 01.06.2020
2051 Clouds 26 1014 54 10000 1 0 18:39 01.06.2020
2052 Clouds 26 1013 65 10000 2.6 210 18:19 01.06.2020
2053 Clouds 25 1014 83 10000 3.1 130 17:55 01.06.2020
2054 Clouds 22 1014 83 10000 3.1 130 17:36 01.06.2020
2055 Thunderstorm 24 1014 82 3200 7.7 170 17:18 01.06.2020
2056 Thunderstorm 23 1014 83 10000 4.6 360 16:39 01.06.2020
2057 Thunderstorm 28 1014 51 10000 1.5 0 16:20 01.06.2020
2058 Thunderstorm 29 1014 45 10000 3.6 150 15:55 01.06.2020
2059 Thunderstorm 28 1014 45 10000 3.6 150 15:37 01.06.2020
2060 Clouds 29 1014 45 10000 2.1 120 15:18 01.06.2020
2061 Clouds 29 1014 45 10000 2.1 120 15:18 01.06.2020
2062 Clouds 30 1014 51 10000 2.1 0 14:56 01.06.2020
2063 Clouds 28 1014 51 10000 2.1 0 14:37 01.06.2020
2064 Clear 28 1014 51 10000 1.5 0 14:18 01.06.2020
2065 Clear 27 1014 54 10000 1.5 160 13:42 01.06.2020
2066 Rain 28 1014 54 10000 1.5 160 13:21 01.06.2020
2067 Rain 28 1014 61 10000 2.1 140 12:58 01.06.2020
2068 Rain 27 1014 61 10000 2.6 180 12:40 01.06.2020
2069 Rain 26 1014 61 10000 2.6 180 12:21 01.06.2020
2070 Rain 25 1014 64 10000 2.6 190 11:56 01.06.2020
2071 Clouds 25 1014 69 10000 2.6 160 11:36 01.06.2020
2072 Clouds 25 1014 69 10000 2.6 160 11:18 01.06.2020
2073 Clouds 23 1013 68 10000 3.6 140 10:40 01.06.2020
2074 Clear 23 1013 68 10000 3.6 140 10:20 01.06.2020
2075 Clear 22 1013 73 10000 3.6 130 09:58 01.06.2020
2076 Clear 21 1013 77 10000 3.1 150 09:40 01.06.2020
2077 Clouds 20 1013 77 10000 3.1 150 09:20 01.06.2020
2078 Clouds 19 1013 77 10000 3.1 140 08:52 01.06.2020
2079 Clouds 19 1013 77 10000 3.1 140 08:30 01.06.2020
2080 Clouds 19 1013 82 10000 3.6 140 07:54 01.06.2020
2081 Clouds 19 1012 82 10000 3.6 110 07:36 01.06.2020
2082 Clouds 19 1012 77 10000 3.6 120 07:18 01.06.2020
2083 Clouds 19 1012 77 10000 2.6 130 06:43 01.06.2020
2084 Clouds 19 1012 77 10000 1.5 140 05:54 01.06.2020
2085 Clouds 19 1012 68 10000 2.6 140 04:46 01.06.2020
2086 Clouds 19 1012 60 10000 2.1 70 03:49 01.06.2020
2087 Clouds 19 1012 60 10000 2.1 70 03:27 01.06.2020
2088 Clouds 21 1012 49 10000 2.1 60 02:29 01.06.2020
2089 Clouds 22 1012 46 10000 2.6 70 01:34 01.06.2020
2090 Clouds 23 1012 49 10000 2.6 90 00:58 01.06.2020
2091 Clouds 23 1012 49 10000 3.6 40 00:40 01.06.2020
2092 Clouds 23 1012 49 10000 3.6 40 00:21 01.06.2020
2093 Clouds 23 1012 49 10000 3.6 40 00:21 01.06.2020
2094 Clouds 23 1012 47 10000 5.1 40 23:57 31.05.2020
2095 Clouds 23 1012 50 10000 2.6 20 23:38 31.05.2020
2096 Clouds 24 1012 50 10000 2.6 20 23:20 31.05.2020
2097 Clouds 25 1011 41 10000 2.6 40 22:45 31.05.2020
2098 Clouds 26 1011 41 10000 2.6 40 22:27 31.05.2020
2099 Clouds 26 1011 39 10000 3.1 30 21:59 31.05.2020
2100 Clouds 27 1011 37 10000 3.1 80 21:41 31.05.2020
2101 Clouds 27 1011 37 10000 3.1 80 21:23 31.05.2020
2102 Clouds 28 1011 37 10000 3.1 110 20:57 31.05.2020
2103 Clouds 28 1011 37 10000 3.1 110 20:57 31.05.2020
2104 Clouds 29 1010 35 10000 2.6 110 20:38 31.05.2020
2105 Clouds 29 1010 35 10000 2.6 110 20:19 31.05.2020
2106 Clouds 30 1010 35 10000 2.6 60 19:55 31.05.2020
2107 Clouds 29 1010 37 10000 4.6 50 19:36 31.05.2020
2108 Clouds 30 1010 37 10000 4.6 50 19:18 31.05.2020
2109 Clouds 29 1010 35 10000 2.6 90 18:43 31.05.2020
2110 Clouds 29 1010 35 10000 2.6 90 18:25 31.05.2020
2111 Clouds 30 1011 33 10000 2.6 110 17:46 31.05.2020
2112 Clouds 29 1011 37 10000 3.1 40 17:25 31.05.2020
2113 Clouds 30 1011 30 10000 3.6 140 16:59 31.05.2020
2114 Clouds 30 1011 33 10000 2.1 0 16:40 31.05.2020
2115 Clear 30 1011 33 10000 2.1 0 16:19 31.05.2020
2116 Clear 31 1011 33 10000 3.1 150 15:39 31.05.2020
2117 Clear 30 1011 33 10000 3.1 150 15:21 31.05.2020
2118 Clear 30 1011 33 10000 2.6 100 14:47 31.05.2020
2119 Clouds 29 1011 37 10000 2.6 0 14:22 31.05.2020
2120 Clouds 29 1012 39 10000 2.6 100 13:56 31.05.2020
2121 Clouds 28 1012 42 10000 3.6 130 13:38 31.05.2020
2122 Clouds 28 1012 42 10000 3.6 130 13:20 31.05.2020
2123 Clouds 28 1012 42 10000 3.1 120 12:57 31.05.2020
2124 Clouds 28 1012 47 10000 2.6 80 12:38 31.05.2020
2125 Clouds 27 1012 47 10000 2.6 80 12:19 31.05.2020
2126 Clouds 27 1012 47 10000 2.6 80 12:19 31.05.2020
2127 Clouds 26 1012 50 10000 2.1 80 11:48 31.05.2020
2128 Clouds 26 1012 50 10000 2.6 90 11:23 31.05.2020
2129 Clouds 25 1012 53 10000 2.6 90 10:57 31.05.2020
2130 Clouds 24 1012 56 10000 2.6 90 10:39 31.05.2020
2131 Clouds 23 1012 56 10000 2.6 90 10:19 31.05.2020
2132 Clouds 21 1012 60 10000 3.1 80 09:42 31.05.2020
2133 Clouds 20 1012 64 10000 3.6 110 09:23 31.05.2020
2134 Clouds 20 1012 60 10000 3.1 110 08:58 31.05.2020
2135 Clouds 18 1012 59 10000 3.1 90 08:37 31.05.2020
2136 Clear 18 1012 59 10000 3.1 90 08:19 31.05.2020
2137 Clear 16 1012 63 10000 2.1 70 07:43 31.05.2020
2138 Clear 16 1012 63 10000 2.1 70 07:21 31.05.2020
2139 Clear 16 1012 59 10000 1.5 50 06:53 31.05.2020
2140 Clear 16 1012 59 10000 1.5 50 06:31 31.05.2020
2141 Clear 16 1011 59 10000 1.5 0 05:43 31.05.2020
2142 Clear 17 1012 55 10000 2.6 40 04:27 31.05.2020
2143 Clear 18 1012 52 10000 2.1 80 03:48 31.05.2020
2144 Clear 19 1012 49 10000 2.6 60 02:59 31.05.2020
2145 Clear 21 1013 46 10000 3.1 50 01:48 31.05.2020
2146 Clear 21 1013 46 10000 3.1 50 01:19 31.05.2020
2147 Clear 22 1013 46 10000 3.6 50 00:30 31.05.2020
2148 Clear 22 1013 43 10000 3.1 40 23:56 30.05.2020
2149 Clear 23 1013 44 10000 3.6 40 23:38 30.05.2020
2150 Clear 23 1013 44 10000 3.6 40 23:19 30.05.2020
2151 Clear 24 1012 44 10000 3.1 40 22:41 30.05.2020
2152 Clear 24 1012 44 10000 3.1 40 22:22 30.05.2020
2153 Clear 25 1012 36 10000 3.1 30 21:56 30.05.2020
2154 Clear 26 1012 36 10000 3.1 30 21:56 30.05.2020
2155 Clear 27 1012 36 10000 3.6 80 21:37 30.05.2020
2156 Clear 27 1012 36 10000 3.6 80 21:19 30.05.2020
2157 Clear 28 1012 34 10000 4.1 60 20:56 30.05.2020
2158 Clear 28 1012 34 10000 4.1 50 20:37 30.05.2020
2159 Clear 28 1012 34 10000 4.1 50 20:37 30.05.2020
2160 Clear 28 1012 34 10000 4.1 50 20:19 30.05.2020
2161 Clear 29 1012 37 10000 3.1 100 19:42 30.05.2020
2162 Clear 29 1012 37 10000 3.1 100 19:22 30.05.2020
2163 Clear 30 1012 32 10000 3.6 50 18:46 30.05.2020
2164 Clear 30 1012 32 10000 2.6 80 18:24 30.05.2020
2165 Clear 30 1012 32 10000 2.6 80 18:24 30.05.2020
2166 Clear 30 1012 35 10000 3.6 70 17:55 30.05.2020
2167 Clear 30 1012 37 10000 3.1 0 17:37 30.05.2020
2168 Clear 30 1012 37 10000 3.1 0 17:18 30.05.2020
2169 Clear 29 1013 37 10000 2.1 0 16:42 30.05.2020
2170 Clear 29 1013 37 10000 2.1 0 16:22 30.05.2020
2171 Clear 28 1013 39 10000 2.1 70 15:49 30.05.2020
2172 Clear 28 1013 42 10000 2.6 70 15:29 30.05.2020
2173 Clear 27 1014 44 10000 4.1 80 14:48 30.05.2020
2174 Clear 27 1014 47 10000 3.1 60 14:30 30.05.2020
2175 Clear 27 1014 50 10000 3.6 90 13:58 30.05.2020
2176 Clear 27 1014 50 10000 3.6 70 13:40 30.05.2020
2177 Clear 26 1014 50 10000 3.6 70 13:18 30.05.2020
2178 Clear 26 1014 53 10000 3.6 60 12:39 30.05.2020
2179 Clear 26 1014 53 10000 3.6 60 12:20 30.05.2020
2180 Clear 24 1015 56 10000 2.6 70 11:42 30.05.2020
2181 Clear 24 1015 56 10000 2.6 70 11:23 30.05.2020
2182 Clear 23 1015 60 10000 3.1 110 10:58 30.05.2020
2183 Clear 22 1015 64 10000 3.1 90 10:38 30.05.2020
2184 Clear 21 1015 64 10000 3.1 90 10:20 30.05.2020
2185 Clear 22 1015 64 10000 3.1 90 10:20 30.05.2020
2186 Clear 20 1015 68 10000 3.6 100 09:45 30.05.2020
2187 Clear 20 1015 68 10000 3.6 110 09:26 30.05.2020
2188 Clear 19 1015 68 10000 3.6 110 08:45 30.05.2020
2189 Clear 17 1015 68 10000 3.6 100 08:27 30.05.2020
2190 Clear 15 1015 63 10000 2.1 80 07:41 30.05.2020
2191 Clear 15 1015 63 10000 2.1 80 07:20 30.05.2020
2192 Clear 15 1014 54 10000 2.1 60 06:31 30.05.2020
2193 Clear 16 1015 51 10000 2.1 80 05:52 30.05.2020
2194 Clear 16 1015 48 10000 2.1 70 05:19 30.05.2020
2195 Clear 18 1015 48 10000 3.6 40 02:56 30.05.2020
2196 Clear 19 1015 48 10000 3.1 50 02:23 30.05.2020
2197 Clear 21 1016 42 10000 2.6 40 01:20 30.05.2020
2198 Clear 21 1016 40 10000 3.1 30 00:36 30.05.2020
2199 Clear 21 1016 40 10000 3.1 30 00:18 30.05.2020
2200 Clear 22 1016 37 10000 3.6 40 23:41 29.05.2020
2201 Clear 23 1016 37 10000 3.6 40 23:20 29.05.2020
2202 Clear 23 1016 37 10000 3.6 40 23:20 29.05.2020
2203 Clear 23 1015 35 10000 3.6 40 22:56 29.05.2020
2204 Clear 24 1015 33 10000 4.6 40 22:37 29.05.2020
2205 Clear 24 1015 33 10000 4.6 40 22:18 29.05.2020
2206 Clear 26 1014 29 10000 5.1 30 21:41 29.05.2020
2207 Clear 26 1014 29 10000 5.1 30 21:41 29.05.2020
2208 Clear 26 1014 29 10000 5.1 30 21:21 29.05.2020
2209 Clear 27 1014 26 10000 6.2 40 20:58 29.05.2020
2210 Clear 28 1014 26 10000 5.7 40 20:39 29.05.2020
2211 Clear 28 1014 26 10000 5.7 40 20:19 29.05.2020
2212 Clear 29 1014 28 10000 5.7 30 19:43 29.05.2020
2213 Clear 29 1014 28 10000 5.7 30 19:25 29.05.2020
2214 Clear 29 1014 28 10000 5.1 40 18:48 29.05.2020
2215 Clouds 30 1015 25 10000 6.2 40 18:23 29.05.2020
2216 Clear 30 1015 26 10000 6.2 40 17:59 29.05.2020
2217 Clear 30 1015 26 10000 5.1 40 17:39 29.05.2020
2218 Clear 30 1015 26 10000 5.1 40 17:20 29.05.2020
2219 Clear 30 1015 24 10000 4.6 20 16:54 29.05.2020
2220 Clear 30 1015 26 10000 5.1 50 16:36 29.05.2020
2221 Clear 30 1015 26 10000 5.1 50 16:18 29.05.2020
2222 Clear 30 1016 28 10000 5.7 30 15:41 29.05.2020
2223 Clear 28 1016 28 10000 5.7 30 15:21 29.05.2020
2224 Clear 28 1016 30 10000 5.1 40 14:57 29.05.2020
2225 Clear 27 1016 32 10000 4.6 40 14:38 29.05.2020
2226 Clear 27 1016 32 10000 4.6 40 14:19 29.05.2020
2227 Clear 28 1017 32 10000 5.7 50 13:43 29.05.2020
2228 Clear 28 1017 32 10000 5.7 70 13:22 29.05.2020
2229 Clear 28 1017 32 10000 5.7 70 12:56 29.05.2020
2230 Clear 28 1017 32 10000 5.7 70 12:56 29.05.2020
2231 Clear 27 1017 31 10000 6.2 60 12:37 29.05.2020
2232 Clear 26 1017 31 10000 6.2 60 12:18 29.05.2020
2233 Clear 25 1018 36 10000 6.2 70 11:42 29.05.2020
2234 Clear 25 1018 36 10000 6.2 70 11:42 29.05.2020
2235 Clear 25 1018 36 10000 6.2 70 11:24 29.05.2020
2236 Clear 24 1018 41 10000 5.1 70 10:46 29.05.2020
2237 Clear 24 1018 41 10000 5.1 70 10:24 29.05.2020
2238 Clear 23 1018 46 10000 4.1 70 09:58 29.05.2020
2239 Clear 21 1018 52 10000 4.6 70 09:40 29.05.2020
2240 Clear 21 1018 52 10000 4.6 70 09:19 29.05.2020
2241 Clear 20 1018 56 10000 3.1 60 08:47 29.05.2020
2242 Clear 19 1018 59 10000 3.6 50 08:23 29.05.2020
2243 Clear 18 1018 68 10000 3.1 50 07:48 29.05.2020
2244 Clear 17 1018 67 10000 3.1 40 07:29 29.05.2020
2245 Clear 17 1018 72 10000 2.6 40 06:56 29.05.2020
2246 Clear 17 1018 67 10000 2.6 40 06:37 29.05.2020
2247 Clear 17 1018 67 10000 2.6 40 06:18 29.05.2020
2248 Clear 17 1018 67 10000 2.6 40 05:37 29.05.2020
2249 Clear 20 1020 56 10000 2.6 40 01:48 29.05.2020
2250 Clear 21 1020 52 10000 2.6 40 01:27 29.05.2020
2251 Clear 21 1020 52 10000 2.6 40 01:27 29.05.2020
2252 Clear 21 1020 49 10000 3.1 30 00:50 29.05.2020
2253 Clear 21 1020 49 10000 3.1 30 00:28 29.05.2020
2254 Clear 23 1020 41 10000 2.6 40 23:41 28.05.2020
2255 Clear 23 1020 41 10000 2.6 40 23:20 28.05.2020
2256 Clear 23 1020 41 10000 2.6 40 22:59 28.05.2020
2257 Clear 24 1020 38 10000 3.1 40 22:40 28.05.2020
2258 Clear 24 1020 38 10000 3.1 40 22:40 28.05.2020
2259 Clear 25 1020 34 10000 3.1 40 22:20 28.05.2020
2260 Clear 26 1020 34 10000 3.1 40 21:55 28.05.2020
2261 Clear 27 1020 30 10000 3.6 50 21:37 28.05.2020
2262 Clear 28 1020 30 10000 3.6 50 21:18 28.05.2020
2263 Clear 29 1020 28 10000 4.6 40 20:42 28.05.2020
2264 Clear 29 1020 28 10000 4.6 40 20:20 28.05.2020
2265 Clear 30 1020 28 10000 3.1 40 19:59 28.05.2020
2266 Clear 30 1020 30 10000 4.1 40 19:41 28.05.2020
2267 Clear 30 1020 30 10000 4.1 40 19:20 28.05.2020
2268 Clear 30 1021 30 10000 4.1 20 18:57 28.05.2020
2269 Clear 31 1021 28 10000 2.6 40 18:38 28.05.2020
2270 Clear 31 1021 28 10000 2.6 40 18:20 28.05.2020
2271 Clear 31 1021 28 10000 4.6 30 17:40 28.05.2020
2272 Clear 30 1021 28 10000 4.6 30 17:21 28.05.2020
2273 Clear 30 1022 30 10000 3.1 40 16:47 28.05.2020
2274 Clear 30 1022 30 10000 3.1 40 16:21 28.05.2020
2275 Clear 30 1022 33 10000 2.6 50 15:59 28.05.2020
2276 Clear 29 1022 32 10000 2.1 100 15:40 28.05.2020
2277 Clear 29 1022 32 10000 2.1 100 15:22 28.05.2020
2278 Clear 29 1023 37 10000 3.6 40 14:42 28.05.2020
2279 Clear 29 1023 37 10000 3.6 40 14:23 28.05.2020
2280 Clear 28 1024 44 10000 3.1 80 13:47 28.05.2020
2281 Clear 28 1024 44 10000 3.1 80 13:29 28.05.2020
2282 Clear 27 1024 44 10000 3.1 70 12:57 28.05.2020
2283 Clear 26 1024 47 10000 2.6 70 12:38 28.05.2020
2284 Clear 26 1024 44 10000 2.6 80 12:18 28.05.2020
2285 Clear 24 1025 50 10000 3.6 110 11:41 28.05.2020
2286 Clear 25 1025 50 10000 3.6 110 11:23 28.05.2020
2287 Clear 24 1025 50 10000 3.6 110 10:50 28.05.2020
2288 Clear 23 1025 49 10000 3.1 130 10:28 28.05.2020
2289 Clear 21 1025 56 10000 4.1 130 09:59 28.05.2020
2290 Clear 21 1025 56 10000 3.6 110 09:39 28.05.2020
2291 Clear 20 1025 56 10000 3.6 110 09:19 28.05.2020
2292 Clear 18 1025 59 10000 3.1 100 08:44 28.05.2020
2293 Clear 18 1025 59 10000 3.1 100 08:25 28.05.2020
2294 Clear 16 1025 63 10000 2.1 60 07:45 28.05.2020
2295 Clear 16 1025 63 10000 2.1 60 07:24 28.05.2020
2296 Clear 16 1025 63 10000 2.1 70 06:51 28.05.2020
2297 Clear 16 1025 59 10000 2.6 60 06:31 28.05.2020
2298 Clear 16 1025 59 10000 2.1 50 05:40 28.05.2020
2299 Clear 17 1025 55 10000 2.6 50 04:46 28.05.2020
2300 Clear 17 1025 59 10000 2.6 40 04:22 28.05.2020
2301 Clear 18 1025 59 10000 3.6 50 03:42 28.05.2020
2302 Clear 19 1025 55 10000 3.1 30 02:45 28.05.2020
2303 Clear 20 1026 52 10000 3.1 50 01:46 28.05.2020
2304 Clear 21 1026 52 10000 2.6 40 00:50 28.05.2020
2305 Clear 21 1026 52 10000 3.1 30 00:22 28.05.2020
2306 Clear 22 1026 49 10000 3.1 30 23:56 27.05.2020
2307 Clear 22 1026 46 10000 3.6 40 23:38 27.05.2020
2308 Clear 22 1026 46 10000 3.6 40 23:19 27.05.2020
2309 Clear 23 1025 36 10000 3.1 20 22:43 27.05.2020
2310 Clear 23 1025 36 10000 3.1 20 22:43 27.05.2020
2311 Clear 23 1025 36 10000 3.1 20 22:24 27.05.2020
2312 Clear 25 1025 34 10000 2.1 80 21:58 27.05.2020
2313 Clear 26 1025 28 10000 3.6 70 21:40 27.05.2020
2314 Clear 27 1025 28 10000 3.6 70 21:21 27.05.2020
2315 Clear 27 1025 24 10000 4.6 60 20:58 27.05.2020
2316 Clear 28 1025 26 10000 5.1 70 20:40 27.05.2020
2317 Clear 28 1025 26 10000 5.1 70 20:40 27.05.2020
2318 Clouds 28 1025 26 10000 5.1 70 20:20 27.05.2020
2319 Clouds 29 1025 26 10000 4.1 70 19:46 27.05.2020
2320 Clouds 29 1025 24 10000 4.6 60 19:21 27.05.2020
2321 Clouds 29 1025 26 10000 4.6 70 18:58 27.05.2020
2322 Clouds 29 1025 26 10000 4.1 70 18:39 27.05.2020
2323 Clouds 29 1025 28 10000 4.6 90 18:19 27.05.2020
2324 Clouds 28 1026 26 10000 5.1 60 17:43 27.05.2020
2325 Clouds 29 1026 26 10000 5.1 60 17:24 27.05.2020
2326 Clouds 29 1026 24 10000 4.6 100 16:57 27.05.2020
2327 Clouds 29 1026 24 10000 4.6 100 16:57 27.05.2020
2328 Clouds 29 1026 28 10000 4.6 70 16:38 27.05.2020
2329 Clouds 28 1026 26 10000 5.7 50 16:20 27.05.2020
2330 Clouds 29 1026 26 10000 5.7 50 15:49 27.05.2020
2331 Clouds 27 1026 30 10000 5.1 40 15:23 27.05.2020
2332 Clouds 26 1027 31 10000 5.1 80 14:58 27.05.2020
2333 Clouds 26 1027 34 10000 4.6 70 14:39 27.05.2020
2334 Clouds 26 1027 34 10000 4.6 70 14:20 27.05.2020
2335 Clear 26 1027 36 10000 5.1 40 13:42 27.05.2020
2336 Clear 26 1027 36 10000 5.1 40 13:24 27.05.2020
2337 Clear 26 1027 38 10000 4.1 20 12:43 27.05.2020
2338 Clear 24 1027 38 10000 4.1 20 12:24 27.05.2020
2339 Clear 23 1027 40 10000 4.1 40 11:59 27.05.2020
2340 Clear 23 1027 40 10000 3.6 70 11:39 27.05.2020
2341 Clear 22 1027 40 10000 3.6 70 11:21 27.05.2020
2342 Clear 22 1028 43 10000 4.1 60 10:55 27.05.2020
2343 Clear 22 1028 46 10000 4.6 50 10:37 27.05.2020
2344 Clear 21 1028 49 10000 4.1 50 10:18 27.05.2020
2345 Clear 20 1028 55 10000 3.6 50 09:40 27.05.2020
2346 Clear 18 1027 59 10000 4.6 50 09:21 27.05.2020
2347 Clear 18 1027 63 10000 3.1 40 08:43 27.05.2020
2348 Clear 17 1027 63 10000 3.1 40 08:25 27.05.2020
2349 Clear 16 1027 67 10000 2.6 30 07:59 27.05.2020
2350 Clear 16 1027 72 10000 2.6 40 07:40 27.05.2020
2351 Clear 16 1027 72 10000 2.6 40 07:22 27.05.2020
2352 Clear 16 1027 67 10000 2.1 30 06:43 27.05.2020
2353 Clear 16 1027 67 10000 2.1 30 06:19 27.05.2020
2354 Clear 16 1027 67 10000 2.1 40 05:47 27.05.2020
2355 Clear 17 1027 63 10000 2.6 40 04:20 27.05.2020
2356 Clear 18 1027 52 10000 3.1 30 02:30 27.05.2020
2357 Clear 19 1028 48 10000 3.6 30 01:53 27.05.2020
2358 Clear 20 1028 45 10000 3.1 20 01:24 27.05.2020
2359 Clear 21 1028 43 10000 3.6 30 00:45 27.05.2020
2360 Clear 21 1028 43 10000 3.6 30 00:19 27.05.2020
2361 Clear 21 1028 46 10000 3.6 30 23:44 26.05.2020
2362 Clear 22 1028 46 10000 3.6 30 23:25 26.05.2020
2363 Clear 22 1027 46 10000 3.6 20 22:59 26.05.2020
2364 Clear 23 1027 43 10000 3.1 20 22:39 26.05.2020
2365 Clear 23 1027 43 10000 3.1 20 22:20 26.05.2020
2366 Clear 23 1027 43 10000 3.1 20 22:20 26.05.2020
2367 Clear 24 1027 38 10000 3.6 30 21:57 26.05.2020
2368 Clear 25 1027 38 10000 4.1 30 21:39 26.05.2020
2369 Clear 25 1027 38 10000 4.1 30 21:20 26.05.2020
2370 Clear 26 1027 36 10000 5.7 30 20:42 26.05.2020
2371 Clear 27 1027 36 10000 5.7 30 20:21 26.05.2020
2372 Clear 27 1027 34 10000 5.7 50 19:56 26.05.2020
2373 Clear 27 1027 34 10000 4.6 40 19:37 26.05.2020
2374 Clear 28 1027 32 10000 6.2 40 19:18 26.05.2020
2375 Clear 28 1027 34 10000 4.6 30 18:41 26.05.2020
2376 Clear 28 1027 34 10000 4.6 30 18:22 26.05.2020
2377 Clear 28 1027 34 10000 5.1 40 17:44 26.05.2020
2378 Clear 29 1027 34 10000 5.1 40 17:26 26.05.2020
2379 Clear 28 1027 34 10000 5.1 30 16:59 26.05.2020
2380 Clouds 28 1028 34 10000 4.6 40 16:41 26.05.2020
2381 Clouds 27 1028 34 10000 4.6 40 16:19 26.05.2020
2382 Clear 25 1028 38 10000 5.1 50 15:44 26.05.2020
2383 Clear 25 1028 38 10000 5.1 50 15:21 26.05.2020
2384 Clear 25 1028 38 10000 5.7 20 14:59 26.05.2020
2385 Clear 24 1028 41 10000 5.1 50 14:41 26.05.2020
2386 Clear 25 1028 41 10000 5.1 50 14:21 26.05.2020
2387 Clear 25 1029 41 10000 5.7 30 13:42 26.05.2020
2388 Clear 25 1029 41 10000 5.7 30 13:42 26.05.2020
2389 Clear 25 1029 41 10000 5.7 30 13:23 26.05.2020
2390 Clear 25 1029 43 10000 4.6 50 12:57 26.05.2020
2391 Clear 25 1029 46 10000 5.1 30 12:39 26.05.2020
2392 Clear 23 1029 46 10000 5.1 30 12:19 26.05.2020
2393 Clear 22 1029 52 10000 3.6 50 11:41 26.05.2020
2394 Clear 22 1029 52 10000 3.6 50 11:21 26.05.2020
2395 Clear 22 1029 56 10000 5.1 40 10:58 26.05.2020
2396 Clear 21 1029 56 10000 4.6 40 10:38 26.05.2020
2397 Clear 20 1029 56 10000 4.6 40 10:18 26.05.2020
2398 Clear 19 1029 59 10000 4.6 30 09:39 26.05.2020
2399 Clear 19 1029 59 10000 4.6 30 09:19 26.05.2020
2400 Clear 17 1029 67 10000 3.1 30 08:42 26.05.2020
2401 Clear 17 1029 67 10000 3.1 30 08:22 26.05.2020
2402 Clear 15 1029 77 10000 2.6 20 07:44 26.05.2020
2403 Clear 15 1029 77 10000 2.6 20 07:24 26.05.2020
2404 Clear 15 1028 77 10000 2.6 30 06:54 26.05.2020
2405 Clear 15 1028 77 10000 2.6 30 06:36 26.05.2020
2406 Clear 15 1028 77 10000 1.5 10 05:53 26.05.2020
2407 Clear 16 1028 72 10000 2.6 30 05:29 26.05.2020
2408 Clear 16 1028 72 10000 1.5 40 04:50 26.05.2020
2409 Clear 16 1028 72 10000 3.1 30 04:31 26.05.2020
2410 Clear 17 1028 67 10000 2.6 20 03:55 26.05.2020
2411 Clear 18 1028 63 10000 3.6 30 02:44 26.05.2020
2412 Clear 19 1028 63 10000 2.6 20 01:48 26.05.2020
2413 Clear 19 1028 63 10000 2.6 10 01:21 26.05.2020
2414 Clear 20 1028 59 10000 3.1 20 00:37 26.05.2020
2415 Clear 20 1028 59 10000 3.1 20 00:18 26.05.2020
2416 Clear 20 1028 56 10000 3.6 10 23:55 25.05.2020
2417 Clear 21 1028 56 10000 3.1 10 23:36 25.05.2020
2418 Clear 21 1028 56 10000 3.1 10 23:18 25.05.2020
2419 Clear 21 1028 56 10000 3.1 10 23:18 25.05.2020
2420 Clear 21 1028 52 10000 3.6 10 22:54 25.05.2020
2421 Clear 22 1028 49 10000 3.1 10 22:36 25.05.2020
2422 Clear 22 1028 49 10000 3.1 10 22:18 25.05.2020
2423 Clear 23 1027 46 10000 3.6 20 21:54 25.05.2020
2424 Clear 24 1027 44 10000 4.1 10 21:36 25.05.2020
2425 Clear 24 1027 44 10000 4.1 10 21:18 25.05.2020
2426 Clear 25 1027 38 10000 4.6 20 20:41 25.05.2020
2427 Clear 26 1027 38 10000 4.6 20 20:21 25.05.2020
2428 Clear 26 1027 38 10000 4.6 10 19:58 25.05.2020
2429 Clear 26 1027 34 10000 3.6 30 19:39 25.05.2020
2430 Clear 27 1027 36 10000 4.1 40 19:18 25.05.2020
2431 Clear 27 1027 36 10000 4.6 50 18:45 25.05.2020
2432 Clear 27 1027 36 10000 4.6 50 18:22 25.05.2020
2433 Clear 27 1027 36 10000 5.1 40 17:58 25.05.2020
2434 Clear 27 1027 36 10000 4.1 50 17:39 25.05.2020
2435 Clear 27 1027 36 10000 4.1 50 17:21 25.05.2020
2436 Clear 26 1027 36 10000 4.6 20 16:56 25.05.2020
2437 Clear 26 1027 36 10000 4.6 20 16:56 25.05.2020
2438 Clear 26 1027 38 10000 4.6 60 16:37 25.05.2020
2439 Clear 26 1027 38 10000 4.6 60 16:19 25.05.2020
2440 Clear 26 1028 41 10000 5.7 40 15:42 25.05.2020
2441 Clear 24 1028 36 10000 5.1 40 15:19 25.05.2020
2442 Clear 24 1028 38 10000 5.1 40 14:44 25.05.2020
2443 Clear 25 1028 38 10000 5.1 40 14:25 25.05.2020
2444 Clear 24 1028 40 10000 4.6 40 13:59 25.05.2020
2445 Clear 23 1028 43 10000 5.1 60 13:39 25.05.2020
2446 Clear 23 1028 40 10000 5.1 50 13:20 25.05.2020
2447 Clear 24 1028 40 10000 5.1 50 12:57 25.05.2020
2448 Clear 22 1028 43 10000 5.7 50 12:37 25.05.2020
2449 Clear 21 1028 43 10000 5.7 50 12:19 25.05.2020
2450 Clear 21 1028 43 10000 4.6 50 11:39 25.05.2020
2451 Clear 21 1028 43 10000 4.6 50 11:19 25.05.2020
2452 Clear 21 1028 43 10000 4.6 50 11:19 25.05.2020
2453 Clear 20 1028 45 10000 5.7 60 10:54 25.05.2020
2454 Clear 20 1029 49 10000 5.1 60 10:36 25.05.2020
2455 Clear 19 1029 55 10000 4.1 60 10:18 25.05.2020
2456 Clear 18 1029 55 10000 5.1 60 09:41 25.05.2020
2457 Clear 18 1029 55 10000 5.1 60 09:41 25.05.2020
2458 Clear 17 1029 55 10000 5.1 60 09:20 25.05.2020
2459 Clear 17 1029 55 10000 3.6 30 08:59 25.05.2020
2460 Clear 16 1029 59 10000 3.1 30 08:38 25.05.2020
2461 Clouds 16 1029 59 10000 3.1 30 08:19 25.05.2020
2462 Clouds 15 1029 62 10000 2.6 40 07:46 25.05.2020
2463 Clouds 14 1029 67 10000 2.1 40 07:21 25.05.2020
2464 Clouds 13 1029 66 10000 2.1 40 06:54 25.05.2020
2465 Clouds 13 1029 66 10000 3.1 40 06:33 25.05.2020
2466 Clear 14 1029 71 10000 2.6 40 04:19 25.05.2020
2467 Clear 15 1029 67 10000 2.6 30 03:23 25.05.2020
2468 Clear 16 1029 63 10000 3.6 40 02:45 25.05.2020
2469 Clear 16 1029 63 10000 4.1 40 01:57 25.05.2020
2470 Clear 16 1030 63 10000 4.1 40 01:29 25.05.2020
2471 Clear 17 1030 59 10000 2.6 30 00:42 25.05.2020
2472 Clear 17 1030 59 10000 2.6 30 00:20 25.05.2020
2473 Clear 18 1030 55 10000 3.6 30 23:56 24.05.2020
2474 Clear 18 1030 55 10000 3.1 30 23:37 24.05.2020
2475 Clear 18 1030 55 10000 3.1 30 23:37 24.05.2020
2476 Clear 17 1030 55 10000 3.1 30 23:18 24.05.2020
2477 Clear 18 1029 48 10000 2.6 30 22:41 24.05.2020
2478 Clear 19 1029 42 10000 3.1 30 22:19 24.05.2020
2479 Clear 20 1029 42 10000 3.1 30 21:56 24.05.2020
2480 Clear 20 1029 37 10000 4.1 50 21:38 24.05.2020
2481 Clear 21 1029 37 10000 4.1 50 21:20 24.05.2020
2482 Clear 22 1029 35 10000 5.1 40 20:44 24.05.2020
2483 Clouds 22 1029 35 10000 5.1 40 20:23 24.05.2020
2484 Clouds 23 1029 35 10000 5.7 40 19:59 24.05.2020
2485 Clouds 23 1029 33 10000 4.1 40 19:41 24.05.2020
2486 Clouds 23 1029 33 10000 4.1 40 19:20 24.05.2020
2487 Clouds 23 1030 35 10000 5.1 40 18:59 24.05.2020
2488 Clouds 23 1030 35 10000 4.1 30 18:40 24.05.2020
2489 Clouds 24 1030 35 10000 4.1 30 18:22 24.05.2020
2490 Clouds 24 1030 31 10000 5.1 30 17:55 24.05.2020
2491 Clouds 24 1030 33 10000 4.1 0 17:36 24.05.2020
2492 Clouds 24 1030 33 10000 4.1 0 17:36 24.05.2020
2493 Clouds 23 1030 33 10000 4.1 0 17:18 24.05.2020
2494 Clouds 24 1031 37 10000 3.6 60 16:39 24.05.2020
2495 Clouds 23 1031 37 10000 3.6 60 16:20 24.05.2020
2496 Clouds 23 1031 37 10000 3.1 0 15:57 24.05.2020
2497 Clouds 23 1031 35 10000 2.6 60 15:39 24.05.2020
2498 Clouds 22 1031 35 10000 2.6 60 15:19 24.05.2020
2499 Clouds 21 1032 37 10000 4.1 80 14:55 24.05.2020
2500 Clouds 22 1032 37 10000 4.6 70 14:37 24.05.2020
2501 Clouds 21 1032 37 10000 4.6 70 14:18 24.05.2020
2502 Clouds 21 1032 42 10000 4.1 30 13:43 24.05.2020
2503 Clouds 21 1032 42 10000 4.1 30 13:23 24.05.2020
2504 Clouds 21 1033 40 10000 2.6 100 12:59 24.05.2020
2505 Clouds 21 1033 40 10000 2.6 100 12:59 24.05.2020
2506 Clouds 20 1033 45 10000 3.6 50 12:41 24.05.2020
2507 Clouds 19 1033 45 10000 3.6 50 12:22 24.05.2020
2508 Clouds 19 1033 48 10000 3.6 50 11:59 24.05.2020
2509 Clouds 19 1033 55 10000 2.1 80 11:41 24.05.2020
2510 Clouds 18 1033 55 10000 2.1 80 11:23 24.05.2020
2511 Clouds 17 1033 67 10000 3.1 60 10:59 24.05.2020
2512 Clouds 17 1034 63 10000 3.6 50 10:39 24.05.2020
2513 Clouds 16 1034 63 10000 3.6 50 10:21 24.05.2020
2514 Clouds 15 1034 72 10000 4.1 40 09:42 24.05.2020
2515 Clouds 15 1034 72 10000 4.1 40 09:19 24.05.2020
2516 Clouds 13 1034 76 10000 3.1 40 08:58 24.05.2020
2517 Clouds 13 1034 82 10000 1 0 08:40 24.05.2020
2518 Clouds 12 1034 82 10000 1 0 08:22 24.05.2020
2519 Clouds 10 1034 100 10000 2.23 47 07:51 24.05.2020
2520 Clouds 9 1033 93 10000 1.89 49 07:26 24.05.2020
2521 Clouds 9 1033 93 10000 1 40 06:58 24.05.2020
2522 Clouds 9 1033 93 10000 0.5 40 06:37 24.05.2020
2523 Clouds 9 1033 93 10000 0.5 40 06:37 24.05.2020
2524 Fog 10 1033 93 10000 2.27 29 05:21 24.05.2020
2525 Clear 11 1034 87 10000 2.1 350 03:42 24.05.2020
2526 Clear 11 1034 87 10000 1 0 02:47 24.05.2020
2527 Fog 12 1034 93 10000 2 19 01:54 24.05.2020
2528 Clear 13 1034 87 10000 1 280 00:42 24.05.2020
2529 Clear 13 1034 87 10000 1 280 00:23 24.05.2020
2530 Clear 14 1034 82 10000 1.94 353 23:46 23.05.2020
2531 Clouds 14 1034 82 10000 1.5 300 23:26 23.05.2020
2532 Clouds 14 1034 76 10000 2.6 320 22:59 23.05.2020
2533 Clouds 15 1033 76 10000 2.6 310 22:39 23.05.2020
2534 Clouds 16 1033 72 10000 3.1 310 22:21 23.05.2020
2535 Clouds 16 1033 72 10000 3.1 310 21:59 23.05.2020
2536 Clouds 17 1033 63 10000 3.1 320 21:41 23.05.2020
2537 Clear 18 1033 63 10000 3.1 320 21:20 23.05.2020
2538 Clear 18 1033 59 10000 3.6 330 20:59 23.05.2020
2539 Clear 18 1033 59 10000 3.6 330 20:59 23.05.2020
2540 Clouds 18 1033 59 10000 3.6 350 20:38 23.05.2020
2541 Clouds 18 1033 59 10000 3.6 10 20:19 23.05.2020
2542 Clouds 19 1033 59 10000 3.6 10 19:55 23.05.2020
2543 Clouds 19 1033 59 10000 4.1 320 19:37 23.05.2020
2544 Clouds 20 1033 59 10000 4.1 320 19:18 23.05.2020
2545 Clouds 20 1033 55 10000 2.6 340 18:40 23.05.2020
2546 Clouds 20 1033 55 10000 2.6 340 18:22 23.05.2020
2547 Clouds 19 1032 59 10000 3.1 350 17:56 23.05.2020
2548 Clouds 18 1033 68 10000 1.5 0 17:38 23.05.2020
2549 Clouds 17 1033 67 10000 1.5 0 17:19 23.05.2020
2550 Clouds 19 1033 67 10000 1.5 0 16:57 23.05.2020
2551 Clouds 19 1033 63 10000 0.5 0 16:39 23.05.2020
2552 Clouds 19 1033 63 10000 0.5 0 16:19 23.05.2020
2553 Clouds 17 1033 77 10000 1 0 15:43 23.05.2020
2554 Clouds 17 1033 77 10000 1 0 15:24 23.05.2020
2555 Clouds 16 1033 82 10000 1 0 14:58 23.05.2020
2556 Clouds 15 1033 87 10000 1 0 14:39 23.05.2020
2557 Clouds 15 1033 87 10000 1 0 14:21 23.05.2020
2558 Clouds 14 1033 87 10000 1 0 13:41 23.05.2020
2559 Clouds 14 1033 87 10000 1 0 13:19 23.05.2020
2560 Rain 14 1032 87 10000 2.1 100 13:19 23.05.2020
2561 Rain 14 1032 87 10000 2.1 100 12:56 23.05.2020
2562 Rain 14 1032 87 10000 2.1 60 12:38 23.05.2020
2563 Rain 14 1032 82 10000 2.6 20 12:19 23.05.2020
2564 Clouds 14 1031 82 10000 2.6 360 11:43 23.05.2020
2565 Clouds 14 1031 82 10000 2.6 360 11:22 23.05.2020
2566 Clouds 15 1031 76 10000 3.6 360 10:57 23.05.2020
2567 Clouds 15 1031 76 10000 5.1 10 10:39 23.05.2020
2568 Clouds 15 1031 76 10000 5.1 10 10:20 23.05.2020
2569 Rain 15 1030 87 10000 3.6 30 09:56 23.05.2020
2570 Clouds 16 1030 77 10000 4.1 360 09:38 23.05.2020
2571 Clouds 16 1030 77 10000 4.1 360 09:20 23.05.2020
2572 Clouds 16 1029 77 10000 4.1 350 08:42 23.05.2020
2573 Clouds 16 1028 82 10000 3.1 350 08:19 23.05.2020
2574 Clouds 16 1028 82 10000 3.1 350 07:46 23.05.2020
2575 Clouds 16 1028 82 10000 4.6 340 07:28 23.05.2020
2576 Clouds 16 1028 82 10000 3.6 340 06:53 23.05.2020
2577 Clouds 16 1027 87 10000 4.6 340 06:35 23.05.2020
2578 Clouds 17 1026 88 10000 2.6 330 04:49 23.05.2020
2579 Clouds 18 1026 88 10000 2.6 310 03:29 23.05.2020
2580 Clouds 18 1026 88 10000 3.1 320 02:56 23.05.2020
2581 Clouds 18 1026 88 10000 2.1 290 01:55 23.05.2020
2582 Clouds 18 1026 82 10000 2.6 320 01:20 23.05.2020
2583 Clouds 18 1026 82 10000 3.1 330 00:45 23.05.2020
2584 Clouds 18 1026 82 10000 2.1 320 00:23 23.05.2020
2585 Clouds 19 1026 82 10000 2.1 320 23:55 22.05.2020
2586 Clouds 19 1026 82 10000 3.6 320 23:36 22.05.2020
2587 Clouds 19 1026 82 10000 3.6 320 23:18 22.05.2020
2588 Clouds 19 1025 82 10000 3.1 310 22:42 22.05.2020
2589 Clouds 19 1025 82 10000 3.1 310 22:21 22.05.2020
2590 Clouds 20 1025 77 10000 2.6 310 21:55 22.05.2020
2591 Clouds 20 1025 77 10000 2.6 310 21:55 22.05.2020
2592 Clouds 20 1024 77 10000 3.1 320 21:36 22.05.2020
2593 Clouds 20 1024 77 10000 3.1 320 21:18 22.05.2020
2594 Clouds 22 1024 68 10000 5.1 320 20:42 22.05.2020
2595 Clouds 23 1024 68 10000 5.1 320 20:20 22.05.2020
2596 Clouds 23 1024 73 10000 5.1 310 20:20 22.05.2020
2597 Clouds 22 1024 73 10000 5.1 310 19:45 22.05.2020
2598 Clouds 25 1024 60 10000 6.2 320 19:26 22.05.2020
2599 Clouds 25 1024 60 10000 4.6 310 18:57 22.05.2020
2600 Clouds 25 1024 60 10000 5.7 310 18:38 22.05.2020
2601 Clouds 27 1023 57 10000 5.7 310 18:19 22.05.2020
2602 Clouds 27 1023 57 10000 5.7 310 18:19 22.05.2020
2603 Clouds 27 1023 54 10000 5.1 300 17:40 22.05.2020
2604 Clouds 28 1024 50 10000 3.1 290 17:20 22.05.2020
2605 Clouds 28 1024 50 10000 3.1 290 16:57 22.05.2020
2606 Clouds 28 1024 50 10000 3.1 310 16:39 22.05.2020
2607 Clouds 28 1024 50 10000 3.1 310 16:39 22.05.2020
2608 Clouds 28 1024 50 10000 3.1 310 16:19 22.05.2020
2609 Clouds 28 1024 50 10000 2.6 300 15:54 22.05.2020
2610 Clouds 28 1024 50 10000 4.1 300 15:36 22.05.2020
2611 Clouds 26 1024 50 10000 4.1 300 15:18 22.05.2020
2612 Clouds 27 1024 50 10000 3.1 290 14:39 22.05.2020
2613 Clouds 27 1024 50 10000 3.1 290 14:20 22.05.2020
2614 Clouds 26 1024 53 10000 3.6 290 13:42 22.05.2020
2615 Clouds 26 1024 53 10000 3.6 290 13:42 22.05.2020
2616 Clouds 27 1024 53 10000 3.6 290 13:19 22.05.2020
2617 Clouds 26 1024 53 10000 2.6 300 12:43 22.05.2020
2618 Clouds 24 1024 53 10000 2.6 300 12:24 22.05.2020
2619 Clouds 24 1024 53 10000 2.6 300 12:24 22.05.2020
2620 Clouds 25 1024 47 10000 2.6 340 11:48 22.05.2020
2621 Clouds 24 1024 56 10000 2.6 300 11:22 22.05.2020
2622 Clouds 22 1024 60 10000 2.1 310 10:59 22.05.2020
2623 Clouds 22 1023 64 10000 2.6 330 10:39 22.05.2020
2624 Clouds 22 1023 64 10000 2.6 330 10:20 22.05.2020
2625 Clouds 22 1023 60 10000 1.5 0 09:55 22.05.2020
2626 Clouds 21 1023 68 10000 1.5 0 09:36 22.05.2020
2627 Clouds 19 1023 68 10000 1.5 0 09:18 22.05.2020
2628 Clouds 18 1022 82 10000 1.5 0 08:42 22.05.2020
2629 Clouds 18 1022 82 10000 1.5 0 08:19 22.05.2020
2630 Clouds 18 1022 88 10000 2.6 320 07:52 22.05.2020
2631 Clouds 18 1021 93 10000 1.5 260 07:23 22.05.2020
2632 Clouds 17 1020 88 10000 1.5 0 06:53 22.05.2020
2633 Clouds 17 1020 88 10000 1.49 325 06:31 22.05.2020
2634 Clouds 17 1020 93 10000 1.78 311 05:37 22.05.2020
2635 Clouds 17 1020 93 10000 1 260 04:50 22.05.2020
2636 Clouds 18 1020 88 10000 1 260 03:57 22.05.2020
2637 Clouds 18 1020 88 10000 0.77 278 03:39 22.05.2020
2638 Clouds 18 1020 88 10000 1 0 02:55 22.05.2020
2639 Clouds 19 1020 82 10000 1.5 0 01:48 22.05.2020
2640 Clouds 20 1020 82 10000 1 10 01:22 22.05.2020
2641 Clouds 21 1020 77 10000 0.58 192 00:34 22.05.2020
2642 Clouds 22 1020 73 10000 0.7 273 23:58 21.05.2020
2643 Clouds 22 1020 77 10000 1 290 23:40 21.05.2020
2644 Clouds 22 1020 77 10000 1 290 23:22 21.05.2020
2645 Clouds 23 1020 69 10000 2.1 310 22:57 21.05.2020
2646 Clouds 23 1019 69 10000 1.5 290 22:37 21.05.2020
2647 Clouds 24 1019 69 10000 1.5 290 22:19 21.05.2020
2648 Clouds 26 1019 61 10000 2.1 320 21:48 21.05.2020
2649 Clouds 27 1019 57 10000 2.6 310 21:27 21.05.2020
2650 Clouds 28 1018 54 10000 2.1 310 20:57 21.05.2020
2651 Clouds 29 1018 54 10000 2.6 320 20:39 21.05.2020
2652 Clouds 29 1018 54 10000 2.6 320 20:21 21.05.2020
2653 Clouds 30 1018 51 10000 2.1 330 19:40 21.05.2020
2654 Clouds 30 1018 51 10000 2.1 330 19:20 21.05.2020
2655 Clouds 29 1018 51 10000 3.6 320 18:57 21.05.2020
2656 Clouds 30 1019 48 10000 3.6 270 18:36 21.05.2020
2657 Clouds 30 1019 48 10000 3.6 270 18:18 21.05.2020
2658 Clouds 30 1019 37 10000 3.1 290 17:45 21.05.2020
2659 Clouds 30 1019 37 10000 3.1 290 17:26 21.05.2020
2660 Clouds 30 1019 37 10000 1 0 16:48 21.05.2020
2661 Clouds 30 1019 37 10000 1 0 16:28 21.05.2020
2662 Clouds 30 1019 42 10000 1 0 15:59 21.05.2020
2663 Clouds 29 1020 45 10000 1.5 0 15:40 21.05.2020
2664 Clouds 29 1020 45 10000 1.5 0 15:21 21.05.2020
2665 Clouds 29 1020 45 10000 1 0 14:41 21.05.2020
2666 Clouds 29 1020 45 10000 1 0 14:22 21.05.2020
2667 Clouds 28 1020 48 10000 1 0 13:55 21.05.2020
2668 Clouds 29 1020 51 10000 1.5 0 13:37 21.05.2020
2669 Clouds 28 1020 51 10000 1.5 0 13:18 21.05.2020
2670 Clouds 27 1020 61 10000 2.1 220 12:39 21.05.2020
2671 Clouds 26 1020 61 10000 2.1 220 12:20 21.05.2020
2672 Clouds 24 1020 64 10000 2.6 230 11:56 21.05.2020
2673 Clouds 23 1020 73 10000 3.1 240 11:37 21.05.2020
2674 Clouds 23 1020 73 10000 3.1 240 11:19 21.05.2020
2675 Clouds 21 1020 77 10000 3.6 240 10:43 21.05.2020
2676 Clouds 21 1020 77 10000 3.6 240 10:23 21.05.2020
2677 Clouds 19 1020 82 10000 3.6 250 09:57 21.05.2020
2678 Clouds 19 1020 82 10000 2.1 240 09:39 21.05.2020
2679 Clouds 19 1020 82 10000 2.1 240 09:21 21.05.2020
2680 Clouds 18 1020 82 10000 1.5 220 08:50 21.05.2020
2681 Clouds 17 1020 87 10000 1 0 08:31 21.05.2020
2682 Clouds 16 1020 87 10000 2.1 220 07:49 21.05.2020
2683 Clouds 16 1019 87 10000 1.5 240 07:28 21.05.2020
2684 Clouds 16 1019 87 10000 1.5 250 06:55 21.05.2020
2685 Clouds 16 1019 87 10000 2.1 240 06:25 21.05.2020
2686 Clouds 16 1019 87 10000 2.1 250 05:47 21.05.2020
2687 Clear 17 1019 87 10000 1.69 356 03:22 21.05.2020
2688 Clear 18 1019 82 10000 1 290 02:54 21.05.2020
2689 Clear 18 1019 77 10000 1.5 290 02:30 21.05.2020
2690 Clear 19 1019 77 10000 1 290 01:47 21.05.2020
2691 Clear 19 1019 72 10000 1 310 01:23 21.05.2020
2692 Clear 20 1019 72 10000 2.1 300 00:53 21.05.2020
2693 Clear 21 1018 64 10000 1.5 300 00:24 21.05.2020
2694 Clear 22 1018 56 10000 1.5 330 23:46 20.05.2020
2695 Clear 22 1018 53 10000 2.6 330 23:21 20.05.2020
2696 Clear 23 1018 53 10000 4.1 20 22:58 20.05.2020
2697 Clear 23 1017 50 10000 3.1 10 22:39 20.05.2020
2698 Clear 24 1017 50 10000 3.1 10 22:21 20.05.2020
2699 Clear 26 1017 41 10000 3.6 360 21:41 20.05.2020
2700 Clear 26 1017 41 10000 3.6 360 21:23 20.05.2020
2701 Clear 28 1017 34 10000 4.1 10 20:45 20.05.2020
2702 Clear 28 1017 34 10000 4.1 10 20:45 20.05.2020
2703 Clear 28 1017 34 10000 4.1 10 20:27 20.05.2020
2704 Clear 29 1017 37 10000 3.6 10 19:59 20.05.2020
2705 Clear 30 1017 32 10000 4.1 360 19:38 20.05.2020
2706 Clear 30 1017 32 10000 4.1 360 19:38 20.05.2020
2707 Clear 29 1017 32 10000 4.1 360 19:20 20.05.2020
2708 Clear 30 1017 30 10000 3.6 10 18:50 20.05.2020
2709 Clear 30 1017 30 10000 3.6 10 18:31 20.05.2020
2710 Clear 29 1017 30 10000 3.1 40 17:58 20.05.2020
2711 Clear 28 1017 32 10000 4.1 50 17:37 20.05.2020
2712 Clear 28 1017 32 10000 4.1 50 17:19 20.05.2020
2713 Clear 28 1018 32 10000 4.1 40 16:41 20.05.2020
2714 Clouds 28 1018 32 10000 4.1 40 16:22 20.05.2020
2715 Clouds 28 1018 32 10000 3.1 20 15:56 20.05.2020
2716 Clouds 28 1018 32 10000 3.6 30 15:36 20.05.2020
2717 Clear 28 1018 32 10000 3.6 30 15:18 20.05.2020
2718 Clouds 28 1018 30 10000 2.6 20 14:41 20.05.2020
2719 Clear 28 1018 30 10000 2.6 20 14:20 20.05.2020
2720 Clear 26 1019 31 10000 2.1 0 13:40 20.05.2020
2721 Clear 26 1019 31 10000 2.1 0 13:19 20.05.2020
2722 Clear 26 1019 31 10000 2.1 0 13:19 20.05.2020
2723 Clear 27 1019 33 10000 2.1 70 12:43 20.05.2020
2724 Clear 25 1019 33 10000 2.1 70 12:21 20.05.2020
2725 Clear 25 1019 33 10000 2.1 70 12:21 20.05.2020
2726 Clear 24 1019 41 10000 2.1 40 11:58 20.05.2020
2727 Clear 23 1019 43 10000 2.1 100 11:36 20.05.2020
2728 Clear 22 1019 43 10000 2.1 100 11:18 20.05.2020
2729 Clear 22 1019 43 10000 2.1 100 11:18 20.05.2020
2730 Clear 21 1019 43 10000 3.1 50 10:42 20.05.2020
2731 Clear 21 1019 43 10000 3.1 50 10:19 20.05.2020
2732 Clear 18 1019 48 10000 2.6 30 09:44 20.05.2020
2733 Clear 18 1019 48 10000 2.6 30 09:21 20.05.2020
2734 Clear 16 1019 52 10000 2.1 40 08:44 20.05.2020
2735 Clear 15 1019 63 10000 0.5 0 08:20 20.05.2020
2736 Clear 12 1019 87 10000 1.65 42 07:55 20.05.2020
2737 Clear 11 1019 87 10000 1.65 42 07:37 20.05.2020
2738 Clear 11 1019 87 10000 1.47 44 07:19 20.05.2020
2739 Clouds 11 1019 87 10000 1.74 48 06:28 20.05.2020
2740 Clouds 11 1019 81 10000 1.95 45 05:19 20.05.2020
2741 Clouds 12 1020 81 10000 2.06 46 04:25 20.05.2020
2742 Clouds 13 1020 71 10000 0.5 0 03:37 20.05.2020
2743 Clouds 15 1021 67 10000 2.1 360 01:58 20.05.2020
2744 Clouds 16 1021 63 10000 3.1 10 01:25 20.05.2020
2745 Clouds 17 1021 52 10000 3.1 10 00:42 20.05.2020
2746 Clouds 17 1021 52 10000 3.1 10 00:42 20.05.2020
2747 Clouds 17 1021 52 10000 3.1 10 00:23 20.05.2020
2748 Clouds 19 1021 48 10000 3.1 350 23:39 19.05.2020
2749 Clouds 19 1021 48 10000 3.1 350 23:19 19.05.2020
2750 Clouds 20 1021 42 10000 3.1 360 22:55 19.05.2020
2751 Clouds 21 1020 40 10000 3.6 360 22:37 19.05.2020
2752 Clouds 21 1020 40 10000 3.6 360 22:18 19.05.2020
2753 Clouds 22 1020 37 10000 3.6 360 21:55 19.05.2020
2754 Clouds 23 1020 35 10000 3.1 360 21:36 19.05.2020
2755 Clouds 23 1020 35 10000 3.1 360 21:18 19.05.2020
2756 Clouds 23 1020 35 10000 3.1 360 21:18 19.05.2020
2757 Clouds 24 1020 36 10000 3.6 360 20:56 19.05.2020
2758 Clouds 25 1020 31 10000 5.1 360 20:37 19.05.2020
2759 Clear 25 1020 31 10000 5.1 360 20:19 19.05.2020
2760 Clear 26 1020 29 10000 5.7 10 19:38 19.05.2020
2761 Clear 26 1020 29 10000 5.7 10 19:20 19.05.2020
2762 Clear 26 1020 29 10000 4.6 20 18:45 19.05.2020
2763 Clear 27 1020 29 10000 4.6 20 18:23 19.05.2020
2764 Clear 27 1020 29 10000 5.1 20 17:58 19.05.2020
2765 Clear 27 1021 29 10000 5.1 10 17:39 19.05.2020
2766 Clear 27 1021 29 10000 5.1 10 17:20 19.05.2020
2767 Clear 27 1021 31 10000 5.1 10 16:55 19.05.2020
2768 Clear 27 1021 31 10000 5.1 10 16:37 19.05.2020
2769 Clear 26 1021 31 10000 5.1 10 16:18 19.05.2020
2770 Clear 25 1021 38 10000 4.1 20 15:41 19.05.2020
2771 Clear 25 1021 38 10000 4.1 20 15:20 19.05.2020
2772 Clear 25 1022 33 10000 5.1 30 14:55 19.05.2020
2773 Clear 25 1022 36 10000 4.1 40 14:36 19.05.2020
2774 Clear 25 1022 36 10000 4.1 40 14:18 19.05.2020
2775 Clear 25 1023 44 10000 3.6 20 13:55 19.05.2020
2776 Clear 25 1023 44 10000 3.6 20 13:37 19.05.2020
2777 Clear 25 1023 44 10000 3.6 20 13:18 19.05.2020
2778 Clear 25 1023 44 10000 3.6 30 12:55 19.05.2020
2779 Clear 24 1023 46 10000 3.1 20 12:36 19.05.2020
2780 Clear 23 1023 46 10000 3.1 20 12:18 19.05.2020
2781 Clear 23 1023 46 10000 2.6 60 11:41 19.05.2020
2782 Clear 23 1023 46 10000 2.6 60 11:22 19.05.2020
2783 Clear 23 1023 46 10000 2.6 60 11:22 19.05.2020
2784 Clear 22 1023 49 10000 2.6 40 10:55 19.05.2020
2785 Clear 21 1023 52 10000 2.6 40 10:37 19.05.2020
2786 Clear 20 1023 52 10000 2.6 40 10:18 19.05.2020
2787 Clear 18 1023 59 10000 2.1 30 09:42 19.05.2020
2788 Clear 17 1023 59 10000 2.1 30 09:24 19.05.2020
2789 Clear 15 1023 67 10000 2.1 30 08:47 19.05.2020
2790 Clear 14 1023 76 10000 1.5 360 08:25 19.05.2020
2791 Clear 12 1023 93 10000 1 340 07:47 19.05.2020
2792 Clear 12 1023 93 10000 1 340 07:27 19.05.2020
2793 Clear 11 1023 87 10000 1.5 350 06:55 19.05.2020
2794 Clear 11 1023 87 10000 1 310 06:26 19.05.2020
2795 Clear 12 1023 81 10000 1.5 280 05:42 19.05.2020
2796 Clear 12 1023 81 10000 1.5 280 05:19 19.05.2020
2797 Clear 13 1023 81 10000 1 280 04:35 19.05.2020
2798 Clear 14 1024 71 10000 1.5 280 02:21 19.05.2020
2799 Clear 16 1024 62 10000 2.1 330 00:48 19.05.2020
2800 Clear 16 1024 59 10000 3.6 340 00:26 19.05.2020
2801 Clear 16 1024 59 10000 3.1 350 23:58 18.05.2020
2802 Clear 17 1024 55 10000 4.1 350 23:40 18.05.2020
2803 Clear 17 1024 55 10000 4.1 350 23:20 18.05.2020
2804 Clear 18 1024 52 10000 4.1 330 22:41 18.05.2020
2805 Clear 18 1024 52 10000 4.1 330 22:22 18.05.2020
2806 Clear 19 1024 48 10000 5.1 330 21:58 18.05.2020
2807 Clear 21 1023 46 10000 6.2 330 21:39 18.05.2020
2808 Clouds 21 1023 46 10000 6.2 330 21:19 18.05.2020
2809 Clear 22 1023 46 10000 5.1 350 20:43 18.05.2020
2810 Clear 23 1023 46 10000 5.1 350 20:22 18.05.2020
2811 Clear 23 1023 43 10000 5.7 360 19:59 18.05.2020
2812 Clear 24 1023 41 10000 5.1 10 19:40 18.05.2020
2813 Clear 25 1023 41 10000 5.1 10 19:19 18.05.2020
2814 Clear 24 1023 41 10000 4.6 360 18:46 18.05.2020
2815 Clear 25 1023 41 10000 4.1 20 18:25 18.05.2020
2816 Clear 24 1024 41 10000 5.1 30 17:55 18.05.2020
2817 Clear 24 1024 44 10000 3.6 10 17:36 18.05.2020
2818 Clear 24 1024 44 10000 3.6 10 17:18 18.05.2020
2819 Clear 24 1024 44 10000 3.6 10 17:18 18.05.2020
2820 Clear 24 1024 44 10000 3.6 10 17:18 18.05.2020
2821 Clear 24 1024 41 10000 4.6 10 16:43 18.05.2020
2822 Clear 24 1024 41 10000 4.6 10 16:21 18.05.2020
2823 Clouds 24 1024 38 10000 4.6 10 15:57 18.05.2020
2824 Clouds 24 1025 38 10000 4.1 30 15:39 18.05.2020
2825 Clear 24 1025 38 10000 4.1 30 15:20 18.05.2020
2826 Clear 23 1025 43 10000 3.6 40 14:56 18.05.2020
2827 Clear 23 1025 40 10000 4.1 20 14:38 18.05.2020
2828 Clear 23 1025 40 10000 4.1 20 14:19 18.05.2020
2829 Clear 22 1026 40 10000 2.6 360 13:41 18.05.2020
2830 Clear 22 1026 40 10000 2.6 360 13:20 18.05.2020
2831 Clear 23 1026 43 10000 4.1 50 12:58 18.05.2020
2832 Clear 22 1026 46 10000 4.1 60 12:39 18.05.2020
2833 Clear 21 1026 46 10000 4.1 60 12:19 18.05.2020
2834 Clear 21 1026 40 10000 4.1 30 11:47 18.05.2020
2835 Clear 21 1026 43 10000 3.1 30 11:27 18.05.2020
2836 Clear 20 1026 45 10000 3.6 50 10:59 18.05.2020
2837 Clear 20 1026 56 10000 2.6 30 10:41 18.05.2020
2838 Clear 19 1026 56 10000 2.6 30 10:22 18.05.2020
2839 Clear 17 1025 63 10000 1.5 30 09:44 18.05.2020
2840 Clear 17 1025 63 10000 1.5 30 09:25 18.05.2020
2841 Clear 14 1025 72 10000 1 0 08:46 18.05.2020
2842 Clear 13 1025 82 10000 2.03 10 08:27 18.05.2020
2843 Clear 11 1025 93 10000 2.03 10 07:58 18.05.2020
2844 Clear 11 1025 100 10000 2.03 10 07:38 18.05.2020
2845 Clear 10 1025 100 10000 1.71 359 07:18 18.05.2020
2846 Clear 10 1025 93 10000 0.5 0 06:43 18.05.2020
2847 Clear 11 1025 93 10000 1 290 05:49 18.05.2020
2848 Clear 11 1025 87 10000 1 0 05:25 18.05.2020
2849 Clear 12 1025 81 10000 1.5 280 03:34 18.05.2020
2850 Clear 13 1025 76 10000 0.5 0 02:30 18.05.2020
2851 Clear 14 1025 67 10000 2.6 360 01:22 18.05.2020
2852 Clear 15 1025 58 10000 4.1 350 00:25 18.05.2020
2853 Clear 15 1025 62 10000 3.6 350 23:57 17.05.2020
2854 Clear 16 1025 59 10000 4.1 350 23:39 17.05.2020
2855 Clear 16 1025 59 10000 4.1 350 23:20 17.05.2020
2856 Clear 16 1025 59 10000 4.1 340 22:56 17.05.2020
2857 Clear 17 1025 55 10000 4.1 340 22:37 17.05.2020
2858 Clear 17 1025 55 10000 4.1 340 22:19 17.05.2020
2859 Clear 18 1024 55 10000 4.6 330 21:55 17.05.2020
2860 Clear 19 1024 52 10000 4.6 330 21:36 17.05.2020
2861 Clear 19 1024 52 10000 4.6 330 21:18 17.05.2020
2862 Clear 21 1024 40 10000 4.6 10 20:41 17.05.2020
2863 Clear 21 1024 40 10000 4.6 10 20:20 17.05.2020
2864 Clear 22 1024 37 10000 3.6 360 19:57 17.05.2020
2865 Clear 22 1024 40 10000 4.6 360 19:37 17.05.2020
2866 Clear 23 1024 40 10000 4.6 360 19:19 17.05.2020
2867 Clear 23 1024 35 10000 3.6 360 18:41 17.05.2020
2868 Clear 23 1024 35 10000 3.6 360 18:23 17.05.2020
2869 Clear 24 1024 37 10000 4.1 360 17:58 17.05.2020
2870 Clear 24 1024 37 10000 4.1 40 17:39 17.05.2020
2871 Clear 22 1024 37 10000 4.1 40 17:18 17.05.2020
2872 Clear 24 1024 37 10000 3.6 340 16:40 17.05.2020
2873 Clear 22 1024 37 10000 3.6 340 16:20 17.05.2020
2874 Clear 22 1024 37 10000 2.6 10 15:58 17.05.2020
2875 Clear 24 1024 40 10000 3.6 10 15:39 17.05.2020
2876 Clear 22 1024 40 10000 3.6 10 15:20 17.05.2020
2877 Clear 22 1024 43 10000 3.6 40 14:43 17.05.2020
2878 Clear 22 1025 43 10000 2.6 0 14:24 17.05.2020
2879 Clear 22 1025 37 10000 2.6 0 13:58 17.05.2020
2880 Clear 21 1025 37 10000 2.6 30 13:40 17.05.2020
2881 Clear 22 1025 37 10000 2.6 30 13:19 17.05.2020
2882 Clear 11 1023 87 10000 1 0 04:41 17.05.2020
2883 Clear 12 1023 87 10000 1 0 02:39 17.05.2020
2884 Clear 12 1023 87 10000 1 0 02:19 17.05.2020
2885 Clear 12 1023 81 10000 1 0 01:44 17.05.2020
2886 Clear 13 1023 81 10000 2.1 310 00:40 17.05.2020
2887 Clear 13 1023 81 10000 2.1 310 00:19 17.05.2020
2888 Clear 14 1023 76 10000 3.1 310 23:40 16.05.2020
2889 Clear 14 1023 76 10000 3.1 310 23:20 16.05.2020
2890 Clear 15 1022 67 10000 4.1 320 22:58 16.05.2020
2891 Clear 15 1022 67 10000 4.1 310 22:40 16.05.2020
2892 Clear 16 1022 67 10000 4.1 310 22:20 16.05.2020
2893 Clear 17 1022 63 10000 4.6 310 21:46 16.05.2020
2894 Clear 17 1022 63 10000 4.6 310 21:46 16.05.2020
2895 Clear 18 1021 59 10000 5.1 310 21:27 16.05.2020
2896 Clear 19 1021 45 10000 5.7 320 20:59 16.05.2020
2897 Clear 20 1021 45 10000 6.2 330 20:41 16.05.2020
2898 Clear 20 1021 45 10000 6.2 330 20:41 16.05.2020
2899 Clouds 20 1021 45 10000 6.2 330 20:22 16.05.2020
2900 Clouds 21 1020 40 10000 6.2 340 19:58 16.05.2020
2901 Clouds 21 1020 40 10000 6.7 350 19:39 16.05.2020
2902 Clouds 22 1020 40 10000 6.7 350 19:21 16.05.2020
2903 Clouds 22 1020 40 10000 5.1 360 18:42 16.05.2020
2904 Clouds 22 1020 40 10000 5.1 360 18:24 16.05.2020
2905 Clouds 22 1020 40 10000 6.2 10 17:56 16.05.2020
2906 Clouds 23 1020 37 10000 5.7 10 17:38 16.05.2020
2907 Clouds 23 1020 37 10000 5.7 10 17:19 16.05.2020
2908 Clouds 23 1020 37 10000 6.2 350 16:40 16.05.2020
2909 Clear 23 1020 37 10000 6.2 350 16:22 16.05.2020
2910 Clear 22 1020 37 10000 5.7 360 15:57 16.05.2020
2911 Clear 23 1020 37 10000 6.2 20 15:38 16.05.2020
2912 Clear 22 1020 37 10000 6.2 20 15:19 16.05.2020
2913 Clouds 21 1021 46 10000 4.6 30 14:43 16.05.2020
2914 Clouds 21 1021 46 10000 4.6 30 14:20 16.05.2020
2915 Clear 21 1021 49 10000 4.1 30 13:58 16.05.2020
2916 Clear 21 1021 45 10000 4.1 40 13:39 16.05.2020
2917 Clear 22 1021 45 10000 4.1 40 13:21 16.05.2020
2918 Clear 21 1021 52 10000 3.6 40 12:45 16.05.2020
2919 Clear 19 1021 55 10000 2.6 40 12:21 16.05.2020
2920 Clear 18 1021 59 10000 3.1 50 11:56 16.05.2020
2921 Clear 18 1021 59 10000 3.1 40 11:38 16.05.2020
2922 Clear 18 1021 59 10000 3.1 40 11:20 16.05.2020
2923 Clear 17 1021 67 10000 3.6 30 10:55 16.05.2020
2924 Clear 16 1021 71 10000 2.6 30 10:37 16.05.2020
2925 Clear 16 1021 71 10000 2.6 30 10:18 16.05.2020
2926 Clear 16 1021 71 10000 2.6 30 10:18 16.05.2020
2927 Clear 15 1021 71 10000 4.6 30 09:44 16.05.2020
2928 Clear 13 1021 71 10000 4.6 30 09:25 16.05.2020
2929 Clear 13 1020 71 10000 2.6 20 08:43 16.05.2020
2930 Clouds 13 1020 71 10000 2.6 20 08:21 16.05.2020
2931 Clouds 13 1020 71 10000 3.1 30 07:46 16.05.2020
2932 Clouds 13 1020 76 10000 2.1 30 07:27 16.05.2020
2933 Clouds 13 1020 76 10000 2.1 30 06:58 16.05.2020
2934 Clouds 13 1019 76 10000 2.1 20 06:39 16.05.2020
2935 Clouds 13 1019 76 10000 2.1 20 06:18 16.05.2020
2936 Clouds 13 1019 66 10000 3.1 10 05:33 16.05.2020
2937 Clouds 14 1019 67 10000 2.6 360 03:58 16.05.2020
2938 Clouds 15 1019 62 10000 3.1 10 02:59 16.05.2020
2939 Clouds 15 1019 62 10000 4.6 20 02:21 16.05.2020
2940 Clouds 16 1019 59 10000 4.1 20 01:53 16.05.2020
2941 Clouds 16 1019 59 10000 3.6 20 01:23 16.05.2020
2942 Clouds 16 1019 59 10000 4.1 20 00:49 16.05.2020
2943 Clouds 16 1019 59 10000 4.6 20 00:22 16.05.2020
2944 Clouds 17 1019 55 10000 4.6 10 23:41 15.05.2020
2945 Clouds 17 1018 55 10000 3.6 20 23:20 15.05.2020
2946 Clouds 17 1018 55 10000 3.6 20 22:58 15.05.2020
2947 Clouds 17 1018 55 10000 3.1 10 22:40 15.05.2020
2948 Clouds 17 1018 55 10000 3.1 10 22:19 15.05.2020
2949 Clouds 18 1017 52 10000 3.6 20 21:40 15.05.2020
2950 Clouds 18 1017 52 10000 3.6 20 21:22 15.05.2020
2951 Clouds 18 1017 52 10000 3.6 30 20:59 15.05.2020
2952 Clouds 18 1017 52 10000 3.6 30 20:59 15.05.2020
2953 Clouds 18 1017 52 10000 4.1 10 20:41 15.05.2020
2954 Clear 19 1017 52 10000 4.1 10 20:22 15.05.2020
2955 Clouds 19 1017 52 10000 4.6 10 19:56 15.05.2020
2956 Clouds 20 1017 48 10000 5.1 10 19:38 15.05.2020
2957 Clear 20 1017 48 10000 5.1 10 19:19 15.05.2020
2958 Clear 20 1016 49 10000 5.7 350 18:45 15.05.2020
2959 Clear 20 1016 49 10000 5.7 350 18:27 15.05.2020
2960 Clouds 21 1016 49 10000 4.1 20 17:40 15.05.2020
2961 Clear 21 1016 49 10000 4.1 20 17:20 15.05.2020
2962 Clear 21 1016 49 10000 4.1 20 17:20 15.05.2020
2963 Clouds 21 1016 48 10000 4.6 30 16:58 15.05.2020
2964 Clouds 20 1016 48 10000 4.1 30 16:39 15.05.2020
2965 Clouds 21 1016 48 10000 4.1 30 16:19 15.05.2020
2966 Clouds 20 1016 48 10000 4.1 20 15:55 15.05.2020
2967 Clouds 20 1016 48 10000 5.1 30 15:37 15.05.2020
2968 Clouds 20 1016 48 10000 5.1 30 15:18 15.05.2020
2969 Clouds 19 1016 51 10000 4.6 20 14:42 15.05.2020
2970 Clouds 20 1016 52 10000 5.1 20 14:24 15.05.2020
2971 Clouds 19 1016 52 10000 5.1 20 13:58 15.05.2020
2972 Clear 19 1016 55 10000 4.6 10 13:39 15.05.2020
2973 Clear 18 1016 55 10000 4.6 10 13:19 15.05.2020
2974 Clear 17 1016 55 10000 5.7 10 12:39 15.05.2020
2975 Clear 16 1016 55 10000 5.7 10 12:18 15.05.2020
2976 Clear 16 1016 58 10000 5.7 10 11:57 15.05.2020
2977 Clear 16 1016 58 10000 5.7 10 11:38 15.05.2020
2978 Clear 15 1016 58 10000 5.7 10 11:20 15.05.2020
2979 Clear 14 1015 62 10000 4.1 20 10:58 15.05.2020
2980 Clear 14 1015 62 10000 4.1 30 10:39 15.05.2020
2981 Clear 13 1015 62 10000 4.1 30 10:20 15.05.2020
2982 Clear 13 1015 66 10000 4.6 20 09:58 15.05.2020
2983 Clouds 12 1015 62 10000 4.1 20 09:37 15.05.2020
2984 Clear 12 1015 62 10000 4.1 20 09:18 15.05.2020
2985 Clouds 11 1014 66 10000 4.6 20 08:39 15.05.2020
2986 Clouds 11 1014 66 10000 4.6 20 08:20 15.05.2020
2987 Clouds 10 1014 71 10000 4.6 10 07:59 15.05.2020
2988 Clouds 10 1013 76 10000 4.6 10 07:40 15.05.2020
2989 Clouds 10 1013 76 10000 4.6 10 07:21 15.05.2020
2990 Clouds 10 1012 71 10000 4.6 10 06:32 15.05.2020
2991 Clouds 11 1011 76 10000 3.6 10 05:38 15.05.2020
2992 Clouds 11 1011 76 10000 4.1 10 03:52 15.05.2020
2993 Clouds 13 1010 66 10000 5.1 10 02:58 15.05.2020
2994 Clouds 14 1010 71 10000 4.1 10 01:37 15.05.2020
2995 Clouds 14 1010 71 10000 4.1 10 01:18 15.05.2020
2996 Clouds 14 1010 71 10000 4.1 360 00:41 15.05.2020
2997 Clouds 14 1010 71 10000 4.1 360 00:22 15.05.2020
2998 Clouds 15 1009 72 10000 4.6 10 23:41 14.05.2020
2999 Clouds 15 1009 72 10000 4.6 10 23:19 14.05.2020
3000 Clouds 16 1009 72 10000 3.6 20 22:55 14.05.2020
3001 Clouds 16 1009 67 10000 4.1 20 22:37 14.05.2020
3002 Clouds 16 1009 67 10000 4.1 20 22:18 14.05.2020
3003 Clouds 16 1008 67 10000 5.1 30 21:42 14.05.2020
3004 Clouds 16 1008 67 10000 5.1 30 21:42 14.05.2020
3005 Clouds 17 1008 67 10000 5.1 30 21:20 14.05.2020
3006 Clouds 17 1008 67 10000 4.6 20 20:58 14.05.2020
3007 Clouds 17 1007 67 10000 4.1 10 20:39 14.05.2020
3008 Clouds 18 1007 67 10000 4.1 10 20:20 14.05.2020
3009 Clouds 18 1007 72 10000 3.6 360 19:57 14.05.2020
3010 Clouds 18 1007 72 10000 3.6 10 19:38 14.05.2020
3011 Clouds 18 1007 72 10000 3.6 10 19:20 14.05.2020
3012 Clouds 18 1007 72 10000 4.1 10 18:57 14.05.2020
3013 Clouds 19 1007 72 10000 4.6 360 18:38 14.05.2020
3014 Clouds 19 1007 72 10000 4.6 360 18:19 14.05.2020
3015 Clouds 18 1007 77 10000 4.1 10 17:56 14.05.2020
3016 Clouds 18 1007 77 10000 4.1 10 17:56 14.05.2020
3017 Clouds 19 1007 72 10000 5.1 10 17:37 14.05.2020
3018 Clouds 18 1007 72 10000 5.1 10 17:18 14.05.2020
3019 Clouds 18 1007 72 10000 5.1 10 16:39 14.05.2020
3020 Clouds 17 1007 72 10000 5.1 10 16:21 14.05.2020
3021 Clouds 17 1007 77 10000 4.1 10 15:59 14.05.2020
3022 Clouds 17 1007 77 10000 2.6 30 15:40 14.05.2020
3023 Clouds 16 1007 77 10000 2.6 30 15:20 14.05.2020
3024 Clouds 16 1008 82 10000 3.6 10 14:56 14.05.2020
3025 Clouds 16 1008 82 10000 3.1 40 14:38 14.05.2020
3026 Clouds 16 1008 82 10000 3.1 40 14:20 14.05.2020
3027 Clouds 15 1008 82 10000 4.1 20 13:56 14.05.2020
3028 Clouds 15 1008 87 10000 3.6 360 13:38 14.05.2020
3029 Clouds 15 1008 87 10000 3.6 360 13:18 14.05.2020
3030 Clouds 15 1008 82 10000 4.1 30 12:57 14.05.2020
3031 Clouds 15 1008 82 10000 4.1 40 12:37 14.05.2020
3032 Clouds 14 1008 82 10000 4.1 40 12:18 14.05.2020
3033 Clouds 14 1008 82 10000 4.6 10 11:55 14.05.2020
3034 Clouds 14 1008 82 10000 3.6 50 11:37 14.05.2020
3035 Clouds 14 1008 82 10000 3.6 50 11:19 14.05.2020
3036 Clouds 13 1008 87 10000 4.1 30 10:41 14.05.2020
3037 Clouds 13 1008 87 10000 4.1 30 10:23 14.05.2020
3038 Clouds 12 1008 87 10000 3.1 40 09:45 14.05.2020
3039 Clouds 12 1008 87 10000 3.1 30 09:25 14.05.2020
3040 Clouds 12 1008 93 10000 2.1 40 08:59 14.05.2020
3041 Clouds 11 1008 93 10000 2.1 120 08:37 14.05.2020
3042 Clouds 11 1008 93 10000 2.1 120 08:18 14.05.2020
3043 Clouds 11 1008 93 10000 2.6 60 07:44 14.05.2020
3044 Clouds 11 1008 93 10000 2.6 60 07:21 14.05.2020
3045 Clouds 11 1008 93 10000 3.1 40 06:43 14.05.2020
3046 Clouds 11 1008 87 10000 3.1 60 06:24 14.05.2020
3047 Clouds 11 1007 87 10000 3.1 30 05:42 14.05.2020
3048 Clouds 11 1008 87 10000 2.6 30 04:46 14.05.2020
3049 Clouds 11 1009 87 10000 2.6 50 03:43 14.05.2020
3050 Clouds 11 1009 87 10000 2.6 50 03:20 14.05.2020
3051 Clouds 11 1009 87 10000 3.6 40 02:35 14.05.2020
3052 Clouds 11 1009 87 10000 4.1 30 01:49 14.05.2020
3053 Clouds 11 1009 87 10000 3.6 20 00:53 14.05.2020
3054 Clouds 11 1009 87 10000 4.1 20 00:27 14.05.2020
3055 Clouds 11 1009 93 10000 4.1 20 23:45 13.05.2020
3056 Clouds 11 1009 93 10000 3.6 20 23:24 13.05.2020
3057 Clouds 12 1008 87 10000 4.1 30 22:59 13.05.2020
3058 Clouds 12 1008 87 10000 3.6 30 22:41 13.05.2020
3059 Clouds 12 1008 87 10000 3.6 30 22:21 13.05.2020
3060 Clouds 12 1008 87 10000 3.6 30 22:21 13.05.2020
3061 Clouds 12 1008 87 10000 4.1 20 21:57 13.05.2020
3062 Clouds 12 1007 87 10000 4.6 20 21:39 13.05.2020
3063 Clouds 12 1007 87 10000 4.6 20 21:39 13.05.2020
3064 Clouds 13 1007 87 10000 4.6 20 21:19 13.05.2020
3065 Clouds 13 1007 87 10000 5.1 10 20:42 13.05.2020
3066 Clouds 13 1007 87 10000 5.1 10 20:23 13.05.2020
3067 Clouds 14 1007 82 10000 4.6 10 19:59 13.05.2020
3068 Clouds 14 1006 82 10000 4.1 10 19:40 13.05.2020
3069 Clouds 15 1006 82 10000 4.1 10 19:22 13.05.2020
3070 Clouds 15 1006 77 10000 2.6 30 18:42 13.05.2020
3071 Clouds 15 1006 77 10000 2.6 30 18:22 13.05.2020
3072 Clouds 15 1006 77 10000 2.6 30 18:21 13.05.2020
3073 Clouds 15 1006 77 10000 2.6 30 18:20 13.05.2020
3074 Clouds 15 1006 77 10000 2.6 360 17:39 13.05.2020
3075 Clouds 15 1006 77 10000 2.6 360 17:20 13.05.2020
3076 Clouds 15 1006 77 10000 3.1 360 16:56 13.05.2020
3077 Clouds 15 1006 82 10000 3.1 10 16:37 13.05.2020
3078 Clouds 15 1006 82 10000 3.1 10 16:37 13.05.2020
3079 Clouds 16 1006 82 10000 3.1 10 16:18 13.05.2020
3080 Clouds 15 1005 82 10000 2.6 330 15:42 13.05.2020
3081 Clouds 15 1005 82 10000 2.6 330 15:19 13.05.2020
3082 Clouds 15 1005 82 10000 2.1 330 14:57 13.05.2020
3083 Clouds 15 1005 82 10000 1.5 0 14:39 13.05.2020
3084 Clouds 15 1005 82 10000 1.5 0 14:21 13.05.2020
3085 Clouds 14 1005 87 10000 2.6 330 13:56 13.05.2020
3086 Clouds 14 1006 82 10000 2.1 330 13:38 13.05.2020
3087 Clouds 14 1006 82 10000 2.1 330 13:19 13.05.2020
3088 Rain 13 1005 93 10000 1.5 330 12:43 13.05.2020
3089 Rain 12 1005 93 10000 1.5 330 12:22 13.05.2020
3090 Rain 12 1006 93 10000 0.5 0 11:57 13.05.2020
3091 Rain 11 1005 100 10000 1.5 10 11:39 13.05.2020
3092 Rain 11 1005 100 10000 1.5 10 11:20 13.05.2020
3093 Rain 11 1006 100 9000 2.6 10 10:59 13.05.2020
3094 Rain 11 1005 100 7000 2.1 10 10:39 13.05.2020
3095 Rain 11 1005 100 7000 2.1 10 10:20 13.05.2020
3096 Rain 11 1005 93 7000 2.1 20 09:57 13.05.2020
3097 Rain 12 1005 93 8000 2.6 10 09:38 13.05.2020
3098 Rain 12 1005 93 8000 2.6 10 09:20 13.05.2020
3099 Rain 12 1005 93 10000 1 320 08:40 13.05.2020
3100 Rain 12 1005 93 10000 1 320 08:21 13.05.2020
3101 Rain 12 1005 93 10000 1 10 07:59 13.05.2020
3102 Rain 12 1005 93 10000 1 10 07:59 13.05.2020
3103 Clouds 12 1005 93 10000 1 10 07:36 13.05.2020
3104 Clouds 12 1005 93 10000 1.5 0 06:55 13.05.2020
3105 Clouds 12 1005 87 10000 1.5 30 06:36 13.05.2020
3106 Clouds 12 1006 87 10000 2.6 50 05:50 13.05.2020
3107 Clouds 12 1006 93 10000 1.5 10 04:22 13.05.2020
3108 Clouds 12 1008 87 10000 1 0 02:58 13.05.2020
3109 Clouds 12 1008 93 10000 2.1 50 01:47 13.05.2020
3110 Clouds 12 1009 87 10000 2.1 30 01:20 13.05.2020
3111 Clouds 12 1010 93 10000 1.5 70 00:30 13.05.2020
3112 Mist 12 1010 93 5000 1 0 23:59 12.05.2020
3113 Clouds 12 1010 87 10000 1 160 23:39 12.05.2020
3114 Clouds 12 1010 87 10000 1 160 23:20 12.05.2020
3115 Clouds 12 1010 87 10000 1.5 0 22:43 12.05.2020
3116 Clouds 12 1010 87 10000 1.5 0 22:23 12.05.2020
3117 Clouds 12 1010 87 10000 1.5 0 22:23 12.05.2020
3118 Clouds 12 1010 87 10000 1.5 120 21:59 12.05.2020
3119 Clouds 12 1010 87 10000 1.5 120 21:59 12.05.2020
3120 Clouds 12 1010 87 10000 1.5 90 21:40 12.05.2020
3121 Clouds 12 1010 87 10000 1.5 90 21:22 12.05.2020
3122 Clouds 12 1010 87 10000 2.1 30 20:59 12.05.2020
3123 Clouds 12 1010 87 10000 2.1 30 20:59 12.05.2020
3124 Clouds 13 1010 81 10000 2.1 70 20:40 12.05.2020
3125 Clouds 13 1010 81 10000 2.1 70 20:22 12.05.2020
3126 Clouds 13 1010 81 10000 1.5 70 19:58 12.05.2020
3127 Clouds 12 1010 81 10000 2.1 100 19:40 12.05.2020
3128 Clouds 12 1010 81 10000 2.1 100 19:21 12.05.2020
3129 Clouds 12 1010 81 10000 3.1 110 18:56 12.05.2020
3130 Clouds 12 1011 81 10000 3.6 80 18:38 12.05.2020
3131 Clouds 13 1011 81 10000 3.6 80 18:20 12.05.2020
3132 Clouds 13 1011 81 10000 3.1 80 17:43 12.05.2020
3133 Clouds 13 1011 81 10000 3.1 80 17:24 12.05.2020
3134 Clouds 13 1011 76 10000 4.1 70 16:47 12.05.2020
3135 Clouds 12 1011 76 10000 4.1 50 16:26 12.05.2020
3136 Clouds 12 1011 76 10000 4.1 50 16:26 12.05.2020
3137 Clouds 12 1012 81 10000 3.1 50 15:57 12.05.2020
3138 Clouds 12 1012 81 10000 3.1 30 15:39 12.05.2020
3139 Clouds 12 1012 81 10000 3.1 30 15:39 12.05.2020
3140 Clouds 12 1012 81 10000 3.1 30 15:19 12.05.2020
3141 Clouds 12 1012 81 10000 3.1 30 14:57 12.05.2020
3142 Clouds 12 1012 81 10000 2.1 20 14:38 12.05.2020
3143 Clouds 12 1012 81 10000 2.1 20 14:20 12.05.2020
3144 Clouds 12 1013 81 10000 1.5 20 13:58 12.05.2020
3145 Clouds 12 1013 76 10000 1.5 350 13:40 12.05.2020
3146 Clouds 12 1013 76 10000 1.5 350 13:20 12.05.2020
3147 Clouds 12 1013 81 10000 2.1 30 12:57 12.05.2020
3148 Clouds 12 1013 81 10000 1.5 40 12:39 12.05.2020
3149 Clouds 12 1013 81 10000 1.5 40 12:21 12.05.2020
3150 Clouds 11 1013 87 10000 2.1 20 11:58 12.05.2020
3151 Clouds 11 1013 87 10000 2.6 30 11:38 12.05.2020
3152 Clouds 10 1013 87 10000 2.6 30 11:20 12.05.2020
3153 Clouds 10 1013 87 10000 2.6 30 10:58 12.05.2020
3154 Clouds 10 1013 87 10000 4.1 40 10:40 12.05.2020
3155 Clouds 10 1013 87 10000 4.1 40 10:21 12.05.2020
3156 Clouds 9 1012 87 10000 5.1 30 09:58 12.05.2020
3157 Clouds 9 1012 87 10000 5.7 40 09:39 12.05.2020
3158 Clouds 9 1012 87 10000 5.7 40 09:20 12.05.2020
3159 Clouds 9 1012 93 10000 3.6 20 08:42 12.05.2020
3160 Clouds 9 1012 93 10000 3.6 20 08:22 12.05.2020
3161 Clouds 8 1012 93 10000 2.6 10 07:58 12.05.2020
3162 Clouds 8 1012 93 10000 2.6 10 07:40 12.05.2020
3163 Clouds 8 1012 93 10000 2.6 10 07:21 12.05.2020
3164 Clouds 8 1012 93 10000 2.1 20 06:39 12.05.2020
3165 Clouds 8 1012 93 10000 2.1 20 06:21 12.05.2020
3166 Clouds 8 1012 93 10000 3.6 20 05:49 12.05.2020
3167 Clouds 8 1012 93 10000 3.6 360 04:41 12.05.2020
3168 Clouds 8 1012 93 10000 3.1 10 03:24 12.05.2020
3169 Rain 8 1012 93 10000 3.1 10 02:28 12.05.2020
3170 Rain 8 1012 93 10000 4.1 20 01:48 12.05.2020
3171 Rain 8 1012 93 10000 5.1 20 00:59 12.05.2020
3172 Drizzle 8 1012 93 10000 5.1 10 00:24 12.05.2020
3173 Drizzle 8 1012 93 10000 5.1 10 23:57 11.05.2020
3174 Drizzle 8 1012 93 7000 5.7 10 23:38 11.05.2020
3175 Drizzle 8 1012 93 7000 5.7 10 23:20 11.05.2020
3176 Drizzle 8 1012 93 10000 5.1 10 22:57 11.05.2020
3177 Drizzle 8 1012 93 10000 5.1 10 22:57 11.05.2020
3178 Rain 8 1011 93 6000 5.7 10 22:39 11.05.2020
3179 Rain 8 1011 93 6000 5.7 10 22:39 11.05.2020
3180 Rain 8 1011 93 6000 5.7 10 22:19 11.05.2020
3181 Rain 8 1011 93 6000 5.7 360 21:55 11.05.2020
3182 Mist 8 1010 93 5000 6.2 360 21:37 11.05.2020
3183 Rain 8 1010 93 5000 6.2 360 21:18 11.05.2020
3184 Rain 9 1010 100 6000 5.7 360 20:55 11.05.2020
3185 Rain 9 1009 93 4800 5.1 360 20:36 11.05.2020
3186 Rain 9 1009 93 4800 5.1 360 20:18 11.05.2020
3187 Rain 9 1009 100 6000 5.7 350 19:41 11.05.2020
3188 Rain 9 1009 100 6000 5.7 350 19:22 11.05.2020
3189 Drizzle 10 1008 93 10000 5.1 360 18:57 11.05.2020
3190 Rain 10 1008 93 10000 4.1 350 18:38 11.05.2020
3191 Rain 10 1008 93 10000 4.1 350 18:19 11.05.2020
3192 Rain 10 1007 93 10000 4.6 350 17:57 11.05.2020
3193 Rain 10 1007 93 8000 5.1 350 17:39 11.05.2020
3194 Rain 11 1007 93 8000 5.1 350 17:20 11.05.2020
3195 Rain 11 1006 93 10000 5.7 360 16:56 11.05.2020
3196 Rain 11 1006 93 9000 5.1 350 16:37 11.05.2020
3197 Rain 11 1006 93 9000 5.1 350 16:18 11.05.2020
3198 Rain 11 1005 93 10000 6.7 360 15:42 11.05.2020
3199 Rain 12 1005 93 10000 6.7 360 15:20 11.05.2020
3200 Rain 12 1004 87 10000 6.2 360 14:58 11.05.2020
3201 Rain 12 1003 93 10000 5.7 360 14:40 11.05.2020
3202 Rain 12 1003 93 10000 5.7 360 14:21 11.05.2020
3203 Rain 13 1002 93 10000 5.7 350 13:42 11.05.2020
3204 Rain 14 1002 93 10000 5.7 350 13:23 11.05.2020
3205 Drizzle 14 1002 93 10000 5.1 350 12:59 11.05.2020
3206 Clouds 14 1001 93 10000 5.7 360 12:41 11.05.2020
3207 Clouds 14 1001 93 10000 5.7 360 12:23 11.05.2020
3208 Rain 14 1000 93 10000 6.2 360 11:58 11.05.2020
3209 Rain 14 1000 93 3200 6.2 360 11:40 11.05.2020
3210 Rain 14 1000 93 3200 6.2 360 11:21 11.05.2020
3211 Rain 15 999 93 4200 7.7 360 10:58 11.05.2020
3212 Rain 16 999 93 10000 4.1 10 10:40 11.05.2020
3213 Rain 16 999 93 10000 4.1 10 10:21 11.05.2020
3214 Rain 16 998 93 10000 2.6 340 09:58 11.05.2020
3215 Drizzle 16 998 100 10000 2.6 350 09:39 11.05.2020
3216 Drizzle 16 998 100 10000 2.6 350 09:19 11.05.2020
3217 Rain 16 997 93 10000 1.5 350 08:44 11.05.2020
3218 Rain 16 997 93 8000 1.5 10 08:25 11.05.2020
3219 Rain 16 997 93 5000 1.5 30 07:59 11.05.2020
3220 Rain 16 997 93 7000 2.1 30 07:41 11.05.2020
3221 Rain 16 997 93 7000 2.1 30 07:23 11.05.2020
3222 Rain 16 997 93 6000 3.6 320 06:39 11.05.2020
3223 Rain 16 997 93 6000 3.1 290 05:54 11.05.2020
3224 Rain 16 997 93 5000 3.6 310 05:23 11.05.2020
3225 Rain 16 997 93 10000 3.1 330 03:56 11.05.2020
3226 Rain 15 998 100 6000 6.2 310 02:36 11.05.2020
3227 Rain 15 998 100 6000 6.2 310 02:18 11.05.2020
3228 Rain 15 998 100 6000 7.2 300 01:21 11.05.2020
3229 Rain 15 999 100 4300 5.7 310 00:41 11.05.2020
3230 Rain 15 999 100 4300 5.7 310 00:18 11.05.2020
3231 Rain 15 1000 100 3400 6.2 310 23:40 10.05.2020
3232 Mist 15 1000 100 3900 4.1 320 23:20 10.05.2020
3233 Rain 15 1000 100 3900 4.1 320 22:54 10.05.2020
3234 Rain 15 1000 100 6000 5.7 320 22:36 10.05.2020
3235 Rain 15 1000 100 6000 5.7 320 22:18 10.05.2020
3236 Rain 15 1000 100 6000 5.7 320 22:18 10.05.2020
3237 Rain 15 1000 100 3300 5.7 310 21:42 10.05.2020
3238 Mist 16 1000 100 3300 5.7 310 21:18 10.05.2020
3239 Rain 16 1000 93 4700 5.1 320 20:43 10.05.2020
3240 Rain 16 1000 93 4700 5.1 320 20:24 10.05.2020
3241 Mist 16 1000 93 4300 5.7 330 19:57 10.05.2020
3242 Rain 16 1001 93 4200 4.1 320 19:38 10.05.2020
3243 Rain 16 1001 93 4200 4.1 320 19:20 10.05.2020
3244 Rain 16 1001 93 8000 4.1 320 18:56 10.05.2020
3245 Rain 16 1001 93 8000 4.6 320 18:36 10.05.2020
3246 Rain 17 1001 93 8000 4.6 320 18:18 10.05.2020
3247 Rain 17 1001 93 8000 4.6 320 18:18 10.05.2020
3248 Rain 17 1001 93 6000 5.1 310 17:57 10.05.2020
3249 Rain 17 1001 93 10000 4.6 310 17:39 10.05.2020
3250 Rain 17 1001 93 10000 4.6 310 17:20 10.05.2020
3251 Rain 16 1002 100 4700 3.1 310 16:43 10.05.2020
3252 Rain 16 1002 100 4700 3.1 310 16:21 10.05.2020
3253 Rain 16 1003 93 6000 3.1 310 15:58 10.05.2020
3254 Rain 17 1003 93 5000 5.1 310 15:39 10.05.2020
3255 Mist 17 1003 93 5000 5.1 310 15:21 10.05.2020
3256 Rain 17 1003 100 3300 2.6 320 14:56 10.05.2020
3257 Rain 17 1003 100 2900 2.6 310 14:37 10.05.2020
3258 Rain 17 1003 100 2900 2.6 310 14:19 10.05.2020
3259 Rain 17 1004 93 5000 2.6 280 13:57 10.05.2020
3260 Rain 17 1004 93 5000 2.6 280 13:57 10.05.2020
3261 Rain 17 1004 93 7000 1.5 270 13:36 10.05.2020
3262 Rain 17 1004 93 7000 1.5 270 13:18 10.05.2020
3263 Rain 17 1005 93 10000 1 0 12:42 10.05.2020
3264 Rain 17 1005 93 10000 1 0 12:23 10.05.2020
3265 Rain 17 1005 93 10000 1 0 11:59 10.05.2020
3266 Clouds 17 1005 93 10000 2.1 200 11:40 10.05.2020
3267 Clouds 17 1005 93 10000 2.1 200 11:21 10.05.2020
3268 Rain 17 1005 93 10000 2.1 210 10:55 10.05.2020
3269 Clouds 17 1005 88 10000 1.5 0 10:37 10.05.2020
3270 Clouds 17 1005 88 10000 1.5 0 10:19 10.05.2020
3271 Rain 17 1005 93 10000 1.5 110 09:41 10.05.2020
3272 Rain 17 1005 93 10000 1.5 110 09:23 10.05.2020
3273 Clouds 16 1004 93 10000 1.5 70 08:55 10.05.2020
3274 Clouds 16 1005 100 10000 1.5 0 08:37 10.05.2020
3275 Clouds 16 1005 100 10000 1.5 0 08:18 10.05.2020
3276 Clouds 15 1005 100 10000 2.21 136 07:38 10.05.2020
3277 Clouds 15 1005 100 10000 1.68 132 07:19 10.05.2020
3278 Clouds 15 1005 100 10000 1.5 170 06:50 10.05.2020
3279 Clouds 15 1005 93 10000 1 0 06:23 10.05.2020
3280 Clouds 15 1006 100 10000 1 320 05:44 10.05.2020
3281 Clouds 16 1005 93 10000 1.5 130 04:42 10.05.2020
3282 Clouds 16 1005 93 10000 1.5 130 04:23 10.05.2020
3283 Clouds 16 1006 93 10000 2.6 170 03:43 10.05.2020
3284 Clouds 16 1005 93 10000 2.6 170 02:55 10.05.2020
3285 Clouds 16 1006 100 10000 2.6 150 02:24 10.05.2020
3286 Clouds 16 1006 93 10000 1.5 130 01:44 10.05.2020
3287 Clouds 16 1007 93 10000 3.1 190 01:25 10.05.2020
3288 Rain 17 1008 93 10000 5.1 250 00:59 10.05.2020
3289 Rain 17 1008 87 10000 5.7 230 00:39 10.05.2020
3290 Rain 17 1008 87 10000 5.7 230 00:19 10.05.2020
3291 Rain 18 1006 82 10000 4.1 230 23:39 09.05.2020
3292 Rain 18 1006 82 10000 4.1 230 23:21 09.05.2020
3293 Rain 19 1005 93 10000 3.1 220 22:55 09.05.2020
3294 Rain 19 1005 93 10000 3.6 120 22:37 09.05.2020
3295 Rain 19 1005 93 10000 3.6 120 22:19 09.05.2020
3296 Rain 20 1005 93 10000 2.1 130 21:55 09.05.2020
3297 Thunderstorm 20 1006 88 10000 2.1 50 21:36 09.05.2020
3298 Thunderstorm 20 1006 88 10000 2.1 50 21:36 09.05.2020
3299 Thunderstorm 20 1006 88 10000 2.1 50 21:36 09.05.2020
3300 Thunderstorm 20 1006 88 10000 2.1 50 21:18 09.05.2020
3301 Rain 20 1006 88 10000 4.1 30 20:54 09.05.2020
3302 Thunderstorm 20 1006 88 10000 4.1 10 20:36 09.05.2020
3303 Thunderstorm 20 1006 88 10000 4.1 10 20:18 09.05.2020
3304 Thunderstorm 21 1006 88 2800 3.1 250 19:39 09.05.2020
3305 Thunderstorm 22 1006 88 2800 3.1 250 19:20 09.05.2020
3306 Thunderstorm 23 1006 69 10000 3.1 130 18:54 09.05.2020
3307 Thunderstorm 24 1006 69 10000 3.1 130 18:54 09.05.2020
3308 Rain 25 1005 60 10000 3.6 120 18:36 09.05.2020
3309 Rain 25 1005 60 10000 3.6 120 18:18 09.05.2020
3310 Clouds 26 1006 57 10000 4.6 120 17:40 09.05.2020
3311 Clouds 27 1006 57 10000 4.6 120 17:21 09.05.2020
3312 Clouds 26 1007 65 10000 4.6 120 16:41 09.05.2020
3313 Clouds 26 1007 65 10000 4.6 120 16:20 09.05.2020
3314 Clouds 26 1008 64 10000 3.6 110 15:46 09.05.2020
3315 Clouds 26 1008 64 10000 3.6 100 15:27 09.05.2020
3316 Clouds 25 1008 64 10000 3.1 120 14:59 09.05.2020
3317 Clouds 25 1008 69 10000 3.1 130 14:41 09.05.2020
3318 Clouds 24 1008 69 10000 3.1 130 14:20 09.05.2020
3319 Clouds 24 1009 64 10000 3.1 100 13:58 09.05.2020
3320 Clouds 23 1009 73 10000 2.6 100 13:40 09.05.2020
3321 Clouds 23 1009 73 10000 2.6 100 13:20 09.05.2020
3322 Clouds 22 1009 77 10000 2.6 90 12:42 09.05.2020
3323 Clouds 21 1009 77 10000 2.6 90 12:22 09.05.2020
3324 Clouds 20 1010 82 10000 3.1 100 11:56 09.05.2020
3325 Clouds 20 1010 82 10000 3.1 90 11:37 09.05.2020
3326 Clouds 20 1010 82 10000 3.1 90 11:18 09.05.2020
3327 Clouds 19 1010 88 10000 4.1 120 10:43 09.05.2020
3328 Clouds 19 1010 88 10000 4.1 120 10:43 09.05.2020
3329 Clouds 18 1010 88 10000 4.1 120 10:25 09.05.2020
3330 Clouds 18 1011 88 10000 2.6 120 09:57 09.05.2020
3331 Clouds 18 1010 88 10000 2.6 110 09:38 09.05.2020
3332 Rain 17 1010 88 10000 2.6 110 09:19 09.05.2020
3333 Rain 17 1011 93 10000 1.5 140 08:51 09.05.2020
3334 Rain 17 1011 88 10000 2.6 150 08:32 09.05.2020
3335 Rain 17 1011 88 10000 2.6 150 07:50 09.05.2020
3336 Rain 17 1010 93 10000 4.1 130 07:31 09.05.2020
3337 Rain 17 1011 93 10000 0.5 0 06:49 09.05.2020
3338 Rain 17 1011 93 10000 3.1 130 06:24 09.05.2020
3339 Rain 17 1011 93 10000 3.1 110 05:45 09.05.2020
3340 Rain 18 1011 93 10000 2.6 360 03:54 09.05.2020
3341 Thunderstorm 18 1012 93 10000 2.6 300 03:36 09.05.2020
3342 Clouds 19 1012 77 10000 3.1 170 02:32 09.05.2020
3343 Clouds 18 1012 82 10000 2.1 160 01:52 09.05.2020
3344 Clouds 18 1012 82 10000 1.5 140 01:24 09.05.2020
3345 Clouds 19 1011 88 10000 3.57 158 00:50 09.05.2020
3346 Clouds 19 1012 88 10000 1.5 280 00:31 09.05.2020
3347 Clouds 20 1011 82 10000 1 290 23:49 08.05.2020
3348 Clouds 20 1011 77 10000 1 290 23:29 08.05.2020
3349 Clouds 21 1011 73 10000 3.26 136 22:58 08.05.2020
3350 Clouds 21 1011 73 10000 3.26 136 22:58 08.05.2020
3351 Clouds 21 1011 73 10000 3.26 136 22:58 08.05.2020
3352 Clouds 21 1011 68 10000 2.1 110 22:40 08.05.2020
3353 Rain 22 1011 68 10000 2.1 110 22:19 08.05.2020
3354 Rain 22 1011 64 10000 2.6 120 21:58 08.05.2020
3355 Rain 22 1011 64 10000 3.1 120 21:39 08.05.2020
3356 Rain 23 1011 57 10000 2.6 110 21:18 08.05.2020
3357 Rain 24 1011 57 10000 2.6 110 20:56 08.05.2020
3358 Rain 24 1011 57 10000 4.1 130 20:38 08.05.2020
3359 Rain 25 1011 57 10000 4.1 130 20:20 08.05.2020
3360 Rain 26 1011 57 10000 4.1 120 19:44 08.05.2020
3361 Clouds 26 1011 57 10000 4.1 120 19:23 08.05.2020
3362 Clouds 26 1011 57 10000 4.6 130 18:50 08.05.2020
3363 Clouds 26 1012 57 10000 3.6 140 18:32 08.05.2020
3364 Clouds 27 1012 54 10000 3.1 90 17:59 08.05.2020
3365 Rain 26 1012 53 10000 3.1 110 17:40 08.05.2020
3366 Rain 26 1012 53 10000 3.1 110 17:18 08.05.2020
3367 Rain 26 1013 57 10000 2.1 120 16:42 08.05.2020
3368 Clouds 25 1013 57 10000 2.1 120 16:24 08.05.2020
3369 Clouds 24 1013 64 10000 4.1 100 15:55 08.05.2020
3370 Clouds 24 1013 60 10000 4.1 120 15:37 08.05.2020
3371 Clouds 24 1013 60 10000 4.1 120 15:18 08.05.2020
3372 Clouds 24 1014 64 10000 1 0 14:41 08.05.2020
3373 Clouds 24 1014 64 10000 1 0 14:20 08.05.2020
3374 Clouds 24 1015 64 10000 1.5 0 13:58 08.05.2020
3375 Clouds 24 1015 64 10000 1.5 0 13:58 08.05.2020
3376 Clouds 24 1015 64 10000 2.1 320 13:39 08.05.2020
3377 Clouds 24 1015 64 10000 2.1 320 13:19 08.05.2020
3378 Clouds 23 1015 73 10000 2.6 240 12:45 08.05.2020
3379 Clouds 22 1015 73 10000 2.6 240 12:24 08.05.2020
3380 Clouds 20 1015 77 10000 2.6 230 11:55 08.05.2020
3381 Clouds 19 1015 82 10000 3.1 170 11:37 08.05.2020
3382 Clouds 19 1015 82 10000 3.1 170 11:18 08.05.2020
3383 Rain 18 1014 82 10000 3.1 110 10:43 08.05.2020
3384 Rain 18 1014 82 10000 3.1 110 10:22 08.05.2020
3385 Clouds 18 1014 77 10000 4.6 130 09:59 08.05.2020
3386 Clouds 18 1014 77 10000 3.6 120 09:40 08.05.2020
3387 Clouds 18 1014 77 10000 3.6 120 09:19 08.05.2020
3388 Clouds 17 1014 77 10000 3.6 100 08:50 08.05.2020
3389 Clouds 17 1014 82 10000 3.6 110 08:24 08.05.2020
3390 Rain 17 1012 72 10000 6.2 110 07:45 08.05.2020
3391 Rain 18 1012 72 10000 6.2 110 07:25 08.05.2020
3392 Clouds 18 1013 72 10000 6.2 130 06:52 08.05.2020
3393 Rain 18 1013 68 10000 6.2 120 06:25 08.05.2020
3394 Rain 18 1014 63 10000 4.1 110 05:59 08.05.2020
3395 Rain 18 1014 63 10000 5.1 90 04:50 08.05.2020
3396 Clouds 19 1015 64 10000 3.6 130 02:54 08.05.2020
3397 Clouds 19 1015 64 10000 3.6 130 02:21 08.05.2020
3398 Clouds 20 1015 64 10000 3.1 130 01:31 08.05.2020
3399 Clouds 20 1015 64 10000 3.1 110 00:58 08.05.2020
3400 Clouds 20 1015 64 10000 2.6 110 00:40 08.05.2020
3401 Clouds 20 1015 64 10000 2.6 110 00:21 08.05.2020
3402 Clouds 21 1015 60 10000 2.6 90 23:43 07.05.2020
3403 Clouds 21 1015 56 10000 2.6 80 23:23 07.05.2020
3404 Clouds 21 1015 56 10000 2.6 80 23:23 07.05.2020
3405 Clouds 21 1015 56 10000 2.6 80 22:57 07.05.2020
3406 Clouds 21 1015 56 10000 2.6 80 22:57 07.05.2020
3407 Clouds 22 1015 53 10000 2.6 90 22:39 07.05.2020
3408 Clouds 23 1015 53 10000 2.6 90 22:19 07.05.2020
3409 Clouds 23 1015 53 10000 3.1 100 21:56 07.05.2020
3410 Clouds 24 1015 50 10000 3.6 100 21:37 07.05.2020
3411 Clouds 24 1015 50 10000 3.6 100 21:19 07.05.2020
3412 Clouds 25 1015 44 10000 4.6 110 20:43 07.05.2020
3413 Clouds 25 1015 44 10000 4.6 110 20:23 07.05.2020
3414 Clouds 26 1015 41 10000 4.1 110 19:58 07.05.2020
3415 Clouds 26 1015 41 10000 5.7 110 19:40 07.05.2020
3416 Clouds 26 1015 41 10000 5.7 110 19:21 07.05.2020
3417 Clouds 27 1016 44 10000 4.6 100 18:45 07.05.2020
3418 Clouds 27 1016 44 10000 4.6 100 18:27 07.05.2020
3419 Clouds 27 1016 41 10000 4.1 110 17:57 07.05.2020
3420 Clouds 27 1016 41 10000 3.6 110 17:36 07.05.2020
3421 Clouds 27 1016 41 10000 3.6 110 17:18 07.05.2020
3422 Clouds 27 1017 36 10000 3.6 110 16:40 07.05.2020
3423 Clouds 28 1017 36 10000 3.6 110 16:18 07.05.2020
3424 Clouds 26 1017 44 10000 3.6 90 15:56 07.05.2020
3425 Clouds 26 1017 44 10000 2.6 0 15:37 07.05.2020
3426 Clouds 26 1017 44 10000 2.6 0 15:18 07.05.2020
3427 Clouds 26 1018 44 10000 2.6 90 14:44 07.05.2020
3428 Clouds 26 1018 44 10000 2.6 100 14:21 07.05.2020
3429 Clouds 26 1019 47 10000 2.1 120 13:45 07.05.2020
3430 Clouds 26 1019 47 10000 2.1 120 13:26 07.05.2020
3431 Clouds 24 1019 53 10000 1.5 0 12:54 07.05.2020
3432 Clouds 24 1019 53 10000 1.5 0 12:36 07.05.2020
3433 Clouds 23 1019 53 10000 1.5 0 12:18 07.05.2020
3434 Clouds 21 1019 60 10000 1.5 0 11:39 07.05.2020
3435 Clouds 22 1019 60 10000 1.5 0 11:21 07.05.2020
3436 Clouds 20 1019 63 10000 1.5 70 10:43 07.05.2020
3437 Clouds 19 1019 63 10000 1.5 70 10:24 07.05.2020
3438 Clouds 18 1019 68 10000 3.1 90 09:54 07.05.2020
3439 Clouds 17 1019 72 10000 2.6 90 09:36 07.05.2020
3440 Clouds 17 1019 72 10000 2.6 90 09:18 07.05.2020
3441 Clouds 16 1019 77 10000 2.1 60 08:41 07.05.2020
3442 Clouds 15 1019 77 10000 2.1 60 08:22 07.05.2020
3443 Clouds 14 1019 87 10000 1.5 50 07:57 07.05.2020
3444 Clouds 13 1019 93 10000 2.1 50 07:39 07.05.2020
3445 Clouds 13 1019 93 10000 2.1 50 07:18 07.05.2020
3446 Clouds 13 1019 87 10000 1 50 06:36 07.05.2020
3447 Clouds 14 1019 82 10000 2.1 50 05:40 07.05.2020
3448 Clouds 15 1019 82 10000 2.6 40 04:26 07.05.2020
3449 Clear 15 1020 77 10000 2.1 50 03:29 07.05.2020
3450 Clear 16 1020 77 10000 2.1 40 02:55 07.05.2020
3451 Clouds 16 1020 72 10000 2.6 50 02:19 07.05.2020
3452 Clouds 17 1020 68 10000 3.1 50 01:24 07.05.2020
3453 Clouds 17 1020 68 10000 3.1 40 00:50 07.05.2020
3454 Clouds 18 1020 68 10000 2.6 40 00:29 07.05.2020
3455 Clouds 18 1020 68 10000 2.6 40 23:57 06.05.2020
3456 Clouds 19 1020 63 10000 2.1 20 23:38 06.05.2020
3457 Clouds 19 1020 63 10000 2.1 20 23:19 06.05.2020
3458 Clouds 20 1020 60 10000 2.1 30 22:54 06.05.2020
3459 Clouds 21 1019 60 10000 3.1 10 22:36 06.05.2020
3460 Clouds 21 1019 60 10000 3.1 10 22:18 06.05.2020
3461 Clouds 22 1019 49 10000 3.1 360 21:42 06.05.2020
3462 Clouds 23 1019 46 10000 3.1 360 21:21 06.05.2020
3463 Clouds 23 1019 46 10000 3.1 360 20:54 06.05.2020
3464 Clouds 24 1018 44 10000 4.1 10 20:36 06.05.2020
3465 Clouds 24 1018 44 10000 4.1 10 20:18 06.05.2020
3466 Clouds 25 1018 44 10000 3.6 20 19:55 06.05.2020
3467 Clouds 25 1018 44 10000 3.6 20 19:55 06.05.2020
3468 Clouds 26 1018 38 10000 4.1 30 19:36 06.05.2020
3469 Clouds 26 1018 38 10000 4.1 30 19:18 06.05.2020
3470 Clouds 26 1018 38 10000 4.1 50 18:54 06.05.2020
3471 Clouds 26 1018 38 10000 3.6 20 18:36 06.05.2020
3472 Clouds 26 1018 38 10000 3.6 20 18:18 06.05.2020
3473 Clouds 25 1018 41 10000 4.1 20 17:40 06.05.2020
3474 Clouds 26 1018 41 10000 4.1 20 17:22 06.05.2020
3475 Clouds 26 1018 41 10000 3.6 20 16:59 06.05.2020
3476 Clouds 26 1019 41 10000 4.1 0 16:41 06.05.2020
3477 Clouds 26 1019 41 10000 4.1 0 16:21 06.05.2020
3478 Clouds 26 1019 44 10000 3.1 20 15:59 06.05.2020
3479 Clouds 26 1019 44 10000 3.1 20 15:59 06.05.2020
3480 Clouds 26 1019 44 10000 3.1 20 15:59 06.05.2020
3481 Clouds 26 1019 44 10000 4.1 50 15:40 06.05.2020
3482 Clear 26 1019 44 10000 4.1 50 15:21 06.05.2020
3483 Clear 26 1019 44 10000 3.6 50 14:56 06.05.2020
3484 Clear 26 1019 44 10000 3.6 50 14:56 06.05.2020
3485 Clouds 26 1019 44 10000 2.6 40 14:37 06.05.2020
3486 Clouds 25 1019 44 10000 2.6 40 14:18 06.05.2020
3487 Clouds 25 1019 44 10000 2.6 40 14:18 06.05.2020
3488 Clear 25 1019 46 10000 3.1 50 13:43 06.05.2020
3489 Clouds 24 1019 46 10000 3.1 50 13:24 06.05.2020
3490 Clouds 24 1019 49 10000 3.6 30 12:58 06.05.2020
3491 Clouds 24 1019 46 10000 3.1 20 12:39 06.05.2020
3492 Clouds 22 1019 56 10000 3.1 30 12:21 06.05.2020
3493 Clouds 22 1019 56 10000 2.6 40 11:41 06.05.2020
3494 Clouds 22 1019 56 10000 2.6 40 11:21 06.05.2020
3495 Clouds 20 1019 60 10000 3.1 60 10:58 06.05.2020
3496 Clouds 20 1019 60 10000 3.1 60 10:58 06.05.2020
3497 Clouds 19 1019 63 10000 3.1 50 10:38 06.05.2020
3498 Clouds 19 1019 63 10000 3.1 50 10:19 06.05.2020
3499 Clouds 19 1019 72 10000 3.1 30 09:45 06.05.2020
3500 Clouds 17 1019 72 10000 3.1 30 09:24 06.05.2020
3501 Clouds 16 1019 77 10000 3.1 40 08:50 06.05.2020
3502 Clouds 15 1018 82 10000 2.1 40 08:24 06.05.2020
3503 Clouds 13 1018 87 10000 1 30 07:59 06.05.2020
3504 Clouds 12 1018 93 10000 1.5 20 07:40 06.05.2020
3505 Clouds 12 1018 93 10000 1.5 20 07:21 06.05.2020
3506 Clouds 13 1018 87 10000 2.1 30 06:53 06.05.2020
3507 Clouds 13 1018 87 10000 1.5 30 06:22 06.05.2020
3508 Clouds 13 1018 87 10000 2.1 30 05:55 06.05.2020
3509 Clouds 13 1018 87 10000 2.1 40 05:37 06.05.2020
3510 Clouds 14 1018 82 10000 2.6 40 04:38 06.05.2020
3511 Clouds 14 1018 82 10000 2.6 40 03:42 06.05.2020
3512 Clouds 14 1018 82 10000 2.6 40 03:20 06.05.2020
3513 Clouds 15 1018 87 10000 2.1 30 02:30 06.05.2020
3514 Clouds 15 1018 82 10000 2.1 20 01:54 06.05.2020
3515 Clouds 15 1018 82 10000 3.1 30 01:31 06.05.2020
3516 Clouds 16 1018 82 10000 2.6 30 00:53 06.05.2020
3517 Clouds 16 1018 77 10000 2.6 40 00:26 06.05.2020
3518 Clouds 17 1018 77 10000 2.6 10 23:56 05.05.2020
3519 Clouds 17 1018 77 10000 3.1 10 23:37 05.05.2020
3520 Clouds 17 1018 77 10000 3.1 10 23:18 05.05.2020
3521 Clouds 18 1017 63 10000 3.1 10 22:41 05.05.2020
3522 Clouds 19 1017 59 10000 3.6 20 22:19 05.05.2020
3523 Clouds 18 1017 63 10000 3.1 10 22:19 05.05.2020
3524 Clouds 19 1017 59 10000 3.6 20 21:57 05.05.2020
3525 Clear 20 1017 59 10000 5.1 10 21:38 05.05.2020
3526 Clouds 21 1017 59 10000 5.1 10 21:20 05.05.2020
3527 Clouds 21 1017 60 10000 5.7 360 20:56 05.05.2020
3528 Clouds 21 1016 60 10000 5.7 20 20:38 05.05.2020
3529 Clouds 22 1016 60 10000 5.7 20 20:18 05.05.2020
3530 Clouds 23 1016 49 10000 6.7 10 19:43 05.05.2020
3531 Clouds 23 1016 49 10000 6.7 10 19:25 05.05.2020
3532 Clouds 23 1016 53 10000 6.7 30 18:58 05.05.2020
3533 Clouds 23 1016 53 10000 6.2 10 18:40 05.05.2020
3534 Clouds 24 1016 53 10000 6.2 10 18:20 05.05.2020
3535 Clouds 24 1016 53 10000 6.2 10 18:20 05.05.2020
3536 Clouds 24 1016 49 10000 5.7 20 17:58 05.05.2020
3537 Clouds 24 1016 49 10000 5.7 20 17:58 05.05.2020
3538 Clouds 23 1016 46 10000 5.7 10 17:39 05.05.2020
3539 Clouds 24 1016 46 10000 5.7 10 17:21 05.05.2020
3540 Clouds 24 1016 46 10000 5.7 20 16:55 05.05.2020
3541 Clouds 24 1016 46 10000 5.1 20 16:36 05.05.2020
3542 Clouds 24 1016 46 10000 5.1 20 16:18 05.05.2020
3543 Clouds 23 1016 56 10000 6.2 10 15:41 05.05.2020
3544 Clouds 24 1016 56 10000 6.2 10 15:21 05.05.2020
3545 Clouds 24 1016 56 10000 6.2 10 15:21 05.05.2020
3546 Clouds 23 1016 53 10000 5.1 10 14:56 05.05.2020
3547 Clouds 23 1016 53 10000 5.1 10 14:38 05.05.2020
3548 Clouds 23 1016 53 10000 5.1 10 14:19 05.05.2020
3549 Clouds 23 1016 49 10000 4.1 340 13:57 05.05.2020
3550 Clouds 23 1016 53 10000 3.1 350 13:38 05.05.2020
3551 Clouds 23 1016 53 10000 3.1 350 13:19 05.05.2020
3552 Clouds 23 1016 49 10000 4.1 360 12:57 05.05.2020
3553 Clouds 23 1016 49 10000 4.6 360 12:38 05.05.2020
3554 Clouds 22 1016 49 10000 4.6 360 12:19 05.05.2020
3555 Clouds 22 1015 53 10000 4.1 330 11:41 05.05.2020
3556 Clouds 22 1015 53 10000 4.1 330 11:20 05.05.2020
3557 Clouds 21 1015 52 10000 3.1 330 10:56 05.05.2020
3558 Clouds 20 1015 60 10000 3.1 320 10:38 05.05.2020
3559 Clouds 20 1015 60 10000 3.1 320 10:19 05.05.2020
3560 Clouds 20 1015 68 10000 3.1 300 09:55 05.05.2020
3561 Clouds 19 1014 82 10000 3.1 280 09:37 05.05.2020
3562 Clouds 18 1014 77 10000 2.6 280 09:18 05.05.2020
3563 Clouds 17 1014 82 10000 2.1 250 08:41 05.05.2020
3564 Clouds 16 1014 82 10000 2.1 250 08:19 05.05.2020
3565 Clouds 16 1013 82 10000 2.6 240 07:45 05.05.2020
3566 Clouds 16 1013 82 10000 3.1 240 07:23 05.05.2020
3567 Clouds 15 1013 82 10000 4.1 220 06:59 05.05.2020
3568 Clouds 16 1012 87 10000 2.6 210 06:40 05.05.2020
3569 Clouds 15 1012 87 10000 2.6 210 06:20 05.05.2020
3570 Clouds 16 1011 87 10000 2.6 240 05:30 05.05.2020
3571 Clouds 17 1010 82 10000 3.1 290 03:19 05.05.2020
3572 Rain 20 1008 88 10000 2.6 170 01:23 05.05.2020
3573 Rain 20 1009 82 10000 2.6 180 00:49 05.05.2020
3574 Thunderstorm 21 1009 68 10000 4.6 190 00:18 05.05.2020
3575 Thunderstorm 23 1008 69 10000 4.6 130 23:42 04.05.2020
3576 Thunderstorm 23 1008 69 10000 4.6 130 23:21 04.05.2020
3577 Thunderstorm 24 1009 73 10000 8.2 310 22:55 04.05.2020
3578 Thunderstorm 24 1006 65 10000 5.7 130 22:37 04.05.2020
3579 Thunderstorm 25 1006 65 10000 5.7 130 22:18 04.05.2020
3580 Rain 25 1005 61 10000 6.2 110 21:52 04.05.2020
3581 Rain 25 1005 61 10000 6.2 110 21:52 04.05.2020
3582 Rain 25 1005 61 10000 6.2 110 21:52 04.05.2020
3583 Rain 25 1005 61 10000 6.2 110 21:52 04.05.2020
3584 Rain 25 1005 61 10000 6.2 110 21:52 04.05.2020
3585 Clouds 25 1006 61 10000 5.1 110 21:26 04.05.2020
3586 Clouds 25 1006 61 10000 5.1 110 21:26 04.05.2020
3587 Clouds 25 1006 61 10000 5.1 110 21:26 04.05.2020
3588 Clouds 25 1006 61 10000 5.1 110 21:26 04.05.2020
3589 Clouds 25 1006 61 10000 5.1 110 21:26 04.05.2020
3590 Clouds 26 1006 54 10000 6.2 80 20:43 04.05.2020
3591 Clouds 26 1006 54 10000 6.2 80 20:43 04.05.2020
3592 Clouds 26 1006 54 10000 6.2 80 20:43 04.05.2020
3593 Clouds 26 1008 51 10000 4.1 80 20:21 04.05.2020
3594 Clouds 26 1008 51 10000 4.1 80 19:59 04.05.2020
3595 Clouds 26 1008 51 10000 4.1 80 19:59 04.05.2020
3596 Clouds 26 1009 51 10000 3.6 110 19:40 04.05.2020
3597 Clouds 26 1009 51 10000 3.6 110 19:19 04.05.2020
3598 Clouds 27 1009 51 10000 2.6 130 18:54 04.05.2020
3599 Clouds 27 1009 42 10000 4.1 130 18:36 04.05.2020
3600 Clouds 28 1009 42 10000 4.1 130 18:18 04.05.2020
3601 Clouds 29 1009 42 10000 6.2 120 17:41 04.05.2020
3602 Clouds 30 1009 42 10000 6.2 120 17:21 04.05.2020
3603 Clouds 30 1009 45 10000 5.7 120 16:59 04.05.2020
3604 Clouds 30 1010 48 10000 5.7 130 16:41 04.05.2020
3605 Clouds 30 1010 48 10000 5.7 130 16:20 04.05.2020
3606 Clouds 29 1010 48 10000 5.7 120 15:43 04.05.2020
3607 Clouds 29 1010 48 10000 5.7 120 15:24 04.05.2020
3608 Clouds 28 1011 47 10000 5.7 110 14:54 04.05.2020
3609 Clouds 28 1010 47 10000 5.7 110 14:54 04.05.2020
3610 Clouds 28 1011 47 10000 5.7 110 14:54 04.05.2020
3611 Clear 28 1011 47 10000 5.7 110 14:30 04.05.2020
3612 Clear 28 1011 47 10000 5.7 110 14:30 04.05.2020
3613 Clouds 28 1011 47 10000 5.7 110 14:30 04.05.2020
3614 Clear 28 1011 47 10000 5.7 110 14:30 04.05.2020
3615 Clear 28 1011 47 10000 5.7 110 14:30 04.05.2020
3616 Clear 27 1012 50 10000 5.1 110 13:40 04.05.2020
3617 Clear 27 1012 50 10000 5.1 110 13:40 04.05.2020
3618 Clear 27 1012 50 10000 5.1 110 13:40 04.05.2020
3619 Clear 27 1012 50 10000 5.1 110 13:40 04.05.2020
3620 Clear 27 1012 50 10000 5.1 110 13:40 04.05.2020
3621 Clear 26 1011 57 10000 6.7 100 12:44 04.05.2020
3622 Clear 26 1011 57 10000 6.7 100 12:44 04.05.2020
3623 Clear 26 1011 57 10000 6.7 100 12:44 04.05.2020
3624 Clear 26 1011 57 10000 6.7 100 12:44 04.05.2020
3625 Clear 22 1012 64 10000 6.2 110 11:29 04.05.2020
3626 Clear 22 1012 64 10000 6.2 110 11:29 04.05.2020
3627 Clear 22 1012 64 10000 6.2 110 11:29 04.05.2020
3628 Clear 18 1014 77 10000 3.6 90 09:31 04.05.2020
3629 Clear 14 1014 93 10000 2.6 60 07:58 04.05.2020
3630 Clear 14 1014 93 10000 2.1 50 07:38 04.05.2020
3631 Clear 14 1014 93 10000 2.6 80 06:26 04.05.2020
3632 Clear 14 1014 93 10000 2.6 80 06:26 04.05.2020
3633 Clear 14 1015 87 10000 1.5 80 04:53 04.05.2020
3634 Clouds 15 1015 93 10000 2.1 70 03:18 04.05.2020
3635 Clouds 16 1016 87 10000 2.1 80 02:29 04.05.2020
3636 Clouds 17 1017 82 10000 2.6 70 00:36 04.05.2020
3637 Clouds 17 1017 82 10000 2.6 60 23:45 03.05.2020
3638 Clouds 18 1017 82 10000 3.1 50 23:24 03.05.2020
3639 Clouds 18 1016 77 10000 2.6 70 22:45 03.05.2020
3640 Clouds 19 1016 77 10000 2.6 70 22:25 03.05.2020
3641 Clouds 19 1016 72 10000 3.1 70 21:58 03.05.2020
3642 Clouds 20 1016 68 10000 3.1 70 21:40 03.05.2020
3643 Clouds 20 1016 68 10000 3.1 70 21:20 03.05.2020
3644 Clouds 21 1017 68 10000 4.6 30 20:46 03.05.2020
3645 Clouds 21 1017 68 10000 4.6 30 20:46 03.05.2020
3646 Clouds 21 1017 68 10000 4.6 30 20:46 03.05.2020
3647 Clouds 21 1017 68 10000 4.6 30 20:21 03.05.2020
3648 Clouds 23 1017 64 10000 5.1 30 19:50 03.05.2020
3649 Clouds 23 1017 64 10000 5.1 30 19:50 03.05.2020
3650 Clouds 23 1017 64 10000 5.1 30 19:50 03.05.2020
3651 Clouds 23 1017 64 10000 5.1 30 19:50 03.05.2020
3652 Clouds 23 1017 64 10000 5.1 30 19:31 03.05.2020
3653 Clouds 23 1017 60 10000 5.1 30 19:00 03.05.2020
3654 Clouds 23 1017 60 10000 5.1 30 19:00 03.05.2020
3655 Clouds 23 1017 60 10000 5.1 30 19:00 03.05.2020
3656 Clouds 23 1017 60 10000 5.1 30 19:00 03.05.2020
3657 Clouds 24 1018 60 10000 4.6 40 18:38 03.05.2020
3658 Clouds 24 1018 60 10000 4.6 40 18:38 03.05.2020
3659 Clouds 24 1018 60 10000 4.6 40 18:38 03.05.2020
3660 Clouds 24 1018 60 10000 4.6 40 18:38 03.05.2020
3661 Clouds 24 1018 60 10000 4.6 40 18:38 03.05.2020
3662 Clouds 24 1018 60 10000 4.6 40 18:19 03.05.2020
3663 Clouds 24 1018 60 10000 4.6 40 18:19 03.05.2020
3664 Clouds 25 1018 64 10000 4.6 40 17:42 03.05.2020
3665 Clouds 25 1018 64 10000 4.6 40 17:22 03.05.2020
3666 Clouds 26 1018 60 10000 4.1 30 16:46 03.05.2020
3667 Clouds 25 1018 57 10000 2.1 0 16:21 03.05.2020
3668 Clouds 25 1018 53 10000 1.5 0 15:59 03.05.2020
3669 Clouds 25 1019 53 10000 0.5 0 15:41 03.05.2020
3670 Clouds 24 1019 56 10000 1.5 0 15:21 03.05.2020
3671 Clouds 24 1019 56 10000 1.5 0 14:59 03.05.2020
3672 Clouds 24 1019 60 10000 2.1 10 14:40 03.05.2020
3673 Clouds 24 1019 60 10000 2.1 10 14:40 03.05.2020
3674 Clouds 24 1019 60 10000 2.1 10 14:21 03.05.2020
3675 Clouds 23 1019 60 10000 1 0 13:55 03.05.2020
3676 Clouds 22 1020 68 10000 2.1 330 13:28 03.05.2020
3677 Clouds 22 1020 68 10000 2.1 330 13:28 03.05.2020
3678 Clouds 22 1020 68 10000 2.1 330 13:28 03.05.2020
3679 Clouds 22 1020 68 10000 2.1 330 13:28 03.05.2020
3680 Clouds 22 1020 68 10000 2.1 330 13:28 03.05.2020
3681 Clouds 22 1020 64 10000 1.5 310 12:45 03.05.2020
3682 Clouds 21 1020 72 10000 2.1 250 12:18 03.05.2020
3683 Clouds 20 1020 77 10000 3.1 270 11:56 03.05.2020
3684 Clouds 19 1020 77 10000 2.1 290 11:37 03.05.2020
3685 Clouds 19 1020 77 10000 2.1 290 11:19 03.05.2020
3686 Clouds 18 1020 77 10000 3.1 270 10:47 03.05.2020
3687 Clouds 18 1020 82 10000 3.1 260 10:47 03.05.2020
3688 Clouds 18 1020 82 10000 3.1 260 10:47 03.05.2020
3689 Clouds 18 1020 82 10000 3.1 260 10:47 03.05.2020
3690 Clouds 16 1020 87 10000 2.6 250 09:58 03.05.2020
3691 Clouds 16 1020 87 10000 4.1 240 09:37 03.05.2020
3692 Clouds 16 1020 87 10000 4.1 240 09:37 03.05.2020
3693 Clouds 15 1020 93 10000 3.6 240 08:56 03.05.2020
3694 Clouds 15 1020 93 10000 3.6 240 08:56 03.05.2020
3695 Clouds 15 1020 93 10000 3.6 240 08:56 03.05.2020
3696 Clouds 15 1020 93 10000 2.1 260 08:26 03.05.2020
3697 Clouds 15 1019 93 10000 2.6 270 07:40 03.05.2020
3698 Clouds 15 1019 93 10000 2.6 270 07:40 03.05.2020
3699 Clouds 15 1019 93 10000 3.6 260 06:21 03.05.2020
3700 Clouds 15 1019 93 10000 3.6 260 05:47 03.05.2020
3701 Clouds 15 1019 100 10000 4.6 260 04:54 03.05.2020
3702 Clouds 15 1019 93 10000 4.6 260 04:26 03.05.2020
3703 Clouds 15 1020 93 10000 3.6 250 02:59 03.05.2020
3704 Clouds 15 1020 93 10000 3.1 250 02:24 03.05.2020
3705 Clouds 15 1020 93 10000 5.1 250 01:44 03.05.2020
3706 Clouds 15 1020 93 10000 5.1 250 01:24 03.05.2020
3707 Clouds 15 1020 93 10000 4.6 240 00:55 03.05.2020
3708 Clouds 15 1020 93 10000 3.6 250 00:37 03.05.2020
3709 Clouds 15 1020 93 10000 3.6 250 00:18 03.05.2020
3710 Clouds 15 1020 93 10000 3.1 240 23:42 02.05.2020
3711 Clouds 15 1020 93 10000 3.1 240 23:24 02.05.2020
3712 Clouds 16 1019 87 10000 2.6 260 22:43 02.05.2020
3713 Clouds 16 1019 87 10000 2.6 260 22:43 02.05.2020
3714 Clouds 16 1019 87 10000 2.6 260 22:23 02.05.2020
3715 Clouds 16 1019 87 10000 2.6 280 21:56 02.05.2020
3716 Clouds 16 1019 93 10000 5.1 270 21:38 02.05.2020
3717 Clouds 16 1019 93 10000 5.1 270 21:18 02.05.2020
3718 Clouds 17 1019 88 10000 4.1 270 20:57 02.05.2020
3719 Clouds 17 1019 88 10000 4.6 280 20:37 02.05.2020
3720 Clouds 17 1019 88 10000 4.6 280 20:19 02.05.2020
3721 Clouds 17 1018 88 10000 4.1 280 19:56 02.05.2020
3722 Clouds 17 1018 88 10000 5.7 280 19:38 02.05.2020
3723 Clouds 17 1018 93 10000 6.7 270 19:18 02.05.2020
3724 Clouds 16 1018 100 10000 6.7 270 18:41 02.05.2020
3725 Clouds 16 1018 100 10000 6.7 270 18:22 02.05.2020
3726 Drizzle 16 1018 93 4300 7.7 270 17:58 02.05.2020
3727 Drizzle 17 1018 88 10000 8.7 270 17:39 02.05.2020
3728 Drizzle 17 1018 88 10000 8.7 270 17:20 02.05.2020
3729 Clouds 18 1018 88 10000 7.7 270 16:58 02.05.2020
3730 Clouds 18 1018 82 10000 7.2 260 16:39 02.05.2020
3731 Clouds 18 1018 82 10000 7.2 260 16:21 02.05.2020
3732 Clouds 17 1018 82 10000 6.7 260 15:42 02.05.2020
3733 Clouds 17 1018 82 10000 6.7 260 15:20 02.05.2020
3734 Clouds 17 1017 88 10000 7.2 270 14:46 02.05.2020
3735 Clouds 17 1017 93 10000 6.7 270 14:28 02.05.2020
3736 Rain 16 1017 100 6000 5.1 260 13:59 02.05.2020
3737 Clouds 17 1017 88 10000 6.7 270 13:40 02.05.2020
3738 Rain 17 1017 88 10000 6.7 270 13:20 02.05.2020
3739 Clouds 16 1017 93 10000 6.7 280 12:43 02.05.2020
3740 Clouds 16 1017 93 10000 6.7 280 12:24 02.05.2020
3741 Rain 16 1017 93 10000 6.2 280 11:58 02.05.2020
3742 Clouds 16 1017 93 10000 6.7 270 11:39 02.05.2020
3743 Clouds 16 1017 93 10000 6.7 270 11:21 02.05.2020
3744 Clouds 16 1016 93 6000 5.7 270 10:56 02.05.2020
3745 Drizzle 15 1016 100 4600 5.7 270 10:38 02.05.2020
3746 Drizzle 15 1016 100 4600 5.7 270 10:20 02.05.2020
3747 Drizzle 15 1016 100 4600 5.7 270 10:20 02.05.2020
3748 Rain 15 1016 100 10000 5.7 260 09:54 02.05.2020
3749 Rain 15 1016 100 10000 5.1 260 09:36 02.05.2020
3750 Rain 15 1016 100 10000 5.1 260 09:18 02.05.2020
3751 Rain 15 1015 100 4500 4.1 250 08:44 02.05.2020
3752 Rain 15 1015 100 4500 4.1 250 08:25 02.05.2020
3753 Clouds 15 1015 93 10000 3.6 250 07:47 02.05.2020
3754 Rain 15 1015 93 10000 4.1 250 07:27 02.05.2020
3755 Rain 15 1015 93 8000 4.6 260 06:50 02.05.2020
3756 Clouds 15 1015 93 10000 4.1 250 05:28 02.05.2020
3757 Rain 15 1015 93 4800 4.6 260 04:37 02.05.2020
3758 Rain 15 1015 93 4800 4.6 260 04:18 02.05.2020
3759 Rain 15 1016 93 10000 4.1 250 02:44 02.05.2020
3760 Rain 15 1016 93 10000 4.1 250 02:22 02.05.2020
3761 Rain 14 1016 100 7000 3.6 240 01:33 02.05.2020
3762 Rain 14 1016 100 6000 3.6 260 00:46 02.05.2020
3763 Rain 14 1016 100 10000 5.1 250 00:24 02.05.2020
3764 Rain 14 1016 100 10000 4.1 250 23:57 01.05.2020
3765 Rain 14 1015 100 10000 4.1 250 23:37 01.05.2020
3766 Rain 14 1015 100 10000 4.1 250 23:19 01.05.2020
3767 Rain 14 1015 93 10000 3.6 250 22:42 01.05.2020
3768 Clouds 15 1015 87 10000 3.6 250 22:21 01.05.2020
3769 Clouds 15 1015 87 10000 3.6 250 21:59 01.05.2020
3770 Drizzle 15 1015 87 10000 4.6 260 21:41 01.05.2020
3771 Drizzle 15 1015 87 10000 4.6 260 21:21 01.05.2020
3772 Clouds 15 1014 87 10000 5.1 270 20:58 01.05.2020
3773 Rain 15 1014 87 10000 5.7 280 20:40 01.05.2020
3774 Rain 15 1014 87 10000 5.7 280 20:20 01.05.2020
3775 Clouds 15 1014 87 10000 7.2 280 19:59 01.05.2020
3776 Clouds 16 1013 82 10000 6.2 280 19:41 01.05.2020
3777 Clouds 16 1013 82 10000 6.2 280 19:21 01.05.2020
3778 Clouds 16 1013 82 10000 6.2 280 19:21 01.05.2020
3779 Clouds 16 1013 82 10000 8.7 280 18:56 01.05.2020
3780 Clouds 16 1013 87 10000 8.7 280 18:38 01.05.2020
3781 Clouds 16 1013 87 10000 8.7 280 18:19 01.05.2020
3782 Clouds 16 1013 87 10000 8.7 280 18:19 01.05.2020
3783 Rain 16 1012 93 7000 7.7 280 17:41 01.05.2020
3784 Rain 16 1012 93 7000 7.7 280 17:41 01.05.2020
3785 Rain 16 1012 93 7000 7.7 280 17:22 01.05.2020
3786 Drizzle 16 1012 87 10000 9.3 270 16:58 01.05.2020
3787 Drizzle 16 1012 93 7000 8.7 270 16:40 01.05.2020
3788 Drizzle 16 1012 93 7000 8.7 270 16:20 01.05.2020
3789 Drizzle 16 1012 93 7000 8.7 270 16:20 01.05.2020
3790 Drizzle 16 1012 93 9000 9.3 270 15:57 01.05.2020
3791 Drizzle 16 1011 93 10000 10.8 270 15:39 01.05.2020
3792 Drizzle 16 1011 93 10000 10.8 270 15:19 01.05.2020
3793 Clouds 16 1011 93 10000 10.3 260 14:44 01.05.2020
3794 Drizzle 16 1011 93 7000 9.3 260 14:25 01.05.2020
3795 Drizzle 16 1011 93 3500 9.8 260 13:56 01.05.2020
3796 Drizzle 16 1011 93 5000 9.8 260 13:38 01.05.2020
3797 Mist 16 1011 93 5000 9.8 260 13:19 01.05.2020
3798 Rain 16 1010 93 3900 9.8 260 12:55 01.05.2020
3799 Drizzle 16 1010 93 5000 8.7 250 12:37 01.05.2020
3800 Drizzle 16 1010 93 5000 8.7 250 12:18 01.05.2020
3801 Clouds 16 1009 93 10000 10.3 240 11:41 01.05.2020
3802 Clouds 16 1009 93 10000 10.3 240 11:23 01.05.2020
3803 Rain 15 1009 93 9000 9.3 230 10:57 01.05.2020
3804 Rain 15 1009 93 7000 8.2 230 10:38 01.05.2020
3805 Rain 15 1009 93 7000 8.2 230 10:19 01.05.2020
3806 Rain 15 1009 93 8000 7.2 250 09:44 01.05.2020
3807 Rain 15 1009 93 8000 7.2 250 09:19 01.05.2020
3808 Clouds 14 1009 93 10000 8.7 250 08:55 01.05.2020
3809 Mist 14 1008 93 4200 7.2 240 08:37 01.05.2020
3810 Mist 14 1008 93 4200 7.2 240 08:19 01.05.2020
3811 Rain 14 1009 100 4800 7.7 240 07:42 01.05.2020
3812 Rain 14 1009 100 4800 7.7 240 07:22 01.05.2020
3813 Rain 13 1009 100 7000 5.7 240 06:39 01.05.2020
3814 Rain 13 1009 93 4700 6.2 250 05:32 01.05.2020
3815 Clouds 12 1009 100 10000 3.1 280 04:20 01.05.2020
3816 Rain 12 1010 100 3200 1.5 120 02:59 01.05.2020
3817 Rain 12 1010 100 3600 1.5 150 02:40 01.05.2020
3818 Rain 12 1011 100 3700 0.5 0 01:58 01.05.2020
3819 Rain 12 1011 100 3600 1 0 01:28 01.05.2020
3820 Rain 12 1011 93 6000 1 180 00:41 01.05.2020
3821 Rain 12 1011 93 6000 1 180 00:22 01.05.2020
3822 Rain 12 1011 93 4300 1.5 250 23:58 30.04.2020
3823 Rain 12 1012 93 8000 2.1 300 23:39 30.04.2020
3824 Rain 12 1012 93 8000 2.1 300 23:21 30.04.2020
3825 Rain 12 1012 93 7000 3.1 270 22:59 30.04.2020
3826 Rain 12 1012 100 7000 4.1 260 22:40 30.04.2020
3827 Rain 12 1012 100 7000 4.1 260 22:19 30.04.2020
3828 Rain 12 1012 100 6000 5.1 250 21:55 30.04.2020
3829 Rain 13 1011 100 5000 3.1 220 21:36 30.04.2020
3830 Mist 13 1011 100 5000 3.1 220 21:18 30.04.2020
3831 Rain 13 1012 93 5000 5.7 260 20:41 30.04.2020
3832 Rain 13 1012 93 5000 5.7 260 20:19 30.04.2020
3833 Rain 13 1012 93 5000 5.7 260 20:19 30.04.2020
3834 Rain 14 1012 93 7000 6.7 250 19:47 30.04.2020
3835 Rain 14 1012 93 4900 5.7 260 19:27 30.04.2020
3836 Clouds 16 1012 67 10000 7.7 260 18:59 30.04.2020
3837 Clouds 17 1011 63 10000 9.3 260 18:39 30.04.2020
3838 Clouds 17 1011 63 10000 9.3 260 18:21 30.04.2020
3839 Clouds 17 1011 63 10000 10.3 250 17:59 30.04.2020
3840 Clouds 17 1011 72 10000 8.2 260 17:40 30.04.2020
3841 Clouds 17 1011 72 10000 8.2 260 17:21 30.04.2020
3842 Clouds 17 1012 72 10000 8.7 250 16:57 30.04.2020
3843 Clouds 17 1012 82 10000 8.2 260 16:39 30.04.2020
3844 Rain 16 1012 82 10000 8.2 260 16:19 30.04.2020
3845 Rain 17 1012 67 10000 8.7 250 15:48 30.04.2020
3846 Rain 15 1012 77 10000 10.8 250 15:25 30.04.2020
3847 Rain 14 1012 77 10000 10.3 250 14:58 30.04.2020
3848 Clouds 17 1011 63 10000 11.3 260 14:39 30.04.2020
3849 Clouds 16 1011 63 10000 11.3 260 14:19 30.04.2020
3850 Rain 16 1011 63 10000 10.3 260 13:55 30.04.2020
3851 Rain 16 1011 67 10000 11.8 250 13:37 30.04.2020
3852 Rain 15 1011 67 10000 11.8 250 13:19 30.04.2020
3853 Rain 14 1011 87 10000 7.2 210 12:41 30.04.2020
3854 Rain 14 1011 87 10000 7.2 210 12:20 30.04.2020
3855 Rain 13 1011 93 3200 6.2 210 11:58 30.04.2020
3856 Rain 13 1010 93 10000 4.1 250 11:36 30.04.2020
3857 Rain 13 1010 93 10000 4.1 250 11:18 30.04.2020
3858 Rain 13 1010 93 10000 5.1 200 10:41 30.04.2020
3859 Rain 13 1010 93 10000 5.1 200 10:22 30.04.2020
3860 Rain 13 1010 87 10000 5.7 220 09:57 30.04.2020
3861 Rain 13 1010 93 10000 5.1 210 09:39 30.04.2020
3862 Rain 13 1010 93 10000 5.1 210 09:20 30.04.2020
3863 Rain 13 1010 93 10000 5.1 210 09:20 30.04.2020
3864 Rain 12 1010 93 10000 5.7 220 08:47 30.04.2020
3865 Drizzle 12 1009 100 10000 4.1 210 08:26 30.04.2020
3866 Rain 12 1009 93 10000 2.6 190 07:45 30.04.2020
3867 Rain 12 1010 93 10000 2.1 240 07:26 30.04.2020
3868 Rain 12 1010 100 4300 1.5 280 06:59 30.04.2020
3869 Rain 12 1010 100 4300 1.5 280 06:59 30.04.2020
3870 Drizzle 12 1009 93 10000 3.6 220 06:32 30.04.2020
3871 Rain 12 1010 93 10000 3.1 220 05:47 30.04.2020
3872 Rain 12 1011 100 10000 5.1 230 04:43 30.04.2020
3873 Clouds 12 1011 100 10000 5.1 230 04:23 30.04.2020
3874 Clouds 12 1011 93 10000 4.1 200 02:48 30.04.2020
3875 Clouds 12 1011 93 10000 4.1 200 02:27 30.04.2020
3876 Rain 12 1011 93 10000 4.1 190 01:37 30.04.2020
3877 Rain 12 1011 93 10000 3.1 190 00:50 30.04.2020
3878 Rain 12 1011 93 10000 2.6 210 00:20 30.04.2020
3879 Rain 12 1011 93 10000 2.6 220 23:58 29.04.2020
3880 Rain 12 1012 93 10000 3.1 240 23:39 29.04.2020
3881 Rain 13 1012 93 10000 3.1 240 23:21 29.04.2020
3882 Rain 13 1012 93 7000 2.1 250 22:56 29.04.2020
3883 Rain 13 1012 93 4900 2.6 290 22:38 29.04.2020
3884 Mist 13 1012 93 4900 2.6 290 22:18 29.04.2020
3885 Drizzle 14 1011 87 10000 3.1 290 21:38 29.04.2020
3886 Drizzle 14 1011 87 10000 3.1 290 21:20 29.04.2020
3887 Rain 14 1011 87 10000 1.5 270 20:58 29.04.2020
3888 Rain 15 1011 82 10000 3.1 310 20:38 29.04.2020
3889 Clouds 15 1011 87 10000 2.6 290 20:19 29.04.2020
3890 Rain 15 1011 82 10000 3.1 310 20:19 29.04.2020
3891 Rain 15 1011 82 10000 3.1 310 20:19 29.04.2020
3892 Clouds 16 1011 87 10000 2.6 260 19:43 29.04.2020
3893 Clouds 16 1011 87 10000 2.6 260 19:22 29.04.2020
3894 Rain 16 1011 87 10000 3.1 250 18:57 29.04.2020
3895 Rain 16 1011 87 10000 4.1 240 18:39 29.04.2020
3896 Rain 16 1011 87 10000 4.1 240 18:19 29.04.2020
3897 Rain 16 1011 72 10000 5.1 250 17:42 29.04.2020
3898 Rain 17 1011 72 10000 5.1 250 17:21 29.04.2020
3899 Rain 18 1011 67 10000 5.1 240 16:56 29.04.2020
3900 Clouds 19 1012 59 10000 5.1 230 16:36 29.04.2020
3901 Clouds 19 1012 59 10000 5.1 230 16:18 29.04.2020
3902 Rain 18 1012 59 10000 5.7 270 15:55 29.04.2020
3903 Clouds 19 1012 55 10000 8.7 260 15:36 29.04.2020
3904 Clouds 19 1012 55 10000 8.7 260 15:18 29.04.2020
3905 Clouds 20 1012 52 10000 5.7 210 14:42 29.04.2020
3906 Clouds 19 1012 52 10000 5.7 210 14:23 29.04.2020
3907 Rain 19 1012 59 10000 5.1 190 13:56 29.04.2020
3908 Clouds 19 1012 55 10000 5.7 190 13:38 29.04.2020
3909 Clouds 19 1012 55 10000 5.7 190 13:38 29.04.2020
3910 Clouds 19 1012 55 10000 5.7 190 13:18 29.04.2020
3911 Clouds 18 1012 63 10000 5.1 190 12:41 29.04.2020
3912 Rain 17 1012 63 10000 5.1 190 12:19 29.04.2020
3913 Clouds 17 1012 67 10000 5.7 190 11:58 29.04.2020
3914 Rain 16 1013 63 10000 5.7 200 11:38 29.04.2020
3915 Clouds 16 1013 63 10000 5.7 200 11:19 29.04.2020
3916 Clouds 15 1013 76 10000 4.1 190 10:38 29.04.2020
3917 Clouds 14 1013 76 10000 4.1 190 10:20 29.04.2020
3918 Clouds 13 1013 82 10000 4.1 190 09:59 29.04.2020
3919 Clouds 13 1013 87 10000 4.1 180 09:40 29.04.2020
3920 Clouds 12 1013 87 10000 4.1 180 09:19 29.04.2020
3921 Clouds 11 1013 93 10000 3.6 180 08:43 29.04.2020
3922 Clouds 10 1013 93 10000 3.6 180 08:25 29.04.2020
3923 Clouds 10 1013 93 10000 3.1 180 07:53 29.04.2020
3924 Clouds 10 1013 93 10000 3.1 190 07:28 29.04.2020
3925 Clouds 10 1013 93 10000 3.1 180 06:52 29.04.2020
3926 Clouds 10 1013 93 10000 3.1 190 06:32 29.04.2020
3927 Clouds 10 1014 93 10000 2.1 200 05:42 29.04.2020
3928 Clouds 10 1014 93 10000 2.6 230 05:18 29.04.2020
3929 Clouds 11 1014 93 10000 2.6 240 04:19 29.04.2020
3930 Clouds 11 1014 93 10000 2.6 220 02:56 29.04.2020
3931 Clouds 11 1014 87 10000 2.6 210 01:47 29.04.2020
3932 Clouds 12 1014 87 10000 2.6 210 01:27 29.04.2020
3933 Clouds 12 1014 87 10000 1.5 230 00:52 29.04.2020
3934 Clouds 12 1014 87 10000 3.1 220 00:21 29.04.2020
3935 Clouds 12 1014 81 10000 3.6 250 23:56 28.04.2020
3936 Clouds 12 1014 81 10000 3.6 240 23:38 28.04.2020
3937 Clouds 12 1014 81 10000 3.6 240 23:20 28.04.2020
3938 Clouds 12 1014 81 10000 2.6 230 22:38 28.04.2020
3939 Clouds 12 1014 81 10000 2.6 230 22:20 28.04.2020
3940 Clouds 13 1013 76 10000 3.6 250 21:58 28.04.2020
3941 Clouds 13 1013 76 10000 4.6 250 21:40 28.04.2020
3942 Clouds 13 1013 76 10000 4.6 250 21:21 28.04.2020
3943 Clouds 14 1013 71 10000 6.2 260 20:56 28.04.2020
3944 Clouds 14 1013 71 10000 7.2 270 20:38 28.04.2020
3945 Clouds 14 1013 71 10000 7.2 270 20:20 28.04.2020
3946 Rain 14 1012 76 10000 7.7 260 19:43 28.04.2020
3947 Rain 14 1012 76 10000 7.7 260 19:22 28.04.2020
3948 Rain 14 1012 76 10000 7.7 260 19:22 28.04.2020
3949 Rain 15 1012 72 10000 8.7 260 18:59 28.04.2020
3950 Rain 14 1012 76 10000 8.7 260 18:41 28.04.2020
3951 Rain 14 1012 76 10000 8.7 260 18:41 28.04.2020
3952 Rain 15 1012 77 10000 7.2 250 18:20 28.04.2020
3953 Rain 15 1012 76 10000 8.7 260 18:20 28.04.2020
3954 Rain 16 1012 77 10000 7.2 250 17:59 28.04.2020
3955 Rain 15 1012 82 10000 5.7 230 17:37 28.04.2020
3956 Rain 15 1012 82 10000 5.7 230 17:18 28.04.2020
3957 Rain 15 1012 76 10000 7.2 250 16:45 28.04.2020
3958 Rain 15 1012 76 10000 7.2 250 16:24 28.04.2020
3959 Rain 15 1012 82 10000 9.8 260 15:59 28.04.2020
3960 Rain 15 1012 82 10000 9.8 260 15:59 28.04.2020
3961 Rain 15 1012 82 10000 9.8 260 15:59 28.04.2020
3962 Rain 15 1012 82 10000 6.7 260 15:40 28.04.2020
3963 Rain 15 1012 82 10000 6.7 260 15:21 28.04.2020
3964 Rain 15 1012 82 10000 6.7 260 15:21 28.04.2020
3965 -273 0 0 0 0 0 14:59 28.04.2020
3966 Clouds 14 1012 87 10000 5.7 250 14:41 28.04.2020
3967 Clouds 14 1012 87 10000 5.7 250 14:21 28.04.2020
3968 Rain 13 1012 82 10000 6.2 230 13:58 28.04.2020
3969 Rain 13 1012 82 10000 8.7 250 13:38 28.04.2020
3970 Rain 13 1012 82 10000 8.7 250 13:20 28.04.2020
3971 Rain 12 1012 93 10000 4.1 250 12:47 28.04.2020
3972 Rain 13 1012 82 6000 8.7 250 12:27 28.04.2020
3973 Rain 15 1011 72 10000 6.2 250 11:59 28.04.2020
3974 Rain 15 1011 77 10000 4.1 220 11:39 28.04.2020
3975 Rain 15 1011 77 10000 4.1 220 11:20 28.04.2020
3976 Clouds 15 1011 93 10000 2.6 200 10:39 28.04.2020
3977 Clouds 14 1011 93 10000 2.6 200 10:39 28.04.2020
3978 Clouds 14 1011 93 10000 2.6 200 10:19 28.04.2020
3979 Rain 14 1011 87 10000 3.1 200 09:59 28.04.2020
3980 Clouds 13 1011 93 10000 3.1 200 09:40 28.04.2020
3981 Clouds 13 1011 93 10000 3.1 200 09:21 28.04.2020
3982 -273 0 0 0 0 0 08:46 28.04.2020
3983 Clouds 12 1011 100 10000 3.1 180 08:27 28.04.2020
3984 Clouds 11 1011 93 10000 3.1 180 07:46 28.04.2020
3985 Clouds 11 1011 93 10000 3.1 170 07:21 28.04.2020
3986 Clouds 11 1010 93 10000 2.6 190 06:55 28.04.2020
3987 Rain 11 1010 93 10000 2.1 200 06:22 28.04.2020
3988 Clouds 11 1010 93 10000 2.1 200 05:43 28.04.2020
3989 Clouds 11 1010 93 10000 2.1 200 05:25 28.04.2020
3990 Clouds 12 1010 93 10000 2.6 210 04:33 28.04.2020
3991 Clouds 12 1010 93 10000 3.1 240 02:36 28.04.2020
3992 Clouds 13 1011 93 10000 2.6 220 01:23 28.04.2020
3993 Clouds 13 1011 93 10000 2.6 220 01:23 28.04.2020
3994 Clouds 13 1010 93 10000 3.1 230 00:58 28.04.2020
3995 Clouds 13 1010 93 10000 2.6 220 00:25 28.04.2020
3996 Clouds 13 1010 93 10000 2.1 220 23:47 27.04.2020
3997 Clouds 13 1010 93 10000 2.1 220 23:47 27.04.2020
3998 Clouds 14 1010 93 10000 2.1 220 23:24 27.04.2020
3999 Clouds 14 1010 87 10000 3.1 230 22:56 27.04.2020
4000 Clouds 14 1010 87 10000 1.5 230 22:38 27.04.2020
4001 Clouds 14 1010 87 10000 1.5 230 22:19 27.04.2020
4002 Clouds 15 1010 82 10000 2.6 250 21:56 27.04.2020
4003 Clouds 15 1010 82 10000 2.6 260 21:38 27.04.2020
4004 Clouds 16 1010 82 10000 2.6 260 21:18 27.04.2020
4005 Clouds 16 1010 82 10000 2.6 260 21:18 27.04.2020
4006 Clouds 16 1009 77 10000 3.6 280 20:43 27.04.2020
4007 Clouds 16 1009 77 10000 4.1 290 20:22 27.04.2020
4008 Clouds 17 1009 77 10000 4.1 290 20:22 27.04.2020
4009 Clouds 17 1009 67 10000 5.1 280 19:58 27.04.2020
4010 Clouds 18 1009 67 10000 5.1 280 19:39 27.04.2020
4011 Clouds 18 1009 67 10000 5.1 280 19:20 27.04.2020
4012 Clouds 18 1008 77 10000 4.6 260 18:58 27.04.2020
4013 Clouds 18 1008 67 10000 6.7 260 18:40 27.04.2020
4014 Clouds 18 1008 67 10000 6.7 260 18:19 27.04.2020
4015 Clouds 18 1008 67 10000 6.7 260 18:19 27.04.2020
4016 Clouds 18 1008 72 10000 4.1 270 17:43 27.04.2020
4017 Clouds 18 1008 72 10000 5.1 280 17:24 27.04.2020
4018 Clouds 17 1008 82 10000 5.1 270 16:58 27.04.2020
4019 Clouds 17 1008 87 10000 5.1 260 16:39 27.04.2020
4020 Clouds 17 1008 87 10000 5.1 260 16:39 27.04.2020
4021 Clouds 17 1008 87 10000 5.1 260 16:21 27.04.2020
4022 Clouds 17 1009 77 10000 6.2 250 15:56 27.04.2020
4023 Rain 18 1009 77 10000 7.2 240 15:38 27.04.2020
4024 Rain 18 1009 77 10000 7.2 240 15:18 27.04.2020
4025 Rain 18 1009 82 10000 5.7 240 14:42 27.04.2020
4026 Rain 18 1009 82 10000 5.7 240 14:23 27.04.2020
4027 Rain 18 1009 82 10000 5.1 220 13:59 27.04.2020
4028 Rain 18 1009 82 10000 5.1 220 13:59 27.04.2020
4029 Clouds 17 1009 82 10000 3.6 210 13:41 27.04.2020
4030 Clouds 17 1009 82 10000 3.6 210 13:20 27.04.2020
4031 Clouds 16 1009 93 10000 3.1 200 12:56 27.04.2020
4032 Clouds 16 1009 87 10000 3.1 200 12:38 27.04.2020
4033 Clouds 16 1009 87 10000 3.1 200 12:19 27.04.2020
4034 Rain 16 1009 93 10000 2.1 190 11:41 27.04.2020
4035 Rain 15 1009 93 10000 2.1 190 11:19 27.04.2020
4036 Rain 15 1009 100 10000 2.1 190 10:57 27.04.2020
4037 Rain 15 1009 100 4800 2.1 180 10:38 27.04.2020
4038 Rain 15 1009 100 4200 1 0 10:19 27.04.2020
4039 Rain 14 1009 100 3800 2.42 239 09:43 27.04.2020
4040 Rain 14 1009 100 3800 2.42 239 09:43 27.04.2020
4041 Rain 14 1009 100 3800 0.79 182 09:19 27.04.2020
4042 Rain 14 1009 93 10000 0.79 182 08:56 27.04.2020
4043 Thunderstorm 14 1009 93 2500 1 360 08:36 27.04.2020
4044 Thunderstorm 14 1009 93 2500 1 360 08:18 27.04.2020
4045 Thunderstorm 14 1009 93 3300 3.1 230 07:44 27.04.2020
4046 Thunderstorm 14 1009 93 3300 3.1 230 07:19 27.04.2020
4047 Mist 14 1009 100 4200 2.1 250 06:44 27.04.2020
4048 Mist 14 1009 100 4200 2.1 250 06:24 27.04.2020
4049 Mist 14 1009 100 3500 2.1 240 05:49 27.04.2020
4050 Fog 14 1009 100 450 1.5 240 04:41 27.04.2020
4051 Fog 14 1010 100 450 1.27 173 03:49 27.04.2020
4052 Mist 14 1011 100 5000 2.1 230 02:41 27.04.2020
4053 Fog 14 1011 93 4500 1.5 0 01:23 27.04.2020
4054 Mist 15 1011 93 5000 1.42 42 00:47 27.04.2020
4055 Mist 15 1011 93 5000 1 0 00:19 27.04.2020
4056 Rain 15 1011 93 6000 1 300 23:55 26.04.2020
4057 Rain 16 1011 87 8000 1.5 270 23:37 26.04.2020
4058 Rain 16 1011 87 8000 1.5 270 23:18 26.04.2020
4059 Rain 16 1011 93 10000 2.1 280 22:55 26.04.2020
4060 Rain 16 1011 82 10000 1.5 300 22:37 26.04.2020
4061 Rain 17 1010 87 10000 2.6 270 22:18 26.04.2020
4062 Rain 17 1010 87 10000 2.6 270 21:56 26.04.2020
4063 Clouds 18 1010 77 10000 4.6 290 21:37 26.04.2020
4064 Clouds 19 1010 77 10000 4.6 290 21:18 26.04.2020
4065 Clouds 20 1009 72 10000 3.1 260 20:39 26.04.2020
4066 Clouds 21 1009 72 10000 3.1 260 20:20 26.04.2020
4067 Rain 22 1009 64 10000 2.1 270 19:59 26.04.2020
4068 Clouds 22 1009 60 10000 2.6 300 19:38 26.04.2020
4069 Clouds 23 1009 60 10000 2.6 300 19:19 26.04.2020
4070 Rain 23 1009 68 10000 2.6 310 18:44 26.04.2020
4071 Rain 23 1009 68 10000 2.6 310 18:25 26.04.2020
4072 Rain 22 1009 68 10000 3.6 300 17:57 26.04.2020
4073 Thunderstorm 22 1010 77 10000 2.1 280 17:39 26.04.2020
4074 Thunderstorm 23 1010 77 10000 2.1 280 17:19 26.04.2020
4075 Rain 24 1010 64 10000 2.1 260 16:42 26.04.2020
4076 Rain 23 1010 64 10000 2.1 260 16:23 26.04.2020
4077 Clouds 24 1010 56 10000 1.5 200 15:59 26.04.2020
4078 Clouds 24 1010 60 10000 1.5 0 15:40 26.04.2020
4079 Clouds 24 1010 60 10000 1.5 0 15:40 26.04.2020
4080 Clouds 23 1010 60 10000 1.5 0 15:21 26.04.2020
4081 Clouds 23 1010 56 10000 2.1 0 14:57 26.04.2020
4082 Clouds 22 1011 60 10000 1 0 14:38 26.04.2020
4083 Clouds 22 1011 60 10000 1 0 14:18 26.04.2020
4084 Clouds 21 1011 64 10000 1.5 0 13:54 26.04.2020
4085 Clouds 20 1011 68 10000 1.5 0 13:36 26.04.2020
4086 Clouds 20 1011 68 10000 1.5 0 13:18 26.04.2020
4087 Clouds 18 1011 77 10000 2.6 240 12:40 26.04.2020
4088 Clouds 18 1011 77 10000 2.6 240 12:21 26.04.2020
4089 Clouds 18 1011 77 10000 1.5 260 11:59 26.04.2020
4090 Clouds 17 1011 93 9000 2.1 240 11:40 26.04.2020
4091 Clouds 16 1011 93 9000 2.1 240 11:21 26.04.2020
4092 Clouds 16 1011 93 6000 2.1 270 10:55 26.04.2020
4093 Mist 16 1011 100 4700 2.1 270 10:37 26.04.2020
4094 Mist 15 1011 100 4700 2.1 270 10:18 26.04.2020
4095 Mist 15 1010 100 2200 2.1 260 09:39 26.04.2020
4096 Mist 15 1010 100 2200 2.1 260 09:21 26.04.2020
4097 Fog 14 1010 100 550 2.6 240 08:46 26.04.2020
4098 Fog 14 1010 100 550 2.6 240 08:23 26.04.2020
4099 Fog 14 1010 100 450 2.1 250 07:59 26.04.2020
4100 Fog 14 1010 100 400 2.6 260 07:40 26.04.2020
4101 Fog 14 1010 100 400 2.6 260 07:20 26.04.2020
4102 Fog 14 1009 100 400 2.1 230 06:40 26.04.2020
4103 Fog 14 1010 100 450 2.6 260 05:55 26.04.2020
4104 Fog 14 1010 93 450 2.6 250 05:37 26.04.2020
4105 Fog 14 1010 100 350 1.5 270 04:56 26.04.2020
4106 Fog 13 1010 100 350 3.1 260 03:56 26.04.2020
4107 Fog 13 1010 100 800 2.6 240 02:46 26.04.2020
4108 Mist 13 1010 100 4900 1.5 300 02:26 26.04.2020
4109 Clouds 14 1010 93 7000 1.5 300 01:40 26.04.2020
4110 Clouds 14 1010 93 7000 1.5 300 01:21 26.04.2020
4111 Clouds 15 1010 87 10000 2.1 270 00:39 26.04.2020
4112 Clouds 15 1010 87 10000 2.1 270 00:18 26.04.2020
4113 Clouds 16 1009 87 10000 2.1 290 23:38 25.04.2020
4114 Clouds 16 1009 87 10000 2.1 290 23:20 25.04.2020
4115 Clouds 16 1009 87 10000 2.1 290 22:55 25.04.2020
4116 Clouds 17 1009 88 10000 1 320 22:37 25.04.2020
4117 Clouds 17 1009 88 10000 1 320 22:18 25.04.2020
4118 Clouds 17 1009 88 10000 1 320 22:18 25.04.2020
4119 Clouds 19 1009 77 10000 2.6 360 21:40 25.04.2020
4120 Clouds 19 1009 77 10000 2.6 360 21:20 25.04.2020
4121 Rain 19 1009 72 10000 2.1 350 20:57 25.04.2020
4122 Clouds 20 1008 68 10000 2.6 20 20:39 25.04.2020
4123 Clouds 20 1008 68 10000 2.6 20 20:20 25.04.2020
4124 Rain 21 1008 60 10000 2.6 20 19:41 25.04.2020
4125 Rain 21 1008 60 10000 2.6 20 19:23 25.04.2020
4126 Rain 21 1008 60 10000 2.6 20 18:58 25.04.2020
4127 Rain 21 1008 60 10000 3.6 20 18:39 25.04.2020
4128 Rain 21 1008 60 10000 3.6 20 18:20 25.04.2020
4129 Rain 21 1008 72 10000 2.6 30 17:57 25.04.2020
4130 Rain 20 1008 82 10000 1 0 17:38 25.04.2020
4131 Rain 19 1008 82 10000 1 0 17:19 25.04.2020
4132 Rain 19 1008 88 10000 2.1 290 16:54 25.04.2020
4133 Rain 19 1009 88 10000 2.6 260 16:36 25.04.2020
4134 Rain 19 1009 88 10000 2.6 260 16:36 25.04.2020
4135 Rain 19 1009 88 10000 2.6 260 16:18 25.04.2020
4136 Thunderstorm 20 1009 88 10000 3.1 270 15:40 25.04.2020
4137 Thunderstorm 20 1009 88 10000 3.1 270 15:19 25.04.2020
4138 Thunderstorm 20 1009 82 10000 5.7 250 14:58 25.04.2020
4139 Thunderstorm 23 1009 50 10000 2.6 330 14:38 25.04.2020
4140 Thunderstorm 24 1009 50 10000 2.6 330 14:20 25.04.2020
4141 Rain 24 1010 56 10000 3.1 80 13:43 25.04.2020
4142 Rain 24 1010 56 10000 3.1 80 13:19 25.04.2020
4143 Rain 24 1010 56 10000 3.6 60 12:58 25.04.2020
4144 Rain 23 1010 68 10000 2.6 30 12:40 25.04.2020
4145 Clear 22 1010 68 10000 2.6 30 12:20 25.04.2020
4146 Clear 22 1010 68 10000 1 0 11:56 25.04.2020
4147 Clear 21 1010 72 10000 0.5 0 11:38 25.04.2020
4148 Clear 20 1010 72 10000 0.5 0 11:20 25.04.2020
4149 Clear 19 1010 82 10000 1 0 10:43 25.04.2020
4150 Clear 18 1010 82 10000 1 0 10:23 25.04.2020
4151 Clear 17 1010 82 10000 2.1 40 09:48 25.04.2020
4152 Clouds 16 1010 93 10000 1.5 10 09:29 25.04.2020
4153 Rain 14 1010 93 7000 1 0 08:58 25.04.2020
4154 Fog 14 1010 93 4800 1 290 08:39 25.04.2020
4155 Fog 13 1010 93 4800 1 290 08:21 25.04.2020
4156 Fog 12 1010 100 800 1 260 07:58 25.04.2020
4157 Fog 12 1010 93 1600 1 250 07:39 25.04.2020
4158 Mist 13 1010 100 1800 1.5 240 06:47 25.04.2020
4159 Fog 13 1010 93 1600 1 260 06:28 25.04.2020
4160 Fog 14 1010 93 5000 1 320 05:39 25.04.2020
4161 Fog 14 1010 93 5000 1 320 05:18 25.04.2020
4162 Rain 15 1011 93 10000 2.1 350 02:59 25.04.2020
4163 Clouds 16 1012 93 10000 1 360 02:21 25.04.2020
4164 Rain 16 1012 87 10000 1 0 01:53 25.04.2020
4165 Rain 17 1012 87 10000 1.5 250 01:34 25.04.2020
4166 Rain 17 1012 88 10000 2.6 230 00:55 25.04.2020
4167 Clouds 17 1012 88 10000 3.1 210 00:32 25.04.2020
4168 Rain 17 1012 82 10000 1.5 0 23:45 24.04.2020
4169 Rain 18 1012 82 10000 1.5 360 23:24 24.04.2020
4170 Rain 17 1012 88 10000 2.1 40 22:58 24.04.2020
4171 Rain 18 1012 82 10000 2.1 10 22:38 24.04.2020
4172 Rain 19 1012 82 10000 2.1 10 22:19 24.04.2020
4173 Rain 19 1012 82 10000 2.1 10 22:19 24.04.2020
4174 Rain 19 1011 82 10000 3.1 360 21:55 24.04.2020
4175 Rain 20 1011 68 10000 2.6 360 21:36 24.04.2020
4176 Rain 20 1011 68 10000 2.6 360 21:18 24.04.2020
4177 Rain 20 1011 72 10000 2.6 20 20:55 24.04.2020
4178 Rain 21 1011 68 10000 3.1 40 20:36 24.04.2020
4179 Rain 21 1011 64 10000 3.1 50 20:18 24.04.2020
4180 Rain 22 1011 56 10000 3.1 40 19:40 24.04.2020
4181 Rain 23 1011 56 10000 3.1 40 19:21 24.04.2020
4182 Rain 24 1011 56 10000 2.6 30 18:44 24.04.2020
4183 Clear 24 1011 56 10000 2.6 30 18:26 24.04.2020
4184 Clouds 25 1012 56 10000 2.1 60 17:55 24.04.2020
4185 Clouds 25 1012 53 10000 1.5 30 17:37 24.04.2020
4186 Clouds 25 1012 53 10000 1.5 30 17:19 24.04.2020
4187 Clouds 25 1012 53 10000 2.6 30 16:57 24.04.2020
4188 Clouds 25 1013 53 10000 2.6 40 16:38 24.04.2020
4189 Clouds 25 1013 53 10000 2.6 40 16:20 24.04.2020
4190 Clouds 25 1014 56 10000 1 0 15:41 24.04.2020
4191 Clouds 24 1014 56 10000 1 0 15:20 24.04.2020
4192 Clouds 23 1014 56 10000 2.6 0 14:41 24.04.2020
4193 Clouds 23 1014 56 10000 2.6 0 14:22 24.04.2020
4194 Clouds 23 1015 56 10000 1.5 0 13:59 24.04.2020
4195 Clouds 22 1015 60 10000 2.6 60 13:41 24.04.2020
4196 Clouds 22 1015 60 10000 2.6 60 13:20 24.04.2020
4197 Clouds 21 1015 64 10000 2.6 0 12:57 24.04.2020
4198 Clouds 21 1015 64 10000 2.6 0 12:57 24.04.2020
4199 Clear 21 1015 64 10000 3.1 50 12:39 24.04.2020
4200 Clear 21 1015 64 10000 3.1 50 12:19 24.04.2020
4201 Clear 19 1016 77 10000 2.6 60 11:40 24.04.2020
4202 Clear 18 1016 77 10000 2.6 60 11:21 24.04.2020
4203 Clear 18 1016 77 10000 2.1 80 10:56 24.04.2020
4204 Clear 17 1016 77 10000 2.1 110 10:38 24.04.2020
4205 Clear 16 1016 77 10000 2.1 110 10:19 24.04.2020
4206 Clear 16 1016 77 10000 2.1 110 10:19 24.04.2020
4207 Clear 14 1016 93 10000 2.6 100 09:47 24.04.2020
4208 Clear 14 1016 93 10000 2.6 100 09:24 24.04.2020
4209 Clear 13 1016 100 8000 2.1 100 08:58 24.04.2020
4210 Mist 12 1016 100 4200 2.1 110 08:40 24.04.2020
4211 Mist 12 1016 100 4200 2.1 110 08:40 24.04.2020
4212 Mist 11 1016 100 4200 2.1 110 08:18 24.04.2020
4213 Fog 11 1016 93 2800 1 90 07:47 24.04.2020
4214 Fog 11 1016 100 3300 2.1 100 07:27 24.04.2020
4215 Fog 11 1016 100 2300 1 90 06:58 24.04.2020
4216 Fog 11 1016 100 2000 1 90 06:38 24.04.2020
4217 Fog 11 1016 100 4600 1 60 05:49 24.04.2020
4218 Fog 11 1017 93 800 1.4 79 04:33 24.04.2020
4219 Fog 12 1017 93 2500 1.2 61 03:27 24.04.2020
4220 Clear 12 1018 100 7000 0.5 0 02:44 24.04.2020
4221 Clouds 12 1018 100 7000 0.5 0 02:20 24.04.2020
4222 Clouds 13 1018 87 9000 1.5 120 01:37 24.04.2020
4223 Clouds 14 1018 87 10000 2.6 80 00:43 24.04.2020
4224 Clouds 14 1018 87 10000 2.6 80 00:18 24.04.2020
4225 Clouds 15 1018 87 10000 2.1 90 23:44 23.04.2020
4226 Clouds 15 1018 82 10000 3.1 90 23:26 23.04.2020
4227 Clouds 16 1018 82 10000 2.1 80 22:55 23.04.2020
4228 Clouds 16 1018 82 10000 2.1 70 22:37 23.04.2020
4229 Clouds 16 1018 82 10000 2.1 70 22:19 23.04.2020
4230 Clouds 16 1018 77 10000 2.6 40 21:56 23.04.2020
4231 Clouds 16 1018 77 10000 2.6 40 21:38 23.04.2020
4232 Clouds 17 1018 77 10000 2.6 40 21:20 23.04.2020
4233 Clouds 18 1018 72 10000 3.1 50 20:54 23.04.2020
4234 Clouds 18 1018 72 10000 2.6 70 20:36 23.04.2020
4235 Clouds 18 1018 72 10000 2.6 70 20:18 23.04.2020
4236 Clouds 19 1018 64 10000 1 20 19:41 23.04.2020
4237 Clouds 19 1018 64 10000 1 20 19:22 23.04.2020
4238 Clouds 19 1018 63 10000 1 0 18:57 23.04.2020
4239 Clouds 20 1018 63 10000 2.6 60 18:39 23.04.2020
4240 Clouds 20 1018 63 10000 2.6 60 18:21 23.04.2020
4241 Clouds 20 1018 60 10000 2.6 10 17:55 23.04.2020
4242 Clouds 20 1018 63 10000 0.43 47 17:37 23.04.2020
4243 Clouds 20 1018 63 10000 0.43 47 17:19 23.04.2020
4244 Clouds 19 1019 68 10000 0.5 0 16:43 23.04.2020
4245 Clouds 19 1019 68 10000 0.5 0 16:21 23.04.2020
4246 Clouds 18 1019 77 10000 0.5 0 15:43 23.04.2020
4247 Clouds 18 1019 77 10000 0.5 0 15:24 23.04.2020
4248 Clouds 18 1020 77 10000 1.5 0 14:59 23.04.2020
4249 Clouds 18 1020 77 10000 2.6 210 14:40 23.04.2020
4250 Clouds 18 1020 77 10000 2.6 210 14:21 23.04.2020
4251 Clouds 17 1020 82 10000 1.5 0 13:57 23.04.2020
4252 Clouds 17 1020 82 10000 2.1 210 13:38 23.04.2020
4253 Clouds 17 1020 82 10000 2.1 210 13:19 23.04.2020
4254 Clouds 17 1020 82 10000 2.1 190 12:55 23.04.2020
4255 Clouds 16 1020 87 10000 1.5 180 12:37 23.04.2020
4256 Clouds 16 1020 87 10000 1.5 180 12:19 23.04.2020
4257 Clouds 16 1020 82 10000 1 0 11:44 23.04.2020
4258 Clouds 16 1020 87 10000 1 0 11:26 23.04.2020
4259 Clouds 15 1020 93 8000 1.5 230 10:56 23.04.2020
4260 Clouds 15 1020 93 8000 1.5 230 10:56 23.04.2020
4261 Clouds 15 1020 93 6000 1.5 230 10:38 23.04.2020
4262 Clouds 15 1020 93 6000 1.5 230 10:19 23.04.2020
4263 Mist 14 1020 93 3600 2.1 190 09:37 23.04.2020
4264 Mist 14 1020 93 3600 2.1 190 09:18 23.04.2020
4265 Clouds 14 1019 93 7000 1 180 08:46 23.04.2020
4266 Clouds 14 1019 93 7000 1 180 08:27 23.04.2020
4267 Clouds 14 1019 100 6000 1 210 07:44 23.04.2020
4268 Clouds 14 1019 100 6000 1 210 07:24 23.04.2020
4269 Clouds 14 1019 100 7000 1 210 06:50 23.04.2020
4270 Clouds 14 1019 100 7000 1.5 230 06:28 23.04.2020
4271 Mist 14 1019 93 5000 2.1 250 05:31 23.04.2020
4272 Clouds 14 1019 93 7000 1.5 230 04:53 23.04.2020
4273 Clouds 14 1019 100 8000 1 210 02:25 23.04.2020
4274 Clouds 14 1019 100 7000 1.5 220 01:55 23.04.2020
4275 Clouds 14 1019 93 7000 1.5 220 01:33 23.04.2020
4276 Clouds 14 1019 93 7000 2.1 230 00:47 23.04.2020
4277 Clouds 14 1019 93 8000 2.1 250 00:23 23.04.2020
4278 Clouds 14 1019 87 8000 2.6 250 23:50 22.04.2020
4279 Clouds 14 1019 93 9000 2.1 250 23:25 22.04.2020
4280 Clouds 15 1018 93 10000 2.1 240 22:58 22.04.2020
4281 Clouds 15 1018 93 10000 2.6 250 22:38 22.04.2020
4282 Clouds 15 1018 93 10000 2.6 250 22:19 22.04.2020
4283 Clouds 15 1018 93 10000 3.1 250 21:56 22.04.2020
4284 Clouds 15 1017 87 10000 3.1 260 21:38 22.04.2020
4285 Clouds 15 1017 87 10000 3.1 260 21:19 22.04.2020
4286 Clouds 15 1017 87 10000 3.6 260 20:43 22.04.2020
4287 Clouds 16 1017 87 10000 3.6 260 20:20 22.04.2020
4288 Clouds 16 1016 87 10000 4.6 260 19:58 22.04.2020
4289 Clouds 16 1016 82 10000 4.1 260 19:40 22.04.2020
4290 Clouds 16 1016 82 10000 4.1 260 19:19 22.04.2020
4291 Clouds 16 1016 82 10000 4.1 270 19:00 22.04.2020
4292 Clouds 16 1016 82 10000 4.1 260 18:41 22.04.2020
4293 Clouds 16 1016 82 10000 4.1 260 18:22 22.04.2020
4294 Clouds 17 1016 87 9000 4.1 260 17:58 22.04.2020
4295 Clouds 17 1015 87 8000 4.1 250 17:39 22.04.2020
4296 Clouds 17 1015 87 8000 4.1 250 17:21 22.04.2020
4297 Clouds 16 1015 87 7000 3.6 250 16:46 22.04.2020
4298 Clouds 17 1015 87 6000 4.1 250 16:28 22.04.2020
4299 Clouds 16 1015 87 6000 3.6 260 15:54 22.04.2020
4300 Mist 16 1015 93 4800 4.1 250 15:36 22.04.2020
4301 Mist 16 1015 93 4800 4.1 250 15:18 22.04.2020
4302 Mist 16 1015 100 2700 3.6 240 14:41 22.04.2020
4303 Mist 16 1015 100 2700 3.6 240 14:21 22.04.2020
4304 Mist 16 1015 100 2100 3.6 240 13:59 22.04.2020
4305 Mist 16 1015 100 1900 3.6 250 13:40 22.04.2020
4306 Mist 16 1015 100 1900 3.6 250 13:19 22.04.2020
4307 Drizzle 15 1015 93 3300 3.1 240 12:42 22.04.2020
4308 Drizzle 16 1015 93 3300 3.1 240 12:23 22.04.2020
4309 Rain 15 1014 93 2400 2.6 230 11:57 22.04.2020
4310 Rain 15 1014 93 1900 2.6 230 11:36 22.04.2020
4311 Mist 15 1014 93 1900 2.6 230 11:18 22.04.2020
4312 Mist 15 1014 93 3000 2.6 230 10:41 22.04.2020
4313 Mist 15 1014 93 3000 2.6 230 10:21 22.04.2020
4314 Mist 14 1013 100 2400 2.6 250 09:41 22.04.2020
4315 Mist 14 1013 100 2400 2.6 250 09:23 22.04.2020
4316 Mist 14 1013 100 2200 2.1 240 08:59 22.04.2020
4317 Mist 14 1013 93 1900 1.5 270 08:41 22.04.2020
4318 Mist 14 1013 93 1900 1.5 270 08:22 22.04.2020
4319 Mist 14 1012 93 2100 1.5 240 07:53 22.04.2020
4320 Mist 14 1012 93 2800 1.5 260 07:33 22.04.2020
4321 Mist 14 1012 93 3000 1.5 240 06:53 22.04.2020
4322 Mist 14 1012 93 3200 2.1 240 06:23 22.04.2020
4323 Mist 14 1012 93 3100 2.1 230 05:37 22.04.2020
4324 Mist 14 1012 93 2700 1.5 220 04:32 22.04.2020
4325 Mist 14 1011 93 2900 2.1 230 02:51 22.04.2020
4326 Mist 14 1011 100 3100 1.5 240 01:53 22.04.2020
4327 Mist 14 1011 100 3400 1 280 01:27 22.04.2020
4328 Mist 14 1011 100 3500 1 0 00:57 22.04.2020
4329 Mist 14 1011 100 4000 1.5 300 00:37 22.04.2020
4330 Mist 14 1011 100 4000 1.5 300 00:37 22.04.2020
4331 Mist 14 1011 100 4000 1.5 300 00:19 22.04.2020
4332 Mist 14 1011 100 4200 1.5 250 23:41 21.04.2020
4333 Mist 14 1011 100 4200 1.5 250 23:19 21.04.2020
4334 Mist 14 1011 93 5000 1.5 250 22:40 21.04.2020
4335 Mist 14 1011 93 5000 1.5 250 22:22 21.04.2020
4336 Mist 14 1010 93 5000 1.5 270 21:59 21.04.2020
4337 Mist 14 1010 93 5000 1.5 270 21:41 21.04.2020
4338 Mist 15 1010 93 5000 1.5 270 21:22 21.04.2020
4339 Mist 15 1009 93 4500 2.6 310 20:56 21.04.2020
4340 Mist 15 1009 93 4000 3.1 310 20:38 21.04.2020
4341 Mist 15 1009 93 4000 3.1 310 20:20 21.04.2020
4342 Mist 15 1009 93 4000 3.6 310 19:41 21.04.2020
4343 Mist 15 1009 93 4000 3.6 310 19:20 21.04.2020
4344 Clouds 15 1008 93 6000 3.1 320 18:58 21.04.2020
4345 Clouds 15 1008 93 9000 4.1 310 18:39 21.04.2020
4346 Clouds 15 1008 93 10000 3.6 310 18:19 21.04.2020
4347 Clouds 15 1008 93 10000 3.6 310 17:55 21.04.2020
4348 Clouds 14 1008 87 10000 3.6 320 17:37 21.04.2020
4349 Clouds 14 1008 87 10000 3.6 320 17:37 21.04.2020
4350 Clouds 14 1008 87 10000 3.6 320 17:18 21.04.2020
4351 Clouds 14 1008 87 10000 4.1 320 16:39 21.04.2020
4352 Clouds 14 1008 87 10000 4.1 320 16:19 21.04.2020
4353 Clouds 14 1008 87 10000 4.1 320 16:19 21.04.2020
4354 Mist 14 1008 93 5000 4.6 330 15:57 21.04.2020
4355 Rain 14 1008 100 2700 4.6 320 15:39 21.04.2020
4356 Rain 14 1008 100 2700 4.6 320 15:21 21.04.2020
4357 Mist 14 1008 93 2800 4.6 330 14:57 21.04.2020
4358 Rain 14 1008 93 4800 4.1 310 14:39 21.04.2020
4359 Rain 14 1008 93 4800 4.1 310 14:20 21.04.2020
4360 Rain 14 1008 87 6000 3.6 330 13:40 21.04.2020
4361 Rain 14 1008 87 6000 3.6 330 13:22 21.04.2020
4362 Rain 14 1008 87 8000 4.1 340 12:55 21.04.2020
4363 Rain 14 1008 93 7000 4.6 330 12:36 21.04.2020
4364 Rain 14 1008 93 7000 4.6 330 12:18 21.04.2020
4365 Rain 13 1008 93 6000 3.6 330 11:55 21.04.2020
4366 Rain 13 1008 93 6000 3.6 330 11:55 21.04.2020
4367 Rain 13 1008 93 6000 3.1 340 11:36 21.04.2020
4368 Rain 13 1008 93 6000 3.1 340 11:18 21.04.2020
4369 Rain 13 1008 93 5000 3.1 340 10:55 21.04.2020
4370 Rain 13 1008 93 5000 3.1 340 10:36 21.04.2020
4371 Rain 13 1008 93 5000 3.1 340 10:36 21.04.2020
4372 Rain 13 1008 93 5000 3.1 340 10:18 21.04.2020
4373 Rain 13 1007 87 7000 2.6 340 09:37 21.04.2020
4374 Rain 13 1007 87 7000 2.6 340 09:18 21.04.2020
4375 Clouds 13 1007 87 10000 2.6 340 08:55 21.04.2020
4376 Clouds 13 1007 87 10000 3.1 350 08:37 21.04.2020
4377 Clouds 13 1007 87 10000 3.1 350 08:18 21.04.2020
4378 Clouds 13 1007 87 10000 3.1 330 07:43 21.04.2020
4379 Clouds 13 1007 87 10000 3.1 330 07:20 21.04.2020
4380 Clouds 13 1007 93 7000 2.1 350 06:44 21.04.2020
4381 Clouds 13 1007 93 7000 2.1 350 06:19 21.04.2020
4382 Clouds 12 1007 100 7000 1.5 340 05:45 21.04.2020
4383 Clouds 12 1007 93 6000 1.5 300 03:48 21.04.2020
4384 Clouds 12 1007 93 6000 1.5 300 03:48 21.04.2020
4385 Clouds 12 1007 93 6000 1.5 280 02:59 21.04.2020
4386 Clouds 13 1008 93 10000 1 330 01:37 21.04.2020
4387 Clouds 13 1008 93 10000 1 280 00:51 21.04.2020
4388 Clouds 14 1008 93 10000 1 340 00:25 21.04.2020
4389 Clouds 14 1008 93 10000 1 0 23:44 20.04.2020
4390 Clouds 14 1008 87 10000 1.5 330 23:23 20.04.2020
4391 Clouds 14 1008 87 10000 1.5 320 22:57 20.04.2020
4392 Clouds 14 1008 87 10000 1.5 320 22:57 20.04.2020
4393 Clouds 14 1008 87 10000 2.1 300 22:37 20.04.2020
4394 Clouds 14 1008 87 10000 2.1 300 22:19 20.04.2020
4395 Clouds 15 1008 87 10000 0.84 294 21:55 20.04.2020
4396 Clouds 15 1008 82 10000 0.64 251 21:37 20.04.2020
4397 Clouds 16 1007 77 10000 1.25 269 21:18 20.04.2020
4398 Clouds 16 1007 77 10000 1.25 269 20:55 20.04.2020
4399 Clouds 17 1007 72 10000 1 0 20:37 20.04.2020
4400 Clouds 17 1007 72 10000 1 0 20:18 20.04.2020
4401 Clouds 17 1007 77 10000 2.6 310 19:41 20.04.2020
4402 Clouds 17 1007 77 10000 2.6 310 19:23 20.04.2020
4403 Clouds 18 1007 72 10000 2.1 330 18:59 20.04.2020
4404 Clouds 17 1007 77 10000 3.6 290 18:41 20.04.2020
4405 Clouds 17 1007 77 10000 3.6 290 18:21 20.04.2020
4406 Clouds 17 1007 82 10000 3.1 270 17:55 20.04.2020
4407 Clouds 17 1008 77 10000 3.1 270 17:36 20.04.2020
4408 Clouds 17 1008 72 10000 2.6 260 17:18 20.04.2020
4409 Clouds 17 1008 72 10000 2.1 270 16:43 20.04.2020
4410 Clouds 18 1008 72 10000 2.1 270 16:21 20.04.2020
4411 Clouds 17 1008 77 10000 2.6 300 15:57 20.04.2020
4412 Clouds 17 1008 72 10000 3.1 270 15:39 20.04.2020
4413 Clouds 17 1008 72 10000 3.1 270 15:20 20.04.2020
4414 Rain 17 1008 82 10000 3.6 290 14:42 20.04.2020
4415 Rain 17 1008 82 10000 3.6 290 14:20 20.04.2020
4416 Clouds 16 1008 82 10000 4.6 270 13:59 20.04.2020
4417 Clouds 16 1009 87 10000 4.1 260 13:39 20.04.2020
4418 Clouds 16 1009 87 10000 4.1 260 13:20 20.04.2020
4419 Rain 15 1009 87 10000 3.1 260 12:44 20.04.2020
4420 Rain 15 1009 93 10000 3.6 260 12:24 20.04.2020
4421 Rain 15 1009 87 9000 3.1 260 11:58 20.04.2020
4422 Rain 15 1009 93 7000 2.6 250 11:38 20.04.2020
4423 Rain 15 1009 93 7000 2.6 250 11:19 20.04.2020
4424 Rain 15 1009 93 9000 3.1 260 10:55 20.04.2020
4425 Rain 15 1009 87 9000 3.1 270 10:36 20.04.2020
4426 Clouds 15 1009 87 10000 2.6 270 10:18 20.04.2020
4427 Clouds 15 1009 100 9000 2.6 270 09:44 20.04.2020
4428 Clouds 15 1009 100 9000 2.6 270 09:25 20.04.2020
4429 Clouds 15 1009 100 7000 1.5 250 08:58 20.04.2020
4430 Rain 14 1008 100 6000 1.5 260 08:40 20.04.2020
4431 Rain 14 1008 100 6000 1.5 260 08:18 20.04.2020
4432 Clouds 14 1008 100 6000 1.5 260 07:52 20.04.2020
4433 Clouds 14 1008 100 7000 1.5 260 07:28 20.04.2020
4434 Clouds 14 1008 100 9000 1.5 250 06:38 20.04.2020
4435 Clouds 14 1008 100 9000 1.5 250 06:20 20.04.2020
4436 Clouds 14 1008 100 7000 2.1 250 05:22 20.04.2020
4437 Clouds 14 1009 93 6000 1.5 270 03:19 20.04.2020
4438 Clouds 14 1009 100 8000 2.6 270 02:36 20.04.2020
4439 Clouds 14 1010 100 7000 3.6 250 01:31 20.04.2020
4440 Clouds 14 1010 100 7000 3.6 240 00:47 20.04.2020
4441 Clouds 14 1010 100 8000 3.1 250 00:25 20.04.2020
4442 Clouds 14 1010 93 10000 3.1 240 23:42 19.04.2020
4443 Clouds 14 1010 93 10000 3.1 240 23:23 19.04.2020
4444 Clouds 15 1010 93 10000 1.5 240 22:59 19.04.2020
4445 Clouds 15 1010 93 10000 3.1 230 22:39 19.04.2020
4446 Clouds 15 1010 93 10000 3.1 230 22:20 19.04.2020
4447 Rain 16 1010 87 10000 3.1 230 21:44 19.04.2020
4448 Rain 16 1010 87 10000 3.1 230 21:25 19.04.2020
4449 Rain 17 1009 88 10000 0.26 236 20:59 19.04.2020
4450 Rain 17 1009 88 10000 1 0 20:41 19.04.2020
4451 Rain 17 1009 88 10000 1 0 20:20 19.04.2020
4452 Rain 17 1009 88 10000 1 0 19:57 19.04.2020
4453 Rain 17 1009 88 10000 1 0 19:39 19.04.2020
4454 Rain 17 1009 88 10000 1 0 19:21 19.04.2020
4455 Clouds 17 1009 88 10000 1.5 330 18:58 19.04.2020
4456 Clouds 17 1009 93 10000 1.5 300 18:39 19.04.2020
4457 Clouds 17 1009 93 10000 1.5 300 18:19 19.04.2020
4458 Rain 17 1009 93 10000 2.6 300 17:56 19.04.2020
4459 Rain 17 1010 87 9000 1.5 0 17:38 19.04.2020
4460 Rain 17 1010 87 9000 1.5 0 17:19 19.04.2020
4461 Rain 17 1010 93 5000 2.6 200 16:54 19.04.2020
4462 Rain 17 1010 93 2600 3.1 130 16:36 19.04.2020
4463 Rain 17 1010 87 10000 3.1 70 16:18 19.04.2020
4464 Rain 18 1010 82 10000 2.6 310 15:41 19.04.2020
4465 Rain 18 1010 82 10000 2.6 310 15:20 19.04.2020
4466 Rain 18 1010 77 10000 2.1 300 14:54 19.04.2020
4467 Rain 18 1010 77 10000 3.6 300 14:36 19.04.2020
4468 Rain 18 1010 77 10000 3.6 300 14:18 19.04.2020
4469 Clouds 18 1011 77 10000 2.6 280 13:38 19.04.2020
4470 Clouds 17 1011 88 10000 2.1 280 13:19 19.04.2020
4471 Clouds 17 1011 88 10000 2.1 280 12:49 19.04.2020
4472 Clouds 17 1012 88 10000 2.1 260 12:25 19.04.2020
4473 Clouds 16 1012 88 10000 2.6 270 11:55 19.04.2020
4474 Clouds 16 1012 87 10000 2.6 260 11:37 19.04.2020
4475 Clouds 16 1012 87 10000 2.6 260 11:18 19.04.2020
4476 Clouds 15 1012 100 10000 3.1 240 10:41 19.04.2020
4477 Clouds 15 1012 100 10000 3.1 240 10:22 19.04.2020
4478 Clouds 15 1012 93 10000 2.6 260 09:59 19.04.2020
4479 Clouds 14 1012 100 10000 3.1 240 09:41 19.04.2020
4480 Clouds 14 1012 100 10000 3.1 240 09:20 19.04.2020
4481 Clouds 14 1011 91 0 0.89 263 08:40 19.04.2020
4482 Clouds 14 1011 91 0 0.89 247 08:21 19.04.2020
4483 Clouds 14 1011 91 0 0.45 247 07:56 19.04.2020
4484 Clouds 14 1011 91 0 0.45 202 07:38 19.04.2020
4485 Clouds 14 1011 91 0 0.45 225 07:19 19.04.2020
4486 Clouds 14 1011 91 0 1.41 13 06:26 19.04.2020
4487 Clouds 14 1011 91 0 0.45 247 05:35 19.04.2020
4488 Clouds 14 1012 91 0 1.34 244 03:55 19.04.2020
4489 Rain 14 1012 90 0 1.35 82 02:50 19.04.2020
4490 Rain 14 1012 90 0 0.45 247 02:18 19.04.2020
4491 Rain 14 1013 90 0 2.06 62 01:26 19.04.2020
4492 Rain 14 1013 90 0 2.06 62 00:41 19.04.2020
4493 Rain 14 1013 90 0 2.06 62 00:41 19.04.2020
4494 Rain 14 1013 90 0 1.98 60 00:20 19.04.2020
4495 Rain 14 1013 89 0 1.98 60 23:43 18.04.2020
4496 Rain 14 1013 89 0 1.98 60 23:20 18.04.2020
4497 Rain 15 1013 89 0 1.98 60 22:55 18.04.2020
4498 Rain 15 1013 89 0 1.98 60 22:37 18.04.2020
4499 Rain 15 1013 89 0 1.98 60 22:18 18.04.2020
4500 Rain 15 1013 90 0 1.98 60 21:42 18.04.2020
4501 Rain 15 1013 90 0 0.45 12 21:22 18.04.2020
4502 Rain 16 1013 90 0 0.45 0 20:59 18.04.2020
4503 Rain 16 1013 89 0 0.45 67 20:40 18.04.2020
4504 Rain 16 1013 89 0 0.57 5 20:21 18.04.2020
4505 Rain 16 1014 89 0 1.34 101 19:43 18.04.2020
4506 Rain 17 1014 89 0 1.79 109 19:25 18.04.2020
4507 Rain 19 1015 72 10000 1.5 120 18:40 18.04.2020
4508 Rain 19 1015 72 10000 1.5 120 18:20 18.04.2020
4509 Rain 19 1015 72 10000 1.5 120 17:59 18.04.2020
4510 Rain 19 1015 72 10000 1.5 120 17:40 18.04.2020
4511 Rain 19 1015 72 10000 1.5 120 17:20 18.04.2020
4512 Rain 20 1015 60 10000 1.5 130 16:43 18.04.2020
4513 Rain 20 1015 60 10000 1.5 130 16:23 18.04.2020
4514 Rain 21 1015 56 10000 2.1 190 15:58 18.04.2020
4515 Rain 22 1016 56 10000 2.1 110 15:38 18.04.2020
4516 Rain 22 1016 56 10000 2.1 110 15:38 18.04.2020
4517 Clouds 22 1016 56 10000 2.1 110 15:19 18.04.2020
4518 Clouds 24 1016 53 10000 1 0 14:44 18.04.2020
4519 Clouds 24 1016 53 10000 1.5 0 14:24 18.04.2020
4520 Clouds 22 1016 60 10000 1.5 0 13:44 18.04.2020
4521 Clouds 23 1016 60 10000 1.5 0 13:25 18.04.2020
4522 Clouds 22 1017 60 10000 1 0 12:56 18.04.2020
4523 Clouds 22 1017 60 10000 1 0 12:56 18.04.2020
4524 Clouds 21 1017 72 10000 1 0 12:38 18.04.2020
4525 Clouds 20 1017 72 10000 1 0 12:19 18.04.2020
4526 Clouds 19 1017 82 10000 1 0 11:42 18.04.2020
4527 Clouds 18 1017 82 10000 1 0 11:22 18.04.2020
4528 Clouds 16 1016 87 10000 2.6 140 10:57 18.04.2020
4529 Clouds 16 1016 93 10000 1.5 190 10:37 18.04.2020
4530 Clouds 16 1016 93 10000 1.5 190 10:18 18.04.2020
4531 Clouds 14 1016 93 10000 2.1 120 09:41 18.04.2020
4532 Clouds 14 1016 93 10000 2.1 120 09:23 18.04.2020
4533 Clouds 13 1016 100 10000 1.5 120 08:44 18.04.2020
4534 Mist 12 1016 100 4100 2.1 110 08:25 18.04.2020
4535 Fog 12 1016 93 10000 1.5 100 07:54 18.04.2020
4536 Fog 12 1016 93 9000 2.1 141 07:34 18.04.2020
4537 Clouds 12 1015 93 10000 1 120 06:55 18.04.2020
4538 Fog 12 1015 93 10000 1 110 06:19 18.04.2020
4539 Clouds 12 1015 100 10000 1 120 05:35 18.04.2020
4540 Clouds 12 1015 100 10000 2.1 180 04:46 18.04.2020
4541 Clouds 12 1015 100 10000 2.1 180 04:24 18.04.2020
4542 Fog 13 1015 93 10000 1.5 180 02:47 18.04.2020
4543 Fog 13 1015 93 10000 1.5 170 02:22 18.04.2020
4544 Rain 14 1015 100 10000 1.5 150 01:51 18.04.2020
4545 Rain 14 1015 93 10000 2.1 160 01:31 18.04.2020
4546 Rain 14 1014 93 10000 2.6 150 00:40 18.04.2020
4547 Rain 14 1014 93 10000 2.6 150 00:20 18.04.2020
4548 Clouds 15 1014 100 10000 2.1 140 23:55 17.04.2020
4549 Rain 15 1014 93 10000 4.1 140 23:36 17.04.2020
4550 Rain 15 1014 93 10000 4.1 140 23:18 17.04.2020
4551 Rain 15 1013 93 10000 2.6 360 22:41 17.04.2020
4552 Rain 15 1013 93 10000 2.6 360 22:21 17.04.2020
4553 Thunderstorm 16 1014 93 5000 3.1 220 21:59 17.04.2020
4554 Thunderstorm 17 1013 77 6000 11.3 230 21:40 17.04.2020
4555 Thunderstorm 17 1013 77 6000 11.3 230 21:20 17.04.2020
4556 Thunderstorm 17 1013 77 6000 11.3 230 21:20 17.04.2020
4557 Rain 19 1012 68 10000 3.1 110 20:56 17.04.2020
4558 Rain 20 1012 68 10000 2.6 110 20:37 17.04.2020
4559 Rain 19 1012 68 10000 2.6 110 20:18 17.04.2020
4560 Rain 21 1011 46 10000 1.5 200 19:55 17.04.2020
4561 Rain 21 1011 43 10000 3.6 200 19:37 17.04.2020
4562 Rain 21 1012 49 10000 2.6 200 19:18 17.04.2020
4563 Rain 22 1012 49 10000 3.1 200 18:40 17.04.2020
4564 Rain 21 1012 49 10000 3.1 200 18:21 17.04.2020
4565 Rain 22 1012 53 10000 2.1 210 17:38 17.04.2020
4566 Rain 22 1012 53 10000 2.1 210 17:20 17.04.2020
4567 Rain 22 1012 56 10000 3.6 240 16:59 17.04.2020
4568 Rain 23 1012 46 10000 3.6 230 16:41 17.04.2020
4569 Rain 23 1012 46 10000 3.6 230 16:21 17.04.2020
4570 Rain 23 1013 60 10000 2.6 130 15:39 17.04.2020
4571 Rain 23 1013 60 10000 2.6 130 15:21 17.04.2020
4572 Rain 22 1013 64 10000 4.1 120 14:54 17.04.2020
4573 Rain 22 1013 68 10000 4.6 120 14:36 17.04.2020
4574 Rain 21 1013 68 10000 4.6 120 14:18 17.04.2020
4575 Rain 21 1013 60 10000 4.6 150 13:39 17.04.2020
4576 Rain 21 1013 60 10000 4.6 150 13:20 17.04.2020
4577 Rain 21 1013 60 10000 5.1 150 12:48 17.04.2020
4578 Clouds 21 1013 68 10000 4.1 140 12:27 17.04.2020
4579 Clouds 19 1013 68 10000 4.1 140 11:59 17.04.2020
4580 Clouds 19 1013 72 10000 4.1 130 11:39 17.04.2020
4581 Clouds 18 1013 72 10000 4.1 130 11:19 17.04.2020
4582 Clouds 18 1013 77 10000 5.1 140 10:40 17.04.2020
4583 Clouds 17 1013 77 10000 5.1 140 10:20 17.04.2020
4584 Clouds 16 1013 82 10000 5.7 140 09:55 17.04.2020
4585 Clouds 15 1013 82 10000 4.6 130 09:36 17.04.2020
4586 Clouds 15 1013 82 10000 4.6 130 09:18 17.04.2020
4587 Clouds 13 1013 87 10000 5.1 140 08:46 17.04.2020
4588 Clouds 13 1013 87 10000 5.1 140 08:26 17.04.2020
4589 Clouds 13 1012 87 10000 5.1 140 07:56 17.04.2020
4590 Clouds 13 1012 87 10000 5.1 140 07:38 17.04.2020
4591 Clouds 13 1012 82 10000 4.6 140 07:18 17.04.2020
4592 Clouds 14 1012 82 10000 5.1 130 06:40 17.04.2020
4593 Rain 14 1012 77 10000 5.1 140 05:49 17.04.2020
4594 Rain 15 1013 72 10000 4.1 120 03:23 17.04.2020
4595 Rain 16 1013 77 10000 2.6 100 02:50 17.04.2020
4596 Rain 17 1014 77 10000 2.1 270 01:30 17.04.2020
4597 Rain 17 1014 63 10000 2.1 260 00:59 17.04.2020
4598 Clouds 18 1013 52 10000 3.6 190 00:21 17.04.2020
4599 Clouds 18 1013 52 10000 3.6 200 23:46 16.04.2020
4600 Clouds 19 1012 52 10000 4.6 140 23:24 16.04.2020
4601 Clouds 19 1012 52 10000 4.6 140 22:59 16.04.2020
4602 Clouds 19 1012 52 10000 4.6 140 22:59 16.04.2020
4603 Clouds 19 1012 52 10000 4.6 140 22:59 16.04.2020
4604 Clouds 19 1012 56 10000 3.1 130 22:39 16.04.2020
4605 Clouds 19 1011 52 10000 3.1 110 22:20 16.04.2020
4606 Clouds 20 1011 52 10000 3.6 100 21:57 16.04.2020
4607 Clouds 20 1011 52 10000 3.6 100 21:38 16.04.2020
4608 Rain 20 1011 49 10000 3.6 100 21:19 16.04.2020
4609 Rain 21 1011 49 10000 5.7 110 20:42 16.04.2020
4610 Rain 21 1012 46 10000 6.2 110 20:22 16.04.2020
4611 Rain 22 1012 46 10000 5.7 100 19:58 16.04.2020
4612 Rain 22 1012 46 10000 5.7 100 19:39 16.04.2020
4613 Rain 23 1013 46 10000 6.2 110 19:19 16.04.2020
4614 Rain 23 1013 43 10000 6.7 100 18:46 16.04.2020
4615 Clouds 24 1013 41 10000 5.7 120 18:27 16.04.2020
4616 Clouds 24 1013 43 10000 6.2 100 18:00 16.04.2020
4617 Clouds 24 1013 43 10000 6.2 100 17:41 16.04.2020
4618 Clouds 24 1013 46 10000 5.1 110 17:21 16.04.2020
4619 Clouds 24 1014 46 10000 3.6 130 16:54 16.04.2020
4620 Clouds 24 1014 46 10000 3.6 130 16:36 16.04.2020
4621 Clouds 24 1014 49 10000 3.6 100 16:18 16.04.2020
4622 Clouds 23 1015 49 10000 1.5 80 15:40 16.04.2020
4623 Clouds 23 1015 49 10000 2.1 80 15:19 16.04.2020
4624 Clouds 23 1015 49 10000 2.1 80 14:56 16.04.2020
4625 Clouds 23 1015 53 10000 4.1 110 14:37 16.04.2020
4626 Clouds 23 1015 53 10000 4.1 110 14:37 16.04.2020
4627 Clouds 22 1015 56 10000 3.6 90 14:19 16.04.2020
4628 Clouds 21 1015 64 10000 3.1 120 13:42 16.04.2020
4629 Clouds 21 1016 63 10000 4.1 120 13:23 16.04.2020
4630 Clouds 20 1016 68 10000 4.6 120 12:58 16.04.2020
4631 Clouds 19 1016 68 10000 4.6 120 12:40 16.04.2020
4632 Clouds 19 1015 68 10000 3.1 120 12:20 16.04.2020
4633 Clouds 18 1016 72 10000 4.6 130 12:00 16.04.2020
4634 Clouds 18 1016 72 10000 4.6 130 11:41 16.04.2020
4635 Clouds 17 1016 77 10000 4.6 130 11:21 16.04.2020
4636 Clouds 16 1015 77 10000 2.6 120 10:56 16.04.2020
4637 Clouds 16 1016 77 10000 3.6 140 10:38 16.04.2020
4638 Clouds 15 1016 77 10000 3.6 140 10:18 16.04.2020
4639 Clouds 14 1016 82 10000 4.6 140 09:54 16.04.2020
4640 Clouds 14 1016 82 10000 4.6 140 09:36 16.04.2020
4641 Clouds 13 1016 82 10000 5.1 140 09:18 16.04.2020
4642 Clouds 12 1015 87 10000 4.6 140 08:41 16.04.2020
4643 Clouds 12 1015 87 10000 4.1 130 08:21 16.04.2020
4644 Clouds 12 1015 87 10000 4.1 130 07:46 16.04.2020
4645 Clouds 12 1015 82 10000 4.6 140 07:26 16.04.2020
4646 Clouds 12 1015 82 10000 3.6 130 06:43 16.04.2020
4647 Rain 12 1015 87 10000 4.6 130 06:24 16.04.2020
4648 Rain 13 1015 87 10000 5.1 130 05:30 16.04.2020
4649 Rain 14 1015 77 10000 4.1 140 03:47 16.04.2020
4650 Rain 14 1015 77 10000 4.6 140 03:22 16.04.2020
4651 Rain 15 1015 77 10000 4.6 140 02:43 16.04.2020
4652 Rain 16 1015 72 10000 6.2 140 01:59 16.04.2020
4653 Rain 16 1015 67 10000 6.7 140 00:59 16.04.2020
4654 Rain 17 1015 59 10000 6.7 140 00:27 16.04.2020
4655 Rain 18 1014 55 10000 6.7 130 23:57 15.04.2020
4656 Rain 18 1014 55 10000 6.7 130 23:39 15.04.2020
4657 Rain 18 1014 52 10000 6.7 130 23:20 15.04.2020
4658 Rain 19 1014 52 10000 5.7 150 22:40 15.04.2020
4659 Rain 19 1014 52 10000 5.7 140 22:21 15.04.2020
4660 Rain 20 1013 46 10000 5.7 130 21:58 15.04.2020
4661 Rain 20 1013 46 10000 5.7 130 21:40 15.04.2020
4662 Clouds 20 1013 46 10000 6.7 120 21:22 15.04.2020
4663 Clouds 21 1012 43 10000 6.2 120 20:57 15.04.2020
4664 Clouds 21 1012 43 10000 6.2 120 20:39 15.04.2020
4665 Clouds 22 1012 40 10000 5.1 120 20:20 15.04.2020
4666 Clouds 23 1012 38 10000 5.1 120 19:42 15.04.2020
4667 Clouds 24 1012 38 10000 5.1 130 19:20 15.04.2020
4668 Clouds 24 1012 36 10000 4.6 140 18:54 15.04.2020
4669 Clouds 24 1012 36 10000 4.6 140 18:36 15.04.2020
4670 Clear 25 1012 36 10000 4.6 150 18:18 15.04.2020
4671 Clear 25 1012 33 10000 4.6 140 17:40 15.04.2020
4672 Clear 24 1012 38 10000 4.6 120 17:21 15.04.2020
4673 Clear 24 1012 35 10000 4.1 140 16:58 15.04.2020
4674 Clear 24 1012 35 10000 4.1 140 16:38 15.04.2020
4675 Clear 24 1012 35 10000 5.7 120 16:20 15.04.2020
4676 Clear 24 1012 35 10000 5.7 120 15:58 15.04.2020
4677 Clear 24 1012 35 10000 5.7 120 15:39 15.04.2020
4678 Clear 23 1012 35 10000 6.2 120 15:19 15.04.2020
4679 Clear 23 1013 35 10000 5.7 90 14:58 15.04.2020
4680 Clear 23 1012 35 10000 6.2 120 14:58 15.04.2020
4681 Clear 23 1013 35 10000 5.7 90 14:39 15.04.2020
4682 Clear 23 1013 30 10000 5.7 100 14:21 15.04.2020
4683 Clear 23 1013 30 10000 5.7 100 13:58 15.04.2020
4684 Clear 22 1013 32 10000 5.7 130 13:38 15.04.2020
4685 Clear 22 1013 35 10000 6.2 130 13:20 15.04.2020
4686 Clear 21 1013 32 10000 6.7 120 12:54 15.04.2020
4687 Clear 21 1013 32 10000 6.7 120 12:36 15.04.2020
4688 Clear 19 1014 34 10000 6.7 120 12:18 15.04.2020
4689 Clear 18 1014 36 10000 6.2 110 11:42 15.04.2020
4690 Clear 18 1014 39 10000 5.1 120 11:24 15.04.2020
4691 Clear 17 1014 39 10000 5.1 120 10:58 15.04.2020
4692 Clear 16 1014 41 10000 5.7 130 10:36 15.04.2020
4693 Clear 14 1014 47 10000 5.1 120 10:18 15.04.2020
4694 Clear 13 1014 47 10000 3.6 110 09:55 15.04.2020
4695 Clear 13 1014 47 10000 3.6 110 09:36 15.04.2020
4696 Clear 11 1014 50 10000 3.1 110 09:18 15.04.2020
4697 Clear 9 1013 63 10000 3.1 100 08:41 15.04.2020
4698 Clear 9 1013 63 10000 2.6 90 08:20 15.04.2020
4699 Clear 9 1013 63 10000 2.1 80 07:54 15.04.2020
4700 Clear 8 1013 63 10000 2.6 80 07:33 15.04.2020
4701 Clear 9 1013 53 10000 2.1 70 06:34 15.04.2020
4702 Clear 9 1013 53 10000 2.1 60 05:51 15.04.2020
4703 Clear 9 1013 53 10000 2.1 60 05:20 15.04.2020
4704 Clear 10 1013 50 10000 3.1 50 04:44 15.04.2020
4705 Clear 11 1014 46 10000 3.6 50 03:40 15.04.2020
4706 Clear 11 1014 46 10000 3.6 50 03:18 15.04.2020
4707 Clear 12 1014 46 10000 4.1 50 02:30 15.04.2020
4708 Clear 13 1014 43 10000 4.1 50 01:44 15.04.2020
4709 Clear 13 1014 41 10000 4.1 50 01:19 15.04.2020
4710 Clear 14 1014 41 10000 4.6 50 00:37 15.04.2020
4711 Clear 15 1014 38 10000 5.1 50 00:18 15.04.2020
4712 Clear 15 1014 41 10000 6.2 50 23:55 14.04.2020
4713 Clear 15 1014 41 10000 6.2 50 23:36 14.04.2020
4714 Clear 15 1014 41 10000 6.2 50 23:36 14.04.2020
4715 Clear 16 1014 38 10000 6.2 50 23:18 14.04.2020
4716 Clear 17 1014 36 10000 5.7 30 22:55 14.04.2020
4717 Clear 17 1014 36 10000 5.7 30 22:36 14.04.2020
4718 Clear 17 1014 39 10000 6.2 30 22:18 14.04.2020
4719 Clear 18 1014 36 10000 4.6 20 21:55 14.04.2020
4720 Clear 18 1014 36 10000 4.6 20 21:36 14.04.2020
4721 Clear 19 1013 34 10000 5.7 20 21:18 14.04.2020
4722 Clear 21 1013 32 10000 6.7 30 20:40 14.04.2020
4723 Clear 21 1013 30 10000 5.1 30 20:22 14.04.2020
4724 Clear 21 1013 30 10000 5.1 30 19:58 14.04.2020
4725 Clear 22 1013 28 10000 6.2 40 19:38 14.04.2020
4726 Clear 22 1013 28 10000 6.2 40 19:38 14.04.2020
4727 Clear 22 1013 26 10000 5.1 50 19:20 14.04.2020
4728 Clear 23 1013 28 10000 7.2 30 18:41 14.04.2020
4729 Clear 23 1014 26 10000 5.7 40 18:22 14.04.2020
4730 Clear 23 1014 26 10000 5.7 40 18:22 14.04.2020
4731 Clear 23 1014 26 10000 5.7 40 17:59 14.04.2020
4732 Clear 23 1014 28 10000 7.2 30 17:39 14.04.2020
4733 Clear 23 1014 28 10000 7.2 40 17:21 14.04.2020
4734 Clear 23 1014 30 10000 6.7 50 16:58 14.04.2020
4735 Clear 23 1014 30 10000 6.7 50 16:39 14.04.2020
4736 Clear 23 1015 35 10000 7.2 40 16:21 14.04.2020
4737 Clear 23 1015 35 10000 7.2 40 15:57 14.04.2020
4738 Clear 23 1015 40 10000 5.7 40 15:38 14.04.2020
4739 Clear 22 1015 45 10000 6.7 20 15:19 14.04.2020
4740 Clear 21 1016 48 10000 6.2 30 14:57 14.04.2020
4741 Clear 21 1016 48 10000 6.2 30 14:39 14.04.2020
4742 Clear 21 1016 48 10000 6.2 30 14:39 14.04.2020
4743 Clear 21 1016 52 10000 5.7 30 14:21 14.04.2020
4744 Clear 20 1016 55 10000 5.7 40 13:44 14.04.2020
4745 Clear 20 1016 59 10000 5.7 30 13:24 14.04.2020
4746 Clear 19 1016 59 10000 5.7 30 12:57 14.04.2020
4747 Clear 19 1016 63 10000 4.6 30 12:39 14.04.2020
4748 Clear 19 1016 63 10000 4.6 30 12:39 14.04.2020
4749 Clear 17 1016 63 10000 5.1 40 12:20 14.04.2020
4750 Clear 16 1016 67 10000 5.1 30 11:54 14.04.2020
4751 Clear 16 1016 67 10000 5.1 30 11:36 14.04.2020
4752 Clear 16 1016 67 10000 4.6 30 11:18 14.04.2020
4753 Clear 14 1016 71 10000 5.1 40 10:40 14.04.2020
4754 Clear 14 1016 71 10000 5.7 40 10:21 14.04.2020
4755 Clear 13 1016 76 10000 5.1 40 09:42 14.04.2020
4756 Clouds 12 1016 81 10000 3.1 30 09:24 14.04.2020
4757 Clouds 12 1016 81 10000 2.6 30 08:57 14.04.2020
4758 Clouds 11 1016 81 10000 2.6 30 08:39 14.04.2020
4759 Clouds 11 1016 87 10000 1.5 40 08:21 14.04.2020
4760 Clouds 11 1016 93 10000 3.1 30 07:51 14.04.2020
4761 Clouds 11 1016 93 10000 3.1 30 07:27 14.04.2020
4762 Clouds 10 1016 92 0 2.11 50 06:45 14.04.2020
4763 Clouds 12 1015 82 10000 2.1 80 05:52 14.04.2020
4764 Clouds 13 1015 76 10000 2.1 90 03:50 14.04.2020
4765 Clouds 14 1015 72 10000 2.6 110 02:40 14.04.2020
4766 Clouds 15 1014 63 10000 3.6 130 01:29 14.04.2020
4767 Clouds 15 1014 63 10000 3.1 110 00:59 14.04.2020
4768 Rain 15 1014 63 10000 3.1 110 00:32 14.04.2020
4769 Rain 17 1013 52 10000 1.5 130 23:59 13.04.2020
4770 Rain 17 1013 52 10000 1.5 130 23:39 13.04.2020
4771 Rain 17 1013 52 10000 2.1 130 23:20 13.04.2020
4772 Rain 17 1013 52 10000 2.1 130 22:54 13.04.2020
4773 Rain 18 1013 48 10000 2.6 90 22:36 13.04.2020
4774 Rain 18 1012 48 10000 2.6 150 22:18 13.04.2020
4775 Clouds 18 1012 48 10000 2.1 140 21:41 13.04.2020
4776 Clouds 19 1011 45 10000 3.1 140 21:21 13.04.2020
4777 Clouds 19 1011 45 10000 3.1 140 20:58 13.04.2020
4778 Clouds 20 1011 40 10000 3.1 110 20:40 13.04.2020
4779 Clouds 21 1011 37 10000 3.6 100 20:19 13.04.2020
4780 Clouds 21 1010 40 10000 3.6 110 19:58 13.04.2020
4781 Clouds 21 1010 40 10000 3.6 110 19:37 13.04.2020
4782 Clouds 22 1010 37 10000 3.1 110 19:18 13.04.2020
4783 Clouds 22 1010 37 10000 3.6 110 18:57 13.04.2020
4784 Clouds 22 1010 37 10000 3.6 110 18:37 13.04.2020
4785 Clouds 23 1010 37 10000 5.1 90 18:18 13.04.2020
4786 Clouds 22 1010 35 10000 6.2 100 17:56 13.04.2020
4787 Clouds 22 1010 35 10000 6.2 100 17:37 13.04.2020
4788 Clouds 22 1010 37 10000 4.1 70 17:19 13.04.2020
4789 Clouds 22 1010 37 10000 4.1 70 16:57 13.04.2020
4790 Clouds 22 1011 37 10000 6.2 80 16:37 13.04.2020
4791 Clouds 23 1010 37 10000 5.1 60 16:19 13.04.2020
4792 Clouds 23 1010 37 10000 5.1 60 16:19 13.04.2020
4793 Clouds 22 1011 35 10000 5.7 70 15:46 13.04.2020
4794 Clouds 21 1011 35 10000 5.7 70 15:28 13.04.2020
4795 Clouds 21 1011 35 10000 5.1 70 14:59 13.04.2020
4796 Clouds 20 1011 40 10000 5.1 60 14:40 13.04.2020
4797 Clouds 21 1011 42 10000 5.1 90 14:22 13.04.2020
4798 Clouds 20 1011 42 10000 5.1 90 13:56 13.04.2020
4799 Clouds 20 1011 45 10000 5.1 90 13:38 13.04.2020
4800 Clouds 20 1011 42 10000 5.1 90 13:20 13.04.2020
4801 Clouds 19 1011 42 10000 5.1 90 12:58 13.04.2020
4802 Clouds 19 1011 48 10000 5.1 80 12:39 13.04.2020
4803 Rain 16 1011 51 10000 4.1 80 12:19 13.04.2020
4804 Rain 16 1011 51 10000 4.1 80 11:57 13.04.2020
4805 Rain 16 1011 51 10000 6.2 80 11:39 13.04.2020
4806 Rain 15 1011 58 10000 4.6 80 11:18 13.04.2020
4807 Rain 15 1011 62 10000 4.6 70 10:55 13.04.2020
4808 Rain 14 1011 62 10000 4.6 70 10:36 13.04.2020
4809 Rain 13 1011 66 10000 3.1 80 10:18 13.04.2020
4810 Rain 13 1011 71 10000 4.1 80 09:43 13.04.2020
4811 Rain 12 1011 76 10000 3.6 100 09:25 13.04.2020
4812 Rain 12 1010 76 10000 4.1 70 08:45 13.04.2020
4813 Rain 12 1010 76 10000 4.1 70 08:27 13.04.2020
4814 Rain 12 1010 82 10000 4.1 90 07:56 13.04.2020
4815 Rain 12 1010 82 10000 4.1 90 07:37 13.04.2020
4816 Rain 12 1010 82 10000 3.1 100 07:18 13.04.2020
4817 Rain 13 1010 82 10000 2.1 130 06:42 13.04.2020
4818 Clouds 13 1010 82 10000 2.6 130 05:51 13.04.2020
4819 Clouds 13 1010 82 10000 2.1 130 05:19 13.04.2020
4820 Clouds 13 1010 82 10000 2.1 130 05:19 13.04.2020
4821 Clouds 13 1010 82 10000 2.1 130 04:31 13.04.2020
4822 Clouds 13 1010 76 10000 3.6 130 03:55 13.04.2020
4823 Clouds 13 1010 82 10000 3.1 130 03:34 13.04.2020
4824 Clouds 14 1010 82 10000 3.6 150 02:41 13.04.2020
4825 Clouds 14 1010 87 10000 5.1 130 01:46 13.04.2020
4826 Clouds 14 1010 87 10000 4.6 130 01:28 13.04.2020
4827 Clouds 14 1011 93 10000 2.6 110 00:48 13.04.2020
4828 Rain 14 1011 93 10000 3.6 120 00:25 13.04.2020
4829 Rain 14 1011 93 10000 3.1 120 23:56 12.04.2020
4830 Rain 14 1011 93 10000 3.1 120 23:38 12.04.2020
4831 Rain 14 1011 93 7000 4.6 140 23:20 12.04.2020
4832 Rain 15 1011 87 10000 4.6 130 22:54 12.04.2020
4833 Rain 15 1011 87 10000 4.6 130 22:36 12.04.2020
4834 Rain 15 1011 87 10000 2.1 120 22:18 12.04.2020
4835 Rain 16 1011 82 10000 3.1 130 21:37 12.04.2020
4836 Rain 16 1011 82 10000 3.1 110 21:19 12.04.2020
4837 Rain 17 1012 82 10000 2.1 100 20:43 12.04.2020
4838 Rain 17 1012 82 10000 2.1 70 20:23 12.04.2020
4839 Rain 17 1012 82 10000 2.1 70 19:58 12.04.2020
4840 Rain 18 1012 77 8000 2.1 40 19:40 12.04.2020
4841 Rain 18 1012 72 10000 2.6 40 19:19 12.04.2020
4842 Rain 19 1013 72 10000 2.1 20 18:57 12.04.2020
4843 Rain 19 1013 72 10000 2.1 20 18:38 12.04.2020
4844 Rain 19 1013 72 10000 2.1 350 18:19 12.04.2020
4845 Rain 19 1013 72 10000 2.1 330 17:42 12.04.2020
4846 Rain 20 1014 72 10000 1.5 0 17:24 12.04.2020
4847 Rain 20 1014 72 10000 1.5 0 16:59 12.04.2020
4848 Rain 20 1014 63 10000 2.1 300 16:40 12.04.2020
4849 Rain 20 1015 63 10000 1.5 270 16:20 12.04.2020
4850 Rain 20 1015 63 10000 1.5 230 15:50 12.04.2020
4851 Rain 20 1015 63 10000 1.5 230 15:31 12.04.2020
4852 Clouds 20 1016 63 10000 3.1 240 14:57 12.04.2020
4853 Clouds 20 1016 63 10000 5.1 250 14:37 12.04.2020
4854 Clouds 20 1016 60 10000 4.6 230 14:19 12.04.2020
4855 Clouds 19 1017 63 10000 4.1 270 13:43 12.04.2020
4856 Clouds 19 1017 63 10000 4.1 270 13:43 12.04.2020
4857 Rain 19 1017 68 10000 4.6 250 13:25 12.04.2020
4858 Rain 19 1017 68 10000 4.6 250 13:25 12.04.2020
4859 Rain 18 1017 68 10000 4.1 260 12:56 12.04.2020
4860 Rain 18 1017 68 10000 4.1 260 12:38 12.04.2020
4861 Clouds 18 1018 77 10000 2.6 220 12:19 12.04.2020
4862 Clouds 18 1018 77 10000 2.1 180 11:57 12.04.2020
4863 Clouds 17 1018 77 10000 2.1 180 11:36 12.04.2020
4864 Clouds 17 1018 82 10000 1.5 190 11:18 12.04.2020
4865 Clouds 16 1018 82 10000 1.5 190 10:55 12.04.2020
4866 Clouds 16 1018 82 10000 1.5 190 10:55 12.04.2020
4867 Clouds 16 1018 87 10000 1 0 10:37 12.04.2020
4868 Clouds 15 1018 87 10000 1.5 150 10:18 12.04.2020
4869 Clouds 14 1018 93 7000 2.1 160 09:40 12.04.2020
4870 Clouds 13 1018 100 7000 1.5 170 09:21 12.04.2020
4871 Clouds 13 1018 100 7000 1.5 170 09:00 12.04.2020
4872 Clouds 13 1018 93 9000 2.1 170 08:41 12.04.2020
4873 Clouds 12 1018 93 10000 1.5 130 08:23 12.04.2020
4874 Clouds 12 1018 93 10000 1.5 160 07:45 12.04.2020
4875 Clouds 13 1018 87 10000 2.1 170 07:19 12.04.2020
4876 Clouds 13 1018 87 10000 2.65 135 06:35 12.04.2020
4877 Clouds 13 1019 93 10000 1.5 260 05:55 12.04.2020
4878 Clouds 13 1019 93 10000 1.5 260 05:36 12.04.2020
4879 Clouds 13 1019 76 10000 2.6 230 03:45 12.04.2020
4880 Clouds 13 1020 76 10000 2.6 210 03:24 12.04.2020
4881 Clouds 13 1020 71 10000 1 0 02:34 12.04.2020
4882 Clouds 14 1020 67 10000 1 30 01:52 12.04.2020
4883 Clouds 14 1020 71 10000 0.5 0 00:59 12.04.2020
4884 Clouds 14 1020 71 10000 0.5 0 00:41 12.04.2020
4885 Clouds 15 1020 72 10000 1.5 290 00:20 12.04.2020
4886 Clouds 15 1020 72 10000 0.5 0 23:46 11.04.2020
4887 Clouds 16 1020 67 10000 1 0 23:26 11.04.2020
4888 Clouds 16 1020 63 10000 2.1 310 22:42 11.04.2020
4889 Clouds 17 1020 59 10000 3.6 310 22:23 11.04.2020
4890 Clouds 17 1020 59 10000 3.6 310 21:58 11.04.2020
4891 Clouds 18 1019 52 10000 3.6 300 21:58 11.04.2020
4892 Clouds 18 1019 52 10000 3.6 300 21:38 11.04.2020
4893 Clouds 19 1019 40 10000 1 0 21:19 11.04.2020
4894 Clouds 20 1019 40 10000 1 0 20:58 11.04.2020
4895 Clouds 21 1019 37 10000 1.5 130 20:40 11.04.2020
4896 Clouds 22 1019 35 10000 3.1 120 20:21 11.04.2020
4897 Clouds 22 1019 35 10000 3.1 120 19:59 11.04.2020
4898 Clouds 22 1019 35 10000 2.6 110 19:41 11.04.2020
4899 Clouds 23 1019 35 10000 1.5 90 19:20 11.04.2020
4900 Clouds 23 1019 31 10000 2.6 140 18:58 11.04.2020
4901 Clouds 24 1019 31 10000 2.6 140 18:39 11.04.2020
4902 Clouds 24 1019 33 10000 1.5 140 18:21 11.04.2020
4903 Clouds 23 1019 33 10000 1.5 140 17:59 11.04.2020
4904 Clouds 24 1019 31 10000 2.6 150 17:41 11.04.2020
4905 Clouds 24 1020 33 10000 0.5 0 17:21 11.04.2020
4906 Clouds 24 1020 33 10000 0.5 0 16:58 11.04.2020
4907 Clouds 24 1020 33 10000 1.5 140 16:40 11.04.2020
4908 Clouds 24 1020 38 10000 2.6 130 16:20 11.04.2020
4909 Clouds 24 1020 38 10000 2.6 130 16:20 11.04.2020
4910 Clouds 23 1020 43 10000 2.6 110 15:39 11.04.2020
4911 Clear 23 1020 43 10000 4.1 120 15:19 11.04.2020
4912 Clear 22 1021 43 10000 3.1 140 14:43 11.04.2020
4913 Clear 22 1021 43 10000 3.1 140 14:43 11.04.2020
4914 Clear 22 1021 46 10000 3.1 120 14:25 11.04.2020
4915 Clear 22 1021 46 10000 3.1 120 13:59 11.04.2020
4916 Clear 22 1021 49 10000 3.6 120 13:40 11.04.2020
4917 Clear 21 1021 48 10000 3.6 90 13:20 11.04.2020
4918 Clear 21 1021 45 10000 4.1 100 12:43 11.04.2020
4919 Clear 19 1021 52 10000 4.6 130 12:21 11.04.2020
4920 Clear 19 1021 52 10000 4.6 130 11:58 11.04.2020
4921 Clear 18 1021 55 10000 5.1 120 11:39 11.04.2020
4922 Clear 17 1021 55 10000 4.1 120 11:19 11.04.2020
4923 Clear 16 1021 62 10000 4.1 120 10:55 11.04.2020
4924 Clear 15 1021 62 10000 4.1 120 10:36 11.04.2020
4925 Clear 15 1021 62 10000 4.1 120 10:36 11.04.2020
4926 Clear 14 1021 67 10000 4.1 150 10:18 11.04.2020
4927 Clouds 13 1021 71 10000 2.6 140 09:40 11.04.2020
4928 Clear 13 1021 71 10000 2.6 140 09:40 11.04.2020
4929 Clouds 11 1021 81 10000 2.6 130 09:21 11.04.2020
4930 Clouds 10 1020 87 10000 2.6 120 08:51 11.04.2020
4931 Clouds 10 1020 87 10000 2.6 120 08:29 11.04.2020
4932 Clouds 9 1020 93 10000 2.1 140 07:55 11.04.2020
4933 Clouds 9 1020 93 10000 2.1 140 07:37 11.04.2020
4934 Clouds 9 1020 93 10000 2.6 100 07:18 11.04.2020
4935 Fog 9 1020 93 10000 2.42 118 06:35 11.04.2020
4936 Clouds 10 1020 93 10000 2.1 120 05:56 11.04.2020
4937 Clouds 11 1020 87 10000 2.12 119 03:42 11.04.2020
4938 Clouds 12 1020 81 10000 2.6 250 02:49 11.04.2020
4939 Clouds 15 1020 71 10000 3.1 250 01:25 11.04.2020
4940 Clouds 15 1020 71 10000 1 0 00:44 11.04.2020
4941 Clear 15 1020 67 10000 1.5 0 00:20 11.04.2020
4942 Clear 15 1020 67 10000 1.5 0 23:59 10.04.2020
4943 Clear 16 1020 67 10000 2.6 70 23:40 10.04.2020
4944 Clear 16 1020 67 10000 2.48 154 23:19 10.04.2020
4945 Clear 17 1019 63 10000 1 0 22:55 10.04.2020
4946 Clear 17 1019 63 10000 1 0 22:36 10.04.2020
4947 Clear 18 1019 59 10000 2.6 300 22:18 10.04.2020
4948 Clear 19 1019 49 10000 2.1 280 21:41 10.04.2020
4949 Clear 20 1018 46 10000 3.1 300 21:20 10.04.2020
4950 Clear 20 1018 46 10000 3.1 300 21:20 10.04.2020
4951 Clear 21 1018 46 10000 3.1 300 20:56 10.04.2020
4952 Clear 22 1018 43 10000 3.6 310 20:37 10.04.2020
4953 Clear 22 1018 43 10000 3.6 310 20:37 10.04.2020
4954 Clear 23 1018 41 10000 5.1 300 20:19 10.04.2020
4955 Clear 24 1018 29 10000 1 0 19:54 10.04.2020
4956 Clear 24 1018 29 10000 1 0 19:36 10.04.2020
4957 Clear 24 1018 27 10000 1 0 19:18 10.04.2020
4958 Clear 25 1018 27 10000 1 0 18:55 10.04.2020
4959 Clear 25 1018 25 10000 1.5 30 18:36 10.04.2020
4960 Clear 25 1018 25 10000 1.5 30 18:18 10.04.2020
4961 Clear 26 1018 24 10000 0.5 0 17:55 10.04.2020
4962 Clear 25 1018 24 10000 0.5 0 17:37 10.04.2020
4963 Clear 25 1018 29 10000 1 0 17:18 10.04.2020
4964 Clear 25 1018 29 10000 1 0 17:18 10.04.2020
4965 Clear 25 1018 29 10000 1 0 16:41 10.04.2020
4966 Clear 25 1018 36 10000 2.1 140 16:22 10.04.2020
4967 Clear 24 1019 35 10000 2.1 60 15:58 10.04.2020
4968 Clear 24 1019 35 10000 2.1 60 15:38 10.04.2020
4969 Clear 24 1019 40 10000 3.1 110 15:20 10.04.2020
4970 Clear 24 1019 40 10000 3.1 110 14:58 10.04.2020
4971 Clear 24 1019 40 10000 3.1 130 14:39 10.04.2020
4972 Clear 23 1019 35 10000 4.1 140 14:19 10.04.2020
4973 Clear 23 1019 40 10000 4.1 130 13:44 10.04.2020
4974 Clear 22 1020 37 10000 5.1 110 13:22 10.04.2020
4975 Clear 21 1020 40 10000 4.1 130 12:45 10.04.2020
4976 Clear 19 1020 39 10000 5.1 110 12:25 10.04.2020
4977 Clear 18 1020 42 10000 5.7 130 11:59 10.04.2020
4978 Clear 19 1020 42 10000 5.7 130 11:40 10.04.2020
4979 Clear 18 1020 39 10000 6.2 130 11:22 10.04.2020
4980 Clear 16 1020 36 10000 4.1 110 10:56 10.04.2020
4981 Clear 16 1020 36 10000 4.1 110 10:37 10.04.2020
4982 Clear 16 1020 36 10000 4.1 110 10:37 10.04.2020
4983 Clear 14 1020 44 10000 3.6 110 10:18 10.04.2020
4984 Clear 13 1020 47 10000 3.6 110 09:42 10.04.2020
4985 Clear 11 1020 50 10000 2.6 90 09:20 10.04.2020
4986 Clear 10 1019 53 10000 2.6 100 08:47 10.04.2020
4987 Clear 9 1019 53 10000 2.6 100 08:26 10.04.2020
4988 Clear 9 1019 57 10000 2.1 100 07:49 10.04.2020
4989 Clear 9 1019 62 10000 2.6 90 07:28 10.04.2020
4990 Clear 9 1019 62 10000 2.6 90 06:59 10.04.2020
4991 Clear 10 1019 57 10000 2.1 100 06:30 10.04.2020
4992 Clear 10 1019 57 10000 2.1 100 06:30 10.04.2020
4993 Clear 10 1019 57 10000 2.1 100 06:30 10.04.2020
4994 Clear 11 1019 62 10000 2.1 110 05:56 10.04.2020
4995 Clear 11 1019 58 10000 1.5 100 05:19 10.04.2020
4996 Clear 12 1019 62 10000 2.6 110 03:55 10.04.2020
4997 Clear 13 1019 58 10000 3.1 110 03:32 10.04.2020
4998 Clear 13 1019 58 10000 3.1 110 03:32 10.04.2020
4999 Clear 13 1019 58 10000 3.1 110 03:32 10.04.2020
5000 Clear 13 1019 67 10000 2.6 110 02:50 10.04.2020
5001 Clear 13 1019 67 10000 2.6 120 02:31 10.04.2020
5002 Clear 14 1019 67 10000 1 130 01:30 10.04.2020
5003 Clear 14 1019 62 10000 2.1 120 00:55 10.04.2020
5004 Clear 15 1019 62 10000 2.1 120 00:37 10.04.2020
5005 Clear 15 1019 72 10000 0.5 0 00:18 10.04.2020
5006 Clear 16 1019 67 10000 1.5 60 23:41 09.04.2020
5007 Clear 16 1019 59 10000 1 80 23:20 09.04.2020
5008 Clear 17 1019 55 10000 1.5 80 22:54 09.04.2020
5009 Clear 17 1019 55 10000 1.5 80 22:36 09.04.2020
5010 Clear 18 1018 48 10000 2.1 80 22:18 09.04.2020
5011 Clear 20 1018 40 10000 2.6 80 21:38 09.04.2020
5012 Clear 20 1018 37 10000 2.6 0 21:19 09.04.2020
5013 Clear 22 1018 35 10000 4.1 100 20:45 09.04.2020
5014 Clear 23 1018 35 10000 4.1 110 20:21 09.04.2020
5015 Clear 23 1018 35 10000 4.1 110 19:58 09.04.2020
5016 Clear 23 1018 33 10000 4.6 110 19:37 09.04.2020
5017 Clear 25 1018 36 10000 4.1 100 19:18 09.04.2020
5018 Clear 25 1018 33 10000 4.6 100 18:42 09.04.2020
5019 Clear 25 1018 33 10000 4.6 100 18:42 09.04.2020
5020 Clear 25 1018 33 10000 4.1 100 18:20 09.04.2020
5021 Clear 25 1018 36 10000 5.1 100 17:43 09.04.2020
5022 Clear 25 1018 33 10000 5.1 120 17:24 09.04.2020
5023 Clear 25 1018 33 10000 5.1 120 16:58 09.04.2020
5024 Clear 25 1019 36 10000 4.6 120 16:39 09.04.2020
5025 Clear 24 1019 35 10000 4.6 100 16:19 09.04.2020
5026 Clear 24 1019 38 10000 4.1 120 15:55 09.04.2020
5027 Clear 23 1019 35 10000 5.1 100 15:37 09.04.2020
5028 Clear 23 1019 35 10000 5.1 100 15:18 09.04.2020
5029 Clear 23 1020 40 10000 5.1 120 14:42 09.04.2020
5030 Clear 23 1020 40 10000 5.1 90 14:21 09.04.2020
5031 Clear 23 1020 40 10000 5.1 90 13:56 09.04.2020
5032 Clear 22 1021 49 10000 4.1 120 13:37 09.04.2020
5033 Clear 21 1021 49 10000 4.1 120 13:18 09.04.2020
5034 Clear 20 1021 48 10000 4.6 110 12:42 09.04.2020
5035 Clear 19 1021 55 10000 3.6 100 12:23 09.04.2020
5036 Clear 17 1021 55 10000 3.6 110 11:58 09.04.2020
5037 Clear 17 1021 55 10000 3.6 110 11:38 09.04.2020
5038 Clear 17 1022 55 10000 3.6 120 11:20 09.04.2020
5039 Clear 16 1021 62 10000 3.6 120 10:57 09.04.2020
5040 Clear 15 1021 62 10000 3.6 120 10:38 09.04.2020
5041 Clear 14 1021 67 10000 3.6 120 10:19 09.04.2020
5042 Clear 15 1021 67 10000 3.6 120 10:19 09.04.2020
5043 Clear 13 1021 71 10000 3.1 100 09:55 09.04.2020
5044 Clear 13 1021 71 10000 3.1 100 09:37 09.04.2020
5045 Clear 12 1021 76 10000 2.1 110 09:19 09.04.2020
5046 Clear 11 1021 81 10000 3.1 110 08:42 09.04.2020
5047 Clear 10 1020 81 10000 2.1 100 08:23 09.04.2020
5048 Clear 10 1020 87 10000 2.6 110 07:51 09.04.2020
5049 Clear 10 1020 87 10000 2.6 120 07:23 09.04.2020
5050 Clear 11 1020 81 10000 3.1 100 06:49 09.04.2020
5051 Clear 11 1020 87 10000 1.5 100 05:49 09.04.2020
5052 Clear 11 1020 87 10000 1.5 100 05:28 09.04.2020
5053 Clear 12 1021 82 10000 1.5 30 02:37 09.04.2020
5054 Clear 13 1021 82 10000 1 30 02:18 09.04.2020
5055 Clear 13 1021 81 10000 0.5 0 01:39 09.04.2020
5056 Clear 13 1022 76 10000 2.4 103 01:19 09.04.2020
5057 Clear 14 1022 71 10000 1.5 30 00:38 09.04.2020
5058 Clear 14 1022 72 10000 1.5 50 00:18 09.04.2020
5059 Clear 15 1022 67 10000 1 350 23:44 08.04.2020
5060 Clear 15 1021 67 10000 1.5 30 23:24 08.04.2020
5061 Clear 16 1021 55 10000 1.5 30 22:57 08.04.2020
5062 Clear 16 1021 55 10000 1.5 30 22:39 08.04.2020
5063 Clear 16 1021 55 10000 2.1 40 22:21 08.04.2020
5064 Clear 17 1021 52 10000 2.1 20 21:55 08.04.2020
5065 Clear 17 1021 52 10000 2.1 20 21:37 08.04.2020
5066 Rain 18 1021 49 10000 3.1 30 21:19 08.04.2020
5067 Rain 19 1021 46 10000 4.1 30 20:41 08.04.2020
5068 Rain 20 1021 46 10000 4.1 30 20:22 08.04.2020
5069 Rain 20 1021 46 10000 4.1 30 19:59 08.04.2020
5070 Rain 20 1021 46 10000 4.1 30 19:40 08.04.2020
5071 Clouds 20 1021 49 10000 4.6 20 19:21 08.04.2020
5072 Clouds 21 1021 53 10000 3.1 20 18:55 08.04.2020
5073 Clouds 21 1021 53 10000 3.1 20 18:55 08.04.2020
5074 Clouds 21 1021 53 10000 2.1 30 18:36 08.04.2020
5075 Clouds 22 1021 53 10000 2.1 30 18:18 08.04.2020
5076 Clouds 22 1021 53 10000 2.1 50 17:42 08.04.2020
5077 Clouds 22 1021 53 10000 2.6 60 17:20 08.04.2020
5078 Clouds 23 1021 49 10000 2.1 320 16:56 08.04.2020
5079 Clouds 23 1021 49 10000 2.1 320 16:37 08.04.2020
5080 Rain 21 1022 53 10000 2.1 90 16:19 08.04.2020
5081 Rain 21 1022 49 10000 1 0 15:38 08.04.2020
5082 Rain 21 1022 49 10000 1 0 15:20 08.04.2020
5083 Rain 21 1023 60 10000 1.5 0 14:55 08.04.2020
5084 Rain 20 1023 60 10000 1.5 0 14:55 08.04.2020
5085 Rain 21 1023 60 10000 1.5 0 14:37 08.04.2020
5086 Rain 20 1023 63 10000 2.1 70 14:19 08.04.2020
5087 Rain 20 1023 63 10000 2.6 80 13:44 08.04.2020
5088 Rain 19 1023 67 10000 1.5 90 13:21 08.04.2020
5089 Rain 18 1024 72 10000 1.5 0 12:43 08.04.2020
5090 Clouds 17 1024 72 10000 1 0 12:19 08.04.2020
5091 Clouds 17 1024 72 10000 1 0 12:19 08.04.2020
5092 Clouds 17 1024 72 10000 1 0 11:59 08.04.2020
5093 Clouds 16 1024 72 10000 1.5 0 11:41 08.04.2020
5094 Clouds 15 1024 76 10000 2.1 120 11:22 08.04.2020
5095 Clouds 15 1024 76 10000 2.1 130 10:57 08.04.2020
5096 Clouds 15 1024 76 10000 2.1 130 10:39 08.04.2020
5097 Clouds 14 1024 71 10000 2.1 140 10:20 08.04.2020
5098 Clouds 14 1023 76 10000 2.1 140 09:56 08.04.2020
5099 Clouds 14 1023 76 10000 2.1 140 09:38 08.04.2020
5100 Clouds 13 1023 76 10000 2.6 120 09:18 08.04.2020
5101 Clouds 13 1023 76 10000 2.6 110 08:42 08.04.2020
5102 Clouds 13 1023 76 10000 1.5 120 08:23 08.04.2020
5103 Clouds 13 1023 76 10000 1.5 120 08:23 08.04.2020
5104 Clouds 13 1023 76 10000 1.5 130 07:47 08.04.2020
5105 Clouds 13 1023 76 10000 2.1 120 07:28 08.04.2020
5106 Clouds 13 1023 76 10000 2.1 130 06:59 08.04.2020
5107 Clouds 13 1023 76 10000 2.1 130 06:19 08.04.2020
5108 Clouds 14 1023 72 10000 1.5 120 04:19 08.04.2020
5109 Clouds 14 1024 77 10000 0.5 0 02:49 08.04.2020
5110 Clouds 15 1024 77 10000 1 120 02:20 08.04.2020
5111 Clouds 15 1024 82 10000 2.6 120 01:45 08.04.2020
5112 Clouds 15 1023 77 10000 2.49 122 01:23 08.04.2020
5113 Clouds 15 1023 77 10000 2.6 290 00:41 08.04.2020
5114 Rain 16 1024 67 10000 0.5 0 00:21 08.04.2020
5115 Clouds 16 1024 67 10000 2.1 220 23:39 07.04.2020
5116 Clouds 16 1024 67 10000 2.1 180 23:21 07.04.2020
5117 Clouds 17 1023 55 10000 1 190 22:57 07.04.2020
5118 Clouds 17 1023 55 10000 1 190 22:39 07.04.2020
5119 Clouds 17 1023 59 10000 1.5 150 22:19 07.04.2020
5120 Clouds 18 1023 52 10000 1.5 130 21:56 07.04.2020
5121 Clouds 18 1023 52 10000 1.5 130 21:38 07.04.2020
5122 Clouds 19 1023 52 10000 1.5 130 21:19 07.04.2020
5123 Clouds 19 1022 45 10000 2.6 110 20:55 07.04.2020
5124 Clouds 19 1022 45 10000 2.6 110 20:37 07.04.2020
5125 Clouds 20 1022 43 10000 2.6 110 20:19 07.04.2020
5126 Clouds 20 1022 43 10000 2.6 110 19:56 07.04.2020
5127 Clouds 21 1022 43 10000 1 0 19:36 07.04.2020
5128 Clouds 21 1022 43 10000 1 0 19:18 07.04.2020
5129 Clouds 21 1022 43 10000 1 0 18:42 07.04.2020
5130 Clouds 22 1022 43 10000 2.1 80 18:21 07.04.2020
5131 Clouds 22 1022 40 10000 2.6 130 17:59 07.04.2020
5132 Clouds 22 1022 40 10000 2.6 130 17:40 07.04.2020
5133 Clouds 22 1022 40 10000 4.1 100 17:20 07.04.2020
5134 Clouds 22 1022 40 10000 4.1 100 16:45 07.04.2020
5135 Clouds 22 1023 40 10000 4.1 160 16:26 07.04.2020
5136 Clouds 20 1023 39 10000 4.1 120 15:46 07.04.2020
5137 Clouds 19 1023 45 10000 5.1 120 15:27 07.04.2020
5138 Clouds 19 1023 45 10000 5.7 130 14:57 07.04.2020
5139 Clouds 19 1023 45 10000 5.7 130 14:38 07.04.2020
5140 Clouds 19 1023 42 10000 6.7 110 14:20 07.04.2020
5141 Clouds 18 1024 42 10000 4.6 110 13:43 07.04.2020
5142 Clouds 17 1024 48 10000 4.1 100 13:20 07.04.2020
5143 Clouds 17 1024 48 10000 4.1 100 12:58 07.04.2020
5144 Clouds 16 1024 51 10000 5.1 120 12:39 07.04.2020
5145 Clouds 16 1024 54 10000 4.1 110 12:21 07.04.2020
5146 Clouds 15 1024 54 10000 4.1 110 11:58 07.04.2020
5147 Clouds 15 1024 58 10000 4.1 110 11:40 07.04.2020
5148 Clouds 14 1024 76 10000 3.6 100 11:19 07.04.2020
5149 Rain 13 1024 76 10000 2.1 120 10:39 07.04.2020
5150 Clouds 13 1024 76 10000 1.5 110 10:21 07.04.2020
5151 Clouds 13 1024 87 10000 3.1 100 09:56 07.04.2020
5152 Clouds 12 1024 87 10000 3.1 100 09:38 07.04.2020
5153 Clouds 12 1024 87 10000 2.6 110 09:18 07.04.2020
5154 Clouds 12 1024 93 10000 1 0 08:40 07.04.2020
5155 Clouds 12 1023 93 10000 1.5 80 08:21 07.04.2020
5156 Clouds 12 1023 93 9000 2.1 80 07:47 07.04.2020
5157 Clouds 12 1023 93 7000 2.1 60 07:26 07.04.2020
5158 Clouds 12 1024 93 7000 2.1 50 06:53 07.04.2020
5159 Rain 12 1024 93 8000 1.5 50 06:27 07.04.2020
5160 Rain 12 1024 93 8000 1.5 50 05:59 07.04.2020
5161 Clouds 12 1024 93 10000 1.5 80 05:26 07.04.2020
5162 Clouds 12 1024 93 7000 1.5 60 04:22 07.04.2020
5163 Clouds 12 1024 93 10000 1.5 40 03:23 07.04.2020
5164 Clouds 13 1025 87 10000 1 30 02:46 07.04.2020
5165 Clouds 13 1024 87 10000 1 0 01:40 07.04.2020
5166 Clouds 13 1024 87 7000 2.1 60 01:21 07.04.2020
5167 Clouds 13 1024 93 10000 2.1 50 00:26 07.04.2020
5168 Clouds 13 1024 93 10000 2.6 60 23:43 06.04.2020
5169 Clouds 13 1024 93 10000 1 0 23:22 06.04.2020
5170 Clouds 13 1024 93 10000 1 0 23:22 06.04.2020
5171 Clouds 13 1024 100 6000 2.6 40 22:55 06.04.2020
5172 Clouds 13 1024 100 6000 2.6 40 22:37 06.04.2020
5173 Mist 13 1023 93 5000 2.1 20 22:18 06.04.2020
5174 Clouds 14 1023 93 6000 1 10 21:43 06.04.2020
5175 Clouds 14 1023 93 6000 1 0 21:20 06.04.2020
5176 Clouds 14 1023 93 6000 1 0 20:58 06.04.2020
5177 Clouds 14 1023 93 6000 1 0 20:58 06.04.2020
5178 Rain 14 1023 87 10000 2.1 40 20:40 06.04.2020
5179 Rain 14 1023 93 9000 2.05 42 20:21 06.04.2020
5180 Rain 14 1023 93 9000 2.05 42 19:58 06.04.2020
5181 Rain 14 1022 93 10000 1 0 19:39 06.04.2020
5182 Rain 14 1022 93 7000 2.05 42 19:20 06.04.2020
5183 Rain 14 1022 93 5000 1 270 18:43 06.04.2020
5184 Rain 15 1022 87 5000 2.6 250 18:24 06.04.2020
5185 Rain 15 1022 87 6000 2.6 230 17:58 06.04.2020
5186 Rain 15 1022 87 6000 2.6 230 17:39 06.04.2020
5187 Rain 16 1022 72 10000 1.5 0 17:18 06.04.2020
5188 Clouds 16 1022 67 10000 1.5 170 16:49 06.04.2020
5189 Clouds 16 1022 67 10000 1.5 170 16:30 06.04.2020
5190 Clouds 16 1021 67 10000 2.1 130 14:57 06.04.2020
5191 Clouds 16 1021 67 10000 2.1 130 14:57 06.04.2020
5192 Clouds 16 1021 67 10000 2.1 130 14:57 06.04.2020
5193 Clouds 16 1021 67 10000 2.1 130 14:57 06.04.2020
5194 Clouds 16 1021 67 10000 2.1 130 14:57 06.04.2020
5195 Clouds 16 1021 67 10000 3.1 150 13:45 06.04.2020
5196 Clouds 16 1021 67 10000 3.1 150 13:22 06.04.2020
5197 Rain 15 1020 76 10000 3.6 120 12:46 06.04.2020
5198 Clouds 14 1020 76 10000 3.1 120 12:20 06.04.2020
5199 Clouds 13 1020 76 10000 2.1 140 11:40 06.04.2020
5200 Clouds 13 1020 76 10000 2.1 140 11:19 06.04.2020
5201 Clouds 13 1020 76 10000 2.1 140 11:19 06.04.2020
5202 Clouds 12 1019 81 10000 3.6 130 10:42 06.04.2020
5203 Clouds 12 1019 81 10000 3.6 130 10:42 06.04.2020
5204 Clouds 12 1019 81 10000 3.6 130 10:42 06.04.2020
5205 Clouds 12 1019 81 10000 3.6 130 10:42 06.04.2020
5206 Clouds 12 1019 81 10000 3.6 130 10:42 06.04.2020
5207 Clouds 12 1019 81 10000 3.6 130 10:20 06.04.2020
5208 Rain 12 1019 93 10000 3.6 130 10:20 06.04.2020
5209 Clouds 12 1019 81 10000 3.6 130 10:20 06.04.2020
5210 Clouds 12 1019 81 10000 3.6 130 10:20 06.04.2020
5211 Rain 12 1019 93 10000 3.6 130 10:20 06.04.2020
5212 Rain 11 1019 87 10000 4.1 120 09:40 06.04.2020
5213 Rain 11 1019 87 10000 4.1 120 09:40 06.04.2020
5214 Rain 11 1019 87 10000 4.1 120 09:20 06.04.2020
5215 Rain 11 1018 87 10000 4.1 120 08:46 06.04.2020
5216 Rain 11 1018 87 10000 4.1 120 08:27 06.04.2020
5217 Rain 11 1018 87 10000 4.1 120 08:26 06.04.2020
5218 Rain 11 1018 87 10000 4.1 120 08:25 06.04.2020
5219 Rain 11 1017 81 10000 4.6 140 07:23 06.04.2020
5220 Rain 11 1017 81 10000 4.6 140 07:23 06.04.2020
5221 Rain 11 1017 81 10000 3.6 140 07:23 06.04.2020
5222 Rain 11 1017 81 10000 2.1 140 06:27 06.04.2020
5223 Rain 11 1017 81 10000 2.1 140 05:51 06.04.2020
5224 Rain 14 1016 44 10000 3.1 140 03:57 06.04.2020
5225 Clouds 14 1016 41 10000 3.6 150 02:52 06.04.2020
5226 Clouds 15 1016 38 10000 3.6 170 01:56 06.04.2020
5227 Clouds 15 1016 38 10000 3.6 170 01:56 06.04.2020
5228 Clouds 16 1015 38 10000 5.1 140 00:55 06.04.2020
5229 Clouds 16 1014 41 10000 5.1 140 00:28 06.04.2020
5230 Clouds 16 1014 41 10000 5.1 140 00:28 06.04.2020
5231 Clouds 17 1014 36 10000 4.6 140 23:52 05.04.2020
5232 Clouds 17 1014 36 10000 4.6 140 23:33 05.04.2020
5233 Clouds 17 1014 37 10000 5.1 140 22:57 05.04.2020
5234 Clouds 17 1014 52 10000 3.1 100 22:39 05.04.2020
5235 Clouds 17 1014 52 10000 3.1 100 22:21 05.04.2020
5236 Clouds 17 1013 55 10000 5.31 135 21:59 05.04.2020
5237 Clouds 17 1013 55 10000 5.31 135 21:40 05.04.2020
5238 Clouds 17 1013 55 10000 5.31 133 21:22 05.04.2020
5239 Clouds 18 1013 55 10000 3.69 133 21:22 05.04.2020
5240 Clouds 20 1012 42 10000 3.77 127 20:22 05.04.2020
5241 Clouds 20 1012 42 10000 3.77 127 20:22 05.04.2020
5242 Clouds 21 1012 35 10000 4.1 250 19:42 05.04.2020
5243 Clouds 21 1012 35 10000 4.1 250 19:22 05.04.2020
5244 Clouds 23 1012 35 10000 6.7 120 18:47 05.04.2020
5245 Clouds 23 1012 37 10000 6.7 110 18:00 05.04.2020
5246 Clouds 23 1012 33 10000 7.2 120 17:41 05.04.2020
5247 Clouds 23 1012 33 10000 7.2 120 17:20 05.04.2020
5248 Clouds 23 1013 33 10000 6.2 100 16:47 05.04.2020
5249 Clouds 23 1013 33 10000 6.2 100 16:47 05.04.2020
5250 Clouds 23 1013 33 10000 6.2 100 16:47 05.04.2020
5251 Clouds 23 1013 33 10000 7.2 110 16:46 05.04.2020
5252 Clouds 23 1013 33 10000 7.2 110 16:46 05.04.2020
5253 Clouds 23 1013 33 10000 6.2 100 16:18 05.04.2020
5254 Clouds 23 1014 35 10000 6.2 100 15:45 05.04.2020
5255 Clouds 23 1014 35 10000 6.2 100 15:25 05.04.2020
5256 Clear 22 1014 37 10000 6.2 100 14:48 05.04.2020
5257 Clear 22 1014 37 10000 6.2 100 14:48 05.04.2020
5258 Clear 22 1014 37 10000 6.2 100 14:48 05.04.2020
5259 Clear 22 1014 40 10000 5.7 110 14:48 05.04.2020
5260 Clear 21 1015 42 10000 6.2 110 13:47 05.04.2020
5261 Clear 21 1015 45 10000 6.2 130 13:47 05.04.2020
5262 Clear 21 1015 42 10000 6.2 110 13:47 05.04.2020
5263 Clear 21 1015 42 10000 6.2 110 13:47 05.04.2020
5264 Clear 21 1015 42 10000 6.2 110 13:47 05.04.2020
5265 Clear 19 1015 48 10000 5.7 120 13:00 05.04.2020
5266 Clear 17 1015 55 10000 5.7 110 11:58 05.04.2020
5267 Clear 15 1015 55 10000 6.2 130 11:38 05.04.2020
5268 Clear 16 1015 55 10000 6.2 130 11:19 05.04.2020
5269 Clear 14 1016 58 10000 6.2 130 10:44 05.04.2020
5270 Clear 14 1016 58 10000 6.2 130 10:44 05.04.2020
5271 Clear 14 1016 58 10000 6.2 130 10:44 05.04.2020
5272 Clear 13 1016 66 10000 7.2 130 10:19 05.04.2020
5273 Clear 12 1016 66 10000 7.2 130 09:52 05.04.2020
5274 Clear 12 1016 66 10000 7.2 130 09:52 05.04.2020
5275 Clear 11 1016 66 10000 6.7 130 09:25 05.04.2020
5276 Clear 11 1016 66 10000 6.7 130 09:25 05.04.2020
5277 Clear 11 1016 66 10000 6.7 130 09:25 05.04.2020
5278 Clear 11 1016 66 10000 6.7 130 09:25 05.04.2020
5279 Clear 11 1016 66 10000 6.7 130 09:25 05.04.2020
5280 Clear 9 1015 66 10000 5.7 120 07:58 05.04.2020
5281 Clear 10 1015 62 10000 4.6 140 04:56 05.04.2020
5282 Clear 11 1015 66 10000 4.6 130 03:35 05.04.2020
5283 Clear 12 1015 62 10000 5.1 130 02:56 05.04.2020
5284 Clear 12 1015 54 10000 5.1 140 01:52 05.04.2020
5285 Clear 13 1015 50 10000 5.1 140 01:33 05.04.2020
5286 Clear 13 1015 47 10000 4.1 140 00:48 05.04.2020
5287 Clear 12 1015 47 10000 4.1 130 00:22 05.04.2020
5288 Clear 12 1015 47 10000 4.1 130 00:22 05.04.2020
5289 Clear 13 1015 47 10000 3.6 120 23:57 04.04.2020
5290 Clear 13 1015 44 10000 4.1 110 23:38 04.04.2020
5291 Clear 13 1015 44 10000 4.1 110 23:20 04.04.2020
5292 Clear 14 1015 44 10000 4.1 100 22:56 04.04.2020
5293 Clear 14 1015 41 10000 4.1 110 22:37 04.04.2020
5294 Clear 15 1015 41 10000 4.1 110 22:19 04.04.2020
5295 Clear 15 1015 36 10000 3.6 110 21:55 04.04.2020
5296 Clear 16 1015 34 10000 3.6 110 21:36 04.04.2020
5297 Clear 16 1015 34 10000 3.6 110 21:18 04.04.2020
5298 Clear 19 1014 30 10000 4.6 120 20:42 04.04.2020
5299 Clear 19 1014 30 10000 4.6 120 20:23 04.04.2020
5300 Clear 20 1014 62 10000 5.1 110 19:59 04.04.2020
5301 Clear 21 1014 63 10000 5.7 110 19:38 04.04.2020
5302 Clear 21 1014 63 10000 5.1 100 19:19 04.04.2020
5303 Clear 21 1014 62 10000 5.1 100 18:57 04.04.2020
5304 Clear 22 1014 26 10000 5.1 90 18:38 04.04.2020
5305 Clear 22 1014 28 10000 5.1 110 18:19 04.04.2020
5306 Clear 23 1014 28 10000 5.1 110 17:56 04.04.2020
5307 Clear 22 1015 28 10000 4.6 100 17:38 04.04.2020
5308 Clear 22 1015 28 10000 4.6 100 17:18 04.04.2020
5309 Clear 22 1015 32 10000 4.1 120 16:42 04.04.2020
5310 Clear 22 1015 32 10000 4.1 120 16:42 04.04.2020
5311 Clear 22 1015 32 10000 4.1 120 16:22 04.04.2020
5312 Clear 21 1016 37 10000 4.1 110 15:56 04.04.2020
5313 Clear 21 1016 40 10000 4.1 90 15:38 04.04.2020
5314 Clear 21 1016 39 10000 4.1 110 15:19 04.04.2020
5315 Clear 20 1016 39 10000 4.6 120 14:43 04.04.2020
5316 Clear 19 1017 39 10000 5.1 110 14:23 04.04.2020
5317 Clear 19 1017 42 10000 5.1 120 13:56 04.04.2020
5318 Clear 19 1017 42 10000 5.1 120 13:38 04.04.2020
5319 Clear 18 1017 42 10000 5.1 120 13:19 04.04.2020
5320 Clear 17 1017 48 10000 4.1 110 12:45 04.04.2020
5321 Clear 17 1017 48 10000 4.1 110 12:27 04.04.2020
5322 Clear 14 1018 50 10000 3.6 120 11:59 04.04.2020
5323 Clear 14 1018 54 10000 3.6 120 11:39 04.04.2020
5324 Clear 13 1018 54 10000 3.6 120 11:21 04.04.2020
5325 Clear 11 1017 62 10000 3.1 120 10:56 04.04.2020
5326 Clear 11 1018 66 10000 3.6 110 10:38 04.04.2020
5327 Clear 10 1018 66 10000 3.6 110 10:19 04.04.2020
5328 Clear 8 1017 75 10000 2.6 90 09:55 04.04.2020
5329 Clear 7 1017 75 10000 2.6 90 09:37 04.04.2020
5330 Clear 7 1017 75 10000 2.6 90 09:37 04.04.2020
5331 Clear 7 1017 75 10000 2.6 90 09:18 04.04.2020
5332 Clear 4 1017 100 10000 1.5 70 08:42 04.04.2020
5333 Clear 4 1017 100 10000 1.5 70 08:21 04.04.2020
5334 Clear 4 1017 93 10000 1 80 07:47 04.04.2020
5335 Clear 4 1017 93 10000 2.52 95 07:27 04.04.2020
5336 Clear 4 1017 93 10000 2.52 95 06:57 04.04.2020
5337 Clear 5 1018 87 10000 2.1 50 06:20 04.04.2020
5338 Clear 5 1018 87 10000 1.5 40 05:43 04.04.2020
5339 Clear 5 1018 87 10000 1.5 40 05:24 04.04.2020
5340 Fog 5 1018 87 10000 2.1 40 04:33 04.04.2020
5341 Clear 6 1018 87 10000 1.5 20 03:55 04.04.2020
5342 Clear 6 1018 93 10000 1 10 03:22 04.04.2020
5343 Clear 7 1018 87 10000 1 20 02:38 04.04.2020
5344 Clear 7 1018 87 10000 1 20 02:20 04.04.2020
5345 Clear 8 1019 81 10000 1 30 01:26 04.04.2020
5346 Clear 9 1019 76 10000 2.1 40 00:50 04.04.2020
5347 Clear 9 1019 76 10000 2.1 40 00:30 04.04.2020
5348 Clear 9 1019 76 10000 2.1 40 00:30 04.04.2020
5349 Clear 10 1019 76 10000 2.6 30 23:41 03.04.2020
5350 Clear 10 1019 76 10000 2.6 30 23:21 03.04.2020
5351 Clear 10 1019 76 10000 2.6 10 22:59 03.04.2020
5352 Clear 10 1019 71 10000 3.1 360 22:39 03.04.2020
5353 Clear 10 1019 71 10000 3.1 360 22:39 03.04.2020
5354 Clear 11 1019 66 10000 3.1 360 22:19 03.04.2020
5355 Clear 11 1019 66 10000 3.6 10 21:45 03.04.2020
5356 Clear 11 1019 66 10000 3.6 10 21:26 03.04.2020
5357 Clear 12 1018 58 10000 4.1 10 20:57 03.04.2020
5358 Clear 13 1018 54 10000 3.6 10 20:39 03.04.2020
5359 Clear 14 1018 54 10000 3.6 10 20:21 03.04.2020
5360 Clear 14 1018 47 10000 3.6 20 19:58 03.04.2020
5361 Clear 15 1018 44 10000 4.1 20 19:39 03.04.2020
5362 Clear 15 1018 44 10000 4.1 20 19:21 03.04.2020
5363 Clear 15 1018 44 10000 5.1 30 18:59 03.04.2020
5364 Clear 16 1018 44 10000 3.6 20 18:41 03.04.2020
5365 Clear 15 1018 44 10000 3.6 20 18:41 03.04.2020
5366 Clear 16 1018 44 10000 3.6 20 18:23 03.04.2020
5367 Clear 16 1018 41 10000 3.6 60 17:57 03.04.2020
5368 Clear 17 1018 41 10000 4.1 10 17:39 03.04.2020
5369 Clear 17 1018 41 10000 4.1 10 17:18 03.04.2020
5370 Clear 16 1019 41 10000 4.1 0 16:45 03.04.2020
5371 Clear 16 1019 47 10000 4.6 20 16:22 03.04.2020
5372 Clear 16 1019 47 10000 4.6 20 15:58 03.04.2020
5373 Clear 15 1019 44 10000 5.7 40 15:40 03.04.2020
5374 Clear 15 1019 44 10000 5.7 40 15:21 03.04.2020
5375 Clear 16 1018 44 0 0.89 341 14:56 03.04.2020
5376 Clear 14 1020 47 10000 4.1 60 14:38 03.04.2020
5377 Clear 15 1020 47 10000 4.1 60 14:20 03.04.2020
5378 Clear 14 1020 47 10000 4.1 60 13:43 03.04.2020
5379 Clear 14 1020 47 10000 4.1 60 13:25 03.04.2020
5380 Clouds 13 1021 50 10000 4.6 30 12:56 03.04.2020
5381 Clear 13 1021 46 10000 4.1 70 12:37 03.04.2020
5382 Clear 12 1021 53 10000 4.1 60 12:18 03.04.2020
5383 Clear 12 1021 53 10000 4.1 60 12:18 03.04.2020
5384 Clear 12 1021 53 10000 4.1 60 11:54 03.04.2020
5385 Clear 11 1021 53 10000 2.6 30 11:36 03.04.2020
5386 Clear 11 1020 57 10000 2.6 40 11:18 03.04.2020
5387 Clear 10 1020 57 10000 2.6 40 10:54 03.04.2020
5388 Clear 9 1020 61 10000 3.1 30 10:36 03.04.2020
5389 Clear 8 1020 70 10000 3.1 20 10:18 03.04.2020
5390 Clear 6 1020 75 10000 1.5 10 09:40 03.04.2020
5391 Clear 6 1020 75 10000 1.5 10 09:40 03.04.2020
5392 Clear 6 1020 75 10000 1.5 10 09:22 03.04.2020
5393 Clear 4 1020 86 10000 1 320 08:57 03.04.2020
5394 Clear 3 1019 84 10000 0.5 0 08:39 03.04.2020
5395 Clear 3 1019 84 10000 0.5 0 08:20 03.04.2020
5396 Clear 3 1019 84 10000 1 330 07:50 03.04.2020
5397 Clear 3 1019 84 10000 1 330 07:31 03.04.2020
5398 Clear 3 1018 84 10000 1 340 06:49 03.04.2020
5399 Clear 3 1018 84 10000 1 340 06:24 03.04.2020
5400 Clear 4 1018 82 10000 1.5 340 05:40 03.04.2020
5401 Clear 6 1018 70 10000 2.1 350 03:45 03.04.2020
5402 Clear 7 1018 70 10000 2.6 360 02:56 03.04.2020
5403 Clear 7 1018 65 10000 3.1 360 02:28 03.04.2020
5404 Clear 8 1018 65 10000 3.1 340 01:23 03.04.2020
5405 Clear 9 1017 66 10000 2.6 330 00:40 03.04.2020
5406 Clear 9 1017 66 10000 3.1 340 00:20 03.04.2020
5407 Clear 10 1017 57 10000 3.1 340 23:42 02.04.2020
5408 Clear 10 1017 57 10000 3.1 340 23:23 02.04.2020
5409 Clear 10 1017 57 10000 3.6 340 22:58 02.04.2020
5410 Clear 11 1016 53 10000 3.6 350 22:39 02.04.2020
5411 Clear 11 1016 74 10000 3.1 340 22:20 02.04.2020
5412 Clear 12 1015 37 10000 4.1 350 21:39 02.04.2020
5413 Clouds 13 1015 35 10000 4.1 350 21:20 02.04.2020
5414 Clouds 13 1015 35 10000 4.1 350 20:58 02.04.2020
5415 Clouds 14 1015 33 10000 5.1 360 20:40 02.04.2020
5416 Clouds 15 1015 33 10000 5.1 360 20:21 02.04.2020
5417 Clouds 16 1014 44 10000 5.7 10 19:44 02.04.2020
5418 Clouds 16 1014 44 10000 5.7 10 19:21 02.04.2020
5419 Clouds 16 1014 47 10000 5.1 360 19:00 02.04.2020
5420 Clouds 16 1014 51 10000 4.6 10 18:41 02.04.2020
5421 Clouds 17 1014 48 10000 2.6 0 18:20 02.04.2020
5422 Clouds 17 1014 48 10000 2.6 0 17:57 02.04.2020
5423 Clouds 17 1014 45 10000 2.6 360 17:39 02.04.2020
5424 Clouds 17 1014 45 10000 2.6 360 17:20 02.04.2020
5425 Clouds 16 1014 48 10000 1.5 0 16:55 02.04.2020
5426 Clouds 18 1014 42 10000 1.5 10 16:37 02.04.2020
5427 Clouds 18 1014 42 10000 1.5 10 16:19 02.04.2020
5428 Clouds 18 1014 45 10000 1 0 15:45 02.04.2020
5429 Clouds 17 1014 48 10000 1 0 15:22 02.04.2020
5430 Clouds 17 1014 48 10000 1 0 14:59 02.04.2020
5431 Clouds 16 1015 51 10000 2.1 100 14:40 02.04.2020
5432 Clouds 16 1015 51 10000 2.1 100 14:20 02.04.2020
5433 Clouds 16 1015 51 10000 1 0 13:57 02.04.2020
5434 Clouds 16 1015 54 10000 2.1 120 13:38 02.04.2020
5435 Clouds 16 1015 54 10000 2.1 120 13:38 02.04.2020
5436 Clouds 16 1015 54 10000 2.1 120 13:20 02.04.2020
5437 Clouds 15 1015 54 10000 1.5 0 12:56 02.04.2020
5438 Clouds 15 1015 58 10000 1 0 12:37 02.04.2020
5439 Clear 14 1015 58 10000 1.5 0 12:19 02.04.2020
5440 Clear 14 1015 58 10000 1.5 0 11:56 02.04.2020
5441 Clear 13 1015 62 10000 1.5 0 11:37 02.04.2020
5442 Clear 13 1015 62 10000 1.5 0 11:37 02.04.2020
5443 Clear 12 1015 62 10000 1.5 0 11:18 02.04.2020
5444 Clear 11 1015 66 10000 1.5 50 10:54 02.04.2020
5445 Clear 10 1015 71 10000 2.1 40 10:36 02.04.2020
5446 Clear 10 1015 76 10000 1 40 10:18 02.04.2020
5447 Clear 8 1015 87 10000 0.5 0 09:43 02.04.2020
5448 Clouds 7 1015 87 10000 0.5 0 09:24 02.04.2020
5449 Clouds 6 1014 93 10000 1 110 08:58 02.04.2020
5450 Fog 6 1014 93 10000 0.5 120 08:40 02.04.2020
5451 Fog 5 1014 93 10000 0.5 120 08:20 02.04.2020
5452 Clouds 6 1014 93 10000 0.47 101 07:43 02.04.2020
5453 Clouds 6 1014 93 10000 0.47 101 07:20 02.04.2020
5454 Clouds 7 1014 87 10000 1 310 06:57 02.04.2020
5455 Clouds 7 1014 87 10000 1 310 06:21 02.04.2020
5456 Clouds 8 1014 75 10000 2.6 170 05:42 02.04.2020
5457 Clouds 10 1014 76 10000 3.6 150 03:24 02.04.2020
5458 Clouds 11 1014 66 10000 2.1 180 01:31 02.04.2020
5459 Clouds 12 1014 54 10000 2.6 60 00:42 02.04.2020
5460 Clouds 13 1014 54 10000 2.6 60 00:24 02.04.2020
5461 Clouds 13 1014 62 10000 2.6 30 23:41 01.04.2020
5462 Clouds 13 1014 62 10000 2.6 30 23:20 01.04.2020
5463 Clouds 13 1014 76 10000 1.63 70 22:58 01.04.2020
5464 Clouds 13 1014 71 10000 0.5 320 22:39 01.04.2020
5465 Clouds 13 1014 71 10000 0.5 320 22:39 01.04.2020
5466 Clouds 13 1013 66 10000 1 340 22:21 01.04.2020
5467 Clouds 14 1013 62 10000 1 300 21:42 01.04.2020
5468 Clouds 14 1013 62 10000 1 300 21:42 01.04.2020
5469 Clouds 15 1013 62 10000 1 300 21:22 01.04.2020
5470 Rain 15 1013 62 10000 1 300 21:22 01.04.2020
5471 Rain 15 1013 62 10000 1 300 21:22 01.04.2020
5472 Clouds 16 1013 55 10000 1 190 20:58 01.04.2020
5473 Clouds 16 1013 55 10000 1.5 150 20:40 01.04.2020
5474 Clouds 16 1013 55 10000 1.5 150 20:21 01.04.2020
5475 Clouds 17 1013 51 10000 2.6 140 20:00 01.04.2020
5476 Clouds 17 1013 48 10000 3.1 140 19:41 01.04.2020
5477 Clouds 18 1013 48 10000 3.1 140 19:20 01.04.2020
5478 Clouds 18 1013 51 10000 3.6 100 18:44 01.04.2020
5479 Clouds 18 1013 51 10000 3.6 100 18:26 01.04.2020
5480 Clouds 18 1013 51 10000 3.6 130 17:58 01.04.2020
5481 Clouds 18 1013 51 10000 4.1 90 17:38 01.04.2020
5482 Clouds 17 1014 51 10000 3.6 130 17:20 01.04.2020
5483 Clouds 18 1014 51 10000 3.6 130 16:59 01.04.2020
5484 Clouds 17 1014 55 10000 3.6 120 16:39 01.04.2020
5485 Clouds 17 1014 55 10000 3.6 120 16:21 01.04.2020
5486 Clouds 17 1014 48 10000 5.1 130 15:57 01.04.2020
5487 Clouds 17 1014 55 10000 5.1 120 15:38 01.04.2020
5488 Clouds 18 1014 55 10000 5.7 120 15:19 01.04.2020
5489 Clouds 17 1014 55 10000 5.7 120 14:55 01.04.2020
5490 Clouds 17 1014 55 10000 5.7 120 14:55 01.04.2020
5491 Clouds 17 1014 51 10000 5.1 140 14:37 01.04.2020
5492 Clouds 17 1015 59 10000 5.1 130 14:19 01.04.2020
5493 Clouds 17 1015 59 10000 5.1 130 13:56 01.04.2020
5494 Clouds 17 1015 55 10000 6.2 120 13:37 01.04.2020
5495 Clouds 17 1015 59 10000 6.2 110 13:18 01.04.2020
5496 Clouds 16 1015 62 10000 6.7 120 12:42 01.04.2020
5497 Clouds 15 1015 62 10000 6.7 120 12:24 01.04.2020
5498 Clouds 14 1015 62 10000 5.7 110 11:59 01.04.2020
5499 Clouds 14 1015 62 10000 5.7 100 11:39 01.04.2020
5500 Clouds 14 1015 62 10000 5.7 100 11:20 01.04.2020
5501 Clouds 13 1015 62 10000 5.7 100 10:56 01.04.2020
5502 Clouds 12 1015 62 10000 4.6 90 10:37 01.04.2020
5503 Clouds 11 1015 66 10000 4.6 80 10:18 01.04.2020
5504 Clouds 10 1015 66 10000 3.6 70 09:40 01.04.2020
5505 Clouds 10 1015 66 10000 3.6 70 09:40 01.04.2020
5506 Clouds 10 1015 66 10000 3.6 70 09:21 01.04.2020
5507 Clouds 9 1015 66 10000 3.6 80 08:57 01.04.2020
5508 Clouds 8 1015 70 10000 3.6 70 08:38 01.04.2020
5509 Clouds 8 1015 70 10000 2.6 80 08:18 01.04.2020
5510 Clouds 7 1015 70 10000 2.1 70 07:41 01.04.2020
5511 Clouds 7 1015 70 10000 3.1 50 07:19 01.04.2020
5512 Clouds 7 1015 65 10000 3.6 40 06:47 01.04.2020
5513 Clouds 7 1015 65 10000 2.1 60 06:21 01.04.2020
5514 Clouds 7 1015 65 10000 2.6 60 05:50 01.04.2020
5515 Clouds 7 1015 89 10000 2.6 30 04:29 01.04.2020
5516 Clouds 7 1015 56 10000 1.5 60 03:21 01.04.2020
5517 Clouds 8 1015 49 10000 2.6 50 02:41 01.04.2020
5518 Clouds 9 1015 45 10000 2.6 60 01:53 01.04.2020
5519 Clouds 9 1015 45 10000 3.1 50 01:27 01.04.2020
5520 Clouds 10 1015 43 10000 3.1 50 00:47 01.04.2020
5521 Clouds 10 1015 43 10000 3.1 50 00:23 01.04.2020
5522 Clouds 10 1015 43 10000 4.1 40 23:59 31.03.2020
5523 Clouds 11 1015 43 10000 4.1 40 23:40 31.03.2020
5524 Clouds 11 1015 43 10000 4.1 40 23:21 31.03.2020
5525 Clouds 12 1015 60 10000 2.6 30 22:41 31.03.2020
5526 Clouds 12 1015 60 10000 3.6 40 22:21 31.03.2020
5527 Clouds 12 1015 60 10000 3.6 40 21:58 31.03.2020
5528 Clouds 12 1015 47 10000 3.6 30 21:40 31.03.2020
5529 Clouds 13 1015 47 10000 3.6 30 21:21 31.03.2020
5530 Clouds 13 1015 47 10000 2.6 40 20:57 31.03.2020
5531 Clouds 13 1015 47 10000 2.6 40 20:57 31.03.2020
5532 Clouds 13 1015 47 10000 2.6 40 20:37 31.03.2020
5533 Clouds 15 1014 41 10000 4.1 70 20:19 31.03.2020
5534 Clouds 15 1014 41 10000 4.1 70 19:56 31.03.2020
5535 Clouds 15 1014 41 10000 4.1 60 19:38 31.03.2020
5536 Clouds 15 1015 44 10000 4.6 80 19:19 31.03.2020
5537 Clouds 16 1015 44 10000 4.1 70 18:44 31.03.2020
5538 Clouds 16 1015 44 10000 4.1 70 18:20 31.03.2020
5539 Clouds 16 1015 44 10000 4.1 70 17:57 31.03.2020
5540 Clouds 16 1015 44 10000 5.7 50 17:39 31.03.2020
5541 Clouds 16 1015 44 10000 4.6 60 17:21 31.03.2020
5542 Clouds 16 1015 44 10000 4.6 60 16:56 31.03.2020
5543 Clouds 16 1015 44 10000 5.7 60 16:36 31.03.2020
5544 Clouds 15 1015 44 10000 5.7 60 16:18 31.03.2020
5545 Clouds 15 1015 50 10000 5.7 60 15:54 31.03.2020
5546 Clouds 14 1015 47 10000 5.7 50 15:36 31.03.2020
5547 Clouds 13 1015 47 10000 5.7 50 15:18 31.03.2020
5548 Clouds 13 1016 53 10000 6.2 40 14:41 31.03.2020
5549 Clouds 12 1016 53 10000 6.2 40 14:22 31.03.2020
5550 Clouds 12 1016 53 10000 5.7 60 13:58 31.03.2020
5551 Clouds 11 1017 53 10000 4.1 70 13:39 31.03.2020
5552 Clouds 11 1017 57 10000 5.1 50 13:19 31.03.2020
5553 Clouds 10 1017 57 10000 4.6 50 12:44 31.03.2020
5554 Clouds 8 1017 65 10000 4.1 60 12:20 31.03.2020
5555 Clouds 8 1017 65 10000 4.1 60 11:56 31.03.2020
5556 Clouds 8 1017 61 10000 4.6 60 11:37 31.03.2020
5557 Clouds 8 1017 61 10000 4.6 60 11:18 31.03.2020
5558 Clouds 6 1018 70 10000 4.1 50 10:55 31.03.2020
5559 Clouds 6 1018 70 10000 4.1 50 10:55 31.03.2020
5560 Clouds 5 1017 75 10000 4.6 50 10:37 31.03.2020
5561 Clouds 5 1017 75 10000 4.6 50 10:18 31.03.2020
5562 Clouds 4 1017 80 10000 3.1 50 10:18 31.03.2020
5563 Clouds 4 1017 80 10000 2.6 30 09:43 31.03.2020
5564 Clouds 4 1017 80 10000 2.6 30 09:25 31.03.2020
5565 Clouds 3 1017 86 10000 3.1 40 08:58 31.03.2020
5566 Clouds 2 1017 93 10000 2.6 50 08:39 31.03.2020
5567 Clouds 2 1017 93 10000 2.6 50 08:20 31.03.2020
5568 Clouds 2 1017 93 10000 2.6 30 07:56 31.03.2020
5569 Clouds 2 1017 93 10000 1.5 30 07:38 31.03.2020
5570 Clouds 2 1017 100 6000 1 30 07:19 31.03.2020
5571 Mist 2 1017 100 4100 2.94 39 06:47 31.03.2020
5572 Mist 2 1017 100 4100 2.94 39 06:23 31.03.2020
5573 Mist 2 1017 93 4900 1.92 53 05:40 31.03.2020
5574 Fog 2 1018 100 1000 1.92 53 03:43 31.03.2020
5575 Fog 2 1018 100 1800 1 0 02:25 31.03.2020
5576 Fog 2 1018 100 1800 2.1 20 01:46 31.03.2020
5577 Fog 2 1018 93 1200 1.02 90 00:51 31.03.2020
5578 Mist 3 1018 100 4300 1 60 00:25 31.03.2020
5579 Mist 3 1018 100 4300 1 60 23:58 30.03.2020
5580 Clouds 3 1018 93 8000 1.5 50 23:38 30.03.2020
5581 Clouds 3 1018 93 8000 1.5 50 23:18 30.03.2020
5582 Clouds 4 1019 93 10000 1 40 22:55 30.03.2020
5583 Clouds 4 1019 93 10000 1.5 40 22:36 30.03.2020
5584 Clouds 4 1019 93 10000 1.5 40 22:18 30.03.2020
5585 Clouds 4 1018 93 10000 3.6 50 21:55 30.03.2020
5586 Clouds 4 1018 93 10000 2.6 60 21:36 30.03.2020
5587 Clouds 4 1018 93 10000 2.6 60 21:18 30.03.2020
5588 Clouds 5 1018 93 10000 4.1 50 20:42 30.03.2020
5589 Clouds 5 1018 93 10000 4.1 50 20:24 30.03.2020
5590 Clouds 5 1018 93 10000 4.1 50 20:24 30.03.2020
5591 Clouds 5 1018 93 10000 4.1 50 20:24 30.03.2020
5592 Clouds 4 1018 86 10000 4.6 40 19:59 30.03.2020
5593 Rain 4 1018 86 10000 5.1 50 19:40 30.03.2020
5594 Rain 4 1018 86 10000 5.1 50 19:21 30.03.2020
5595 Rain 5 1018 86 10000 5.7 40 18:56 30.03.2020
5596 Rain 5 1018 86 10000 6.2 40 18:38 30.03.2020
5597 Rain 5 1018 86 10000 6.2 40 18:38 30.03.2020
5598 Rain 4 1018 86 10000 5.1 30 18:19 30.03.2020
5599 Rain 5 1018 86 10000 5.1 30 17:56 30.03.2020
5600 Rain 5 1018 86 10000 5.1 30 17:56 30.03.2020
5601 Rain 5 1018 86 10000 7.2 40 17:37 30.03.2020
5602 Rain 4 1018 86 10000 7.2 30 17:18 30.03.2020
5603 Rain 4 1018 86 10000 7.2 30 16:54 30.03.2020
5604 Rain 4 1019 93 9000 5.1 20 16:36 30.03.2020
5605 Rain 4 1019 93 9000 5.1 20 16:18 30.03.2020
5606 Rain 4 1019 93 10000 5.7 20 15:41 30.03.2020
5607 Rain 4 1019 93 10000 5.7 20 15:22 30.03.2020
5608 Rain 4 1019 93 8000 5.1 20 14:59 30.03.2020
5609 Rain 3 1020 100 10000 5.7 20 14:38 30.03.2020
5610 Rain 3 1020 100 10000 5.7 20 14:19 30.03.2020
5611 Rain 3 1020 100 7000 6.2 10 13:58 30.03.2020
5612 Rain 3 1020 93 5000 6.7 10 13:39 30.03.2020
5613 Rain 3 1020 93 5000 6.7 10 13:20 30.03.2020
5614 Snow 3 1020 93 4700 7.7 10 12:45 30.03.2020
5615 Snow 3 1020 93 4700 7.7 10 12:22 30.03.2020
5616 Snow 3 1021 93 4700 8.2 10 11:59 30.03.2020
5617 Snow 3 1021 93 4700 8.2 10 11:59 30.03.2020
5618 Rain 3 1021 93 6000 6.7 10 11:41 30.03.2020
5619 Rain 3 1021 93 6000 6.7 10 11:22 30.03.2020
5620 Rain 2 1021 93 6000 8.2 10 10:55 30.03.2020
5621 Snow 2 1021 93 10000 6.7 10 10:37 30.03.2020
5622 Snow 2 1021 93 10000 6.7 10 10:18 30.03.2020
5623 Rain 3 1021 86 10000 6.7 20 09:40 30.03.2020
5624 Rain 3 1021 86 10000 6.7 20 09:20 30.03.2020
5625 Rain 3 1021 86 10000 6.7 20 09:20 30.03.2020
5626 Snow 2 1021 93 10000 4.6 10 08:57 30.03.2020
5627 Snow 3 1021 82 3400 2.1 350 08:38 30.03.2020
5628 Snow 3 1021 82 3400 2.1 350 08:19 30.03.2020
5629 Snow 3 1021 93 6000 4.6 350 07:43 30.03.2020
5630 Snow 3 1021 82 9000 6.7 360 07:21 30.03.2020
5631 Clouds 4 1021 82 10000 6.7 350 06:43 30.03.2020
5632 Rain 4 1021 69 10000 7.7 360 06:25 30.03.2020
5633 Rain 4 1022 69 10000 7.7 10 05:43 30.03.2020
5634 Clouds 5 1022 56 10000 7.2 360 04:29 30.03.2020
5635 Clouds 5 1022 56 10000 6.7 360 03:54 30.03.2020
5636 Clouds 6 1023 48 10000 7.7 20 02:44 30.03.2020
5637 Clouds 6 1023 45 10000 7.7 10 01:55 30.03.2020
5638 Clouds 6 1023 48 10000 6.2 20 00:57 30.03.2020
5639 Clouds 6 1023 48 10000 5.7 10 00:27 30.03.2020
5640 Rain 7 1023 45 10000 6.2 10 23:55 29.03.2020
5641 Rain 7 1023 45 10000 7.2 20 23:36 29.03.2020
5642 Rain 7 1023 45 10000 6.2 20 23:18 29.03.2020
5643 Rain 7 1023 45 10000 6.7 20 22:40 29.03.2020
5644 Rain 7 1023 45 10000 6.7 30 22:20 29.03.2020
5645 Rain 7 1023 45 10000 6.7 30 21:59 29.03.2020
5646 Rain 8 1023 52 10000 5.7 30 21:37 29.03.2020
5647 Rain 8 1023 52 10000 5.7 30 21:19 29.03.2020
5648 Rain 7 1022 70 10000 7.7 50 20:55 29.03.2020
5649 Rain 7 1022 70 10000 7.7 50 20:37 29.03.2020
5650 Rain 8 1022 52 10000 9.8 30 20:18 29.03.2020
5651 Rain 8 1022 52 10000 9.8 30 20:18 29.03.2020
5652 Rain 8 1022 52 10000 9.8 30 19:55 29.03.2020
5653 Rain 8 1022 52 10000 9.8 30 19:55 29.03.2020
5654 Rain 8 1022 52 10000 7.2 40 19:37 29.03.2020
5655 Rain 8 1022 52 10000 8.7 40 19:18 29.03.2020
5656 Clouds 8 1022 52 10000 10.3 30 18:55 29.03.2020
5657 Clouds 8 1022 52 10000 10.3 30 18:37 29.03.2020
5658 Clouds 8 1022 79 10000 9.3 30 18:18 29.03.2020
5659 Clouds 9 1022 79 10000 9.8 30 17:42 29.03.2020
5660 Clouds 10 1021 57 10000 8.7 360 17:24 29.03.2020
5661 Clouds 10 1022 57 10000 10.3 20 16:59 29.03.2020
5662 Clouds 10 1021 57 10000 8.2 20 16:41 29.03.2020
5663 Clouds 10 1021 57 10000 8.2 20 16:21 29.03.2020
5664 Clouds 11 1022 53 10000 8.7 30 15:59 29.03.2020
5665 Clouds 11 1022 53 10000 8.7 30 15:59 29.03.2020
5666 Clouds 11 1021 57 10000 8.2 30 15:40 29.03.2020
5667 Clouds 12 1022 62 10000 7.7 30 15:21 29.03.2020
5668 Clouds 12 1022 62 10000 7.7 30 14:57 29.03.2020
5669 Clouds 12 1022 66 10000 8.2 20 14:37 29.03.2020
5670 Clouds 12 1022 66 10000 7.7 30 14:19 29.03.2020
5671 Clouds 12 1022 62 10000 8.2 20 13:55 29.03.2020
5672 Clouds 12 1022 62 10000 8.2 20 13:37 29.03.2020
5673 Clouds 11 1022 66 10000 7.2 40 13:18 29.03.2020
5674 Clouds 11 1022 66 10000 7.2 40 12:54 29.03.2020
5675 Clouds 11 1022 66 10000 8.7 20 12:54 29.03.2020
5676 Clouds 11 1022 66 10000 8.7 20 12:36 29.03.2020
5677 Clouds 11 1022 66 10000 8.7 20 12:36 29.03.2020
5678 Clouds 11 1022 66 10000 7.7 30 12:18 29.03.2020
5679 Clouds 11 1022 66 10000 7.7 30 12:18 29.03.2020
5680 Clouds 10 1022 70 10000 7.7 20 11:38 29.03.2020
5681 Clouds 10 1022 70 10000 7.7 20 11:20 29.03.2020
5682 Clouds 9 1021 70 9000 5.1 20 10:40 29.03.2020
5683 Clouds 9 1021 70 9000 5.1 20 10:21 29.03.2020
5684 Clouds 8 1021 81 6000 4.6 20 09:57 29.03.2020
5685 Mist 7 1021 87 4500 3.1 360 09:38 29.03.2020
5686 Mist 7 1021 87 4500 3.1 360 09:18 29.03.2020
5687 Mist 7 1021 87 4500 3.1 360 09:18 29.03.2020
5688 Mist 6 1020 93 3500 2.6 360 08:45 29.03.2020
5689 Mist 6 1020 93 3500 2.6 360 08:26 29.03.2020
5690 Mist 6 1020 93 4800 2.1 350 07:48 29.03.2020
5691 Mist 6 1020 93 4800 1.5 340 07:23 29.03.2020
5692 Mist 5 1020 93 4300 1 0 06:40 29.03.2020
5693 Fog 6 1020 93 2600 1 270 04:56 29.03.2020
5694 Fog 6 1020 93 3700 1 290 03:41 29.03.2020
5695 Fog 6 1020 93 3700 1 290 03:20 29.03.2020
5696 Mist 7 1020 87 4700 1 310 01:43 29.03.2020
5697 Mist 7 1020 87 4700 1 310 01:22 29.03.2020
5698 Clear 8 1020 81 6000 1.5 240 00:45 29.03.2020
5699 Clear 8 1020 81 6000 1.5 330 00:27 29.03.2020
5700 Clear 9 1020 76 6000 2.6 320 23:41 28.03.2020
5701 Clear 9 1020 71 7000 2.6 330 23:22 28.03.2020
5702 Clear 9 1020 76 8000 2.6 320 22:46 28.03.2020
5703 Clear 10 1020 76 8000 2.6 320 22:25 28.03.2020
5704 Clear 10 1020 71 9000 2.1 310 21:59 28.03.2020
5705 Clear 10 1020 66 10000 2.6 310 21:40 28.03.2020
5706 Clear 10 1020 66 10000 2.6 310 21:21 28.03.2020
5707 Clear 11 1020 62 10000 3.1 310 20:57 28.03.2020
5708 Clear 11 1019 58 10000 4.1 310 20:38 28.03.2020
5709 Clouds 13 1019 54 10000 4.1 310 20:20 28.03.2020
5710 Clouds 13 1019 54 10000 4.1 310 19:55 28.03.2020
5711 Clouds 14 1019 54 10000 4.6 310 19:36 28.03.2020
5712 Clouds 14 1018 51 10000 5.7 300 19:18 28.03.2020
5713 Clouds 16 1018 42 10000 6.2 300 18:42 28.03.2020
5714 Clouds 16 1018 39 10000 3.1 350 18:20 28.03.2020
5715 Clouds 17 1018 36 10000 2.6 20 17:43 28.03.2020
5716 Clouds 17 1018 36 10000 2.6 20 17:24 28.03.2020
5717 Clouds 18 1018 34 10000 3.1 310 16:59 28.03.2020
5718 Clouds 18 1018 34 10000 2.1 0 16:39 28.03.2020
5719 Clouds 17 1018 34 10000 2.1 0 16:18 28.03.2020
5720 Clouds 18 1018 34 10000 2.6 40 15:41 28.03.2020
5721 Clouds 18 1018 34 10000 2.6 40 15:21 28.03.2020
5722 Clouds 18 1018 36 10000 1.5 40 14:59 28.03.2020
5723 Clouds 17 1019 36 10000 3.6 10 14:40 28.03.2020
5724 Clouds 17 1019 36 10000 3.6 10 14:21 28.03.2020
5725 Clouds 17 1019 38 10000 2.6 0 13:43 28.03.2020
5726 Clouds 17 1019 38 10000 2.6 0 13:23 28.03.2020
5727 Clouds 16 1019 41 10000 4.1 20 12:41 28.03.2020
5728 Clouds 15 1020 44 10000 2.1 40 12:23 28.03.2020
5729 Clouds 15 1020 44 10000 2.1 40 11:55 28.03.2020
5730 Clouds 14 1020 50 10000 0.5 0 11:37 28.03.2020
5731 Clouds 13 1019 50 10000 0.5 0 11:18 28.03.2020
5732 Clouds 12 1019 66 10000 1.5 30 10:39 28.03.2020
5733 Clouds 11 1019 66 10000 1.5 30 10:20 28.03.2020
5734 Clouds 9 1019 70 10000 2.6 40 09:43 28.03.2020
5735 Clouds 8 1019 70 10000 2.6 40 09:24 28.03.2020
5736 Clouds 7 1019 75 10000 1.77 8 08:58 28.03.2020
5737 Clouds 6 1018 86 10000 1 320 08:40 28.03.2020
5738 Clouds 5 1018 86 10000 1 320 08:21 28.03.2020
5739 Clouds 3 1018 93 9000 0.5 0 07:44 28.03.2020
5740 Clouds 3 1018 93 9000 0.5 0 07:26 28.03.2020
5741 Clouds 3 1018 86 10000 1 300 06:36 28.03.2020
5742 Clouds 4 1018 86 10000 1 290 05:43 28.03.2020
5743 Clouds 4 1017 86 10000 1 270 05:21 28.03.2020
5744 Clouds 4 1017 86 10000 1 270 04:41 28.03.2020
5745 Clouds 4 1017 87 10000 1 280 03:54 28.03.2020
5746 Clouds 5 1018 80 10000 1 280 02:21 28.03.2020
5747 Clouds 6 1018 75 10000 1.77 23 01:30 28.03.2020
5748 Clouds 6 1018 70 10000 1 310 00:59 28.03.2020
5749 Clouds 7 1018 65 10000 1.5 280 00:37 28.03.2020
5750 Clouds 7 1018 86 10000 1.5 330 23:57 27.03.2020
5751 Clouds 7 1017 86 10000 1.5 330 23:39 27.03.2020
5752 Clouds 7 1017 86 10000 1.5 330 23:21 27.03.2020
5753 Clouds 8 1017 80 10000 1 270 22:56 27.03.2020
5754 Clouds 9 1017 80 10000 1 0 22:37 27.03.2020
5755 Clouds 9 1017 80 10000 2.1 330 22:19 27.03.2020
5756 Clouds 10 1017 80 10000 2.6 340 21:43 27.03.2020
5757 Clouds 10 1017 80 10000 2.6 340 21:24 27.03.2020
5758 Clouds 10 1017 80 10000 2.1 330 20:58 27.03.2020
5759 Clouds 11 1016 80 10000 2.6 360 20:40 27.03.2020
5760 Clouds 11 1016 63 10000 2.6 360 20:20 27.03.2020
5761 Clouds 12 1016 63 10000 3.1 360 19:57 27.03.2020
5762 Clouds 13 1016 35 10000 4.1 360 19:38 27.03.2020
5763 Clouds 13 1016 35 10000 4.1 360 19:20 27.03.2020
5764 Clouds 14 1015 33 10000 4.6 360 18:44 27.03.2020
5765 Clouds 14 1015 33 10000 4.6 360 18:44 27.03.2020
5766 Clouds 15 1015 33 10000 4.6 360 18:23 27.03.2020
5767 Clouds 15 1015 63 10000 4.1 30 17:57 27.03.2020
5768 Clouds 16 1015 63 10000 3.6 10 17:38 27.03.2020
5769 Clouds 16 1015 43 10000 3.1 40 17:19 27.03.2020
5770 Clouds 16 1015 31 10000 2.1 30 16:44 27.03.2020
5771 Clouds 16 1015 31 10000 2.1 30 16:25 27.03.2020
5772 Clouds 16 1015 31 10000 2.1 30 16:25 27.03.2020
5773 Clouds 16 1015 31 10000 3.6 30 15:46 27.03.2020
5774 Clouds 17 1015 31 10000 3.6 30 15:27 27.03.2020
5775 Clouds 16 1015 43 10000 2.6 30 14:59 27.03.2020
5776 Clouds 16 1016 43 10000 4.1 20 14:40 27.03.2020
5777 Clouds 16 1016 43 10000 4.1 20 14:22 27.03.2020
5778 Clouds 16 1016 40 10000 3.1 0 13:54 27.03.2020
5779 Clouds 15 1016 33 10000 3.6 40 13:36 27.03.2020
5780 Clouds 15 1016 33 10000 3.1 40 13:18 27.03.2020
5781 Clouds 14 1017 43 10000 2.6 50 12:42 27.03.2020
5782 Clouds 13 1017 46 10000 2.6 10 12:19 27.03.2020
5783 Clouds 13 1017 53 10000 1.5 40 11:44 27.03.2020
5784 Clouds 11 1017 61 10000 2.1 40 11:25 27.03.2020
5785 Clouds 11 1017 61 10000 2.1 40 10:59 27.03.2020
5786 Clouds 10 1017 66 10000 1.5 0 10:41 27.03.2020
5787 Clouds 10 1017 66 10000 1.5 0 10:22 27.03.2020
5788 Clouds 8 1017 81 10000 2.1 40 09:58 27.03.2020
5789 Clouds 8 1017 81 9000 1.5 20 09:39 27.03.2020
5790 Clouds 6 1016 86 8000 1.68 27 09:21 27.03.2020
5791 Clouds 6 1016 86 8000 1.68 27 08:58 27.03.2020
5792 Clouds 4 1016 93 7000 1.68 27 08:39 27.03.2020
5793 Clouds 3 1016 93 7000 0.66 69 08:21 27.03.2020
5794 Clouds 2 1016 93 7000 0.66 69 07:53 27.03.2020
5795 Mist 1 1016 86 5000 0.66 69 07:28 27.03.2020
5796 Clouds 1 1016 100 7000 1 0 06:57 27.03.2020
5797 Clouds 1 1015 82 9000 0.66 69 06:37 27.03.2020
5798 Clouds 2 1015 82 8000 0.5 0 05:37 27.03.2020
5799 Clear 3 1015 81 10000 1.22 85 02:49 27.03.2020
5800 Clear 4 1015 78 10000 1 10 01:36 27.03.2020
5801 Clear 4 1015 76 10000 1.74 65 00:53 27.03.2020
5802 Clear 4 1015 76 10000 1.74 65 00:32 27.03.2020
5803 Clear 6 1015 76 10000 1.5 120 23:44 26.03.2020
5804 Clear 7 1015 76 10000 2.6 30 23:23 26.03.2020
5805 Clear 7 1015 71 10000 2.6 30 22:59 26.03.2020
5806 Clear 7 1015 71 10000 1.5 60 22:39 26.03.2020
5807 Clear 8 1015 71 10000 1.5 60 22:20 26.03.2020
5808 Clear 8 1014 71 10000 3.1 30 21:57 26.03.2020
5809 Clear 9 1014 49 10000 2.6 20 21:39 26.03.2020
5810 Clear 9 1014 49 10000 2.6 20 21:20 26.03.2020
5811 Clear 9 1014 49 10000 3.1 20 20:58 26.03.2020
5812 Clear 10 1013 46 10000 3.6 10 20:38 26.03.2020
5813 Clear 10 1013 46 10000 3.6 10 20:38 26.03.2020
5814 Clouds 10 1013 46 10000 3.6 10 20:20 26.03.2020
5815 Clouds 10 1013 46 10000 3.6 10 20:20 26.03.2020
5816 Clouds 11 1013 46 10000 3.6 350 19:56 26.03.2020
5817 Clouds 11 1012 40 10000 4.1 360 19:37 26.03.2020
5818 Clouds 11 1012 40 10000 4.1 360 19:19 26.03.2020
5819 Clouds 12 1012 34 10000 4.6 20 18:55 26.03.2020
5820 Clouds 12 1012 34 10000 4.6 20 18:36 26.03.2020
5821 Clouds 12 1012 34 10000 5.1 30 18:18 26.03.2020
5822 Clouds 13 1011 37 10000 5.7 20 17:42 26.03.2020
5823 Clouds 13 1011 34 10000 4.6 350 17:18 26.03.2020
5824 Clouds 14 1011 32 10000 4.1 20 16:45 26.03.2020
5825 Clouds 14 1011 32 10000 4.1 20 16:45 26.03.2020
5826 Clouds 14 1011 32 10000 4.1 20 16:26 26.03.2020
5827 Clouds 14 1011 35 10000 4.1 10 15:58 26.03.2020
5828 Clouds 14 1011 32 10000 4.6 360 15:39 26.03.2020
5829 Clouds 14 1011 32 10000 4.1 30 15:21 26.03.2020
5830 Clouds 14 1011 32 10000 4.1 30 14:57 26.03.2020
5831 Clouds 14 1012 32 10000 2.1 0 14:38 26.03.2020
5832 Clear 14 1012 35 10000 3.1 0 14:18 26.03.2020
5833 Clear 13 1012 37 10000 4.1 40 13:41 26.03.2020
5834 Clear 13 1012 37 10000 4.1 40 13:23 26.03.2020
5835 Clear 12 1012 43 10000 4.1 40 12:56 26.03.2020
5836 Clear 12 1012 43 10000 3.1 60 12:37 26.03.2020
5837 Clear 11 1012 46 10000 3.1 50 12:18 26.03.2020
5838 Clear 11 1012 49 10000 3.1 50 11:44 26.03.2020
5839 Clear 8 1013 52 10000 4.1 40 11:20 26.03.2020
5840 Clear 8 1013 52 10000 4.1 40 10:55 26.03.2020
5841 Clear 9 1012 49 10000 4.6 20 10:36 26.03.2020
5842 Clear 8 1012 49 10000 4.6 20 10:18 26.03.2020
5843 Clear 6 1012 52 10000 5.1 20 09:42 26.03.2020
5844 Clear 6 1012 52 10000 5.1 20 09:19 26.03.2020
5845 Clear 5 1012 60 10000 5.1 20 08:44 26.03.2020
5846 Clear 4 1012 60 10000 5.1 20 08:26 26.03.2020
5847 Clear 3 1012 64 10000 4.1 360 07:57 26.03.2020
5848 Clear 3 1012 64 10000 3.6 10 07:38 26.03.2020
5849 Clear 3 1012 64 10000 3.1 360 07:20 26.03.2020
5850 Clear 3 1012 64 10000 3.6 360 06:38 26.03.2020
5851 Clear 4 1011 64 10000 3.6 350 05:51 26.03.2020
5852 Clear 6 1012 60 10000 2.6 360 03:47 26.03.2020
5853 Clear 6 1012 60 10000 2.6 360 03:26 26.03.2020
5854 Clear 6 1012 60 10000 2.1 350 02:52 26.03.2020
5855 Clear 8 1013 61 10000 4.1 360 01:19 26.03.2020
5856 Clear 8 1013 61 10000 3.6 350 00:33 26.03.2020
5857 Clear 9 1014 57 10000 4.1 360 23:44 25.03.2020
5858 Clear 9 1014 57 10000 4.1 360 23:26 25.03.2020
5859 Clear 10 1014 53 10000 3.1 360 22:55 25.03.2020
5860 Clear 10 1014 53 10000 3.1 360 22:37 25.03.2020
5861 Clear 10 1014 53 10000 3.1 360 22:18 25.03.2020
5862 Clear 12 1014 50 10000 4.1 360 21:43 25.03.2020
5863 Clear 12 1014 50 10000 4.1 360 21:24 25.03.2020
5864 Clear 12 1014 54 10000 4.1 10 20:59 25.03.2020
5865 Clear 13 1013 43 10000 4.6 360 20:39 25.03.2020
5866 Clear 13 1013 61 10000 3.1 20 20:19 25.03.2020
5867 Clear 14 1013 61 10000 3.1 20 19:55 25.03.2020
5868 Clear 14 1013 38 10000 3.1 40 19:37 25.03.2020
5869 Clear 15 1013 36 10000 3.6 40 19:18 25.03.2020
5870 Clear 16 1013 36 10000 3.6 60 18:43 25.03.2020
5871 Clear 16 1013 36 10000 3.6 60 18:25 25.03.2020
5872 Clear 16 1013 36 10000 3.6 80 17:58 25.03.2020
5873 Clear 17 1014 61 10000 4.1 40 17:40 25.03.2020
5874 Clear 17 1014 61 10000 4.1 40 17:22 25.03.2020
5875 Clear 18 1014 33 10000 3.6 60 16:58 25.03.2020
5876 Clear 16 1014 38 10000 4.1 70 16:39 25.03.2020
5877 Clear 16 1014 38 10000 4.1 70 16:20 25.03.2020
5878 Clear 17 1014 38 10000 5.1 60 15:42 25.03.2020
5879 Clear 17 1014 41 10000 4.6 90 15:21 25.03.2020
5880 Clear 17 1014 41 10000 4.6 90 14:57 25.03.2020
5881 Clear 17 1014 41 10000 4.6 90 14:57 25.03.2020
5882 Clear 17 1015 41 10000 5.7 70 14:39 25.03.2020
5883 Clear 17 1015 41 10000 5.7 70 14:39 25.03.2020
5884 Clouds 15 1015 44 10000 6.2 80 14:19 25.03.2020
5885 Clouds 15 1015 44 10000 6.7 90 13:44 25.03.2020
5886 Clouds 16 1015 44 10000 6.7 90 13:24 25.03.2020
5887 Clouds 16 1015 44 10000 6.7 90 13:24 25.03.2020
5888 Clouds 15 1015 47 10000 5.7 100 12:39 25.03.2020
5889 Clouds 15 1015 47 10000 5.7 100 12:39 25.03.2020
5890 Clouds 14 1016 50 10000 5.7 70 12:21 25.03.2020
5891 Clear 14 1016 50 10000 5.7 70 11:57 25.03.2020
5892 Clear 13 1016 54 10000 6.2 90 11:39 25.03.2020
5893 Clouds 12 1016 57 10000 4.6 90 11:20 25.03.2020
5894 Clouds 12 1016 57 10000 4.6 90 11:20 25.03.2020
5895 Clouds 12 1016 57 10000 4.6 90 10:58 25.03.2020
5896 Clouds 11 1016 61 10000 6.2 90 10:39 25.03.2020
5897 Clouds 11 1016 61 10000 6.2 90 10:39 25.03.2020
5898 Clouds 11 1016 61 10000 6.2 90 10:39 25.03.2020
5899 Clouds 10 1016 66 10000 5.1 100 10:18 25.03.2020
5900 Clouds 9 1016 70 10000 4.6 90 09:43 25.03.2020
5901 Clouds 9 1016 70 10000 4.6 90 09:25 25.03.2020
5902 Clouds 7 1016 70 10000 4.1 80 08:58 25.03.2020
5903 Clouds 7 1016 81 10000 4.1 70 08:40 25.03.2020
5904 Clear 5 1016 87 10000 3.1 80 08:20 25.03.2020
5905 Clear 5 1016 87 10000 3.1 80 07:55 25.03.2020
5906 Clear 5 1016 81 10000 3.6 80 07:36 25.03.2020
5907 Clear 5 1016 81 10000 3.6 80 07:18 25.03.2020
5908 Clear 5 1015 87 10000 3.6 90 06:41 25.03.2020
5909 Clear 5 1015 87 10000 3.6 90 06:22 25.03.2020
5910 Clear 4 1015 86 10000 1.5 50 05:47 25.03.2020
5911 Clear 5 1016 56 10000 3.1 40 04:42 25.03.2020
5912 Clear 6 1016 52 10000 2.6 40 03:57 25.03.2020
5913 Clear 7 1016 56 10000 3.1 30 03:30 25.03.2020
5914 Clear 8 1017 57 10000 2.1 40 01:39 25.03.2020
5915 Clear 10 1017 53 10000 2.6 20 00:50 25.03.2020
5916 Clear 11 1017 54 10000 3.1 30 00:26 25.03.2020
5917 Clear 11 1017 54 10000 3.1 30 23:53 24.03.2020
5918 Clear 11 1017 54 10000 3.6 30 23:28 24.03.2020
5919 Clear 12 1017 54 10000 3.6 30 22:58 24.03.2020
5920 Clear 12 1017 54 10000 3.6 30 22:38 24.03.2020
5921 Clear 13 1017 54 10000 3.6 30 22:19 24.03.2020
5922 Clear 12 1017 58 10000 4.1 30 22:19 24.03.2020
5923 Clear 12 1017 66 10000 1 0 21:57 24.03.2020
5924 Clear 13 1017 66 10000 1 0 21:39 24.03.2020
5925 Clear 13 1017 62 10000 1.5 340 21:18 24.03.2020
5926 Clear 14 1017 58 10000 2.6 360 20:57 24.03.2020
5927 Clear 14 1017 58 10000 2.6 360 20:39 24.03.2020
5928 Clear 15 1017 58 10000 2.6 360 20:21 24.03.2020
5929 Clear 17 1017 48 10000 2.6 40 19:45 24.03.2020
5930 Clear 17 1017 42 10000 3.1 50 19:19 24.03.2020
5931 Clear 18 1017 42 10000 3.1 50 18:56 24.03.2020
5932 Clear 18 1017 42 10000 3.1 50 18:56 24.03.2020
5933 Clear 19 1017 42 10000 3.1 70 18:37 24.03.2020
5934 Clear 19 1017 42 10000 3.1 70 18:37 24.03.2020
5935 Clear 19 1017 39 10000 3.1 70 18:19 24.03.2020
5936 Clear 19 1017 42 10000 3.6 80 17:42 24.03.2020
5937 Clear 19 1017 42 10000 3.6 80 17:42 24.03.2020
5938 Clear 20 1018 39 10000 3.6 70 17:24 24.03.2020
5939 Clear 19 1018 39 10000 3.6 70 16:59 24.03.2020
5940 Clear 19 1018 45 10000 4.1 50 16:41 24.03.2020
5941 Clear 20 1018 45 10000 4.1 50 16:23 24.03.2020
5942 Clear 20 1018 45 10000 4.1 50 16:23 24.03.2020
5943 Clear 20 1018 42 10000 5.1 50 15:59 24.03.2020
5944 Clear 19 1019 45 10000 3.6 40 15:39 24.03.2020
5945 Clear 19 1019 45 10000 3.6 40 15:21 24.03.2020
5946 Clouds 19 1019 48 10000 3.1 40 15:21 24.03.2020
5947 Clouds 19 1019 48 10000 3.1 40 15:21 24.03.2020
5948 Clear 20 1019 45 10000 1.5 0 14:43 24.03.2020
5949 Clear 20 1019 45 10000 1.5 0 14:21 24.03.2020
5950 Clear 19 1020 52 10000 2.1 80 13:55 24.03.2020
5951 Clear 19 1020 52 10000 2.1 80 13:36 24.03.2020
5952 Clear 19 1020 52 10000 2.1 0 13:18 24.03.2020
5953 Clear 19 1020 52 10000 1.5 0 12:41 24.03.2020
5954 Clear 19 1020 52 10000 1.5 0 12:41 24.03.2020
5955 Clear 18 1020 55 10000 1.5 0 12:22 24.03.2020
5956 Clear 17 1021 63 10000 1.5 0 11:41 24.03.2020
5957 Clear 15 1021 62 10000 2.6 160 11:20 24.03.2020
5958 Clear 15 1021 62 10000 2.6 160 10:55 24.03.2020
5959 Clear 14 1021 71 10000 3.1 160 10:36 24.03.2020
5960 Clear 13 1021 76 10000 4.1 160 10:18 24.03.2020
5961 Clear 12 1021 76 10000 4.1 150 09:43 24.03.2020
5962 Clear 12 1021 76 10000 4.1 150 09:24 24.03.2020
5963 Clear 9 1021 93 10000 1.5 110 08:40 24.03.2020
5964 Clear 8 1021 93 10000 1.5 110 08:21 24.03.2020
5965 Clear 7 1021 93 10000 1.5 120 07:52 24.03.2020
5966 Clear 7 1020 93 10000 1.5 100 07:25 24.03.2020
5967 Clear 7 1020 93 10000 1.5 100 06:59 24.03.2020
5968 Clear 7 1020 93 10000 2.1 100 06:34 24.03.2020
5969 Fog 7 1020 93 8000 1 160 05:30 24.03.2020
5970 Clear 7 1020 93 6000 2.57 116 04:49 24.03.2020
5971 Clear 8 1020 93 7000 1 120 03:19 24.03.2020
5972 Fog 9 1020 93 5000 1 110 01:59 24.03.2020
5973 Clear 10 1021 93 7000 1 100 00:52 24.03.2020
5974 Clear 10 1021 93 8000 2.1 50 00:26 24.03.2020
5975 Clear 10 1020 93 10000 1 340 23:50 23.03.2020
5976 Clear 11 1020 93 10000 1 340 23:29 23.03.2020
5977 Rain 11 1020 87 10000 1 40 22:59 23.03.2020
5978 Rain 11 1020 87 10000 2.6 20 22:40 23.03.2020
5979 Rain 12 1020 82 10000 1.5 30 22:22 23.03.2020
5980 Rain 12 1020 76 10000 3.1 10 21:44 23.03.2020
5981 Rain 12 1020 76 10000 3.1 10 21:21 23.03.2020
5982 Rain 12 1020 76 10000 1 0 20:59 23.03.2020
5983 Rain 13 1019 71 10000 1 50 20:41 23.03.2020
5984 Clear 14 1019 67 10000 1.5 110 20:23 23.03.2020
5985 Clouds 15 1019 63 10000 1.5 130 19:55 23.03.2020
5986 Clouds 15 1019 63 10000 1.5 130 19:37 23.03.2020
5987 Clouds 16 1019 55 10000 2.6 130 19:18 23.03.2020
5988 Clouds 17 1019 52 10000 2.6 120 18:43 23.03.2020
5989 Clouds 17 1018 52 10000 3.6 120 18:24 23.03.2020
5990 Clouds 17 1018 52 10000 3.6 120 17:57 23.03.2020
5991 Clouds 17 1018 52 10000 3.6 120 17:57 23.03.2020
5992 Clouds 17 1019 55 10000 3.6 110 17:38 23.03.2020
5993 Clear 18 1019 55 10000 4.1 100 17:19 23.03.2020
5994 Clouds 18 1019 55 10000 5.1 110 16:43 23.03.2020
5995 Clouds 18 1019 55 10000 5.1 110 16:25 23.03.2020
5996 Clouds 19 1019 55 10000 3.6 70 15:44 23.03.2020
5997 Clouds 19 1019 59 10000 2.1 120 15:21 23.03.2020
5998 Clouds 18 1019 59 10000 2.1 120 14:57 23.03.2020
5999 Clouds 18 1019 59 10000 3.1 140 14:37 23.03.2020
6000 Clouds 18 1019 63 10000 2.1 140 14:18 23.03.2020
6001 Clouds 18 1019 63 10000 2.1 140 14:18 23.03.2020
6002 Clouds 17 1019 63 10000 1.5 0 13:41 23.03.2020
6003 Clouds 17 1019 63 10000 1.5 0 13:41 23.03.2020
6004 Clouds 17 1019 63 10000 1.5 0 13:22 23.03.2020
6005 Clouds 17 1019 67 10000 1.5 200 12:58 23.03.2020
6006 Clouds 17 1019 67 10000 2.6 190 12:40 23.03.2020
6007 Clouds 16 1019 67 10000 2.6 210 12:22 23.03.2020
6008 Clouds 16 1019 72 10000 2.1 170 11:42 23.03.2020
6009 Clouds 14 1019 82 10000 2.6 180 11:22 23.03.2020
6010 Clouds 13 1019 87 10000 2.6 160 10:58 23.03.2020
6011 Clouds 14 1019 87 10000 2.6 160 10:40 23.03.2020
6012 Clouds 13 1019 93 8000 2.6 150 10:21 23.03.2020
6013 Clouds 12 1019 93 8000 2.6 150 09:57 23.03.2020
6014 Mist 12 1019 100 5000 3.1 150 09:39 23.03.2020
6015 Clouds 11 1019 100 6000 3.1 140 09:18 23.03.2020
6016 Mist 10 1018 100 4600 3.6 130 08:37 23.03.2020
6017 Mist 10 1018 100 4600 3.6 130 08:19 23.03.2020
6018 Mist 9 1018 100 3700 3.1 130 07:50 23.03.2020
6019 Mist 9 1018 100 3700 3.1 130 07:50 23.03.2020
6020 Mist 9 1018 100 4000 2.1 120 07:31 23.03.2020
6021 Mist 9 1017 100 2900 2.1 130 06:53 23.03.2020
6022 Fog 9 1017 100 900 2.1 150 06:25 23.03.2020
6023 Fog 9 1016 100 550 3.1 150 05:42 23.03.2020
6024 Clouds 9 1016 93 10000 1 0 03:45 23.03.2020
6025 Clouds 9 1016 93 10000 3.55 117 02:40 23.03.2020
6026 Clouds 9 1015 93 10000 1.5 50 01:34 23.03.2020
6027 Clear 10 1015 87 10000 1.5 10 00:43 23.03.2020
6028 Clear 10 1015 87 10000 1.5 360 23:53 22.03.2020
6029 Clear 11 1015 81 10000 1.5 30 23:27 22.03.2020
6030 Clear 12 1015 76 10000 1 30 22:56 22.03.2020
6031 Clear 12 1015 71 10000 2.1 20 22:36 22.03.2020
6032 Clear 12 1015 71 10000 3.1 20 22:18 22.03.2020
6033 Clear 13 1014 67 10000 3.1 30 21:39 22.03.2020
6034 Clear 14 1014 67 10000 2.6 30 21:20 22.03.2020
6035 Clear 14 1014 59 10000 2.6 30 20:56 22.03.2020
6036 Clear 14 1014 59 10000 2.6 30 20:38 22.03.2020
6037 Clear 15 1014 55 10000 2.6 30 20:20 22.03.2020
6038 Clear 15 1014 55 10000 2.6 30 19:55 22.03.2020
6039 Clear 16 1013 48 10000 2.1 60 19:37 22.03.2020
6040 Clear 17 1013 42 10000 1.5 0 19:18 22.03.2020
6041 Clear 17 1013 42 10000 1.5 0 19:18 22.03.2020
6042 Clear 18 1013 42 10000 1.5 0 18:55 22.03.2020
6043 Clear 18 1013 45 10000 1.5 120 18:37 22.03.2020
6044 Clear 19 1013 42 10000 1 0 18:18 22.03.2020
6045 Clear 19 1013 42 10000 1 0 17:55 22.03.2020
6046 Clear 19 1013 40 10000 3.1 90 17:36 22.03.2020
6047 Clear 19 1013 42 10000 3.6 70 17:18 22.03.2020
6048 Clear 19 1012 42 10000 3.6 60 16:41 22.03.2020
6049 Clear 19 1012 42 10000 3.6 60 16:22 22.03.2020
6050 Clear 19 1013 45 10000 2.6 120 15:58 22.03.2020
6051 Clear 19 1013 45 10000 2.6 50 15:39 22.03.2020
6052 Clear 19 1013 42 10000 2.1 80 14:47 22.03.2020
6053 Clouds 19 1013 48 10000 2.6 80 14:20 22.03.2020
6054 Clouds 19 1013 48 10000 2.6 80 13:58 22.03.2020
6055 Clouds 19 1013 45 10000 2.6 90 13:40 22.03.2020
6056 Clouds 18 1014 51 10000 2.6 50 13:19 22.03.2020
6057 Clouds 18 1014 55 10000 2.1 0 12:44 22.03.2020
6058 Clouds 17 1014 55 10000 1.5 110 12:21 22.03.2020
6059 Clouds 16 1014 55 10000 1.5 110 11:57 22.03.2020
6060 Clouds 16 1014 63 10000 1.5 100 11:39 22.03.2020
6061 Clouds 14 1014 67 10000 2.1 40 11:20 22.03.2020
6062 Clouds 14 1014 71 10000 2.1 30 10:43 22.03.2020
6063 Clouds 14 1014 71 10000 2.1 30 10:24 22.03.2020
6064 Clouds 12 1013 81 9000 2.1 70 09:49 22.03.2020
6065 Clouds 11 1013 87 6000 2.6 40 09:30 22.03.2020
6066 Mist 9 1013 87 3600 3.1 30 08:55 22.03.2020
6067 Fog 8 1013 100 2600 1.5 0 08:37 22.03.2020
6068 Fog 7 1013 100 2600 1.5 0 08:18 22.03.2020
6069 Fog 6 1013 100 2200 1.5 40 07:49 22.03.2020
6070 Fog 7 1012 93 3500 1 0 07:18 22.03.2020
6071 Mist 7 1012 93 3800 1.5 30 05:55 22.03.2020
6072 Fog 8 1012 93 4200 1 20 04:58 22.03.2020
6073 Mist 9 1012 87 5000 1.5 50 02:43 22.03.2020
6074 Mist 10 1012 87 5000 2.6 50 01:21 22.03.2020
6075 Clouds 10 1012 87 6000 2.6 30 00:36 22.03.2020
6076 Clouds 11 1012 87 6000 2.6 50 23:58 21.03.2020
6077 Clouds 11 1012 81 7000 3.1 40 23:40 21.03.2020
6078 Clouds 11 1012 81 7000 3.1 30 23:18 21.03.2020
6079 Clouds 12 1011 76 8000 3.6 30 22:38 21.03.2020
6080 Clouds 12 1011 76 8000 3.6 30 22:38 21.03.2020
6081 Clouds 13 1011 67 10000 4.1 40 22:20 21.03.2020
6082 Clouds 13 1011 67 10000 4.1 40 21:59 21.03.2020
6083 Clouds 13 1011 62 10000 4.1 30 21:39 21.03.2020
6084 Clouds 14 1011 62 10000 4.1 30 21:21 21.03.2020
6085 Clouds 14 1011 54 10000 1 160 20:46 21.03.2020
6086 Clouds 14 1011 54 10000 1 160 20:23 21.03.2020
6087 Clouds 15 1010 48 10000 1 130 19:57 21.03.2020
6088 Clouds 16 1010 42 10000 2.1 130 19:39 21.03.2020
6089 Clouds 17 1010 39 10000 3.1 130 19:20 21.03.2020
6090 Clouds 18 1010 39 10000 3.1 130 18:54 21.03.2020
6091 Clouds 19 1010 39 10000 4.6 100 18:36 21.03.2020
6092 Clouds 20 1010 37 10000 3.6 80 18:18 21.03.2020
6093 Clouds 20 1010 40 10000 4.1 80 17:42 21.03.2020
6094 Clouds 20 1010 37 10000 4.6 100 17:23 21.03.2020
6095 Clouds 20 1010 40 10000 3.6 120 16:43 21.03.2020
6096 Clouds 20 1010 40 10000 3.6 120 16:43 21.03.2020
6097 Clouds 20 1010 40 10000 3.6 120 16:24 21.03.2020
6098 Clouds 20 1010 40 10000 3.6 120 16:24 21.03.2020
6099 Clouds 19 1011 45 10000 3.6 120 15:59 21.03.2020
6100 Clouds 20 1011 45 10000 4.6 110 15:41 21.03.2020
6101 Clouds 20 1011 45 10000 4.6 110 15:23 21.03.2020
6102 Clouds 19 1011 45 10000 5.1 120 14:58 21.03.2020
6103 Clouds 19 1012 45 10000 5.7 110 14:40 21.03.2020
6104 Clouds 19 1012 45 10000 5.7 110 14:20 21.03.2020
6105 Clouds 18 1012 45 10000 4.1 110 13:58 21.03.2020
6106 Clouds 18 1012 51 10000 5.1 110 13:39 21.03.2020
6107 Clouds 17 1013 51 10000 6.2 110 13:21 21.03.2020
6108 Clouds 17 1013 51 10000 6.2 110 12:57 21.03.2020
6109 Clouds 17 1013 51 10000 6.2 110 12:37 21.03.2020
6110 Clouds 16 1013 54 10000 6.7 100 12:19 21.03.2020
6111 Clouds 16 1013 54 10000 6.7 100 11:55 21.03.2020
6112 Clouds 15 1013 58 10000 6.7 130 11:37 21.03.2020
6113 Clouds 14 1013 58 10000 7.2 120 11:18 21.03.2020
6114 Clouds 14 1014 54 10000 5.7 130 10:56 21.03.2020
6115 Clouds 14 1014 54 10000 5.7 130 10:38 21.03.2020
6116 Clouds 13 1014 54 10000 5.7 130 10:19 21.03.2020
6117 Clouds 13 1014 54 10000 5.7 130 10:19 21.03.2020
6118 Clouds 11 1014 58 10000 4.1 100 09:41 21.03.2020
6119 Clouds 11 1014 58 10000 4.1 100 09:23 21.03.2020
6120 Clouds 9 1014 61 10000 3.1 100 08:59 21.03.2020
6121 Clouds 8 1014 70 10000 2.1 100 08:41 21.03.2020
6122 Clouds 8 1014 70 10000 2.1 100 08:22 21.03.2020
6123 Clouds 7 1014 70 10000 2.6 90 07:42 21.03.2020
6124 Clouds 7 1014 70 10000 2.6 90 07:23 21.03.2020
6125 Clouds 8 1014 66 10000 2.6 100 06:45 21.03.2020
6126 Clouds 8 1014 66 10000 2.6 100 06:26 21.03.2020
6127 Clouds 8 1014 61 10000 3.1 90 05:46 21.03.2020
6128 Clouds 8 1014 61 10000 2.1 90 04:42 21.03.2020
6129 Clouds 9 1015 66 10000 2.6 110 02:40 21.03.2020
6130 Clouds 10 1015 62 10000 3.6 120 02:18 21.03.2020
6131 Clouds 10 1015 62 10000 3.6 120 01:31 21.03.2020
6132 Clear 11 1015 54 10000 2.6 140 00:47 21.03.2020
6133 Clear 11 1015 54 10000 2.6 140 00:24 21.03.2020
6134 Clear 12 1015 54 10000 2.6 120 23:48 20.03.2020
6135 Clear 12 1015 54 10000 2.6 120 23:24 20.03.2020
6136 Clear 12 1015 47 10000 2.6 130 22:55 20.03.2020
6137 Clear 12 1015 47 10000 2.6 130 22:36 20.03.2020
6138 Clear 13 1015 47 10000 2.6 130 22:18 20.03.2020
6139 Clear 13 1015 50 10000 2.6 140 21:54 20.03.2020
6140 Clear 13 1015 44 10000 2.6 110 21:36 20.03.2020
6141 Clear 14 1015 44 10000 2.6 110 21:18 20.03.2020
6142 Clear 15 1015 39 10000 2.6 110 20:41 20.03.2020
6143 Clear 15 1015 39 10000 2.6 110 20:41 20.03.2020
6144 Clouds 15 1015 39 10000 2.6 110 20:21 20.03.2020
6145 Clouds 16 1015 39 10000 3.1 110 19:58 20.03.2020
6146 Clouds 17 1015 39 10000 3.1 120 19:40 20.03.2020
6147 Clouds 18 1014 37 10000 4.6 110 19:18 20.03.2020
6148 Clouds 19 1014 37 10000 4.6 120 18:39 20.03.2020
6149 Clouds 19 1014 37 10000 4.6 120 18:39 20.03.2020
6150 Clouds 19 1014 37 10000 4.6 120 18:39 20.03.2020
6151 Clouds 20 1015 40 10000 4.1 130 18:20 20.03.2020
6152 Clouds 20 1015 40 10000 4.1 130 17:57 20.03.2020
6153 Clouds 20 1015 42 10000 3.6 140 17:39 20.03.2020
6154 Clouds 20 1015 42 10000 4.1 130 17:21 20.03.2020
6155 Clouds 21 1015 48 10000 4.1 130 16:43 20.03.2020
6156 Clouds 20 1015 48 10000 4.1 130 16:22 20.03.2020
6157 Clouds 21 1015 48 10000 4.6 100 15:59 20.03.2020
6158 Clouds 20 1015 45 10000 5.1 120 15:41 20.03.2020
6159 Clouds 20 1015 45 10000 5.1 120 15:21 20.03.2020
6160 Clouds 20 1016 45 10000 6.7 120 14:43 20.03.2020
6161 Clouds 19 1016 45 10000 6.7 120 14:23 20.03.2020
6162 Clouds 19 1016 42 10000 6.7 110 13:55 20.03.2020
6163 Clouds 18 1016 45 10000 6.7 120 13:37 20.03.2020
6164 Clouds 18 1016 45 10000 6.7 120 13:19 20.03.2020
6165 Clouds 17 1017 44 10000 7.7 120 12:39 20.03.2020
6166 Clouds 17 1017 44 10000 7.7 120 12:20 20.03.2020
6167 Clouds 17 1017 44 10000 7.7 120 12:20 20.03.2020
6168 Clouds 17 1017 44 10000 7.7 120 12:20 20.03.2020
6169 Clouds 16 1017 44 10000 6.7 120 11:54 20.03.2020
6170 Clouds 16 1017 44 10000 6.7 120 11:36 20.03.2020
6171 Clear 14 1017 47 10000 5.7 110 11:18 20.03.2020
6172 Clear 14 1017 50 10000 4.6 110 10:41 20.03.2020
6173 -273 0 0 0 0 0 10:20 20.03.2020
6174 Clear 12 1017 58 10000 3.6 90 09:47 20.03.2020
6175 Clear 11 1017 58 10000 3.6 90 09:22 20.03.2020
6176 Clear 10 1017 71 10000 1.5 70 08:59 20.03.2020
6177 Clear 9 1017 76 10000 1.5 50 08:40 20.03.2020
6178 Clouds 9 1017 76 10000 1.5 50 08:20 20.03.2020
6179 Clouds 8 1017 66 10000 2.1 90 07:48 20.03.2020
6180 Clouds 8 1017 66 10000 2.1 90 07:26 20.03.2020
6181 Clouds 8 1017 66 10000 2.1 90 06:49 20.03.2020
6182 Clouds 8 1017 66 10000 2.1 100 06:31 20.03.2020
6183 Clouds 9 1017 93 10000 1 70 04:51 20.03.2020
6184 Clouds 9 1017 87 10000 2.1 90 03:20 20.03.2020
6185 Clouds 10 1017 81 10000 3.95 110 01:51 20.03.2020
6186 Clouds 12 1017 71 10000 1.5 100 00:46 20.03.2020
6187 Clouds 12 1017 71 10000 1.5 100 00:26 20.03.2020
6188 Clouds 12 1018 71 10000 2.6 110 23:45 19.03.2020
6189 Clouds 12 1018 71 10000 2.6 110 23:26 19.03.2020
6190 Clouds 12 1018 71 10000 2.6 110 23:26 19.03.2020
6191 Clouds 13 1018 71 10000 2.1 110 22:56 19.03.2020
6192 Clouds 13 1018 76 10000 1.5 90 22:38 19.03.2020
6193 Clouds 14 1018 76 10000 1 110 22:18 19.03.2020
6194 Clouds 13 1018 66 10000 1 140 21:41 19.03.2020
6195 Clouds 14 1018 62 10000 1.5 110 21:20 19.03.2020
6196 Clouds 14 1018 62 10000 1.5 110 20:56 19.03.2020
6197 Clouds 14 1018 62 10000 1.5 110 20:56 19.03.2020
6198 Clouds 15 1018 62 10000 1.5 90 20:38 19.03.2020
6199 Clear 15 1018 62 10000 1.5 90 20:19 19.03.2020
6200 Clear 15 1017 55 10000 2.1 110 19:55 19.03.2020
6201 Clear 16 1017 55 10000 2.1 110 19:37 19.03.2020
6202 Clear 16 1017 55 10000 2.1 110 19:18 19.03.2020
6203 Clear 17 1018 45 10000 2.1 90 18:42 19.03.2020
6204 Clear 18 1018 45 10000 2.1 90 18:22 19.03.2020
6205 Clear 18 1018 45 10000 3.1 110 17:56 19.03.2020
6206 Clear 19 1018 45 10000 3.6 120 17:38 19.03.2020
6207 Clear 19 1018 42 10000 4.1 120 17:18 19.03.2020
6208 Clear 20 1018 42 10000 5.1 120 16:43 19.03.2020
6209 Clear 20 1018 42 10000 5.1 120 16:22 19.03.2020
6210 Clear 20 1019 42 10000 4.6 110 15:44 19.03.2020
6211 Clear 20 1019 42 10000 4.6 110 15:25 19.03.2020
6212 Clear 20 1019 45 10000 4.1 100 14:55 19.03.2020
6213 Clear 20 1019 45 10000 4.1 100 14:37 19.03.2020
6214 Clear 20 1019 45 10000 4.1 100 14:18 19.03.2020
6215 Clear 20 1020 48 10000 3.6 100 13:39 19.03.2020
6216 Clear 20 1020 45 10000 3.6 120 13:19 19.03.2020
6217 Clear 19 1021 48 10000 4.6 140 12:44 19.03.2020
6218 Clear 19 1021 48 10000 4.6 140 12:24 19.03.2020
6219 Clear 17 1021 55 10000 6.2 130 11:59 19.03.2020
6220 Clear 17 1021 55 10000 6.2 130 11:41 19.03.2020
6221 Clear 16 1021 59 10000 5.7 130 11:22 19.03.2020
6222 Clear 15 1021 67 10000 5.7 130 10:44 19.03.2020
6223 Clear 15 1021 67 10000 5.7 130 10:22 19.03.2020
6224 Clear 13 1021 71 10000 5.1 130 09:58 19.03.2020
6225 Clear 12 1021 81 10000 3.1 110 09:40 19.03.2020
6226 Clear 12 1021 81 10000 3.1 110 09:20 19.03.2020
6227 Clear 10 1021 93 10000 3.1 110 08:47 19.03.2020
6228 Clear 9 1021 93 8000 2.1 90 08:23 19.03.2020
6229 Mist 8 1021 100 4600 1.5 90 07:48 19.03.2020
6230 Mist 8 1021 100 4600 1.5 90 07:30 19.03.2020
6231 Fog 8 1021 93 4300 1.5 10 06:51 19.03.2020
6232 Fog 8 1021 100 3000 1 10 06:18 19.03.2020
6233 Fog 9 1021 100 4900 1.84 102 05:23 19.03.2020
6234 Clear 9 1021 100 6000 2.1 110 04:41 19.03.2020
6235 Fog 9 1022 100 7000 1.84 102 03:39 19.03.2020
6236 Fog 10 1023 93 10000 2.06 101 01:45 19.03.2020
6237 Fog 11 1023 93 10000 2.01 100 00:38 19.03.2020
6238 Clear 12 1024 93 10000 2.01 100 23:58 18.03.2020
6239 Clear 12 1024 93 10000 2.01 100 23:39 18.03.2020
6240 Clear 12 1024 87 10000 2.21 64 23:18 18.03.2020
6241 Clear 13 1024 87 10000 1 0 22:42 18.03.2020
6242 Clear 13 1024 87 10000 1 0 22:22 18.03.2020
6243 Clear 13 1024 82 10000 1 0 21:54 18.03.2020
6244 Clear 13 1024 87 10000 0.5 40 21:36 18.03.2020
6245 Clear 14 1024 71 10000 2.21 64 21:18 18.03.2020
6246 Clear 15 1024 72 10000 1 90 20:41 18.03.2020
6247 Clear 15 1024 72 10000 1 90 20:21 18.03.2020
6248 Clear 16 1024 59 10000 1.5 130 19:59 18.03.2020
6249 Clear 17 1024 59 10000 2.1 120 19:40 18.03.2020
6250 Clear 17 1024 59 10000 2.1 120 19:21 18.03.2020
6251 Clear 17 1024 55 10000 2.6 80 19:21 18.03.2020
6252 Clear 18 1024 55 10000 2.6 80 18:55 18.03.2020
6253 Clear 19 1024 52 10000 2.1 80 18:36 18.03.2020
6254 Clear 19 1024 55 10000 3.1 50 18:18 18.03.2020
6255 Clear 20 1024 55 10000 3.1 60 17:41 18.03.2020
6256 Clear 20 1025 55 10000 3.1 20 17:22 18.03.2020
6257 Clear 21 1025 55 10000 3.1 20 16:59 18.03.2020
6258 Clear 21 1025 55 10000 3.6 40 16:40 18.03.2020
6259 Clear 21 1025 55 10000 3.6 40 16:20 18.03.2020
6260 Clear 21 1025 55 10000 2.6 50 15:46 18.03.2020
6261 Clear 21 1025 55 10000 2.6 50 15:27 18.03.2020
6262 Clear 20 1025 59 10000 2.6 40 14:58 18.03.2020
6263 Clear 20 1026 59 10000 1 0 14:40 18.03.2020
6264 Clear 19 1026 59 10000 1 0 14:21 18.03.2020
6265 Clear 19 1027 59 10000 1.5 90 13:40 18.03.2020
6266 Clear 18 1027 63 10000 2.1 90 13:19 18.03.2020
6267 Clear 18 1028 63 10000 3.1 90 12:42 18.03.2020
6268 Clear 18 1028 67 10000 2.6 90 12:21 18.03.2020
6269 Clear 16 1028 67 10000 3.1 120 11:57 18.03.2020
6270 Clear 16 1028 67 10000 3.1 120 11:37 18.03.2020
6271 Clear 15 1028 67 10000 3.1 100 11:18 18.03.2020
6272 Clear 15 1028 67 10000 3.1 100 10:54 18.03.2020
6273 Clear 14 1029 82 10000 3.1 100 10:36 18.03.2020
6274 Clear 14 1029 82 10000 3.1 100 10:36 18.03.2020
6275 Clear 13 1028 87 10000 2.6 110 10:18 18.03.2020
6276 Clear 11 1028 100 10000 2.1 110 09:41 18.03.2020
6277 Clear 11 1028 100 10000 2.1 110 09:22 18.03.2020
6278 Fog 8 1028 100 2100 1 90 08:40 18.03.2020
6279 Fog 8 1028 100 2100 1 90 08:21 18.03.2020
6280 Fog 7 1028 100 350 1 100 07:49 18.03.2020
6281 Fog 6 1029 100 650 1.5 110 07:31 18.03.2020
6282 Fog 7 1029 100 1700 1.5 90 06:55 18.03.2020
6283 Fog 6 1029 100 450 1.81 88 06:37 18.03.2020
6284 Fog 7 1029 93 550 1.81 88 05:37 18.03.2020
6285 Fog 8 1029 93 750 0.5 110 04:32 18.03.2020
6286 Fog 8 1029 100 1700 1 50 03:21 18.03.2020
6287 Fog 8 1029 93 1400 1.99 99 02:35 18.03.2020
6288 Fog 8 1030 100 1700 1.57 93 01:32 18.03.2020
6289 Fog 9 1030 100 1200 1.47 84 00:42 18.03.2020
6290 Fog 9 1031 100 1000 0.5 350 00:21 18.03.2020
6291 Fog 9 1031 100 1000 0.5 350 23:41 17.03.2020
6292 Fog 9 1031 93 750 0.5 300 23:20 17.03.2020
6293 Fog 10 1031 93 900 1.2 352 22:42 17.03.2020
6294 Fog 10 1031 93 10000 1.2 352 22:24 17.03.2020
6295 Fog 11 1031 87 10000 1 20 21:43 17.03.2020
6296 Fog 11 1031 87 10000 1 20 21:23 17.03.2020
6297 Clouds 12 1030 87 10000 1 0 20:57 17.03.2020
6298 Clouds 12 1030 82 10000 1.2 352 20:37 17.03.2020
6299 Clouds 12 1030 82 10000 0.45 106 20:19 17.03.2020
6300 Clouds 14 1030 82 10000 1.5 0 19:41 17.03.2020
6301 Clouds 14 1030 82 10000 1.5 310 19:18 17.03.2020
6302 Clouds 14 1030 82 10000 1.5 310 18:57 17.03.2020
6303 Clouds 15 1029 76 10000 1.5 280 18:39 17.03.2020
6304 Clouds 15 1029 72 10000 2.1 280 18:21 17.03.2020
6305 Clouds 15 1029 72 10000 2.1 280 18:21 17.03.2020
6306 Clouds 15 1029 72 10000 2.1 280 17:55 17.03.2020
6307 Clouds 15 1029 72 10000 1 130 17:36 17.03.2020
6308 Clouds 15 1029 72 10000 1 120 17:18 17.03.2020
6309 Clouds 15 1029 72 10000 1.5 0 16:41 17.03.2020
6310 Clouds 15 1029 72 10000 1.5 0 16:19 17.03.2020
6311 Clouds 15 1029 72 10000 1 0 15:44 17.03.2020
6312 Clouds 15 1029 72 10000 1 0 15:22 17.03.2020
6313 Clouds 15 1029 72 10000 1.5 20 14:44 17.03.2020
6314 Clouds 15 1029 72 10000 1.5 20 14:25 17.03.2020
6315 Clouds 15 1030 71 10000 2.49 147 13:57 17.03.2020
6316 Clouds 15 1030 67 10000 1 0 13:39 17.03.2020
6317 Clouds 15 1030 67 10000 1 0 13:21 17.03.2020
6318 Clouds 15 1030 67 10000 1 0 13:21 17.03.2020
6319 Clouds 15 1030 72 10000 2.6 90 12:43 17.03.2020
6320 Clouds 15 1030 72 10000 2.6 90 12:24 17.03.2020
6321 Clouds 14 1029 76 10000 1.5 0 11:48 17.03.2020
6322 Clouds 14 1029 76 10000 1.5 0 11:29 17.03.2020
6323 Clouds 13 1029 76 10000 2.1 120 10:58 17.03.2020
6324 Clouds 13 1029 82 10000 2.1 100 10:39 17.03.2020
6325 Clouds 12 1029 82 10000 2.1 100 10:21 17.03.2020
6326 Clouds 12 1029 87 10000 2.1 100 09:59 17.03.2020
6327 Clouds 12 1029 87 10000 1.5 90 09:40 17.03.2020
6328 Clouds 11 1029 93 10000 1.5 70 09:19 17.03.2020
6329 Clouds 11 1028 93 10000 2.1 90 08:48 17.03.2020
6330 Clouds 11 1028 93 10000 2.1 90 08:23 17.03.2020
6331 Clouds 11 1028 93 10000 1.5 130 07:50 17.03.2020
6332 Clouds 11 1027 93 10000 1.5 0 07:26 17.03.2020
6333 Clouds 11 1027 93 10000 1.5 0 06:58 17.03.2020
6334 Mist 11 1027 93 5000 1.5 100 06:33 17.03.2020
6335 Rain 11 1027 93 7000 2.1 110 05:49 17.03.2020
6336 Clouds 11 1026 87 10000 1 110 03:43 17.03.2020
6337 Clouds 11 1026 87 10000 1.5 130 02:46 17.03.2020
6338 Clouds 11 1025 87 10000 3.1 120 01:43 17.03.2020
6339 Clouds 11 1025 87 10000 3.1 120 01:24 17.03.2020
6340 Clouds 11 1025 87 10000 3.1 110 00:31 17.03.2020
6341 Clouds 11 1025 93 10000 3.6 110 23:45 16.03.2020
6342 Clouds 12 1024 93 10000 3.1 80 23:25 16.03.2020
6343 Clouds 12 1024 93 10000 2.6 40 22:41 16.03.2020
6344 Clouds 11 1024 93 10000 2.6 40 22:23 16.03.2020
6345 Clouds 12 1024 93 10000 2.1 20 21:57 16.03.2020
6346 Clouds 12 1024 93 10000 2.1 20 21:57 16.03.2020
6347 Clouds 12 1023 93 10000 1.5 10 21:38 16.03.2020
6348 Clouds 12 1023 93 10000 1.5 10 21:20 16.03.2020
6349 Clouds 12 1022 93 10000 2.1 20 20:55 16.03.2020
6350 Clouds 12 1022 93 10000 2.1 20 20:37 16.03.2020
6351 Clouds 12 1022 93 10000 2.6 20 20:18 16.03.2020
6352 Clouds 12 1022 93 10000 2.6 20 20:18 16.03.2020
6353 Clouds 12 1022 93 10000 2.1 10 19:40 16.03.2020
6354 Clouds 12 1021 93 10000 2.1 330 19:20 16.03.2020
6355 Clouds 12 1021 87 10000 1.5 10 18:41 16.03.2020
6356 Clouds 12 1021 93 10000 2.1 360 18:20 16.03.2020
6357 Clouds 12 1021 93 10000 3.1 360 17:47 16.03.2020
6358 Clouds 12 1021 93 10000 3.1 360 17:26 16.03.2020
6359 Clouds 12 1020 87 10000 3.1 360 16:59 16.03.2020
6360 Clouds 12 1020 87 10000 3.1 360 16:41 16.03.2020
6361 Clouds 12 1020 87 10000 3.1 360 16:22 16.03.2020
6362 Clouds 12 1019 87 10000 3.6 360 15:44 16.03.2020
6363 Clouds 12 1019 87 10000 3.6 360 15:25 16.03.2020
6364 Clouds 12 1019 87 10000 3.1 350 14:49 16.03.2020
6365 Clouds 12 1019 93 10000 3.1 350 14:27 16.03.2020
6366 Clouds 12 1019 93 10000 3.1 350 13:55 16.03.2020
6367 Clouds 12 1018 87 10000 3.6 350 13:37 16.03.2020
6368 Clouds 12 1018 93 10000 3.6 20 13:18 16.03.2020
6369 Clouds 11 1018 93 10000 3.6 360 12:42 16.03.2020
6370 Clouds 11 1018 93 10000 3.6 360 12:23 16.03.2020
6371 Drizzle 11 1017 93 10000 4.1 360 11:46 16.03.2020
6372 Drizzle 11 1017 93 10000 4.1 360 11:27 16.03.2020
6373 Rain 11 1017 100 10000 3.6 360 10:55 16.03.2020
6374 Rain 11 1017 100 10000 4.1 360 10:37 16.03.2020
6375 Rain 11 1017 100 10000 4.1 360 10:18 16.03.2020
6376 Clouds 10 1016 93 10000 3.6 320 09:40 16.03.2020
6377 Clouds 10 1016 93 10000 3.6 320 09:20 16.03.2020
6378 Rain 10 1015 100 10000 2.6 330 08:47 16.03.2020
6379 Rain 9 1015 100 10000 2.6 330 08:24 16.03.2020
6380 Rain 9 1014 100 7000 2.1 340 07:45 16.03.2020
6381 Rain 9 1014 100 7000 2.1 340 07:21 16.03.2020
6382 Rain 9 1013 100 10000 3.1 350 06:46 16.03.2020
6383 Rain 9 1013 100 10000 3.1 350 06:23 16.03.2020
6384 Rain 10 1013 100 10000 3.6 10 04:53 16.03.2020
6385 Rain 10 1013 93 6000 4.1 10 01:49 16.03.2020
6386 Rain 10 1013 100 4500 3.1 340 00:48 16.03.2020
6387 Rain 10 1013 100 4500 3.1 340 00:28 16.03.2020
6388 Rain 10 1013 93 5000 3.1 340 23:41 15.03.2020
6389 Rain 11 1013 93 3700 5.1 310 23:19 15.03.2020
6390 Rain 12 1012 81 10000 2.6 310 22:42 15.03.2020
6391 Rain 12 1012 81 10000 2.6 310 22:21 15.03.2020
6392 Rain 13 1011 81 10000 1 0 21:39 15.03.2020
6393 Rain 13 1011 81 10000 1 0 21:21 15.03.2020
6394 Rain 13 1011 71 10000 1 0 20:58 15.03.2020
6395 Rain 13 1011 87 10000 2.1 310 20:40 15.03.2020
6396 Clouds 14 1011 87 10000 2.1 310 20:19 15.03.2020
6397 Clouds 14 1010 67 10000 3.1 10 19:55 15.03.2020
6398 Clouds 14 1010 67 10000 3.1 10 19:55 15.03.2020
6399 Clouds 14 1010 58 10000 3.6 310 19:37 15.03.2020
6400 Clouds 16 1010 51 10000 4.1 300 19:18 15.03.2020
6401 Clouds 17 1010 39 10000 2.1 270 18:42 15.03.2020
6402 Clouds 16 1010 39 10000 2.1 270 18:24 15.03.2020
6403 Clouds 17 1010 37 10000 1 0 17:59 15.03.2020
6404 Clouds 17 1010 37 10000 2.6 250 17:39 15.03.2020
6405 Clouds 19 1010 37 10000 2.6 250 17:20 15.03.2020
6406 Clouds 19 1011 39 10000 4.1 240 16:55 15.03.2020
6407 Clouds 20 1011 39 10000 4.6 260 16:37 15.03.2020
6408 Clouds 21 1011 37 10000 5.1 260 16:18 15.03.2020
6409 Clouds 20 1011 34 10000 5.1 230 15:42 15.03.2020
6410 Clouds 20 1011 34 10000 5.1 230 15:22 15.03.2020
6411 Clouds 20 1011 34 10000 5.1 220 14:47 15.03.2020
6412 Clouds 20 1011 34 10000 5.1 220 14:28 15.03.2020
6413 Clouds 19 1012 34 10000 5.1 210 13:59 15.03.2020
6414 Clouds 19 1012 42 10000 3.6 200 13:39 15.03.2020
6415 Clouds 18 1012 45 10000 4.6 190 13:21 15.03.2020
6416 Clouds 17 1012 51 10000 3.1 150 12:44 15.03.2020
6417 Clouds 17 1012 51 10000 3.1 150 12:26 15.03.2020
6418 Clouds 16 1013 54 10000 3.6 130 11:59 15.03.2020
6419 Clouds 15 1013 58 10000 4.1 140 11:40 15.03.2020
6420 Clouds 13 1013 58 10000 4.1 140 11:22 15.03.2020
6421 Clouds 13 1013 62 10000 4.6 150 10:56 15.03.2020
6422 Clouds 11 1013 71 10000 5.1 140 10:37 15.03.2020
6423 Clouds 11 1013 71 10000 5.1 140 10:19 15.03.2020
6424 Clouds 8 1014 75 10000 4.6 120 09:40 15.03.2020
6425 Clouds 8 1014 75 10000 4.6 120 09:22 15.03.2020
6426 Clouds 5 1014 87 10000 4.1 120 08:44 15.03.2020
6427 Clouds 5 1014 87 10000 4.1 120 08:21 15.03.2020
6428 Clouds 4 1014 93 10000 3.6 120 07:51 15.03.2020
6429 Clouds 3 1014 93 10000 3.6 120 07:31 15.03.2020
6430 Clouds 3 1015 100 10000 3.1 110 06:53 15.03.2020
6431 Clouds 4 1016 93 10000 2.6 120 06:18 15.03.2020
6432 Clear 4 1016 100 9000 2.1 120 05:19 15.03.2020
6433 Clear 4 1017 93 10000 1.5 140 04:43 15.03.2020
6434 Clear 4 1017 93 10000 1.5 140 04:24 15.03.2020
6435 Clear 4 1017 100 9000 1.5 130 03:48 15.03.2020
6436 Clear 5 1019 100 10000 1.5 100 02:38 15.03.2020
6437 Clear 5 1020 93 10000 1 140 01:34 15.03.2020
6438 Fog 6 1020 93 9000 1.5 120 00:46 15.03.2020
6439 Clouds 6 1021 93 10000 1 130 00:24 15.03.2020
6440 Clouds 6 1021 93 10000 1 130 23:55 14.03.2020
6441 Clouds 6 1021 93 10000 0.5 0 23:36 14.03.2020
6442 Fog 7 1022 87 10000 1 180 23:18 14.03.2020
6443 Clouds 7 1022 93 10000 0.5 180 22:41 14.03.2020
6444 Clouds 7 1022 93 10000 0.5 180 22:23 14.03.2020
6445 Clouds 8 1022 87 10000 1 0 21:56 14.03.2020
6446 Clouds 8 1022 87 10000 1 240 21:36 14.03.2020
6447 Clouds 8 1022 87 10000 1 240 21:18 14.03.2020
6448 Clouds 9 1022 81 10000 2.1 240 20:58 14.03.2020
6449 Clouds 10 1022 76 10000 2.1 240 20:40 14.03.2020
6450 Clouds 10 1022 76 10000 2.1 240 20:19 14.03.2020
6451 Clouds 12 1022 71 10000 3.6 270 19:43 14.03.2020
6452 Clouds 12 1022 66 10000 4.1 260 19:25 14.03.2020
6453 Clouds 13 1022 62 10000 2.6 240 18:41 14.03.2020
6454 Clouds 13 1022 62 10000 2.6 240 18:23 14.03.2020
6455 Clouds 13 1022 62 10000 4.1 280 17:56 14.03.2020
6456 Clouds 14 1022 62 10000 3.1 240 17:38 14.03.2020
6457 Clouds 14 1022 62 10000 4.1 260 17:20 14.03.2020
6458 Clouds 14 1022 62 10000 4.1 260 16:40 14.03.2020
6459 Clouds 14 1022 58 10000 5.1 250 16:22 14.03.2020
6460 Clouds 14 1022 58 10000 5.1 250 15:56 14.03.2020
6461 Clouds 14 1023 58 10000 3.6 230 15:26 14.03.2020
6462 Clouds 14 1023 66 10000 4.6 250 14:55 14.03.2020
6463 Clouds 14 1023 66 10000 4.1 230 14:36 14.03.2020
6464 Clouds 14 1024 62 10000 4.6 250 14:18 14.03.2020
6465 Clouds 14 1024 58 10000 4.1 230 13:42 14.03.2020
6466 Clouds 14 1024 66 10000 3.6 220 13:23 14.03.2020
6467 Clouds 13 1024 66 10000 3.1 210 12:47 14.03.2020
6468 Clouds 13 1024 66 10000 3.1 210 12:27 14.03.2020
6469 Clouds 12 1024 71 10000 3.6 210 11:57 14.03.2020
6470 Clouds 11 1024 81 10000 3.1 190 11:38 14.03.2020
6471 Clouds 10 1024 87 10000 2.6 190 11:20 14.03.2020
6472 Clouds 9 1024 87 10000 2.1 180 10:44 14.03.2020
6473 Clouds 8 1024 93 10000 1 0 10:25 14.03.2020
6474 Clouds 8 1024 93 10000 1 0 09:57 14.03.2020
6475 Clouds 7 1024 93 10000 1 0 09:39 14.03.2020
6476 Clouds 7 1024 93 10000 1 0 09:39 14.03.2020
6477 Clouds 7 1024 93 10000 1 0 09:19 14.03.2020
6478 Clouds 6 1023 93 10000 1 150 08:42 14.03.2020
6479 Clouds 5 1023 93 10000 1 150 08:21 14.03.2020
6480 Clouds 4 1023 100 10000 0.99 163 07:39 14.03.2020
6481 Clouds 4 1023 100 10000 0.99 163 07:20 14.03.2020
6482 Clouds 3 1023 100 10000 0.99 163 06:41 14.03.2020
6483 Clouds 3 1023 93 10000 0.99 163 05:47 14.03.2020
6484 Clouds 3 1023 93 10000 0.99 163 05:47 14.03.2020
6485 Clouds 3 1023 93 10000 0.21 160 04:42 14.03.2020
6486 Clouds 3 1023 93 10000 1.5 220 03:24 14.03.2020
6487 Clouds 4 1023 93 10000 1.5 250 02:25 14.03.2020
6488 Clear 5 1024 93 10000 1 270 00:57 14.03.2020
6489 Clear 6 1024 81 10000 0.5 310 23:51 13.03.2020
6490 Clear 6 1024 81 10000 0.5 310 23:30 13.03.2020
6491 Clear 7 1024 81 10000 1.5 330 22:52 13.03.2020
6492 Clear 7 1024 81 10000 1.5 330 22:52 13.03.2020
6493 Clear 7 1024 81 10000 1.5 330 22:26 13.03.2020
6494 Clear 8 1023 81 10000 2.1 320 21:44 13.03.2020
6495 Clear 8 1023 76 10000 3.1 320 21:22 13.03.2020
6496 Clear 9 1023 76 10000 3.1 320 20:59 13.03.2020
6497 Clear 9 1023 66 10000 3.6 310 20:41 13.03.2020
6498 Clouds 9 1023 66 10000 3.6 310 20:21 13.03.2020
6499 Clouds 11 1023 57 10000 3.1 360 19:49 13.03.2020
6500 Clouds 10 1023 57 10000 3.1 360 19:30 13.03.2020
6501 Clouds 13 1023 50 10000 3.6 360 18:51 13.03.2020
6502 Clouds 13 1023 50 10000 3.6 360 18:32 13.03.2020
6503 Clouds 13 1023 44 10000 4.1 360 17:59 13.03.2020
6504 Clouds 13 1023 44 10000 2.6 50 17:41 13.03.2020
6505 Clouds 14 1023 44 10000 3.1 60 17:20 13.03.2020
6506 Clouds 14 1023 44 10000 2.1 10 16:42 13.03.2020
6507 Clouds 14 1023 44 10000 2.1 10 16:24 13.03.2020
6508 Clouds 14 1024 47 10000 3.1 50 15:59 13.03.2020
6509 Clouds 14 1024 44 10000 1 0 15:39 13.03.2020
6510 Clouds 14 1024 47 10000 1.5 0 15:20 13.03.2020
6511 Clouds 14 1025 54 10000 2.6 30 14:43 13.03.2020
6512 Clouds 14 1025 54 10000 2.6 30 14:22 13.03.2020
6513 Clouds 13 1025 50 10000 3.1 30 13:58 13.03.2020
6514 Clouds 13 1025 50 10000 2.1 40 13:39 13.03.2020
6515 Clouds 13 1026 54 10000 3.1 60 13:20 13.03.2020
6516 Clouds 13 1026 54 10000 3.1 60 12:55 13.03.2020
6517 Clouds 13 1026 58 10000 2.6 0 12:36 13.03.2020
6518 Clouds 13 1026 58 10000 1.5 0 12:18 13.03.2020
6519 Clouds 12 1026 62 10000 2.1 80 11:42 13.03.2020
6520 Clouds 11 1026 66 10000 2.1 60 11:24 13.03.2020
6521 Clear 11 1026 71 10000 1.5 70 10:48 13.03.2020
6522 Clear 10 1026 71 10000 1.5 70 10:29 13.03.2020
6523 Clear 9 1026 81 10000 1 0 09:59 13.03.2020
6524 Clear 8 1026 100 10000 1.71 80 09:41 13.03.2020
6525 Clear 7 1026 100 10000 1.71 80 09:22 13.03.2020
6526 Clear 5 1026 100 10000 1.71 80 08:45 13.03.2020
6527 Clear 4 1026 100 10000 1.8 78 08:23 13.03.2020
6528 Clouds 3 1026 93 10000 1 180 07:50 13.03.2020
6529 Clouds 4 1026 93 10000 1.38 36 07:28 13.03.2020
6530 Clouds 4 1025 93 10000 1.38 36 06:53 13.03.2020
6531 Clouds 4 1025 93 10000 1.38 36 06:32 13.03.2020
6532 Clouds 4 1025 93 10000 1 250 05:55 13.03.2020
6533 Clouds 5 1025 93 10000 1.5 250 05:24 13.03.2020
6534 Clouds 6 1025 93 10000 1 280 04:38 13.03.2020
6535 Clouds 6 1025 93 10000 1.5 330 03:42 13.03.2020
6536 Clouds 8 1025 87 10000 2.1 350 01:47 13.03.2020
6537 Clouds 8 1026 87 10000 2.1 330 01:19 13.03.2020
6538 Clouds 9 1026 87 10000 2.1 330 00:53 13.03.2020
6539 Clouds 9 1026 87 10000 1.5 310 00:24 13.03.2020
6540 Clouds 10 1025 81 10000 2.1 330 23:55 12.03.2020
6541 Clouds 10 1025 81 10000 2.1 330 23:28 12.03.2020
6542 Clouds 10 1025 76 10000 1.5 310 22:57 12.03.2020
6543 Clouds 10 1024 76 10000 2.1 310 22:39 12.03.2020
6544 Clouds 11 1024 76 10000 2.1 310 22:21 12.03.2020
6545 Clouds 11 1024 76 10000 2.6 310 21:44 12.03.2020
6546 Clouds 11 1024 76 10000 2.6 310 21:26 12.03.2020
6547 Clouds 11 1024 76 10000 2.6 320 20:57 12.03.2020
6548 Clouds 12 1024 76 10000 2.6 310 20:38 12.03.2020
6549 Clouds 12 1023 76 10000 2.1 320 20:19 12.03.2020
6550 Clouds 12 1023 81 10000 3.6 330 19:40 12.03.2020
6551 Clouds 12 1023 71 10000 4.6 330 19:20 12.03.2020
6552 Clouds 13 1023 67 10000 4.1 320 18:44 12.03.2020
6553 Clouds 13 1022 62 10000 4.1 320 18:24 12.03.2020
6554 Clouds 13 1022 62 10000 4.1 320 17:57 12.03.2020
6555 Clouds 14 1022 67 10000 4.1 300 17:38 12.03.2020
6556 Clouds 14 1022 62 10000 5.1 310 17:19 12.03.2020
6557 Clouds 14 1022 62 10000 5.1 310 16:55 12.03.2020
6558 Clouds 14 1022 62 10000 4.1 310 16:37 12.03.2020
6559 Clouds 14 1022 72 10000 3.1 290 16:18 12.03.2020
6560 Clouds 14 1022 76 10000 4.1 290 15:44 12.03.2020
6561 Clouds 14 1022 76 10000 4.1 290 15:26 12.03.2020
6562 Rain 14 1023 93 10000 4.6 300 14:40 12.03.2020
6563 Rain 14 1023 93 10000 4.6 300 14:21 12.03.2020
6564 Clouds 15 1023 77 10000 5.1 260 13:42 12.03.2020
6565 Clouds 14 1023 77 10000 5.1 260 13:23 12.03.2020
6566 Rain 14 1023 82 10000 5.1 250 12:56 12.03.2020
6567 Rain 14 1023 82 10000 5.1 250 12:38 12.03.2020
6568 Rain 14 1023 87 10000 3.6 260 12:20 12.03.2020
6569 Rain 14 1023 87 10000 3.6 260 11:56 12.03.2020
6570 Rain 13 1023 93 10000 3.1 230 11:37 12.03.2020
6571 Clouds 13 1023 93 10000 3.6 230 11:19 12.03.2020
6572 Clouds 12 1023 93 10000 3.6 230 10:57 12.03.2020
6573 Clouds 12 1023 93 10000 3.1 220 10:57 12.03.2020
6574 Clouds 12 1023 93 10000 3.1 220 10:39 12.03.2020
6575 Clouds 12 1023 93 10000 3.1 220 10:21 12.03.2020
6576 Clouds 11 1023 100 10000 3.1 220 09:43 12.03.2020
6577 Clouds 11 1023 100 10000 3.1 220 09:43 12.03.2020
6578 Clouds 10 1023 100 10000 3.1 220 09:25 12.03.2020
6579 Clouds 10 1023 93 10000 1.5 220 08:41 12.03.2020
6580 Clouds 9 1023 93 10000 1.5 220 08:20 12.03.2020
6581 Clouds 9 1022 100 10000 1.5 200 07:53 12.03.2020
6582 Clouds 8 1022 100 9000 1 210 07:23 12.03.2020
6583 Fog 8 1022 100 1700 1 230 06:52 12.03.2020
6584 Fog 8 1021 93 1100 1.61 244 05:43 12.03.2020
6585 Fog 8 1021 93 1600 1.53 222 05:21 12.03.2020
6586 Clouds 9 1022 100 10000 1.5 240 02:38 12.03.2020
6587 Clouds 9 1022 93 10000 0.82 275 01:31 12.03.2020
6588 Clouds 10 1023 93 10000 1.5 330 00:44 12.03.2020
6589 Clouds 10 1023 93 10000 1.5 330 00:26 12.03.2020
6590 Clear 10 1022 93 10000 0.82 275 23:45 11.03.2020
6591 Clear 10 1022 93 10000 1.5 180 23:24 11.03.2020
6592 Clear 11 1022 87 10000 2.6 160 22:48 11.03.2020
6593 Clear 11 1022 87 10000 2.6 160 22:29 11.03.2020
6594 Clear 11 1022 93 10000 2.1 140 21:59 11.03.2020
6595 Clear 11 1022 87 10000 3.1 150 21:41 11.03.2020
6596 Clear 11 1022 87 10000 3.1 150 21:22 11.03.2020
6597 Clear 12 1022 87 10000 2.6 140 21:22 11.03.2020
6598 Clear 12 1022 87 10000 2.6 140 20:58 11.03.2020
6599 Clouds 12 1022 82 10000 2.6 140 20:39 11.03.2020
6600 Clouds 13 1022 82 10000 2.6 150 20:19 11.03.2020
6601 Clouds 13 1022 82 10000 3.1 130 19:44 11.03.2020
6602 Clouds 14 1022 82 10000 3.1 130 19:25 11.03.2020
6603 Clouds 14 1022 77 10000 2.6 150 18:58 11.03.2020
6604 Clouds 15 1022 77 10000 2.53 325 18:39 11.03.2020
6605 Clouds 15 1022 82 10000 2.53 325 18:20 11.03.2020
6606 Clouds 15 1022 82 10000 0.5 0 17:56 11.03.2020
6607 Clouds 15 1022 82 10000 0.5 0 17:37 11.03.2020
6608 Clouds 16 1022 82 10000 1 0 17:19 11.03.2020
6609 Clouds 16 1023 82 10000 1.5 250 16:45 11.03.2020
6610 Clouds 15 1023 82 10000 1.5 250 16:21 11.03.2020
6611 Clouds 15 1023 82 10000 1.5 250 15:44 11.03.2020
6612 Clouds 15 1023 82 10000 1.5 250 15:23 11.03.2020
6613 Clouds 15 1024 82 10000 2.1 250 14:56 11.03.2020
6614 Clouds 15 1024 82 10000 2.6 240 14:38 11.03.2020
6615 Clouds 15 1024 82 10000 2.6 240 14:19 11.03.2020
6616 Clouds 15 1025 87 10000 3.1 210 13:44 11.03.2020
6617 Clouds 15 1025 87 10000 3.1 210 13:25 11.03.2020
6618 Clouds 15 1025 87 10000 2.6 210 12:57 11.03.2020
6619 Clouds 14 1025 87 10000 2.6 210 12:39 11.03.2020
6620 Clouds 14 1025 82 10000 3.1 210 12:19 11.03.2020
6621 Clouds 14 1025 82 10000 3.1 220 11:41 11.03.2020
6622 Clouds 14 1025 82 10000 3.1 220 11:22 11.03.2020
6623 Clouds 13 1025 87 10000 3.6 230 10:49 11.03.2020
6624 Clouds 13 1025 87 10000 3.6 210 10:21 11.03.2020
6625 Clouds 13 1025 87 10000 3.6 210 10:00 11.03.2020
6626 Clouds 12 1025 93 10000 3.1 220 09:41 11.03.2020
6627 Clouds 12 1025 93 10000 3.1 220 09:22 11.03.2020
6628 Clouds 12 1025 93 10000 3.1 220 09:22 11.03.2020
6629 Clouds 11 1025 93 10000 2.6 230 08:44 11.03.2020
6630 Clouds 11 1025 100 10000 3.6 240 08:26 11.03.2020
6631 Clouds 11 1025 100 10000 3.6 240 07:48 11.03.2020
6632 Clouds 11 1025 100 10000 3.6 240 07:22 11.03.2020
6633 Clouds 11 1025 100 10000 3.6 250 06:53 11.03.2020
6634 Clouds 11 1025 100 6000 3.6 230 06:33 11.03.2020
6635 Clouds 11 1025 100 10000 3.6 250 05:33 11.03.2020
6636 Clouds 11 1025 100 10000 3.6 240 03:26 11.03.2020
6637 Clouds 12 1026 93 6000 5.1 250 01:54 11.03.2020
6638 Clouds 12 1026 93 7000 4.6 230 01:24 11.03.2020
6639 Clouds 12 1026 93 7000 4.6 240 00:40 11.03.2020
6640 Drizzle 12 1026 93 4600 4.1 240 23:50 10.03.2020
6641 Clouds 12 1026 93 10000 4.1 240 23:28 10.03.2020
6642 Clouds 12 1026 93 8000 3.6 240 22:58 10.03.2020
6643 Clouds 12 1026 93 10000 3.1 250 22:37 10.03.2020
6644 Clouds 12 1026 93 10000 3.1 250 22:19 10.03.2020
6645 Clouds 12 1025 93 10000 3.6 240 21:56 10.03.2020
6646 Drizzle 12 1026 93 7000 4.6 240 21:38 10.03.2020
6647 Drizzle 12 1026 93 7000 4.6 240 21:18 10.03.2020
6648 Rain 12 1025 93 8000 3.6 250 20:42 10.03.2020
6649 Rain 12 1025 93 8000 3.6 250 20:20 10.03.2020
6650 Drizzle 12 1025 93 6000 5.1 240 19:58 10.03.2020
6651 Clouds 12 1025 93 10000 4.6 240 19:40 10.03.2020
6652 Clouds 12 1025 93 10000 4.6 250 19:22 10.03.2020
6653 Clouds 12 1025 93 10000 4.6 250 18:56 10.03.2020
6654 Clouds 12 1025 87 10000 4.1 240 18:37 10.03.2020
6655 Drizzle 13 1025 87 10000 5.1 270 18:18 10.03.2020
6656 Clouds 13 1025 82 10000 5.1 270 17:41 10.03.2020
6657 Clouds 13 1025 82 10000 5.7 260 17:22 10.03.2020
6658 Clouds 13 1025 82 10000 5.7 260 16:54 10.03.2020
6659 Clouds 14 1025 76 10000 6.2 270 16:36 10.03.2020
6660 Clouds 14 1025 71 10000 5.1 270 16:18 10.03.2020
6661 Clouds 14 1024 71 10000 7.2 270 15:41 10.03.2020
6662 Clouds 14 1025 76 10000 6.2 270 15:20 10.03.2020
6663 Clouds 14 1025 76 10000 6.2 270 14:57 10.03.2020
6664 Clouds 14 1025 82 10000 5.7 280 14:39 10.03.2020
6665 Clouds 14 1025 82 10000 5.7 280 14:18 10.03.2020
6666 Clouds 14 1025 76 10000 6.2 260 13:43 10.03.2020
6667 Clouds 14 1025 76 10000 6.2 260 13:25 10.03.2020
6668 Clouds 14 1025 71 10000 7.2 280 12:42 10.03.2020
6669 Clouds 14 1025 76 10000 7.7 270 12:21 10.03.2020
6670 Clouds 14 1025 76 10000 7.7 270 11:59 10.03.2020
6671 Clouds 13 1025 82 10000 7.7 260 11:41 10.03.2020
6672 Clouds 13 1024 82 10000 7.2 250 11:23 10.03.2020
6673 Clouds 13 1024 82 10000 7.2 250 10:54 10.03.2020
6674 Clouds 12 1025 87 10000 6.2 250 10:36 10.03.2020
6675 Clouds 12 1024 93 10000 5.7 250 10:18 10.03.2020
6676 Clouds 11 1024 100 10000 4.6 230 09:44 10.03.2020
6677 Clouds 11 1024 93 9000 3.6 220 09:20 10.03.2020
6678 Clouds 11 1024 93 9000 3.6 220 08:53 10.03.2020
6679 Clouds 11 1024 93 10000 3.6 210 08:34 10.03.2020
6680 Clouds 10 1024 100 9000 3.6 220 07:53 10.03.2020
6681 Clouds 10 1024 100 10000 3.6 230 07:35 10.03.2020
6682 Clouds 10 1024 93 7000 4.1 210 06:57 10.03.2020
6683 Clouds 10 1024 93 9000 3.6 210 06:37 10.03.2020
6684 Clouds 10 1024 93 9000 3.6 210 05:42 10.03.2020
6685 Clouds 10 1024 93 8000 3.6 220 04:56 10.03.2020
6686 Clouds 10 1024